<?xml version="1.0" encoding="UTF-8" standalone="no" ?>
<gpx xmlns="http://www.topografix.com/GPX/1/1" xmlns:xsi="http://www.w3.org/2001/XMLSchema-instance" xsi:schemaLocation="http://www.topografix.com/GPX/1/1 http://www.topografix.com/GPX/1/1/gpx.xsd" version="1.1" creator="VisuGPX - https://www.visugpx.com">
  <metadata>
    <name>2018-03-13 Bike ride-Ambérieux-Rancé O 34km</name>
    <desc><![CDATA[2018-03-13 Bike ride-Ambérieux-Rancé O 34km]]></desc>
  </metadata>
  <wpt lat="45.92456" lon="4.73732">
    <ele>174</ele>
    <name><![CDATA[2018-03-13 10:30 (Start)]]></name>
  </wpt>
  <wpt lat="45.92461" lon="4.73712">
    <ele>174</ele>
    <name><![CDATA[2018-03-13 10:30 (End)]]></name>
  </wpt>
  <trk>
    <name><![CDATA[2018-03-13 10:30]]></name>
    <trkseg>
      <trkpt lat="45.92456" lon="4.73732">
        <ele>174</ele>
        <time>2018-03-13T09:30:22.4Z</time>
      </trkpt>
      <trkpt lat="45.92452" lon="4.7374">
        <ele>174</ele>
        <time>2018-03-13T09:30:27Z</time>
      </trkpt>
      <trkpt lat="45.9245" lon="4.73745">
        <ele>174</ele>
        <time>2018-03-13T09:30:28Z</time>
      </trkpt>
      <trkpt lat="45.9245" lon="4.73733">
        <ele>174</ele>
        <time>2018-03-13T09:30:30Z</time>
      </trkpt>
      <trkpt lat="45.92451" lon="4.73727">
        <ele>174</ele>
        <time>2018-03-13T09:30:31Z</time>
      </trkpt>
      <trkpt lat="45.92453" lon="4.73717">
        <ele>174</ele>
        <time>2018-03-13T09:30:33Z</time>
      </trkpt>
      <trkpt lat="45.92454" lon="4.73714">
        <ele>174</ele>
        <time>2018-03-13T09:30:34Z</time>
      </trkpt>
      <trkpt lat="45.9246" lon="4.73707">
        <ele>174</ele>
        <time>2018-03-13T09:30:49Z</time>
      </trkpt>
      <trkpt lat="45.92462" lon="4.73706">
        <ele>174</ele>
        <time>2018-03-13T09:30:50Z</time>
      </trkpt>
      <trkpt lat="45.92464" lon="4.73695">
        <ele>174</ele>
        <time>2018-03-13T09:30:54Z</time>
      </trkpt>
      <trkpt lat="45.92464" lon="4.73691">
        <ele>174</ele>
        <time>2018-03-13T09:30:55Z</time>
      </trkpt>
      <trkpt lat="45.92465" lon="4.73679">
        <ele>174</ele>
        <time>2018-03-13T09:30:58Z</time>
      </trkpt>
      <trkpt lat="45.92466" lon="4.73674">
        <ele>174</ele>
        <time>2018-03-13T09:30:59Z</time>
      </trkpt>
      <trkpt lat="45.92467" lon="4.73665">
        <ele>174</ele>
        <time>2018-03-13T09:31:01Z</time>
      </trkpt>
      <trkpt lat="45.92468" lon="4.7366">
        <ele>174</ele>
        <time>2018-03-13T09:31:02Z</time>
      </trkpt>
      <trkpt lat="45.92469" lon="4.73652">
        <ele>174</ele>
        <time>2018-03-13T09:31:04Z</time>
      </trkpt>
      <trkpt lat="45.92473" lon="4.7364">
        <ele>174</ele>
        <time>2018-03-13T09:31:05Z</time>
      </trkpt>
      <trkpt lat="45.92477" lon="4.73637">
        <ele>174</ele>
        <time>2018-03-13T09:31:07Z</time>
      </trkpt>
      <trkpt lat="45.92483" lon="4.73635">
        <ele>174</ele>
        <time>2018-03-13T09:31:08Z</time>
      </trkpt>
      <trkpt lat="45.92488" lon="4.73636">
        <ele>174</ele>
        <time>2018-03-13T09:31:10Z</time>
      </trkpt>
      <trkpt lat="45.92495" lon="4.73637">
        <ele>174</ele>
        <time>2018-03-13T09:31:11Z</time>
      </trkpt>
      <trkpt lat="45.92503" lon="4.73638">
        <ele>174</ele>
        <time>2018-03-13T09:31:13Z</time>
      </trkpt>
      <trkpt lat="45.92507" lon="4.73638">
        <ele>174</ele>
        <time>2018-03-13T09:31:14Z</time>
      </trkpt>
      <trkpt lat="45.92515" lon="4.73638">
        <ele>173</ele>
        <time>2018-03-13T09:31:16Z</time>
      </trkpt>
      <trkpt lat="45.92519" lon="4.73638">
        <ele>173</ele>
        <time>2018-03-13T09:31:17Z</time>
      </trkpt>
      <trkpt lat="45.92528" lon="4.73638">
        <ele>173</ele>
        <time>2018-03-13T09:31:19Z</time>
      </trkpt>
      <trkpt lat="45.92532" lon="4.73638">
        <ele>173</ele>
        <time>2018-03-13T09:31:20Z</time>
      </trkpt>
      <trkpt lat="45.9254" lon="4.73637">
        <ele>173</ele>
        <time>2018-03-13T09:31:22Z</time>
      </trkpt>
      <trkpt lat="45.92545" lon="4.73636">
        <ele>173</ele>
        <time>2018-03-13T09:31:23Z</time>
      </trkpt>
      <trkpt lat="45.92552" lon="4.73634">
        <ele>173</ele>
        <time>2018-03-13T09:31:25Z</time>
      </trkpt>
      <trkpt lat="45.92557" lon="4.73633">
        <ele>173</ele>
        <time>2018-03-13T09:31:26Z</time>
      </trkpt>
      <trkpt lat="45.92562" lon="4.73631">
        <ele>173</ele>
        <time>2018-03-13T09:31:27Z</time>
      </trkpt>
      <trkpt lat="45.92566" lon="4.7363">
        <ele>173</ele>
        <time>2018-03-13T09:31:28Z</time>
      </trkpt>
      <trkpt lat="45.92572" lon="4.73627">
        <ele>173</ele>
        <time>2018-03-13T09:31:30Z</time>
      </trkpt>
      <trkpt lat="45.92578" lon="4.73627">
        <ele>173</ele>
        <time>2018-03-13T09:31:31Z</time>
      </trkpt>
      <trkpt lat="45.92583" lon="4.73626">
        <ele>173</ele>
        <time>2018-03-13T09:31:32Z</time>
      </trkpt>
      <trkpt lat="45.92588" lon="4.73625">
        <ele>172</ele>
        <time>2018-03-13T09:31:33Z</time>
      </trkpt>
      <trkpt lat="45.92593" lon="4.73626">
        <ele>172</ele>
        <time>2018-03-13T09:31:34Z</time>
      </trkpt>
      <trkpt lat="45.92598" lon="4.73626">
        <ele>173</ele>
        <time>2018-03-13T09:31:35Z</time>
      </trkpt>
      <trkpt lat="45.92602" lon="4.73626">
        <ele>173</ele>
        <time>2018-03-13T09:31:36Z</time>
      </trkpt>
      <trkpt lat="45.92608" lon="4.73628">
        <ele>173</ele>
        <time>2018-03-13T09:31:37Z</time>
      </trkpt>
      <trkpt lat="45.92612" lon="4.7363">
        <ele>173</ele>
        <time>2018-03-13T09:31:38Z</time>
      </trkpt>
      <trkpt lat="45.92617" lon="4.73635">
        <ele>173</ele>
        <time>2018-03-13T09:31:39Z</time>
      </trkpt>
      <trkpt lat="45.9262" lon="4.7364">
        <ele>173</ele>
        <time>2018-03-13T09:31:40Z</time>
      </trkpt>
      <trkpt lat="45.92623" lon="4.73646">
        <ele>173</ele>
        <time>2018-03-13T09:31:41Z</time>
      </trkpt>
      <trkpt lat="45.92625" lon="4.73651">
        <ele>173</ele>
        <time>2018-03-13T09:31:42Z</time>
      </trkpt>
      <trkpt lat="45.92628" lon="4.73657">
        <ele>173</ele>
        <time>2018-03-13T09:31:43Z</time>
      </trkpt>
      <trkpt lat="45.92631" lon="4.73663">
        <ele>173</ele>
        <time>2018-03-13T09:31:44Z</time>
      </trkpt>
      <trkpt lat="45.92633" lon="4.73669">
        <ele>173</ele>
        <time>2018-03-13T09:31:45Z</time>
      </trkpt>
      <trkpt lat="45.92637" lon="4.73674">
        <ele>173</ele>
        <time>2018-03-13T09:31:46Z</time>
      </trkpt>
      <trkpt lat="45.9264" lon="4.7368">
        <ele>173</ele>
        <time>2018-03-13T09:31:47Z</time>
      </trkpt>
      <trkpt lat="45.92645" lon="4.73685">
        <ele>173</ele>
        <time>2018-03-13T09:31:48Z</time>
      </trkpt>
      <trkpt lat="45.92648" lon="4.73691">
        <ele>173</ele>
        <time>2018-03-13T09:31:49Z</time>
      </trkpt>
      <trkpt lat="45.92653" lon="4.73695">
        <ele>173</ele>
        <time>2018-03-13T09:31:50Z</time>
      </trkpt>
      <trkpt lat="45.92658" lon="4.73698">
        <ele>173</ele>
        <time>2018-03-13T09:31:51Z</time>
      </trkpt>
      <trkpt lat="45.92662" lon="4.73702">
        <ele>173</ele>
        <time>2018-03-13T09:31:52Z</time>
      </trkpt>
      <trkpt lat="45.92667" lon="4.73704">
        <ele>174</ele>
        <time>2018-03-13T09:31:53Z</time>
      </trkpt>
      <trkpt lat="45.92672" lon="4.73706">
        <ele>174</ele>
        <time>2018-03-13T09:31:54Z</time>
      </trkpt>
      <trkpt lat="45.92677" lon="4.73708">
        <ele>173</ele>
        <time>2018-03-13T09:31:55Z</time>
      </trkpt>
      <trkpt lat="45.92683" lon="4.7371">
        <ele>173</ele>
        <time>2018-03-13T09:31:56Z</time>
      </trkpt>
      <trkpt lat="45.92688" lon="4.73712">
        <ele>173</ele>
        <time>2018-03-13T09:31:57Z</time>
      </trkpt>
      <trkpt lat="45.92694" lon="4.73712">
        <ele>173</ele>
        <time>2018-03-13T09:31:58Z</time>
      </trkpt>
      <trkpt lat="45.927" lon="4.73714">
        <ele>173</ele>
        <time>2018-03-13T09:31:59Z</time>
      </trkpt>
      <trkpt lat="45.92706" lon="4.73714">
        <ele>173</ele>
        <time>2018-03-13T09:32:00Z</time>
      </trkpt>
      <trkpt lat="45.92712" lon="4.73716">
        <ele>173</ele>
        <time>2018-03-13T09:32:01Z</time>
      </trkpt>
      <trkpt lat="45.92718" lon="4.73717">
        <ele>173</ele>
        <time>2018-03-13T09:32:02Z</time>
      </trkpt>
      <trkpt lat="45.92724" lon="4.73718">
        <ele>173</ele>
        <time>2018-03-13T09:32:03Z</time>
      </trkpt>
      <trkpt lat="45.92729" lon="4.7372">
        <ele>173</ele>
        <time>2018-03-13T09:32:04Z</time>
      </trkpt>
      <trkpt lat="45.92734" lon="4.73721">
        <ele>173</ele>
        <time>2018-03-13T09:32:05Z</time>
      </trkpt>
      <trkpt lat="45.92739" lon="4.73723">
        <ele>173</ele>
        <time>2018-03-13T09:32:06Z</time>
      </trkpt>
      <trkpt lat="45.92745" lon="4.73724">
        <ele>173</ele>
        <time>2018-03-13T09:32:07Z</time>
      </trkpt>
      <trkpt lat="45.92752" lon="4.73725">
        <ele>172</ele>
        <time>2018-03-13T09:32:09Z</time>
      </trkpt>
      <trkpt lat="45.92757" lon="4.73727">
        <ele>172</ele>
        <time>2018-03-13T09:32:10Z</time>
      </trkpt>
      <trkpt lat="45.92762" lon="4.73728">
        <ele>172</ele>
        <time>2018-03-13T09:32:11Z</time>
      </trkpt>
      <trkpt lat="45.92766" lon="4.73731">
        <ele>172</ele>
        <time>2018-03-13T09:32:12Z</time>
      </trkpt>
      <trkpt lat="45.92771" lon="4.73733">
        <ele>172</ele>
        <time>2018-03-13T09:32:13Z</time>
      </trkpt>
      <trkpt lat="45.92775" lon="4.73738">
        <ele>172</ele>
        <time>2018-03-13T09:32:14Z</time>
      </trkpt>
      <trkpt lat="45.92781" lon="4.73746">
        <ele>172</ele>
        <time>2018-03-13T09:32:16Z</time>
      </trkpt>
      <trkpt lat="45.92784" lon="4.7375">
        <ele>173</ele>
        <time>2018-03-13T09:32:17Z</time>
      </trkpt>
      <trkpt lat="45.92789" lon="4.7376">
        <ele>173</ele>
        <time>2018-03-13T09:32:19Z</time>
      </trkpt>
      <trkpt lat="45.92795" lon="4.73763">
        <ele>173</ele>
        <time>2018-03-13T09:32:20Z</time>
      </trkpt>
      <trkpt lat="45.92799" lon="4.73766">
        <ele>173</ele>
        <time>2018-03-13T09:32:21Z</time>
      </trkpt>
      <trkpt lat="45.92804" lon="4.73769">
        <ele>173</ele>
        <time>2018-03-13T09:32:22Z</time>
      </trkpt>
      <trkpt lat="45.92809" lon="4.73772">
        <ele>173</ele>
        <time>2018-03-13T09:32:23Z</time>
      </trkpt>
      <trkpt lat="45.92814" lon="4.73775">
        <ele>173</ele>
        <time>2018-03-13T09:32:24Z</time>
      </trkpt>
      <trkpt lat="45.9282" lon="4.73778">
        <ele>173</ele>
        <time>2018-03-13T09:32:25Z</time>
      </trkpt>
      <trkpt lat="45.92825" lon="4.73782">
        <ele>173</ele>
        <time>2018-03-13T09:32:26Z</time>
      </trkpt>
      <trkpt lat="45.92831" lon="4.73785">
        <ele>173</ele>
        <time>2018-03-13T09:32:27Z</time>
      </trkpt>
      <trkpt lat="45.92837" lon="4.73789">
        <ele>173</ele>
        <time>2018-03-13T09:32:28Z</time>
      </trkpt>
      <trkpt lat="45.92842" lon="4.73794">
        <ele>173</ele>
        <time>2018-03-13T09:32:29Z</time>
      </trkpt>
      <trkpt lat="45.92847" lon="4.73799">
        <ele>173</ele>
        <time>2018-03-13T09:32:30Z</time>
      </trkpt>
      <trkpt lat="45.92851" lon="4.73805">
        <ele>173</ele>
        <time>2018-03-13T09:32:31Z</time>
      </trkpt>
      <trkpt lat="45.92854" lon="4.73812">
        <ele>173</ele>
        <time>2018-03-13T09:32:32Z</time>
      </trkpt>
      <trkpt lat="45.92856" lon="4.7382">
        <ele>173</ele>
        <time>2018-03-13T09:32:33Z</time>
      </trkpt>
      <trkpt lat="45.92859" lon="4.73827">
        <ele>173</ele>
        <time>2018-03-13T09:32:34Z</time>
      </trkpt>
      <trkpt lat="45.9286" lon="4.73835">
        <ele>173</ele>
        <time>2018-03-13T09:32:35Z</time>
      </trkpt>
      <trkpt lat="45.92862" lon="4.73842">
        <ele>173</ele>
        <time>2018-03-13T09:32:36Z</time>
      </trkpt>
      <trkpt lat="45.92864" lon="4.73851">
        <ele>173</ele>
        <time>2018-03-13T09:32:37Z</time>
      </trkpt>
      <trkpt lat="45.92867" lon="4.73858">
        <ele>173</ele>
        <time>2018-03-13T09:32:38Z</time>
      </trkpt>
      <trkpt lat="45.9287" lon="4.73867">
        <ele>173</ele>
        <time>2018-03-13T09:32:39Z</time>
      </trkpt>
      <trkpt lat="45.92872" lon="4.73874">
        <ele>173</ele>
        <time>2018-03-13T09:32:40Z</time>
      </trkpt>
      <trkpt lat="45.92873" lon="4.73881">
        <ele>173</ele>
        <time>2018-03-13T09:32:41Z</time>
      </trkpt>
      <trkpt lat="45.92875" lon="4.73887">
        <ele>173</ele>
        <time>2018-03-13T09:32:42Z</time>
      </trkpt>
      <trkpt lat="45.92876" lon="4.73896">
        <ele>173</ele>
        <time>2018-03-13T09:32:43Z</time>
      </trkpt>
      <trkpt lat="45.92877" lon="4.73903">
        <ele>173</ele>
        <time>2018-03-13T09:32:44Z</time>
      </trkpt>
      <trkpt lat="45.92879" lon="4.73911">
        <ele>173</ele>
        <time>2018-03-13T09:32:45Z</time>
      </trkpt>
      <trkpt lat="45.92879" lon="4.73918">
        <ele>172</ele>
        <time>2018-03-13T09:32:46Z</time>
      </trkpt>
      <trkpt lat="45.9288" lon="4.73926">
        <ele>172</ele>
        <time>2018-03-13T09:32:47Z</time>
      </trkpt>
      <trkpt lat="45.9288" lon="4.73934">
        <ele>172</ele>
        <time>2018-03-13T09:32:48Z</time>
      </trkpt>
      <trkpt lat="45.92881" lon="4.73943">
        <ele>172</ele>
        <time>2018-03-13T09:32:49Z</time>
      </trkpt>
      <trkpt lat="45.92881" lon="4.7395">
        <ele>172</ele>
        <time>2018-03-13T09:32:50Z</time>
      </trkpt>
      <trkpt lat="45.92881" lon="4.73958">
        <ele>172</ele>
        <time>2018-03-13T09:32:51Z</time>
      </trkpt>
      <trkpt lat="45.92881" lon="4.73965">
        <ele>172</ele>
        <time>2018-03-13T09:32:52Z</time>
      </trkpt>
      <trkpt lat="45.92879" lon="4.73973">
        <ele>172</ele>
        <time>2018-03-13T09:32:53Z</time>
      </trkpt>
      <trkpt lat="45.92879" lon="4.7398">
        <ele>172</ele>
        <time>2018-03-13T09:32:54Z</time>
      </trkpt>
      <trkpt lat="45.92878" lon="4.73988">
        <ele>172</ele>
        <time>2018-03-13T09:32:55Z</time>
      </trkpt>
      <trkpt lat="45.92876" lon="4.73994">
        <ele>172</ele>
        <time>2018-03-13T09:32:56Z</time>
      </trkpt>
      <trkpt lat="45.92874" lon="4.74001">
        <ele>172</ele>
        <time>2018-03-13T09:32:57Z</time>
      </trkpt>
      <trkpt lat="45.92873" lon="4.74007">
        <ele>172</ele>
        <time>2018-03-13T09:32:58Z</time>
      </trkpt>
      <trkpt lat="45.92872" lon="4.74014">
        <ele>172</ele>
        <time>2018-03-13T09:32:59Z</time>
      </trkpt>
      <trkpt lat="45.92871" lon="4.74021">
        <ele>172</ele>
        <time>2018-03-13T09:33:00Z</time>
      </trkpt>
      <trkpt lat="45.92869" lon="4.74028">
        <ele>172</ele>
        <time>2018-03-13T09:33:01Z</time>
      </trkpt>
      <trkpt lat="45.92867" lon="4.74036">
        <ele>172</ele>
        <time>2018-03-13T09:33:02Z</time>
      </trkpt>
      <trkpt lat="45.92864" lon="4.74043">
        <ele>172</ele>
        <time>2018-03-13T09:33:03Z</time>
      </trkpt>
      <trkpt lat="45.9286" lon="4.74048">
        <ele>172</ele>
        <time>2018-03-13T09:33:04Z</time>
      </trkpt>
      <trkpt lat="45.92856" lon="4.74054">
        <ele>172</ele>
        <time>2018-03-13T09:33:05Z</time>
      </trkpt>
      <trkpt lat="45.92851" lon="4.7406">
        <ele>172</ele>
        <time>2018-03-13T09:33:06Z</time>
      </trkpt>
      <trkpt lat="45.92847" lon="4.74065">
        <ele>172</ele>
        <time>2018-03-13T09:33:07Z</time>
      </trkpt>
      <trkpt lat="45.92842" lon="4.7407">
        <ele>172</ele>
        <time>2018-03-13T09:33:08Z</time>
      </trkpt>
      <trkpt lat="45.92838" lon="4.74076">
        <ele>171</ele>
        <time>2018-03-13T09:33:09Z</time>
      </trkpt>
      <trkpt lat="45.92833" lon="4.74082">
        <ele>171</ele>
        <time>2018-03-13T09:33:10Z</time>
      </trkpt>
      <trkpt lat="45.92828" lon="4.74088">
        <ele>171</ele>
        <time>2018-03-13T09:33:11Z</time>
      </trkpt>
      <trkpt lat="45.92824" lon="4.74093">
        <ele>171</ele>
        <time>2018-03-13T09:33:12Z</time>
      </trkpt>
      <trkpt lat="45.92819" lon="4.74098">
        <ele>171</ele>
        <time>2018-03-13T09:33:13Z</time>
      </trkpt>
      <trkpt lat="45.92814" lon="4.74103">
        <ele>172</ele>
        <time>2018-03-13T09:33:14Z</time>
      </trkpt>
      <trkpt lat="45.92809" lon="4.74109">
        <ele>172</ele>
        <time>2018-03-13T09:33:15Z</time>
      </trkpt>
      <trkpt lat="45.92804" lon="4.74114">
        <ele>172</ele>
        <time>2018-03-13T09:33:16Z</time>
      </trkpt>
      <trkpt lat="45.928" lon="4.74119">
        <ele>172</ele>
        <time>2018-03-13T09:33:17Z</time>
      </trkpt>
      <trkpt lat="45.92795" lon="4.74125">
        <ele>172</ele>
        <time>2018-03-13T09:33:18Z</time>
      </trkpt>
      <trkpt lat="45.9279" lon="4.74129">
        <ele>172</ele>
        <time>2018-03-13T09:33:19Z</time>
      </trkpt>
      <trkpt lat="45.92785" lon="4.74134">
        <ele>172</ele>
        <time>2018-03-13T09:33:20Z</time>
      </trkpt>
      <trkpt lat="45.92781" lon="4.74139">
        <ele>172</ele>
        <time>2018-03-13T09:33:21Z</time>
      </trkpt>
      <trkpt lat="45.92776" lon="4.74144">
        <ele>172</ele>
        <time>2018-03-13T09:33:22Z</time>
      </trkpt>
      <trkpt lat="45.92771" lon="4.74149">
        <ele>172</ele>
        <time>2018-03-13T09:33:23Z</time>
      </trkpt>
      <trkpt lat="45.92766" lon="4.74154">
        <ele>172</ele>
        <time>2018-03-13T09:33:24Z</time>
      </trkpt>
      <trkpt lat="45.92761" lon="4.74159">
        <ele>172</ele>
        <time>2018-03-13T09:33:25Z</time>
      </trkpt>
      <trkpt lat="45.92757" lon="4.74164">
        <ele>172</ele>
        <time>2018-03-13T09:33:26Z</time>
      </trkpt>
      <trkpt lat="45.92752" lon="4.7417">
        <ele>172</ele>
        <time>2018-03-13T09:33:27Z</time>
      </trkpt>
      <trkpt lat="45.92747" lon="4.74177">
        <ele>172</ele>
        <time>2018-03-13T09:33:28Z</time>
      </trkpt>
      <trkpt lat="45.92743" lon="4.74182">
        <ele>172</ele>
        <time>2018-03-13T09:33:29Z</time>
      </trkpt>
      <trkpt lat="45.92737" lon="4.74187">
        <ele>172</ele>
        <time>2018-03-13T09:33:30Z</time>
      </trkpt>
      <trkpt lat="45.92733" lon="4.74194">
        <ele>171</ele>
        <time>2018-03-13T09:33:31Z</time>
      </trkpt>
      <trkpt lat="45.92729" lon="4.74199">
        <ele>171</ele>
        <time>2018-03-13T09:33:32Z</time>
      </trkpt>
      <trkpt lat="45.92725" lon="4.74205">
        <ele>171</ele>
        <time>2018-03-13T09:33:33Z</time>
      </trkpt>
      <trkpt lat="45.92721" lon="4.74211">
        <ele>171</ele>
        <time>2018-03-13T09:33:34Z</time>
      </trkpt>
      <trkpt lat="45.92718" lon="4.74216">
        <ele>171</ele>
        <time>2018-03-13T09:33:35Z</time>
      </trkpt>
      <trkpt lat="45.92714" lon="4.74222">
        <ele>171</ele>
        <time>2018-03-13T09:33:36Z</time>
      </trkpt>
      <trkpt lat="45.9271" lon="4.74228">
        <ele>171</ele>
        <time>2018-03-13T09:33:37Z</time>
      </trkpt>
      <trkpt lat="45.92705" lon="4.74234">
        <ele>171</ele>
        <time>2018-03-13T09:33:38Z</time>
      </trkpt>
      <trkpt lat="45.92701" lon="4.74241">
        <ele>171</ele>
        <time>2018-03-13T09:33:39Z</time>
      </trkpt>
      <trkpt lat="45.92698" lon="4.74246">
        <ele>171</ele>
        <time>2018-03-13T09:33:40Z</time>
      </trkpt>
      <trkpt lat="45.92694" lon="4.74254">
        <ele>171</ele>
        <time>2018-03-13T09:33:41Z</time>
      </trkpt>
      <trkpt lat="45.9269" lon="4.7426">
        <ele>171</ele>
        <time>2018-03-13T09:33:42Z</time>
      </trkpt>
      <trkpt lat="45.92686" lon="4.74266">
        <ele>171</ele>
        <time>2018-03-13T09:33:43Z</time>
      </trkpt>
      <trkpt lat="45.92683" lon="4.74272">
        <ele>171</ele>
        <time>2018-03-13T09:33:44Z</time>
      </trkpt>
      <trkpt lat="45.92679" lon="4.7428">
        <ele>171</ele>
        <time>2018-03-13T09:33:45Z</time>
      </trkpt>
      <trkpt lat="45.92675" lon="4.74286">
        <ele>171</ele>
        <time>2018-03-13T09:33:46Z</time>
      </trkpt>
      <trkpt lat="45.92672" lon="4.74293">
        <ele>171</ele>
        <time>2018-03-13T09:33:47Z</time>
      </trkpt>
      <trkpt lat="45.92668" lon="4.743">
        <ele>171</ele>
        <time>2018-03-13T09:33:48Z</time>
      </trkpt>
      <trkpt lat="45.92664" lon="4.74307">
        <ele>171</ele>
        <time>2018-03-13T09:33:49Z</time>
      </trkpt>
      <trkpt lat="45.92661" lon="4.74314">
        <ele>171</ele>
        <time>2018-03-13T09:33:50Z</time>
      </trkpt>
      <trkpt lat="45.92657" lon="4.7432">
        <ele>171</ele>
        <time>2018-03-13T09:33:51Z</time>
      </trkpt>
      <trkpt lat="45.92652" lon="4.74327">
        <ele>171</ele>
        <time>2018-03-13T09:33:52Z</time>
      </trkpt>
      <trkpt lat="45.92648" lon="4.74334">
        <ele>171</ele>
        <time>2018-03-13T09:33:53Z</time>
      </trkpt>
      <trkpt lat="45.92644" lon="4.74342">
        <ele>171</ele>
        <time>2018-03-13T09:33:54Z</time>
      </trkpt>
      <trkpt lat="45.92641" lon="4.74349">
        <ele>171</ele>
        <time>2018-03-13T09:33:55Z</time>
      </trkpt>
      <trkpt lat="45.92636" lon="4.74357">
        <ele>171</ele>
        <time>2018-03-13T09:33:56Z</time>
      </trkpt>
      <trkpt lat="45.92633" lon="4.74363">
        <ele>171</ele>
        <time>2018-03-13T09:33:57Z</time>
      </trkpt>
      <trkpt lat="45.92629" lon="4.74369">
        <ele>171</ele>
        <time>2018-03-13T09:33:58Z</time>
      </trkpt>
      <trkpt lat="45.92625" lon="4.74376">
        <ele>170</ele>
        <time>2018-03-13T09:33:59Z</time>
      </trkpt>
      <trkpt lat="45.92621" lon="4.74382">
        <ele>170</ele>
        <time>2018-03-13T09:34:00Z</time>
      </trkpt>
      <trkpt lat="45.92618" lon="4.74389">
        <ele>170</ele>
        <time>2018-03-13T09:34:01Z</time>
      </trkpt>
      <trkpt lat="45.92614" lon="4.74396">
        <ele>170</ele>
        <time>2018-03-13T09:34:02Z</time>
      </trkpt>
      <trkpt lat="45.9261" lon="4.74403">
        <ele>170</ele>
        <time>2018-03-13T09:34:03Z</time>
      </trkpt>
      <trkpt lat="45.92606" lon="4.7441">
        <ele>170</ele>
        <time>2018-03-13T09:34:04Z</time>
      </trkpt>
      <trkpt lat="45.92601" lon="4.74417">
        <ele>170</ele>
        <time>2018-03-13T09:34:05Z</time>
      </trkpt>
      <trkpt lat="45.92598" lon="4.74425">
        <ele>170</ele>
        <time>2018-03-13T09:34:06Z</time>
      </trkpt>
      <trkpt lat="45.92594" lon="4.74432">
        <ele>170</ele>
        <time>2018-03-13T09:34:07Z</time>
      </trkpt>
      <trkpt lat="45.9259" lon="4.74439">
        <ele>170</ele>
        <time>2018-03-13T09:34:08Z</time>
      </trkpt>
      <trkpt lat="45.92587" lon="4.74445">
        <ele>170</ele>
        <time>2018-03-13T09:34:09Z</time>
      </trkpt>
      <trkpt lat="45.92583" lon="4.74453">
        <ele>170</ele>
        <time>2018-03-13T09:34:10Z</time>
      </trkpt>
      <trkpt lat="45.92579" lon="4.74459">
        <ele>170</ele>
        <time>2018-03-13T09:34:11Z</time>
      </trkpt>
      <trkpt lat="45.92575" lon="4.74466">
        <ele>170</ele>
        <time>2018-03-13T09:34:12Z</time>
      </trkpt>
      <trkpt lat="45.92572" lon="4.74474">
        <ele>170</ele>
        <time>2018-03-13T09:34:13Z</time>
      </trkpt>
      <trkpt lat="45.92568" lon="4.74481">
        <ele>170</ele>
        <time>2018-03-13T09:34:14Z</time>
      </trkpt>
      <trkpt lat="45.92564" lon="4.74488">
        <ele>170</ele>
        <time>2018-03-13T09:34:15Z</time>
      </trkpt>
      <trkpt lat="45.9256" lon="4.74495">
        <ele>170</ele>
        <time>2018-03-13T09:34:16Z</time>
      </trkpt>
      <trkpt lat="45.92556" lon="4.74502">
        <ele>170</ele>
        <time>2018-03-13T09:34:17Z</time>
      </trkpt>
      <trkpt lat="45.92552" lon="4.74509">
        <ele>170</ele>
        <time>2018-03-13T09:34:18Z</time>
      </trkpt>
      <trkpt lat="45.92548" lon="4.74516">
        <ele>170</ele>
        <time>2018-03-13T09:34:19Z</time>
      </trkpt>
      <trkpt lat="45.92544" lon="4.74523">
        <ele>170</ele>
        <time>2018-03-13T09:34:20Z</time>
      </trkpt>
      <trkpt lat="45.9254" lon="4.74531">
        <ele>171</ele>
        <time>2018-03-13T09:34:21Z</time>
      </trkpt>
      <trkpt lat="45.92536" lon="4.74538">
        <ele>171</ele>
        <time>2018-03-13T09:34:22Z</time>
      </trkpt>
      <trkpt lat="45.92531" lon="4.74546">
        <ele>171</ele>
        <time>2018-03-13T09:34:23Z</time>
      </trkpt>
      <trkpt lat="45.92528" lon="4.74552">
        <ele>171</ele>
        <time>2018-03-13T09:34:24Z</time>
      </trkpt>
      <trkpt lat="45.92522" lon="4.74558">
        <ele>171</ele>
        <time>2018-03-13T09:34:25Z</time>
      </trkpt>
      <trkpt lat="45.92518" lon="4.74563">
        <ele>171</ele>
        <time>2018-03-13T09:34:26Z</time>
      </trkpt>
      <trkpt lat="45.92513" lon="4.74569">
        <ele>171</ele>
        <time>2018-03-13T09:34:27Z</time>
      </trkpt>
      <trkpt lat="45.92509" lon="4.74576">
        <ele>171</ele>
        <time>2018-03-13T09:34:28Z</time>
      </trkpt>
      <trkpt lat="45.92504" lon="4.74582">
        <ele>171</ele>
        <time>2018-03-13T09:34:29Z</time>
      </trkpt>
      <trkpt lat="45.925" lon="4.74587">
        <ele>171</ele>
        <time>2018-03-13T09:34:30Z</time>
      </trkpt>
      <trkpt lat="45.92495" lon="4.74593">
        <ele>171</ele>
        <time>2018-03-13T09:34:31Z</time>
      </trkpt>
      <trkpt lat="45.9249" lon="4.74598">
        <ele>171</ele>
        <time>2018-03-13T09:34:32Z</time>
      </trkpt>
      <trkpt lat="45.92486" lon="4.74605">
        <ele>171</ele>
        <time>2018-03-13T09:34:33Z</time>
      </trkpt>
      <trkpt lat="45.92481" lon="4.74611">
        <ele>171</ele>
        <time>2018-03-13T09:34:34Z</time>
      </trkpt>
      <trkpt lat="45.92476" lon="4.74617">
        <ele>171</ele>
        <time>2018-03-13T09:34:35Z</time>
      </trkpt>
      <trkpt lat="45.92472" lon="4.74623">
        <ele>171</ele>
        <time>2018-03-13T09:34:36Z</time>
      </trkpt>
      <trkpt lat="45.92467" lon="4.7463">
        <ele>171</ele>
        <time>2018-03-13T09:34:37Z</time>
      </trkpt>
      <trkpt lat="45.92463" lon="4.74636">
        <ele>171</ele>
        <time>2018-03-13T09:34:38Z</time>
      </trkpt>
      <trkpt lat="45.92459" lon="4.74643">
        <ele>171</ele>
        <time>2018-03-13T09:34:39Z</time>
      </trkpt>
      <trkpt lat="45.92455" lon="4.74649">
        <ele>171</ele>
        <time>2018-03-13T09:34:40Z</time>
      </trkpt>
      <trkpt lat="45.92451" lon="4.74658">
        <ele>171</ele>
        <time>2018-03-13T09:34:41Z</time>
      </trkpt>
      <trkpt lat="45.92446" lon="4.74665">
        <ele>171</ele>
        <time>2018-03-13T09:34:42Z</time>
      </trkpt>
      <trkpt lat="45.92441" lon="4.74669">
        <ele>171</ele>
        <time>2018-03-13T09:34:43Z</time>
      </trkpt>
      <trkpt lat="45.92439" lon="4.74677">
        <ele>171</ele>
        <time>2018-03-13T09:34:44Z</time>
      </trkpt>
      <trkpt lat="45.92434" lon="4.74685">
        <ele>171</ele>
        <time>2018-03-13T09:34:45Z</time>
      </trkpt>
      <trkpt lat="45.92431" lon="4.74694">
        <ele>171</ele>
        <time>2018-03-13T09:34:46Z</time>
      </trkpt>
      <trkpt lat="45.92427" lon="4.74701">
        <ele>171</ele>
        <time>2018-03-13T09:34:47Z</time>
      </trkpt>
      <trkpt lat="45.92424" lon="4.74709">
        <ele>171</ele>
        <time>2018-03-13T09:34:48Z</time>
      </trkpt>
      <trkpt lat="45.92422" lon="4.74718">
        <ele>171</ele>
        <time>2018-03-13T09:34:49Z</time>
      </trkpt>
      <trkpt lat="45.9242" lon="4.74726">
        <ele>171</ele>
        <time>2018-03-13T09:34:50Z</time>
      </trkpt>
      <trkpt lat="45.92418" lon="4.74735">
        <ele>171</ele>
        <time>2018-03-13T09:34:51Z</time>
      </trkpt>
      <trkpt lat="45.92416" lon="4.74744">
        <ele>172</ele>
        <time>2018-03-13T09:34:52Z</time>
      </trkpt>
      <trkpt lat="45.92415" lon="4.74753">
        <ele>172</ele>
        <time>2018-03-13T09:34:53Z</time>
      </trkpt>
      <trkpt lat="45.92412" lon="4.74763">
        <ele>172</ele>
        <time>2018-03-13T09:34:54Z</time>
      </trkpt>
      <trkpt lat="45.92409" lon="4.74772">
        <ele>171</ele>
        <time>2018-03-13T09:34:55Z</time>
      </trkpt>
      <trkpt lat="45.92406" lon="4.74783">
        <ele>171</ele>
        <time>2018-03-13T09:34:56Z</time>
      </trkpt>
      <trkpt lat="45.92404" lon="4.74793">
        <ele>171</ele>
        <time>2018-03-13T09:34:57Z</time>
      </trkpt>
      <trkpt lat="45.92402" lon="4.74803">
        <ele>171</ele>
        <time>2018-03-13T09:34:58Z</time>
      </trkpt>
      <trkpt lat="45.924" lon="4.74812">
        <ele>171</ele>
        <time>2018-03-13T09:34:59Z</time>
      </trkpt>
      <trkpt lat="45.92398" lon="4.74822">
        <ele>171</ele>
        <time>2018-03-13T09:35:00Z</time>
      </trkpt>
      <trkpt lat="45.92396" lon="4.74832">
        <ele>171</ele>
        <time>2018-03-13T09:35:01Z</time>
      </trkpt>
      <trkpt lat="45.92394" lon="4.74843">
        <ele>171</ele>
        <time>2018-03-13T09:35:02Z</time>
      </trkpt>
      <trkpt lat="45.9239" lon="4.74853">
        <ele>171</ele>
        <time>2018-03-13T09:35:03Z</time>
      </trkpt>
      <trkpt lat="45.92387" lon="4.74862">
        <ele>171</ele>
        <time>2018-03-13T09:35:04Z</time>
      </trkpt>
      <trkpt lat="45.92384" lon="4.74871">
        <ele>171</ele>
        <time>2018-03-13T09:35:05Z</time>
      </trkpt>
      <trkpt lat="45.92382" lon="4.7488">
        <ele>171</ele>
        <time>2018-03-13T09:35:06Z</time>
      </trkpt>
      <trkpt lat="45.92378" lon="4.74889">
        <ele>171</ele>
        <time>2018-03-13T09:35:07Z</time>
      </trkpt>
      <trkpt lat="45.92375" lon="4.74897">
        <ele>171</ele>
        <time>2018-03-13T09:35:08Z</time>
      </trkpt>
      <trkpt lat="45.92372" lon="4.74906">
        <ele>171</ele>
        <time>2018-03-13T09:35:09Z</time>
      </trkpt>
      <trkpt lat="45.92368" lon="4.74914">
        <ele>171</ele>
        <time>2018-03-13T09:35:10Z</time>
      </trkpt>
      <trkpt lat="45.92365" lon="4.74922">
        <ele>170</ele>
        <time>2018-03-13T09:35:11Z</time>
      </trkpt>
      <trkpt lat="45.92363" lon="4.7493">
        <ele>170</ele>
        <time>2018-03-13T09:35:12Z</time>
      </trkpt>
      <trkpt lat="45.9236" lon="4.74939">
        <ele>170</ele>
        <time>2018-03-13T09:35:13Z</time>
      </trkpt>
      <trkpt lat="45.92356" lon="4.74947">
        <ele>170</ele>
        <time>2018-03-13T09:35:14Z</time>
      </trkpt>
      <trkpt lat="45.92353" lon="4.74955">
        <ele>170</ele>
        <time>2018-03-13T09:35:15Z</time>
      </trkpt>
      <trkpt lat="45.9235" lon="4.74964">
        <ele>170</ele>
        <time>2018-03-13T09:35:16Z</time>
      </trkpt>
      <trkpt lat="45.92347" lon="4.74973">
        <ele>170</ele>
        <time>2018-03-13T09:35:17Z</time>
      </trkpt>
      <trkpt lat="45.92343" lon="4.74981">
        <ele>170</ele>
        <time>2018-03-13T09:35:18Z</time>
      </trkpt>
      <trkpt lat="45.9234" lon="4.74989">
        <ele>170</ele>
        <time>2018-03-13T09:35:19Z</time>
      </trkpt>
      <trkpt lat="45.92336" lon="4.74998">
        <ele>170</ele>
        <time>2018-03-13T09:35:20Z</time>
      </trkpt>
      <trkpt lat="45.92333" lon="4.75006">
        <ele>170</ele>
        <time>2018-03-13T09:35:21Z</time>
      </trkpt>
      <trkpt lat="45.92329" lon="4.75014">
        <ele>171</ele>
        <time>2018-03-13T09:35:22Z</time>
      </trkpt>
      <trkpt lat="45.92326" lon="4.75022">
        <ele>171</ele>
        <time>2018-03-13T09:35:23Z</time>
      </trkpt>
      <trkpt lat="45.92321" lon="4.7503">
        <ele>171</ele>
        <time>2018-03-13T09:35:24Z</time>
      </trkpt>
      <trkpt lat="45.92317" lon="4.75037">
        <ele>171</ele>
        <time>2018-03-13T09:35:25Z</time>
      </trkpt>
      <trkpt lat="45.92313" lon="4.75045">
        <ele>172</ele>
        <time>2018-03-13T09:35:26Z</time>
      </trkpt>
      <trkpt lat="45.92308" lon="4.75052">
        <ele>172</ele>
        <time>2018-03-13T09:35:27Z</time>
      </trkpt>
      <trkpt lat="45.92304" lon="4.75058">
        <ele>172</ele>
        <time>2018-03-13T09:35:28Z</time>
      </trkpt>
      <trkpt lat="45.92299" lon="4.75065">
        <ele>172</ele>
        <time>2018-03-13T09:35:29Z</time>
      </trkpt>
      <trkpt lat="45.92295" lon="4.75072">
        <ele>172</ele>
        <time>2018-03-13T09:35:30Z</time>
      </trkpt>
      <trkpt lat="45.92289" lon="4.75077">
        <ele>172</ele>
        <time>2018-03-13T09:35:31Z</time>
      </trkpt>
      <trkpt lat="45.92284" lon="4.75083">
        <ele>172</ele>
        <time>2018-03-13T09:35:32Z</time>
      </trkpt>
      <trkpt lat="45.92279" lon="4.75088">
        <ele>173</ele>
        <time>2018-03-13T09:35:33Z</time>
      </trkpt>
      <trkpt lat="45.92274" lon="4.75093">
        <ele>173</ele>
        <time>2018-03-13T09:35:34Z</time>
      </trkpt>
      <trkpt lat="45.92269" lon="4.75099">
        <ele>173</ele>
        <time>2018-03-13T09:35:35Z</time>
      </trkpt>
      <trkpt lat="45.92263" lon="4.75105">
        <ele>173</ele>
        <time>2018-03-13T09:35:36Z</time>
      </trkpt>
      <trkpt lat="45.92258" lon="4.7511">
        <ele>174</ele>
        <time>2018-03-13T09:35:37Z</time>
      </trkpt>
      <trkpt lat="45.92253" lon="4.75115">
        <ele>174</ele>
        <time>2018-03-13T09:35:38Z</time>
      </trkpt>
      <trkpt lat="45.92249" lon="4.75121">
        <ele>174</ele>
        <time>2018-03-13T09:35:39Z</time>
      </trkpt>
      <trkpt lat="45.92244" lon="4.75127">
        <ele>174</ele>
        <time>2018-03-13T09:35:40Z</time>
      </trkpt>
      <trkpt lat="45.92239" lon="4.75133">
        <ele>174</ele>
        <time>2018-03-13T09:35:41Z</time>
      </trkpt>
      <trkpt lat="45.92235" lon="4.75139">
        <ele>174</ele>
        <time>2018-03-13T09:35:42Z</time>
      </trkpt>
      <trkpt lat="45.92231" lon="4.75145">
        <ele>174</ele>
        <time>2018-03-13T09:35:43Z</time>
      </trkpt>
      <trkpt lat="45.92228" lon="4.75151">
        <ele>174</ele>
        <time>2018-03-13T09:35:44Z</time>
      </trkpt>
      <trkpt lat="45.92225" lon="4.75158">
        <ele>174</ele>
        <time>2018-03-13T09:35:45Z</time>
      </trkpt>
      <trkpt lat="45.92222" lon="4.75165">
        <ele>174</ele>
        <time>2018-03-13T09:35:46Z</time>
      </trkpt>
      <trkpt lat="45.92219" lon="4.75172">
        <ele>175</ele>
        <time>2018-03-13T09:35:47Z</time>
      </trkpt>
      <trkpt lat="45.92217" lon="4.7518">
        <ele>175</ele>
        <time>2018-03-13T09:35:48Z</time>
      </trkpt>
      <trkpt lat="45.92215" lon="4.75186">
        <ele>175</ele>
        <time>2018-03-13T09:35:49Z</time>
      </trkpt>
      <trkpt lat="45.92213" lon="4.75194">
        <ele>175</ele>
        <time>2018-03-13T09:35:50Z</time>
      </trkpt>
      <trkpt lat="45.92212" lon="4.75201">
        <ele>175</ele>
        <time>2018-03-13T09:35:51Z</time>
      </trkpt>
      <trkpt lat="45.92211" lon="4.7521">
        <ele>175</ele>
        <time>2018-03-13T09:35:52Z</time>
      </trkpt>
      <trkpt lat="45.9221" lon="4.75219">
        <ele>175</ele>
        <time>2018-03-13T09:35:53Z</time>
      </trkpt>
      <trkpt lat="45.92211" lon="4.75226">
        <ele>175</ele>
        <time>2018-03-13T09:35:54Z</time>
      </trkpt>
      <trkpt lat="45.9221" lon="4.75234">
        <ele>175</ele>
        <time>2018-03-13T09:35:55Z</time>
      </trkpt>
      <trkpt lat="45.9221" lon="4.75242">
        <ele>175</ele>
        <time>2018-03-13T09:35:56Z</time>
      </trkpt>
      <trkpt lat="45.9221" lon="4.7525">
        <ele>175</ele>
        <time>2018-03-13T09:35:57Z</time>
      </trkpt>
      <trkpt lat="45.92209" lon="4.75258">
        <ele>175</ele>
        <time>2018-03-13T09:35:58Z</time>
      </trkpt>
      <trkpt lat="45.92209" lon="4.75267">
        <ele>176</ele>
        <time>2018-03-13T09:35:59Z</time>
      </trkpt>
      <trkpt lat="45.92209" lon="4.75275">
        <ele>176</ele>
        <time>2018-03-13T09:36:00Z</time>
      </trkpt>
      <trkpt lat="45.92209" lon="4.75283">
        <ele>176</ele>
        <time>2018-03-13T09:36:01Z</time>
      </trkpt>
      <trkpt lat="45.92209" lon="4.75291">
        <ele>176</ele>
        <time>2018-03-13T09:36:02Z</time>
      </trkpt>
      <trkpt lat="45.92209" lon="4.75299">
        <ele>176</ele>
        <time>2018-03-13T09:36:03Z</time>
      </trkpt>
      <trkpt lat="45.92208" lon="4.75306">
        <ele>176</ele>
        <time>2018-03-13T09:36:04Z</time>
      </trkpt>
      <trkpt lat="45.92207" lon="4.75314">
        <ele>176</ele>
        <time>2018-03-13T09:36:05Z</time>
      </trkpt>
      <trkpt lat="45.92206" lon="4.75321">
        <ele>176</ele>
        <time>2018-03-13T09:36:06Z</time>
      </trkpt>
      <trkpt lat="45.92205" lon="4.75329">
        <ele>176</ele>
        <time>2018-03-13T09:36:07Z</time>
      </trkpt>
      <trkpt lat="45.92204" lon="4.75337">
        <ele>177</ele>
        <time>2018-03-13T09:36:08Z</time>
      </trkpt>
      <trkpt lat="45.92202" lon="4.75345">
        <ele>177</ele>
        <time>2018-03-13T09:36:09Z</time>
      </trkpt>
      <trkpt lat="45.922" lon="4.75352">
        <ele>177</ele>
        <time>2018-03-13T09:36:10Z</time>
      </trkpt>
      <trkpt lat="45.92198" lon="4.75359">
        <ele>177</ele>
        <time>2018-03-13T09:36:11Z</time>
      </trkpt>
      <trkpt lat="45.92195" lon="4.75366">
        <ele>177</ele>
        <time>2018-03-13T09:36:12Z</time>
      </trkpt>
      <trkpt lat="45.92192" lon="4.75373">
        <ele>177</ele>
        <time>2018-03-13T09:36:13Z</time>
      </trkpt>
      <trkpt lat="45.9219" lon="4.75383">
        <ele>177</ele>
        <time>2018-03-13T09:36:14Z</time>
      </trkpt>
      <trkpt lat="45.92187" lon="4.7539">
        <ele>177</ele>
        <time>2018-03-13T09:36:15Z</time>
      </trkpt>
      <trkpt lat="45.92185" lon="4.75397">
        <ele>177</ele>
        <time>2018-03-13T09:36:16Z</time>
      </trkpt>
      <trkpt lat="45.92182" lon="4.75406">
        <ele>177</ele>
        <time>2018-03-13T09:36:17Z</time>
      </trkpt>
      <trkpt lat="45.92179" lon="4.75413">
        <ele>177</ele>
        <time>2018-03-13T09:36:18Z</time>
      </trkpt>
      <trkpt lat="45.92175" lon="4.7542">
        <ele>177</ele>
        <time>2018-03-13T09:36:19Z</time>
      </trkpt>
      <trkpt lat="45.92172" lon="4.75428">
        <ele>177</ele>
        <time>2018-03-13T09:36:20Z</time>
      </trkpt>
      <trkpt lat="45.92169" lon="4.75436">
        <ele>177</ele>
        <time>2018-03-13T09:36:21Z</time>
      </trkpt>
      <trkpt lat="45.92165" lon="4.75445">
        <ele>177</ele>
        <time>2018-03-13T09:36:22Z</time>
      </trkpt>
      <trkpt lat="45.92161" lon="4.75453">
        <ele>176</ele>
        <time>2018-03-13T09:36:23Z</time>
      </trkpt>
      <trkpt lat="45.92158" lon="4.7546">
        <ele>176</ele>
        <time>2018-03-13T09:36:24Z</time>
      </trkpt>
      <trkpt lat="45.92154" lon="4.75468">
        <ele>176</ele>
        <time>2018-03-13T09:36:25Z</time>
      </trkpt>
      <trkpt lat="45.92151" lon="4.75476">
        <ele>176</ele>
        <time>2018-03-13T09:36:26Z</time>
      </trkpt>
      <trkpt lat="45.92147" lon="4.75485">
        <ele>176</ele>
        <time>2018-03-13T09:36:27Z</time>
      </trkpt>
      <trkpt lat="45.92144" lon="4.75493">
        <ele>176</ele>
        <time>2018-03-13T09:36:28Z</time>
      </trkpt>
      <trkpt lat="45.9214" lon="4.75501">
        <ele>174</ele>
        <time>2018-03-13T09:36:29Z</time>
      </trkpt>
      <trkpt lat="45.92136" lon="4.75508">
        <ele>174</ele>
        <time>2018-03-13T09:36:30Z</time>
      </trkpt>
      <trkpt lat="45.92132" lon="4.75515">
        <ele>174</ele>
        <time>2018-03-13T09:36:31Z</time>
      </trkpt>
      <trkpt lat="45.92128" lon="4.75522">
        <ele>174</ele>
        <time>2018-03-13T09:36:32Z</time>
      </trkpt>
      <trkpt lat="45.92124" lon="4.7553">
        <ele>174</ele>
        <time>2018-03-13T09:36:33Z</time>
      </trkpt>
      <trkpt lat="45.9212" lon="4.75537">
        <ele>174</ele>
        <time>2018-03-13T09:36:34Z</time>
      </trkpt>
      <trkpt lat="45.92116" lon="4.75545">
        <ele>174</ele>
        <time>2018-03-13T09:36:35Z</time>
      </trkpt>
      <trkpt lat="45.92114" lon="4.75552">
        <ele>174</ele>
        <time>2018-03-13T09:36:36Z</time>
      </trkpt>
      <trkpt lat="45.9211" lon="4.7556">
        <ele>174</ele>
        <time>2018-03-13T09:36:37Z</time>
      </trkpt>
      <trkpt lat="45.92106" lon="4.75569">
        <ele>174</ele>
        <time>2018-03-13T09:36:38Z</time>
      </trkpt>
      <trkpt lat="45.92105" lon="4.75577">
        <ele>174</ele>
        <time>2018-03-13T09:36:39Z</time>
      </trkpt>
      <trkpt lat="45.92107" lon="4.75585">
        <ele>174</ele>
        <time>2018-03-13T09:36:40Z</time>
      </trkpt>
      <trkpt lat="45.92108" lon="4.75593">
        <ele>174</ele>
        <time>2018-03-13T09:36:41Z</time>
      </trkpt>
      <trkpt lat="45.92115" lon="4.75598">
        <ele>174</ele>
        <time>2018-03-13T09:36:42Z</time>
      </trkpt>
      <trkpt lat="45.9212" lon="4.75602">
        <ele>174</ele>
        <time>2018-03-13T09:36:43Z</time>
      </trkpt>
      <trkpt lat="45.92125" lon="4.75605">
        <ele>174</ele>
        <time>2018-03-13T09:36:44Z</time>
      </trkpt>
      <trkpt lat="45.9213" lon="4.75609">
        <ele>174</ele>
        <time>2018-03-13T09:36:45Z</time>
      </trkpt>
      <trkpt lat="45.92135" lon="4.75614">
        <ele>174</ele>
        <time>2018-03-13T09:36:46Z</time>
      </trkpt>
      <trkpt lat="45.9214" lon="4.75618">
        <ele>174</ele>
        <time>2018-03-13T09:36:47Z</time>
      </trkpt>
      <trkpt lat="45.92145" lon="4.75622">
        <ele>174</ele>
        <time>2018-03-13T09:36:48Z</time>
      </trkpt>
      <trkpt lat="45.92149" lon="4.75627">
        <ele>174</ele>
        <time>2018-03-13T09:36:49Z</time>
      </trkpt>
      <trkpt lat="45.92154" lon="4.75632">
        <ele>174</ele>
        <time>2018-03-13T09:36:50Z</time>
      </trkpt>
      <trkpt lat="45.92159" lon="4.75637">
        <ele>174</ele>
        <time>2018-03-13T09:36:51Z</time>
      </trkpt>
      <trkpt lat="45.92164" lon="4.75642">
        <ele>174</ele>
        <time>2018-03-13T09:36:52Z</time>
      </trkpt>
      <trkpt lat="45.92169" lon="4.75646">
        <ele>174</ele>
        <time>2018-03-13T09:36:53Z</time>
      </trkpt>
      <trkpt lat="45.92174" lon="4.75651">
        <ele>174</ele>
        <time>2018-03-13T09:36:54Z</time>
      </trkpt>
      <trkpt lat="45.92178" lon="4.75655">
        <ele>174</ele>
        <time>2018-03-13T09:36:55Z</time>
      </trkpt>
      <trkpt lat="45.92183" lon="4.7566">
        <ele>174</ele>
        <time>2018-03-13T09:36:56Z</time>
      </trkpt>
      <trkpt lat="45.92188" lon="4.75666">
        <ele>174</ele>
        <time>2018-03-13T09:36:57Z</time>
      </trkpt>
      <trkpt lat="45.92192" lon="4.75669">
        <ele>174</ele>
        <time>2018-03-13T09:36:58Z</time>
      </trkpt>
      <trkpt lat="45.92196" lon="4.75674">
        <ele>174</ele>
        <time>2018-03-13T09:36:59Z</time>
      </trkpt>
      <trkpt lat="45.92201" lon="4.75678">
        <ele>174</ele>
        <time>2018-03-13T09:37:00Z</time>
      </trkpt>
      <trkpt lat="45.92205" lon="4.75683">
        <ele>174</ele>
        <time>2018-03-13T09:37:01Z</time>
      </trkpt>
      <trkpt lat="45.9221" lon="4.75686">
        <ele>174</ele>
        <time>2018-03-13T09:37:02Z</time>
      </trkpt>
      <trkpt lat="45.92215" lon="4.7569">
        <ele>174</ele>
        <time>2018-03-13T09:37:03Z</time>
      </trkpt>
      <trkpt lat="45.9222" lon="4.75693">
        <ele>174</ele>
        <time>2018-03-13T09:37:04Z</time>
      </trkpt>
      <trkpt lat="45.92225" lon="4.75698">
        <ele>174</ele>
        <time>2018-03-13T09:37:05Z</time>
      </trkpt>
      <trkpt lat="45.92229" lon="4.75704">
        <ele>174</ele>
        <time>2018-03-13T09:37:06Z</time>
      </trkpt>
      <trkpt lat="45.92232" lon="4.7571">
        <ele>174</ele>
        <time>2018-03-13T09:37:07Z</time>
      </trkpt>
      <trkpt lat="45.92236" lon="4.75717">
        <ele>174</ele>
        <time>2018-03-13T09:37:08Z</time>
      </trkpt>
      <trkpt lat="45.92239" lon="4.75723">
        <ele>174</ele>
        <time>2018-03-13T09:37:09Z</time>
      </trkpt>
      <trkpt lat="45.92241" lon="4.75731">
        <ele>174</ele>
        <time>2018-03-13T09:37:10Z</time>
      </trkpt>
      <trkpt lat="45.92244" lon="4.75739">
        <ele>174</ele>
        <time>2018-03-13T09:37:11Z</time>
      </trkpt>
      <trkpt lat="45.92245" lon="4.75747">
        <ele>174</ele>
        <time>2018-03-13T09:37:12Z</time>
      </trkpt>
      <trkpt lat="45.92247" lon="4.75754">
        <ele>174</ele>
        <time>2018-03-13T09:37:13Z</time>
      </trkpt>
      <trkpt lat="45.92249" lon="4.75761">
        <ele>174</ele>
        <time>2018-03-13T09:37:14Z</time>
      </trkpt>
      <trkpt lat="45.9225" lon="4.75769">
        <ele>174</ele>
        <time>2018-03-13T09:37:15Z</time>
      </trkpt>
      <trkpt lat="45.92251" lon="4.75776">
        <ele>174</ele>
        <time>2018-03-13T09:37:16Z</time>
      </trkpt>
      <trkpt lat="45.92252" lon="4.75784">
        <ele>174</ele>
        <time>2018-03-13T09:37:17Z</time>
      </trkpt>
      <trkpt lat="45.92254" lon="4.75791">
        <ele>174</ele>
        <time>2018-03-13T09:37:18Z</time>
      </trkpt>
      <trkpt lat="45.92256" lon="4.75798">
        <ele>174</ele>
        <time>2018-03-13T09:37:19Z</time>
      </trkpt>
      <trkpt lat="45.92257" lon="4.75805">
        <ele>174</ele>
        <time>2018-03-13T09:37:20Z</time>
      </trkpt>
      <trkpt lat="45.92259" lon="4.75812">
        <ele>174</ele>
        <time>2018-03-13T09:37:21Z</time>
      </trkpt>
      <trkpt lat="45.92263" lon="4.75819">
        <ele>174</ele>
        <time>2018-03-13T09:37:22Z</time>
      </trkpt>
      <trkpt lat="45.92268" lon="4.75825">
        <ele>174</ele>
        <time>2018-03-13T09:37:23Z</time>
      </trkpt>
      <trkpt lat="45.92273" lon="4.7583">
        <ele>174</ele>
        <time>2018-03-13T09:37:24Z</time>
      </trkpt>
      <trkpt lat="45.92277" lon="4.75835">
        <ele>173</ele>
        <time>2018-03-13T09:37:25Z</time>
      </trkpt>
      <trkpt lat="45.92282" lon="4.7584">
        <ele>173</ele>
        <time>2018-03-13T09:37:26Z</time>
      </trkpt>
      <trkpt lat="45.92287" lon="4.75843">
        <ele>173</ele>
        <time>2018-03-13T09:37:27Z</time>
      </trkpt>
      <trkpt lat="45.92293" lon="4.75846">
        <ele>173</ele>
        <time>2018-03-13T09:37:28Z</time>
      </trkpt>
      <trkpt lat="45.92299" lon="4.7585">
        <ele>173</ele>
        <time>2018-03-13T09:37:29Z</time>
      </trkpt>
      <trkpt lat="45.92304" lon="4.75853">
        <ele>173</ele>
        <time>2018-03-13T09:37:30Z</time>
      </trkpt>
      <trkpt lat="45.9231" lon="4.75856">
        <ele>173</ele>
        <time>2018-03-13T09:37:31Z</time>
      </trkpt>
      <trkpt lat="45.92316" lon="4.7586">
        <ele>173</ele>
        <time>2018-03-13T09:37:32Z</time>
      </trkpt>
      <trkpt lat="45.92322" lon="4.75864">
        <ele>173</ele>
        <time>2018-03-13T09:37:33Z</time>
      </trkpt>
      <trkpt lat="45.92328" lon="4.75869">
        <ele>173</ele>
        <time>2018-03-13T09:37:34Z</time>
      </trkpt>
      <trkpt lat="45.92335" lon="4.75873">
        <ele>173</ele>
        <time>2018-03-13T09:37:35Z</time>
      </trkpt>
      <trkpt lat="45.92342" lon="4.75876">
        <ele>173</ele>
        <time>2018-03-13T09:37:36Z</time>
      </trkpt>
      <trkpt lat="45.92348" lon="4.75879">
        <ele>173</ele>
        <time>2018-03-13T09:37:37Z</time>
      </trkpt>
      <trkpt lat="45.92354" lon="4.75883">
        <ele>173</ele>
        <time>2018-03-13T09:37:38Z</time>
      </trkpt>
      <trkpt lat="45.92359" lon="4.75888">
        <ele>173</ele>
        <time>2018-03-13T09:37:39Z</time>
      </trkpt>
      <trkpt lat="45.92365" lon="4.75891">
        <ele>173</ele>
        <time>2018-03-13T09:37:40Z</time>
      </trkpt>
      <trkpt lat="45.92371" lon="4.75895">
        <ele>173</ele>
        <time>2018-03-13T09:37:41Z</time>
      </trkpt>
      <trkpt lat="45.92377" lon="4.75899">
        <ele>173</ele>
        <time>2018-03-13T09:37:42Z</time>
      </trkpt>
      <trkpt lat="45.92382" lon="4.75903">
        <ele>173</ele>
        <time>2018-03-13T09:37:43Z</time>
      </trkpt>
      <trkpt lat="45.92388" lon="4.75907">
        <ele>173</ele>
        <time>2018-03-13T09:37:44Z</time>
      </trkpt>
      <trkpt lat="45.92393" lon="4.7591">
        <ele>173</ele>
        <time>2018-03-13T09:37:45Z</time>
      </trkpt>
      <trkpt lat="45.92399" lon="4.75914">
        <ele>173</ele>
        <time>2018-03-13T09:37:46Z</time>
      </trkpt>
      <trkpt lat="45.92404" lon="4.75917">
        <ele>172</ele>
        <time>2018-03-13T09:37:47Z</time>
      </trkpt>
      <trkpt lat="45.92409" lon="4.7592">
        <ele>172</ele>
        <time>2018-03-13T09:37:48Z</time>
      </trkpt>
      <trkpt lat="45.92415" lon="4.75923">
        <ele>172</ele>
        <time>2018-03-13T09:37:49Z</time>
      </trkpt>
      <trkpt lat="45.92419" lon="4.75926">
        <ele>172</ele>
        <time>2018-03-13T09:37:50Z</time>
      </trkpt>
      <trkpt lat="45.92424" lon="4.75931">
        <ele>172</ele>
        <time>2018-03-13T09:37:51Z</time>
      </trkpt>
      <trkpt lat="45.92427" lon="4.75935">
        <ele>172</ele>
        <time>2018-03-13T09:37:52Z</time>
      </trkpt>
      <trkpt lat="45.92431" lon="4.75938">
        <ele>172</ele>
        <time>2018-03-13T09:37:53Z</time>
      </trkpt>
      <trkpt lat="45.92435" lon="4.75941">
        <ele>172</ele>
        <time>2018-03-13T09:37:54Z</time>
      </trkpt>
      <trkpt lat="45.92439" lon="4.75945">
        <ele>172</ele>
        <time>2018-03-13T09:37:55Z</time>
      </trkpt>
      <trkpt lat="45.92444" lon="4.75947">
        <ele>172</ele>
        <time>2018-03-13T09:37:56Z</time>
      </trkpt>
      <trkpt lat="45.92448" lon="4.7595">
        <ele>172</ele>
        <time>2018-03-13T09:37:57Z</time>
      </trkpt>
      <trkpt lat="45.92452" lon="4.75953">
        <ele>172</ele>
        <time>2018-03-13T09:37:58Z</time>
      </trkpt>
      <trkpt lat="45.9246" lon="4.75959">
        <ele>172</ele>
        <time>2018-03-13T09:38:00Z</time>
      </trkpt>
      <trkpt lat="45.92463" lon="4.75962">
        <ele>172</ele>
        <time>2018-03-13T09:38:01Z</time>
      </trkpt>
      <trkpt lat="45.92471" lon="4.75968">
        <ele>172</ele>
        <time>2018-03-13T09:38:03Z</time>
      </trkpt>
      <trkpt lat="45.92474" lon="4.75972">
        <ele>172</ele>
        <time>2018-03-13T09:38:04Z</time>
      </trkpt>
      <trkpt lat="45.92481" lon="4.75978">
        <ele>172</ele>
        <time>2018-03-13T09:38:06Z</time>
      </trkpt>
      <trkpt lat="45.92485" lon="4.75981">
        <ele>172</ele>
        <time>2018-03-13T09:38:07Z</time>
      </trkpt>
      <trkpt lat="45.92489" lon="4.75985">
        <ele>172</ele>
        <time>2018-03-13T09:38:08Z</time>
      </trkpt>
      <trkpt lat="45.92493" lon="4.75988">
        <ele>172</ele>
        <time>2018-03-13T09:38:09Z</time>
      </trkpt>
      <trkpt lat="45.92497" lon="4.75991">
        <ele>172</ele>
        <time>2018-03-13T09:38:10Z</time>
      </trkpt>
      <trkpt lat="45.92501" lon="4.75993">
        <ele>172</ele>
        <time>2018-03-13T09:38:11Z</time>
      </trkpt>
      <trkpt lat="45.92505" lon="4.75996">
        <ele>172</ele>
        <time>2018-03-13T09:38:12Z</time>
      </trkpt>
      <trkpt lat="45.9251" lon="4.75999">
        <ele>172</ele>
        <time>2018-03-13T09:38:13Z</time>
      </trkpt>
      <trkpt lat="45.92517" lon="4.76005">
        <ele>172</ele>
        <time>2018-03-13T09:38:15Z</time>
      </trkpt>
      <trkpt lat="45.92521" lon="4.76008">
        <ele>172</ele>
        <time>2018-03-13T09:38:16Z</time>
      </trkpt>
      <trkpt lat="45.92525" lon="4.76011">
        <ele>172</ele>
        <time>2018-03-13T09:38:17Z</time>
      </trkpt>
      <trkpt lat="45.92529" lon="4.76014">
        <ele>172</ele>
        <time>2018-03-13T09:38:18Z</time>
      </trkpt>
      <trkpt lat="45.92533" lon="4.76017">
        <ele>172</ele>
        <time>2018-03-13T09:38:19Z</time>
      </trkpt>
      <trkpt lat="45.92537" lon="4.76021">
        <ele>172</ele>
        <time>2018-03-13T09:38:20Z</time>
      </trkpt>
      <trkpt lat="45.92541" lon="4.76023">
        <ele>172</ele>
        <time>2018-03-13T09:38:21Z</time>
      </trkpt>
      <trkpt lat="45.92545" lon="4.76027">
        <ele>172</ele>
        <time>2018-03-13T09:38:22Z</time>
      </trkpt>
      <trkpt lat="45.92549" lon="4.76029">
        <ele>172</ele>
        <time>2018-03-13T09:38:23Z</time>
      </trkpt>
      <trkpt lat="45.92554" lon="4.76032">
        <ele>172</ele>
        <time>2018-03-13T09:38:24Z</time>
      </trkpt>
      <trkpt lat="45.92558" lon="4.76036">
        <ele>172</ele>
        <time>2018-03-13T09:38:25Z</time>
      </trkpt>
      <trkpt lat="45.92562" lon="4.7604">
        <ele>172</ele>
        <time>2018-03-13T09:38:26Z</time>
      </trkpt>
      <trkpt lat="45.92567" lon="4.76044">
        <ele>171</ele>
        <time>2018-03-13T09:38:27Z</time>
      </trkpt>
      <trkpt lat="45.92571" lon="4.76047">
        <ele>171</ele>
        <time>2018-03-13T09:38:28Z</time>
      </trkpt>
      <trkpt lat="45.92576" lon="4.7605">
        <ele>171</ele>
        <time>2018-03-13T09:38:29Z</time>
      </trkpt>
      <trkpt lat="45.92581" lon="4.76053">
        <ele>171</ele>
        <time>2018-03-13T09:38:30Z</time>
      </trkpt>
      <trkpt lat="45.92587" lon="4.76056">
        <ele>171</ele>
        <time>2018-03-13T09:38:31Z</time>
      </trkpt>
      <trkpt lat="45.92591" lon="4.7606">
        <ele>171</ele>
        <time>2018-03-13T09:38:32Z</time>
      </trkpt>
      <trkpt lat="45.92597" lon="4.76064">
        <ele>171</ele>
        <time>2018-03-13T09:38:33Z</time>
      </trkpt>
      <trkpt lat="45.92602" lon="4.76069">
        <ele>171</ele>
        <time>2018-03-13T09:38:34Z</time>
      </trkpt>
      <trkpt lat="45.92608" lon="4.76073">
        <ele>171</ele>
        <time>2018-03-13T09:38:35Z</time>
      </trkpt>
      <trkpt lat="45.92615" lon="4.76076">
        <ele>171</ele>
        <time>2018-03-13T09:38:36Z</time>
      </trkpt>
      <trkpt lat="45.92621" lon="4.7608">
        <ele>171</ele>
        <time>2018-03-13T09:38:37Z</time>
      </trkpt>
      <trkpt lat="45.92628" lon="4.76084">
        <ele>170</ele>
        <time>2018-03-13T09:38:38Z</time>
      </trkpt>
      <trkpt lat="45.92634" lon="4.76088">
        <ele>170</ele>
        <time>2018-03-13T09:38:39Z</time>
      </trkpt>
      <trkpt lat="45.92641" lon="4.76092">
        <ele>170</ele>
        <time>2018-03-13T09:38:40Z</time>
      </trkpt>
      <trkpt lat="45.92647" lon="4.76097">
        <ele>170</ele>
        <time>2018-03-13T09:38:41Z</time>
      </trkpt>
      <trkpt lat="45.92653" lon="4.76101">
        <ele>170</ele>
        <time>2018-03-13T09:38:42Z</time>
      </trkpt>
      <trkpt lat="45.9266" lon="4.76106">
        <ele>170</ele>
        <time>2018-03-13T09:38:43Z</time>
      </trkpt>
      <trkpt lat="45.92668" lon="4.7611">
        <ele>169</ele>
        <time>2018-03-13T09:38:44Z</time>
      </trkpt>
      <trkpt lat="45.92674" lon="4.76114">
        <ele>169</ele>
        <time>2018-03-13T09:38:45Z</time>
      </trkpt>
      <trkpt lat="45.92681" lon="4.76119">
        <ele>169</ele>
        <time>2018-03-13T09:38:46Z</time>
      </trkpt>
      <trkpt lat="45.92688" lon="4.76124">
        <ele>169</ele>
        <time>2018-03-13T09:38:47Z</time>
      </trkpt>
      <trkpt lat="45.92695" lon="4.76128">
        <ele>169</ele>
        <time>2018-03-13T09:38:48Z</time>
      </trkpt>
      <trkpt lat="45.92702" lon="4.76133">
        <ele>169</ele>
        <time>2018-03-13T09:38:49Z</time>
      </trkpt>
      <trkpt lat="45.92709" lon="4.76137">
        <ele>168</ele>
        <time>2018-03-13T09:38:50Z</time>
      </trkpt>
      <trkpt lat="45.92715" lon="4.76141">
        <ele>168</ele>
        <time>2018-03-13T09:38:51Z</time>
      </trkpt>
      <trkpt lat="45.92722" lon="4.76146">
        <ele>168</ele>
        <time>2018-03-13T09:38:52Z</time>
      </trkpt>
      <trkpt lat="45.92729" lon="4.7615">
        <ele>168</ele>
        <time>2018-03-13T09:38:53Z</time>
      </trkpt>
      <trkpt lat="45.92735" lon="4.76155">
        <ele>168</ele>
        <time>2018-03-13T09:38:54Z</time>
      </trkpt>
      <trkpt lat="45.92742" lon="4.7616">
        <ele>168</ele>
        <time>2018-03-13T09:38:55Z</time>
      </trkpt>
      <trkpt lat="45.92748" lon="4.76165">
        <ele>167</ele>
        <time>2018-03-13T09:38:56Z</time>
      </trkpt>
      <trkpt lat="45.92753" lon="4.76169">
        <ele>167</ele>
        <time>2018-03-13T09:38:57Z</time>
      </trkpt>
      <trkpt lat="45.92759" lon="4.76174">
        <ele>167</ele>
        <time>2018-03-13T09:38:58Z</time>
      </trkpt>
      <trkpt lat="45.92764" lon="4.76179">
        <ele>167</ele>
        <time>2018-03-13T09:38:59Z</time>
      </trkpt>
      <trkpt lat="45.92769" lon="4.76183">
        <ele>167</ele>
        <time>2018-03-13T09:39:00Z</time>
      </trkpt>
      <trkpt lat="45.92774" lon="4.76188">
        <ele>168</ele>
        <time>2018-03-13T09:39:01Z</time>
      </trkpt>
      <trkpt lat="45.92778" lon="4.76192">
        <ele>168</ele>
        <time>2018-03-13T09:39:02Z</time>
      </trkpt>
      <trkpt lat="45.92784" lon="4.76196">
        <ele>168</ele>
        <time>2018-03-13T09:39:03Z</time>
      </trkpt>
      <trkpt lat="45.92789" lon="4.76202">
        <ele>168</ele>
        <time>2018-03-13T09:39:04Z</time>
      </trkpt>
      <trkpt lat="45.92794" lon="4.76208">
        <ele>168</ele>
        <time>2018-03-13T09:39:05Z</time>
      </trkpt>
      <trkpt lat="45.928" lon="4.76214">
        <ele>168</ele>
        <time>2018-03-13T09:39:06Z</time>
      </trkpt>
      <trkpt lat="45.92805" lon="4.76218">
        <ele>168</ele>
        <time>2018-03-13T09:39:07Z</time>
      </trkpt>
      <trkpt lat="45.9281" lon="4.76223">
        <ele>168</ele>
        <time>2018-03-13T09:39:08Z</time>
      </trkpt>
      <trkpt lat="45.92815" lon="4.76227">
        <ele>168</ele>
        <time>2018-03-13T09:39:09Z</time>
      </trkpt>
      <trkpt lat="45.9282" lon="4.76233">
        <ele>168</ele>
        <time>2018-03-13T09:39:10Z</time>
      </trkpt>
      <trkpt lat="45.92825" lon="4.76238">
        <ele>168</ele>
        <time>2018-03-13T09:39:11Z</time>
      </trkpt>
      <trkpt lat="45.9283" lon="4.76243">
        <ele>169</ele>
        <time>2018-03-13T09:39:12Z</time>
      </trkpt>
      <trkpt lat="45.92835" lon="4.76248">
        <ele>169</ele>
        <time>2018-03-13T09:39:13Z</time>
      </trkpt>
      <trkpt lat="45.92839" lon="4.76253">
        <ele>169</ele>
        <time>2018-03-13T09:39:14Z</time>
      </trkpt>
      <trkpt lat="45.92845" lon="4.76258">
        <ele>169</ele>
        <time>2018-03-13T09:39:15Z</time>
      </trkpt>
      <trkpt lat="45.9285" lon="4.76263">
        <ele>169</ele>
        <time>2018-03-13T09:39:16Z</time>
      </trkpt>
      <trkpt lat="45.92856" lon="4.76268">
        <ele>169</ele>
        <time>2018-03-13T09:39:17Z</time>
      </trkpt>
      <trkpt lat="45.9286" lon="4.76272">
        <ele>169</ele>
        <time>2018-03-13T09:39:18Z</time>
      </trkpt>
      <trkpt lat="45.92865" lon="4.76278">
        <ele>169</ele>
        <time>2018-03-13T09:39:19Z</time>
      </trkpt>
      <trkpt lat="45.9287" lon="4.76283">
        <ele>169</ele>
        <time>2018-03-13T09:39:20Z</time>
      </trkpt>
      <trkpt lat="45.92875" lon="4.76289">
        <ele>169</ele>
        <time>2018-03-13T09:39:21Z</time>
      </trkpt>
      <trkpt lat="45.9288" lon="4.76293">
        <ele>169</ele>
        <time>2018-03-13T09:39:22Z</time>
      </trkpt>
      <trkpt lat="45.92885" lon="4.76298">
        <ele>169</ele>
        <time>2018-03-13T09:39:23Z</time>
      </trkpt>
      <trkpt lat="45.9289" lon="4.76303">
        <ele>169</ele>
        <time>2018-03-13T09:39:24Z</time>
      </trkpt>
      <trkpt lat="45.92895" lon="4.76308">
        <ele>169</ele>
        <time>2018-03-13T09:39:25Z</time>
      </trkpt>
      <trkpt lat="45.92899" lon="4.76313">
        <ele>169</ele>
        <time>2018-03-13T09:39:26Z</time>
      </trkpt>
      <trkpt lat="45.92904" lon="4.76317">
        <ele>169</ele>
        <time>2018-03-13T09:39:27Z</time>
      </trkpt>
      <trkpt lat="45.92909" lon="4.76321">
        <ele>169</ele>
        <time>2018-03-13T09:39:28Z</time>
      </trkpt>
      <trkpt lat="45.92913" lon="4.76326">
        <ele>169</ele>
        <time>2018-03-13T09:39:29Z</time>
      </trkpt>
      <trkpt lat="45.92917" lon="4.7633">
        <ele>169</ele>
        <time>2018-03-13T09:39:30Z</time>
      </trkpt>
      <trkpt lat="45.92922" lon="4.76335">
        <ele>169</ele>
        <time>2018-03-13T09:39:31Z</time>
      </trkpt>
      <trkpt lat="45.92927" lon="4.7634">
        <ele>169</ele>
        <time>2018-03-13T09:39:32Z</time>
      </trkpt>
      <trkpt lat="45.92932" lon="4.76346">
        <ele>169</ele>
        <time>2018-03-13T09:39:33Z</time>
      </trkpt>
      <trkpt lat="45.92937" lon="4.7635">
        <ele>169</ele>
        <time>2018-03-13T09:39:34Z</time>
      </trkpt>
      <trkpt lat="45.92942" lon="4.76355">
        <ele>169</ele>
        <time>2018-03-13T09:39:35Z</time>
      </trkpt>
      <trkpt lat="45.92947" lon="4.7636">
        <ele>169</ele>
        <time>2018-03-13T09:39:36Z</time>
      </trkpt>
      <trkpt lat="45.92952" lon="4.76365">
        <ele>169</ele>
        <time>2018-03-13T09:39:37Z</time>
      </trkpt>
      <trkpt lat="45.92957" lon="4.7637">
        <ele>169</ele>
        <time>2018-03-13T09:39:38Z</time>
      </trkpt>
      <trkpt lat="45.92962" lon="4.76375">
        <ele>169</ele>
        <time>2018-03-13T09:39:39Z</time>
      </trkpt>
      <trkpt lat="45.92966" lon="4.76379">
        <ele>169</ele>
        <time>2018-03-13T09:39:40Z</time>
      </trkpt>
      <trkpt lat="45.92971" lon="4.76383">
        <ele>169</ele>
        <time>2018-03-13T09:39:41Z</time>
      </trkpt>
      <trkpt lat="45.92975" lon="4.76388">
        <ele>169</ele>
        <time>2018-03-13T09:39:42Z</time>
      </trkpt>
      <trkpt lat="45.9298" lon="4.76392">
        <ele>169</ele>
        <time>2018-03-13T09:39:43Z</time>
      </trkpt>
      <trkpt lat="45.92985" lon="4.76397">
        <ele>169</ele>
        <time>2018-03-13T09:39:44Z</time>
      </trkpt>
      <trkpt lat="45.9299" lon="4.76401">
        <ele>169</ele>
        <time>2018-03-13T09:39:45Z</time>
      </trkpt>
      <trkpt lat="45.92995" lon="4.76406">
        <ele>169</ele>
        <time>2018-03-13T09:39:46Z</time>
      </trkpt>
      <trkpt lat="45.92999" lon="4.7641">
        <ele>169</ele>
        <time>2018-03-13T09:39:47Z</time>
      </trkpt>
      <trkpt lat="45.93003" lon="4.76414">
        <ele>169</ele>
        <time>2018-03-13T09:39:48Z</time>
      </trkpt>
      <trkpt lat="45.93008" lon="4.76419">
        <ele>169</ele>
        <time>2018-03-13T09:39:49Z</time>
      </trkpt>
      <trkpt lat="45.93013" lon="4.76424">
        <ele>169</ele>
        <time>2018-03-13T09:39:50Z</time>
      </trkpt>
      <trkpt lat="45.93017" lon="4.76428">
        <ele>169</ele>
        <time>2018-03-13T09:39:51Z</time>
      </trkpt>
      <trkpt lat="45.93022" lon="4.76434">
        <ele>169</ele>
        <time>2018-03-13T09:39:52Z</time>
      </trkpt>
      <trkpt lat="45.93027" lon="4.76438">
        <ele>169</ele>
        <time>2018-03-13T09:39:53Z</time>
      </trkpt>
      <trkpt lat="45.93031" lon="4.76443">
        <ele>169</ele>
        <time>2018-03-13T09:39:54Z</time>
      </trkpt>
      <trkpt lat="45.93037" lon="4.76448">
        <ele>169</ele>
        <time>2018-03-13T09:39:55Z</time>
      </trkpt>
      <trkpt lat="45.93041" lon="4.76454">
        <ele>169</ele>
        <time>2018-03-13T09:39:56Z</time>
      </trkpt>
      <trkpt lat="45.93046" lon="4.76458">
        <ele>169</ele>
        <time>2018-03-13T09:39:57Z</time>
      </trkpt>
      <trkpt lat="45.93051" lon="4.76462">
        <ele>169</ele>
        <time>2018-03-13T09:39:58Z</time>
      </trkpt>
      <trkpt lat="45.93057" lon="4.76467">
        <ele>169</ele>
        <time>2018-03-13T09:39:59Z</time>
      </trkpt>
      <trkpt lat="45.93061" lon="4.76472">
        <ele>169</ele>
        <time>2018-03-13T09:40:00Z</time>
      </trkpt>
      <trkpt lat="45.93066" lon="4.76477">
        <ele>169</ele>
        <time>2018-03-13T09:40:01Z</time>
      </trkpt>
      <trkpt lat="45.93071" lon="4.76482">
        <ele>169</ele>
        <time>2018-03-13T09:40:02Z</time>
      </trkpt>
      <trkpt lat="45.93076" lon="4.76488">
        <ele>170</ele>
        <time>2018-03-13T09:40:03Z</time>
      </trkpt>
      <trkpt lat="45.93081" lon="4.76493">
        <ele>170</ele>
        <time>2018-03-13T09:40:04Z</time>
      </trkpt>
      <trkpt lat="45.93086" lon="4.76498">
        <ele>170</ele>
        <time>2018-03-13T09:40:05Z</time>
      </trkpt>
      <trkpt lat="45.93091" lon="4.76502">
        <ele>170</ele>
        <time>2018-03-13T09:40:06Z</time>
      </trkpt>
      <trkpt lat="45.93096" lon="4.76507">
        <ele>170</ele>
        <time>2018-03-13T09:40:07Z</time>
      </trkpt>
      <trkpt lat="45.93101" lon="4.76512">
        <ele>170</ele>
        <time>2018-03-13T09:40:08Z</time>
      </trkpt>
      <trkpt lat="45.93106" lon="4.76517">
        <ele>170</ele>
        <time>2018-03-13T09:40:09Z</time>
      </trkpt>
      <trkpt lat="45.93111" lon="4.76522">
        <ele>170</ele>
        <time>2018-03-13T09:40:10Z</time>
      </trkpt>
      <trkpt lat="45.93116" lon="4.76527">
        <ele>170</ele>
        <time>2018-03-13T09:40:11Z</time>
      </trkpt>
      <trkpt lat="45.93121" lon="4.76532">
        <ele>170</ele>
        <time>2018-03-13T09:40:12Z</time>
      </trkpt>
      <trkpt lat="45.93126" lon="4.76537">
        <ele>170</ele>
        <time>2018-03-13T09:40:13Z</time>
      </trkpt>
      <trkpt lat="45.93132" lon="4.76541">
        <ele>170</ele>
        <time>2018-03-13T09:40:14Z</time>
      </trkpt>
      <trkpt lat="45.93136" lon="4.76546">
        <ele>170</ele>
        <time>2018-03-13T09:40:15Z</time>
      </trkpt>
      <trkpt lat="45.93141" lon="4.7655">
        <ele>170</ele>
        <time>2018-03-13T09:40:16Z</time>
      </trkpt>
      <trkpt lat="45.93146" lon="4.76555">
        <ele>170</ele>
        <time>2018-03-13T09:40:17Z</time>
      </trkpt>
      <trkpt lat="45.93151" lon="4.76559">
        <ele>170</ele>
        <time>2018-03-13T09:40:18Z</time>
      </trkpt>
      <trkpt lat="45.93156" lon="4.76566">
        <ele>170</ele>
        <time>2018-03-13T09:40:19Z</time>
      </trkpt>
      <trkpt lat="45.93161" lon="4.76571">
        <ele>170</ele>
        <time>2018-03-13T09:40:20Z</time>
      </trkpt>
      <trkpt lat="45.93167" lon="4.76576">
        <ele>170</ele>
        <time>2018-03-13T09:40:21Z</time>
      </trkpt>
      <trkpt lat="45.93171" lon="4.76579">
        <ele>171</ele>
        <time>2018-03-13T09:40:22Z</time>
      </trkpt>
      <trkpt lat="45.93177" lon="4.76586">
        <ele>171</ele>
        <time>2018-03-13T09:40:23Z</time>
      </trkpt>
      <trkpt lat="45.93182" lon="4.76591">
        <ele>171</ele>
        <time>2018-03-13T09:40:24Z</time>
      </trkpt>
      <trkpt lat="45.93187" lon="4.76597">
        <ele>171</ele>
        <time>2018-03-13T09:40:25Z</time>
      </trkpt>
      <trkpt lat="45.93192" lon="4.76602">
        <ele>170</ele>
        <time>2018-03-13T09:40:26Z</time>
      </trkpt>
      <trkpt lat="45.93197" lon="4.76607">
        <ele>170</ele>
        <time>2018-03-13T09:40:27Z</time>
      </trkpt>
      <trkpt lat="45.93202" lon="4.76613">
        <ele>170</ele>
        <time>2018-03-13T09:40:28Z</time>
      </trkpt>
      <trkpt lat="45.93207" lon="4.76618">
        <ele>170</ele>
        <time>2018-03-13T09:40:29Z</time>
      </trkpt>
      <trkpt lat="45.93213" lon="4.76621">
        <ele>170</ele>
        <time>2018-03-13T09:40:30Z</time>
      </trkpt>
      <trkpt lat="45.93219" lon="4.76626">
        <ele>170</ele>
        <time>2018-03-13T09:40:31Z</time>
      </trkpt>
      <trkpt lat="45.93223" lon="4.76631">
        <ele>170</ele>
        <time>2018-03-13T09:40:32Z</time>
      </trkpt>
      <trkpt lat="45.93228" lon="4.76636">
        <ele>171</ele>
        <time>2018-03-13T09:40:33Z</time>
      </trkpt>
      <trkpt lat="45.93233" lon="4.76641">
        <ele>171</ele>
        <time>2018-03-13T09:40:34Z</time>
      </trkpt>
      <trkpt lat="45.93238" lon="4.76646">
        <ele>171</ele>
        <time>2018-03-13T09:40:35Z</time>
      </trkpt>
      <trkpt lat="45.93243" lon="4.76651">
        <ele>171</ele>
        <time>2018-03-13T09:40:36Z</time>
      </trkpt>
      <trkpt lat="45.93248" lon="4.76656">
        <ele>171</ele>
        <time>2018-03-13T09:40:37Z</time>
      </trkpt>
      <trkpt lat="45.93252" lon="4.76662">
        <ele>171</ele>
        <time>2018-03-13T09:40:38Z</time>
      </trkpt>
      <trkpt lat="45.93257" lon="4.76667">
        <ele>172</ele>
        <time>2018-03-13T09:40:39Z</time>
      </trkpt>
      <trkpt lat="45.93263" lon="4.76672">
        <ele>172</ele>
        <time>2018-03-13T09:40:40Z</time>
      </trkpt>
      <trkpt lat="45.93266" lon="4.76677">
        <ele>172</ele>
        <time>2018-03-13T09:40:41Z</time>
      </trkpt>
      <trkpt lat="45.93272" lon="4.76683">
        <ele>172</ele>
        <time>2018-03-13T09:40:42Z</time>
      </trkpt>
      <trkpt lat="45.93276" lon="4.76686">
        <ele>172</ele>
        <time>2018-03-13T09:40:43Z</time>
      </trkpt>
      <trkpt lat="45.9328" lon="4.76691">
        <ele>172</ele>
        <time>2018-03-13T09:40:44Z</time>
      </trkpt>
      <trkpt lat="45.93285" lon="4.76697">
        <ele>172</ele>
        <time>2018-03-13T09:40:45Z</time>
      </trkpt>
      <trkpt lat="45.9329" lon="4.76701">
        <ele>172</ele>
        <time>2018-03-13T09:40:46Z</time>
      </trkpt>
      <trkpt lat="45.93295" lon="4.76706">
        <ele>172</ele>
        <time>2018-03-13T09:40:47Z</time>
      </trkpt>
      <trkpt lat="45.933" lon="4.7671">
        <ele>172</ele>
        <time>2018-03-13T09:40:48Z</time>
      </trkpt>
      <trkpt lat="45.93306" lon="4.76715">
        <ele>172</ele>
        <time>2018-03-13T09:40:49Z</time>
      </trkpt>
      <trkpt lat="45.93311" lon="4.76719">
        <ele>172</ele>
        <time>2018-03-13T09:40:50Z</time>
      </trkpt>
      <trkpt lat="45.93315" lon="4.76724">
        <ele>172</ele>
        <time>2018-03-13T09:40:51Z</time>
      </trkpt>
      <trkpt lat="45.93319" lon="4.76729">
        <ele>172</ele>
        <time>2018-03-13T09:40:52Z</time>
      </trkpt>
      <trkpt lat="45.93324" lon="4.76734">
        <ele>172</ele>
        <time>2018-03-13T09:40:53Z</time>
      </trkpt>
      <trkpt lat="45.93329" lon="4.76739">
        <ele>172</ele>
        <time>2018-03-13T09:40:54Z</time>
      </trkpt>
      <trkpt lat="45.93334" lon="4.76744">
        <ele>173</ele>
        <time>2018-03-13T09:40:55Z</time>
      </trkpt>
      <trkpt lat="45.93339" lon="4.76748">
        <ele>173</ele>
        <time>2018-03-13T09:40:56Z</time>
      </trkpt>
      <trkpt lat="45.93343" lon="4.76753">
        <ele>173</ele>
        <time>2018-03-13T09:40:57Z</time>
      </trkpt>
      <trkpt lat="45.93349" lon="4.76758">
        <ele>172</ele>
        <time>2018-03-13T09:40:58Z</time>
      </trkpt>
      <trkpt lat="45.93353" lon="4.76763">
        <ele>172</ele>
        <time>2018-03-13T09:40:59Z</time>
      </trkpt>
      <trkpt lat="45.93357" lon="4.76768">
        <ele>172</ele>
        <time>2018-03-13T09:41:00Z</time>
      </trkpt>
      <trkpt lat="45.93362" lon="4.76772">
        <ele>172</ele>
        <time>2018-03-13T09:41:01Z</time>
      </trkpt>
      <trkpt lat="45.93367" lon="4.76777">
        <ele>172</ele>
        <time>2018-03-13T09:41:02Z</time>
      </trkpt>
      <trkpt lat="45.93372" lon="4.76782">
        <ele>172</ele>
        <time>2018-03-13T09:41:03Z</time>
      </trkpt>
      <trkpt lat="45.93377" lon="4.76787">
        <ele>172</ele>
        <time>2018-03-13T09:41:04Z</time>
      </trkpt>
      <trkpt lat="45.93381" lon="4.76793">
        <ele>172</ele>
        <time>2018-03-13T09:41:05Z</time>
      </trkpt>
      <trkpt lat="45.93386" lon="4.76798">
        <ele>172</ele>
        <time>2018-03-13T09:41:06Z</time>
      </trkpt>
      <trkpt lat="45.9339" lon="4.76803">
        <ele>172</ele>
        <time>2018-03-13T09:41:07Z</time>
      </trkpt>
      <trkpt lat="45.93395" lon="4.76809">
        <ele>172</ele>
        <time>2018-03-13T09:41:08Z</time>
      </trkpt>
      <trkpt lat="45.934" lon="4.76814">
        <ele>172</ele>
        <time>2018-03-13T09:41:09Z</time>
      </trkpt>
      <trkpt lat="45.93404" lon="4.7682">
        <ele>172</ele>
        <time>2018-03-13T09:41:10Z</time>
      </trkpt>
      <trkpt lat="45.93408" lon="4.76827">
        <ele>172</ele>
        <time>2018-03-13T09:41:11Z</time>
      </trkpt>
      <trkpt lat="45.93412" lon="4.76834">
        <ele>172</ele>
        <time>2018-03-13T09:41:12Z</time>
      </trkpt>
      <trkpt lat="45.93415" lon="4.7684">
        <ele>172</ele>
        <time>2018-03-13T09:41:13Z</time>
      </trkpt>
      <trkpt lat="45.93418" lon="4.76848">
        <ele>171</ele>
        <time>2018-03-13T09:41:14Z</time>
      </trkpt>
      <trkpt lat="45.93422" lon="4.76856">
        <ele>171</ele>
        <time>2018-03-13T09:41:15Z</time>
      </trkpt>
      <trkpt lat="45.93425" lon="4.76863">
        <ele>171</ele>
        <time>2018-03-13T09:41:16Z</time>
      </trkpt>
      <trkpt lat="45.93428" lon="4.76871">
        <ele>171</ele>
        <time>2018-03-13T09:41:17Z</time>
      </trkpt>
      <trkpt lat="45.93431" lon="4.76878">
        <ele>171</ele>
        <time>2018-03-13T09:41:18Z</time>
      </trkpt>
      <trkpt lat="45.93433" lon="4.76885">
        <ele>171</ele>
        <time>2018-03-13T09:41:19Z</time>
      </trkpt>
      <trkpt lat="45.93436" lon="4.76892">
        <ele>171</ele>
        <time>2018-03-13T09:41:20Z</time>
      </trkpt>
      <trkpt lat="45.93438" lon="4.76899">
        <ele>171</ele>
        <time>2018-03-13T09:41:21Z</time>
      </trkpt>
      <trkpt lat="45.9344" lon="4.76907">
        <ele>170</ele>
        <time>2018-03-13T09:41:22Z</time>
      </trkpt>
      <trkpt lat="45.93442" lon="4.76914">
        <ele>170</ele>
        <time>2018-03-13T09:41:23Z</time>
      </trkpt>
      <trkpt lat="45.93444" lon="4.76922">
        <ele>170</ele>
        <time>2018-03-13T09:41:24Z</time>
      </trkpt>
      <trkpt lat="45.93445" lon="4.76929">
        <ele>170</ele>
        <time>2018-03-13T09:41:25Z</time>
      </trkpt>
      <trkpt lat="45.93447" lon="4.76937">
        <ele>170</ele>
        <time>2018-03-13T09:41:26Z</time>
      </trkpt>
      <trkpt lat="45.93448" lon="4.76946">
        <ele>170</ele>
        <time>2018-03-13T09:41:27Z</time>
      </trkpt>
      <trkpt lat="45.93449" lon="4.76954">
        <ele>170</ele>
        <time>2018-03-13T09:41:28Z</time>
      </trkpt>
      <trkpt lat="45.9345" lon="4.76962">
        <ele>170</ele>
        <time>2018-03-13T09:41:29Z</time>
      </trkpt>
      <trkpt lat="45.93451" lon="4.76969">
        <ele>170</ele>
        <time>2018-03-13T09:41:30Z</time>
      </trkpt>
      <trkpt lat="45.93452" lon="4.76977">
        <ele>170</ele>
        <time>2018-03-13T09:41:31Z</time>
      </trkpt>
      <trkpt lat="45.93454" lon="4.76985">
        <ele>170</ele>
        <time>2018-03-13T09:41:32Z</time>
      </trkpt>
      <trkpt lat="45.93456" lon="4.76993">
        <ele>170</ele>
        <time>2018-03-13T09:41:33Z</time>
      </trkpt>
      <trkpt lat="45.93457" lon="4.77">
        <ele>170</ele>
        <time>2018-03-13T09:41:34Z</time>
      </trkpt>
      <trkpt lat="45.93458" lon="4.77008">
        <ele>170</ele>
        <time>2018-03-13T09:41:35Z</time>
      </trkpt>
      <trkpt lat="45.9346" lon="4.77016">
        <ele>170</ele>
        <time>2018-03-13T09:41:36Z</time>
      </trkpt>
      <trkpt lat="45.93461" lon="4.77024">
        <ele>170</ele>
        <time>2018-03-13T09:41:37Z</time>
      </trkpt>
      <trkpt lat="45.93462" lon="4.77032">
        <ele>170</ele>
        <time>2018-03-13T09:41:38Z</time>
      </trkpt>
      <trkpt lat="45.93462" lon="4.77039">
        <ele>170</ele>
        <time>2018-03-13T09:41:39Z</time>
      </trkpt>
      <trkpt lat="45.93464" lon="4.77047">
        <ele>170</ele>
        <time>2018-03-13T09:41:40Z</time>
      </trkpt>
      <trkpt lat="45.93465" lon="4.77055">
        <ele>170</ele>
        <time>2018-03-13T09:41:41Z</time>
      </trkpt>
      <trkpt lat="45.93467" lon="4.77063">
        <ele>170</ele>
        <time>2018-03-13T09:41:42Z</time>
      </trkpt>
      <trkpt lat="45.93469" lon="4.77071">
        <ele>170</ele>
        <time>2018-03-13T09:41:43Z</time>
      </trkpt>
      <trkpt lat="45.9347" lon="4.77079">
        <ele>170</ele>
        <time>2018-03-13T09:41:44Z</time>
      </trkpt>
      <trkpt lat="45.93472" lon="4.77088">
        <ele>169</ele>
        <time>2018-03-13T09:41:45Z</time>
      </trkpt>
      <trkpt lat="45.93472" lon="4.77094">
        <ele>169</ele>
        <time>2018-03-13T09:41:46Z</time>
      </trkpt>
      <trkpt lat="45.93473" lon="4.77102">
        <ele>169</ele>
        <time>2018-03-13T09:41:47Z</time>
      </trkpt>
      <trkpt lat="45.93475" lon="4.7711">
        <ele>169</ele>
        <time>2018-03-13T09:41:48Z</time>
      </trkpt>
      <trkpt lat="45.93476" lon="4.77117">
        <ele>169</ele>
        <time>2018-03-13T09:41:49Z</time>
      </trkpt>
      <trkpt lat="45.93478" lon="4.77124">
        <ele>169</ele>
        <time>2018-03-13T09:41:50Z</time>
      </trkpt>
      <trkpt lat="45.93479" lon="4.77133">
        <ele>169</ele>
        <time>2018-03-13T09:41:51Z</time>
      </trkpt>
      <trkpt lat="45.93481" lon="4.7714">
        <ele>169</ele>
        <time>2018-03-13T09:41:52Z</time>
      </trkpt>
      <trkpt lat="45.93482" lon="4.77149">
        <ele>169</ele>
        <time>2018-03-13T09:41:53Z</time>
      </trkpt>
      <trkpt lat="45.93484" lon="4.77157">
        <ele>169</ele>
        <time>2018-03-13T09:41:54Z</time>
      </trkpt>
      <trkpt lat="45.93485" lon="4.77164">
        <ele>169</ele>
        <time>2018-03-13T09:41:55Z</time>
      </trkpt>
      <trkpt lat="45.93487" lon="4.77173">
        <ele>169</ele>
        <time>2018-03-13T09:41:56Z</time>
      </trkpt>
      <trkpt lat="45.93488" lon="4.7718">
        <ele>169</ele>
        <time>2018-03-13T09:41:57Z</time>
      </trkpt>
      <trkpt lat="45.9349" lon="4.77187">
        <ele>169</ele>
        <time>2018-03-13T09:41:58Z</time>
      </trkpt>
      <trkpt lat="45.93492" lon="4.77196">
        <ele>169</ele>
        <time>2018-03-13T09:41:59Z</time>
      </trkpt>
      <trkpt lat="45.93494" lon="4.77203">
        <ele>169</ele>
        <time>2018-03-13T09:42:00Z</time>
      </trkpt>
      <trkpt lat="45.93495" lon="4.77211">
        <ele>169</ele>
        <time>2018-03-13T09:42:01Z</time>
      </trkpt>
      <trkpt lat="45.93497" lon="4.77219">
        <ele>169</ele>
        <time>2018-03-13T09:42:02Z</time>
      </trkpt>
      <trkpt lat="45.93499" lon="4.77226">
        <ele>170</ele>
        <time>2018-03-13T09:42:03Z</time>
      </trkpt>
      <trkpt lat="45.935" lon="4.77234">
        <ele>170</ele>
        <time>2018-03-13T09:42:04Z</time>
      </trkpt>
      <trkpt lat="45.93501" lon="4.77242">
        <ele>170</ele>
        <time>2018-03-13T09:42:05Z</time>
      </trkpt>
      <trkpt lat="45.93504" lon="4.7725">
        <ele>170</ele>
        <time>2018-03-13T09:42:06Z</time>
      </trkpt>
      <trkpt lat="45.93505" lon="4.77257">
        <ele>170</ele>
        <time>2018-03-13T09:42:07Z</time>
      </trkpt>
      <trkpt lat="45.93508" lon="4.77266">
        <ele>170</ele>
        <time>2018-03-13T09:42:08Z</time>
      </trkpt>
      <trkpt lat="45.93509" lon="4.77275">
        <ele>170</ele>
        <time>2018-03-13T09:42:09Z</time>
      </trkpt>
      <trkpt lat="45.93512" lon="4.77282">
        <ele>170</ele>
        <time>2018-03-13T09:42:10Z</time>
      </trkpt>
      <trkpt lat="45.93513" lon="4.7729">
        <ele>170</ele>
        <time>2018-03-13T09:42:11Z</time>
      </trkpt>
      <trkpt lat="45.93515" lon="4.77298">
        <ele>170</ele>
        <time>2018-03-13T09:42:12Z</time>
      </trkpt>
      <trkpt lat="45.93516" lon="4.77305">
        <ele>170</ele>
        <time>2018-03-13T09:42:13Z</time>
      </trkpt>
      <trkpt lat="45.93518" lon="4.77313">
        <ele>170</ele>
        <time>2018-03-13T09:42:14Z</time>
      </trkpt>
      <trkpt lat="45.93521" lon="4.77321">
        <ele>170</ele>
        <time>2018-03-13T09:42:15Z</time>
      </trkpt>
      <trkpt lat="45.93522" lon="4.77329">
        <ele>170</ele>
        <time>2018-03-13T09:42:16Z</time>
      </trkpt>
      <trkpt lat="45.93524" lon="4.77336">
        <ele>170</ele>
        <time>2018-03-13T09:42:17Z</time>
      </trkpt>
      <trkpt lat="45.93526" lon="4.77345">
        <ele>170</ele>
        <time>2018-03-13T09:42:18Z</time>
      </trkpt>
      <trkpt lat="45.93526" lon="4.77352">
        <ele>170</ele>
        <time>2018-03-13T09:42:19Z</time>
      </trkpt>
      <trkpt lat="45.93527" lon="4.77359">
        <ele>170</ele>
        <time>2018-03-13T09:42:20Z</time>
      </trkpt>
      <trkpt lat="45.93529" lon="4.77368">
        <ele>170</ele>
        <time>2018-03-13T09:42:21Z</time>
      </trkpt>
      <trkpt lat="45.93531" lon="4.77376">
        <ele>170</ele>
        <time>2018-03-13T09:42:22Z</time>
      </trkpt>
      <trkpt lat="45.93533" lon="4.77384">
        <ele>170</ele>
        <time>2018-03-13T09:42:23Z</time>
      </trkpt>
      <trkpt lat="45.93534" lon="4.77393">
        <ele>170</ele>
        <time>2018-03-13T09:42:24Z</time>
      </trkpt>
      <trkpt lat="45.93536" lon="4.774">
        <ele>170</ele>
        <time>2018-03-13T09:42:25Z</time>
      </trkpt>
      <trkpt lat="45.93537" lon="4.77408">
        <ele>170</ele>
        <time>2018-03-13T09:42:26Z</time>
      </trkpt>
      <trkpt lat="45.93539" lon="4.77417">
        <ele>170</ele>
        <time>2018-03-13T09:42:27Z</time>
      </trkpt>
      <trkpt lat="45.93541" lon="4.77426">
        <ele>169</ele>
        <time>2018-03-13T09:42:28Z</time>
      </trkpt>
      <trkpt lat="45.93543" lon="4.77434">
        <ele>169</ele>
        <time>2018-03-13T09:42:29Z</time>
      </trkpt>
      <trkpt lat="45.93545" lon="4.77441">
        <ele>169</ele>
        <time>2018-03-13T09:42:30Z</time>
      </trkpt>
      <trkpt lat="45.93546" lon="4.77449">
        <ele>169</ele>
        <time>2018-03-13T09:42:31Z</time>
      </trkpt>
      <trkpt lat="45.93547" lon="4.77457">
        <ele>169</ele>
        <time>2018-03-13T09:42:32Z</time>
      </trkpt>
      <trkpt lat="45.93549" lon="4.77465">
        <ele>169</ele>
        <time>2018-03-13T09:42:33Z</time>
      </trkpt>
      <trkpt lat="45.93551" lon="4.77473">
        <ele>169</ele>
        <time>2018-03-13T09:42:34Z</time>
      </trkpt>
      <trkpt lat="45.93553" lon="4.77481">
        <ele>169</ele>
        <time>2018-03-13T09:42:35Z</time>
      </trkpt>
      <trkpt lat="45.93555" lon="4.77488">
        <ele>169</ele>
        <time>2018-03-13T09:42:36Z</time>
      </trkpt>
      <trkpt lat="45.93557" lon="4.77495">
        <ele>169</ele>
        <time>2018-03-13T09:42:37Z</time>
      </trkpt>
      <trkpt lat="45.93558" lon="4.77504">
        <ele>169</ele>
        <time>2018-03-13T09:42:38Z</time>
      </trkpt>
      <trkpt lat="45.9356" lon="4.77512">
        <ele>169</ele>
        <time>2018-03-13T09:42:39Z</time>
      </trkpt>
      <trkpt lat="45.93562" lon="4.7752">
        <ele>169</ele>
        <time>2018-03-13T09:42:40Z</time>
      </trkpt>
      <trkpt lat="45.93563" lon="4.77528">
        <ele>169</ele>
        <time>2018-03-13T09:42:41Z</time>
      </trkpt>
      <trkpt lat="45.93567" lon="4.77538">
        <ele>169</ele>
        <time>2018-03-13T09:42:42Z</time>
      </trkpt>
      <trkpt lat="45.93569" lon="4.77546">
        <ele>169</ele>
        <time>2018-03-13T09:42:43Z</time>
      </trkpt>
      <trkpt lat="45.93572" lon="4.77554">
        <ele>169</ele>
        <time>2018-03-13T09:42:44Z</time>
      </trkpt>
      <trkpt lat="45.93575" lon="4.77563">
        <ele>169</ele>
        <time>2018-03-13T09:42:45Z</time>
      </trkpt>
      <trkpt lat="45.93578" lon="4.77572">
        <ele>170</ele>
        <time>2018-03-13T09:42:46Z</time>
      </trkpt>
      <trkpt lat="45.9358" lon="4.7758">
        <ele>170</ele>
        <time>2018-03-13T09:42:47Z</time>
      </trkpt>
      <trkpt lat="45.93584" lon="4.77588">
        <ele>170</ele>
        <time>2018-03-13T09:42:48Z</time>
      </trkpt>
      <trkpt lat="45.93586" lon="4.77597">
        <ele>170</ele>
        <time>2018-03-13T09:42:49Z</time>
      </trkpt>
      <trkpt lat="45.93589" lon="4.77606">
        <ele>170</ele>
        <time>2018-03-13T09:42:50Z</time>
      </trkpt>
      <trkpt lat="45.93591" lon="4.77614">
        <ele>170</ele>
        <time>2018-03-13T09:42:51Z</time>
      </trkpt>
      <trkpt lat="45.93594" lon="4.77622">
        <ele>170</ele>
        <time>2018-03-13T09:42:52Z</time>
      </trkpt>
      <trkpt lat="45.93597" lon="4.77631">
        <ele>169</ele>
        <time>2018-03-13T09:42:53Z</time>
      </trkpt>
      <trkpt lat="45.936" lon="4.77639">
        <ele>169</ele>
        <time>2018-03-13T09:42:54Z</time>
      </trkpt>
      <trkpt lat="45.93603" lon="4.77646">
        <ele>169</ele>
        <time>2018-03-13T09:42:55Z</time>
      </trkpt>
      <trkpt lat="45.93606" lon="4.77654">
        <ele>169</ele>
        <time>2018-03-13T09:42:56Z</time>
      </trkpt>
      <trkpt lat="45.93609" lon="4.77662">
        <ele>169</ele>
        <time>2018-03-13T09:42:57Z</time>
      </trkpt>
      <trkpt lat="45.93613" lon="4.77669">
        <ele>169</ele>
        <time>2018-03-13T09:42:58Z</time>
      </trkpt>
      <trkpt lat="45.93616" lon="4.77676">
        <ele>169</ele>
        <time>2018-03-13T09:42:59Z</time>
      </trkpt>
      <trkpt lat="45.9362" lon="4.77683">
        <ele>169</ele>
        <time>2018-03-13T09:43:00Z</time>
      </trkpt>
      <trkpt lat="45.93624" lon="4.7769">
        <ele>169</ele>
        <time>2018-03-13T09:43:01Z</time>
      </trkpt>
      <trkpt lat="45.93627" lon="4.77696">
        <ele>169</ele>
        <time>2018-03-13T09:43:02Z</time>
      </trkpt>
      <trkpt lat="45.9363" lon="4.77702">
        <ele>169</ele>
        <time>2018-03-13T09:43:03Z</time>
      </trkpt>
      <trkpt lat="45.93633" lon="4.77707">
        <ele>170</ele>
        <time>2018-03-13T09:43:04Z</time>
      </trkpt>
      <trkpt lat="45.93637" lon="4.77713">
        <ele>170</ele>
        <time>2018-03-13T09:43:05Z</time>
      </trkpt>
      <trkpt lat="45.9364" lon="4.77719">
        <ele>170</ele>
        <time>2018-03-13T09:43:06Z</time>
      </trkpt>
      <trkpt lat="45.93643" lon="4.77724">
        <ele>170</ele>
        <time>2018-03-13T09:43:07Z</time>
      </trkpt>
      <trkpt lat="45.93646" lon="4.77729">
        <ele>170</ele>
        <time>2018-03-13T09:43:08Z</time>
      </trkpt>
      <trkpt lat="45.93651" lon="4.77738">
        <ele>170</ele>
        <time>2018-03-13T09:43:10Z</time>
      </trkpt>
      <trkpt lat="45.93654" lon="4.77741">
        <ele>170</ele>
        <time>2018-03-13T09:43:11Z</time>
      </trkpt>
      <trkpt lat="45.93659" lon="4.7775">
        <ele>171</ele>
        <time>2018-03-13T09:43:14Z</time>
      </trkpt>
      <trkpt lat="45.93661" lon="4.77753">
        <ele>171</ele>
        <time>2018-03-13T09:43:15Z</time>
      </trkpt>
      <trkpt lat="45.93667" lon="4.77761">
        <ele>170</ele>
        <time>2018-03-13T09:43:18Z</time>
      </trkpt>
      <trkpt lat="45.93669" lon="4.77764">
        <ele>170</ele>
        <time>2018-03-13T09:43:19Z</time>
      </trkpt>
      <trkpt lat="45.93673" lon="4.77771">
        <ele>170</ele>
        <time>2018-03-13T09:43:21Z</time>
      </trkpt>
      <trkpt lat="45.93675" lon="4.77774">
        <ele>170</ele>
        <time>2018-03-13T09:43:22Z</time>
      </trkpt>
      <trkpt lat="45.93678" lon="4.77778">
        <ele>170</ele>
        <time>2018-03-13T09:43:23Z</time>
      </trkpt>
      <trkpt lat="45.93685" lon="4.77787">
        <ele>170</ele>
        <time>2018-03-13T09:43:24Z</time>
      </trkpt>
      <trkpt lat="45.93691" lon="4.77795">
        <ele>169</ele>
        <time>2018-03-13T09:43:27Z</time>
      </trkpt>
      <trkpt lat="45.93696" lon="4.77802">
        <ele>169</ele>
        <time>2018-03-13T09:43:28Z</time>
      </trkpt>
      <trkpt lat="45.937" lon="4.77808">
        <ele>169</ele>
        <time>2018-03-13T09:43:30Z</time>
      </trkpt>
      <trkpt lat="45.93704" lon="4.77813">
        <ele>169</ele>
        <time>2018-03-13T09:43:31Z</time>
      </trkpt>
      <trkpt lat="45.9371" lon="4.77821">
        <ele>169</ele>
        <time>2018-03-13T09:43:34Z</time>
      </trkpt>
      <trkpt lat="45.93712" lon="4.77823">
        <ele>169</ele>
        <time>2018-03-13T09:43:35Z</time>
      </trkpt>
      <trkpt lat="45.93719" lon="4.77831">
        <ele>168</ele>
        <time>2018-03-13T09:43:38Z</time>
      </trkpt>
      <trkpt lat="45.93721" lon="4.77835">
        <ele>167</ele>
        <time>2018-03-13T09:43:39Z</time>
      </trkpt>
      <trkpt lat="45.93726" lon="4.77841">
        <ele>167</ele>
        <time>2018-03-13T09:43:41Z</time>
      </trkpt>
      <trkpt lat="45.93733" lon="4.77851">
        <ele>167</ele>
        <time>2018-03-13T09:43:42Z</time>
      </trkpt>
      <trkpt lat="45.93739" lon="4.77858">
        <ele>167</ele>
        <time>2018-03-13T09:43:44Z</time>
      </trkpt>
      <trkpt lat="45.93742" lon="4.77862">
        <ele>167</ele>
        <time>2018-03-13T09:43:45Z</time>
      </trkpt>
      <trkpt lat="45.93748" lon="4.7787">
        <ele>167</ele>
        <time>2018-03-13T09:43:47Z</time>
      </trkpt>
      <trkpt lat="45.93751" lon="4.77874">
        <ele>166</ele>
        <time>2018-03-13T09:43:48Z</time>
      </trkpt>
      <trkpt lat="45.93757" lon="4.77881">
        <ele>166</ele>
        <time>2018-03-13T09:43:50Z</time>
      </trkpt>
      <trkpt lat="45.9376" lon="4.77885">
        <ele>166</ele>
        <time>2018-03-13T09:43:51Z</time>
      </trkpt>
      <trkpt lat="45.93766" lon="4.77893">
        <ele>166</ele>
        <time>2018-03-13T09:43:53Z</time>
      </trkpt>
      <trkpt lat="45.93769" lon="4.77897">
        <ele>166</ele>
        <time>2018-03-13T09:43:54Z</time>
      </trkpt>
      <trkpt lat="45.93776" lon="4.77905">
        <ele>166</ele>
        <time>2018-03-13T09:43:56Z</time>
      </trkpt>
      <trkpt lat="45.93779" lon="4.77909">
        <ele>166</ele>
        <time>2018-03-13T09:43:57Z</time>
      </trkpt>
      <trkpt lat="45.93785" lon="4.77918">
        <ele>168</ele>
        <time>2018-03-13T09:43:59Z</time>
      </trkpt>
      <trkpt lat="45.93788" lon="4.77922">
        <ele>168</ele>
        <time>2018-03-13T09:44:00Z</time>
      </trkpt>
      <trkpt lat="45.93795" lon="4.7793">
        <ele>168</ele>
        <time>2018-03-13T09:44:02Z</time>
      </trkpt>
      <trkpt lat="45.93798" lon="4.77935">
        <ele>168</ele>
        <time>2018-03-13T09:44:03Z</time>
      </trkpt>
      <trkpt lat="45.93801" lon="4.77939">
        <ele>169</ele>
        <time>2018-03-13T09:44:04Z</time>
      </trkpt>
      <trkpt lat="45.93805" lon="4.77944">
        <ele>169</ele>
        <time>2018-03-13T09:44:05Z</time>
      </trkpt>
      <trkpt lat="45.93809" lon="4.77949">
        <ele>169</ele>
        <time>2018-03-13T09:44:06Z</time>
      </trkpt>
      <trkpt lat="45.93812" lon="4.77954">
        <ele>170</ele>
        <time>2018-03-13T09:44:07Z</time>
      </trkpt>
      <trkpt lat="45.93816" lon="4.77959">
        <ele>170</ele>
        <time>2018-03-13T09:44:08Z</time>
      </trkpt>
      <trkpt lat="45.9382" lon="4.77965">
        <ele>171</ele>
        <time>2018-03-13T09:44:09Z</time>
      </trkpt>
      <trkpt lat="45.93825" lon="4.7797">
        <ele>172</ele>
        <time>2018-03-13T09:44:10Z</time>
      </trkpt>
      <trkpt lat="45.93829" lon="4.77975">
        <ele>173</ele>
        <time>2018-03-13T09:44:11Z</time>
      </trkpt>
      <trkpt lat="45.93833" lon="4.7798">
        <ele>174</ele>
        <time>2018-03-13T09:44:12Z</time>
      </trkpt>
      <trkpt lat="45.93837" lon="4.77986">
        <ele>178</ele>
        <time>2018-03-13T09:44:13Z</time>
      </trkpt>
      <trkpt lat="45.9384" lon="4.77992">
        <ele>179</ele>
        <time>2018-03-13T09:44:14Z</time>
      </trkpt>
      <trkpt lat="45.93842" lon="4.78">
        <ele>180</ele>
        <time>2018-03-13T09:44:15Z</time>
      </trkpt>
      <trkpt lat="45.93842" lon="4.78009">
        <ele>181</ele>
        <time>2018-03-13T09:44:16Z</time>
      </trkpt>
      <trkpt lat="45.93843" lon="4.78018">
        <ele>181</ele>
        <time>2018-03-13T09:44:17Z</time>
      </trkpt>
      <trkpt lat="45.93845" lon="4.78026">
        <ele>182</ele>
        <time>2018-03-13T09:44:18Z</time>
      </trkpt>
      <trkpt lat="45.93847" lon="4.78034">
        <ele>182</ele>
        <time>2018-03-13T09:44:19Z</time>
      </trkpt>
      <trkpt lat="45.93849" lon="4.78041">
        <ele>183</ele>
        <time>2018-03-13T09:44:20Z</time>
      </trkpt>
      <trkpt lat="45.93849" lon="4.78049">
        <ele>183</ele>
        <time>2018-03-13T09:44:21Z</time>
      </trkpt>
      <trkpt lat="45.93849" lon="4.78052">
        <ele>183</ele>
        <time>2018-03-13T09:44:22Z</time>
      </trkpt>
      <trkpt lat="45.93847" lon="4.78062">
        <ele>182</ele>
        <time>2018-03-13T09:44:23Z</time>
      </trkpt>
      <trkpt lat="45.93846" lon="4.78069">
        <ele>182</ele>
        <time>2018-03-13T09:44:24Z</time>
      </trkpt>
      <trkpt lat="45.93844" lon="4.78076">
        <ele>182</ele>
        <time>2018-03-13T09:44:25Z</time>
      </trkpt>
      <trkpt lat="45.93843" lon="4.78083">
        <ele>181</ele>
        <time>2018-03-13T09:44:26Z</time>
      </trkpt>
      <trkpt lat="45.93842" lon="4.78089">
        <ele>182</ele>
        <time>2018-03-13T09:44:27Z</time>
      </trkpt>
      <trkpt lat="45.93841" lon="4.78096">
        <ele>183</ele>
        <time>2018-03-13T09:44:28Z</time>
      </trkpt>
      <trkpt lat="45.93839" lon="4.78103">
        <ele>183</ele>
        <time>2018-03-13T09:44:29Z</time>
      </trkpt>
      <trkpt lat="45.93838" lon="4.7811">
        <ele>184</ele>
        <time>2018-03-13T09:44:30Z</time>
      </trkpt>
      <trkpt lat="45.93837" lon="4.78117">
        <ele>184</ele>
        <time>2018-03-13T09:44:31Z</time>
      </trkpt>
      <trkpt lat="45.93835" lon="4.78123">
        <ele>184</ele>
        <time>2018-03-13T09:44:32Z</time>
      </trkpt>
      <trkpt lat="45.93833" lon="4.78131">
        <ele>180</ele>
        <time>2018-03-13T09:44:33Z</time>
      </trkpt>
      <trkpt lat="45.93831" lon="4.78137">
        <ele>180</ele>
        <time>2018-03-13T09:44:34Z</time>
      </trkpt>
      <trkpt lat="45.9383" lon="4.78145">
        <ele>180</ele>
        <time>2018-03-13T09:44:35Z</time>
      </trkpt>
      <trkpt lat="45.93828" lon="4.78151">
        <ele>181</ele>
        <time>2018-03-13T09:44:36Z</time>
      </trkpt>
      <trkpt lat="45.93827" lon="4.78158">
        <ele>181</ele>
        <time>2018-03-13T09:44:37Z</time>
      </trkpt>
      <trkpt lat="45.93825" lon="4.78165">
        <ele>181</ele>
        <time>2018-03-13T09:44:38Z</time>
      </trkpt>
      <trkpt lat="45.93823" lon="4.78171">
        <ele>182</ele>
        <time>2018-03-13T09:44:39Z</time>
      </trkpt>
      <trkpt lat="45.93822" lon="4.78177">
        <ele>182</ele>
        <time>2018-03-13T09:44:40Z</time>
      </trkpt>
      <trkpt lat="45.9382" lon="4.78183">
        <ele>182</ele>
        <time>2018-03-13T09:44:41Z</time>
      </trkpt>
      <trkpt lat="45.93818" lon="4.78194">
        <ele>182</ele>
        <time>2018-03-13T09:44:43Z</time>
      </trkpt>
      <trkpt lat="45.93816" lon="4.782">
        <ele>182</ele>
        <time>2018-03-13T09:44:44Z</time>
      </trkpt>
      <trkpt lat="45.93813" lon="4.78211">
        <ele>182</ele>
        <time>2018-03-13T09:44:46Z</time>
      </trkpt>
      <trkpt lat="45.93811" lon="4.78216">
        <ele>182</ele>
        <time>2018-03-13T09:44:47Z</time>
      </trkpt>
      <trkpt lat="45.93808" lon="4.78227">
        <ele>182</ele>
        <time>2018-03-13T09:44:49Z</time>
      </trkpt>
      <trkpt lat="45.93805" lon="4.78232">
        <ele>182</ele>
        <time>2018-03-13T09:44:50Z</time>
      </trkpt>
      <trkpt lat="45.938" lon="4.78242">
        <ele>182</ele>
        <time>2018-03-13T09:44:52Z</time>
      </trkpt>
      <trkpt lat="45.93797" lon="4.78248">
        <ele>182</ele>
        <time>2018-03-13T09:44:53Z</time>
      </trkpt>
      <trkpt lat="45.93796" lon="4.78255">
        <ele>183</ele>
        <time>2018-03-13T09:44:54Z</time>
      </trkpt>
      <trkpt lat="45.93796" lon="4.78262">
        <ele>183</ele>
        <time>2018-03-13T09:44:55Z</time>
      </trkpt>
      <trkpt lat="45.93795" lon="4.78269">
        <ele>183</ele>
        <time>2018-03-13T09:44:56Z</time>
      </trkpt>
      <trkpt lat="45.93794" lon="4.78276">
        <ele>183</ele>
        <time>2018-03-13T09:44:57Z</time>
      </trkpt>
      <trkpt lat="45.93792" lon="4.78282">
        <ele>183</ele>
        <time>2018-03-13T09:44:58Z</time>
      </trkpt>
      <trkpt lat="45.9379" lon="4.78289">
        <ele>183</ele>
        <time>2018-03-13T09:44:59Z</time>
      </trkpt>
      <trkpt lat="45.93787" lon="4.78294">
        <ele>183</ele>
        <time>2018-03-13T09:45:00Z</time>
      </trkpt>
      <trkpt lat="45.93784" lon="4.78301">
        <ele>183</ele>
        <time>2018-03-13T09:45:01Z</time>
      </trkpt>
      <trkpt lat="45.93782" lon="4.78308">
        <ele>183</ele>
        <time>2018-03-13T09:45:02Z</time>
      </trkpt>
      <trkpt lat="45.9378" lon="4.78316">
        <ele>183</ele>
        <time>2018-03-13T09:45:03Z</time>
      </trkpt>
      <trkpt lat="45.93778" lon="4.78323">
        <ele>183</ele>
        <time>2018-03-13T09:45:04Z</time>
      </trkpt>
      <trkpt lat="45.93776" lon="4.7833">
        <ele>183</ele>
        <time>2018-03-13T09:45:05Z</time>
      </trkpt>
      <trkpt lat="45.93774" lon="4.78337">
        <ele>183</ele>
        <time>2018-03-13T09:45:06Z</time>
      </trkpt>
      <trkpt lat="45.93772" lon="4.78344">
        <ele>183</ele>
        <time>2018-03-13T09:45:07Z</time>
      </trkpt>
      <trkpt lat="45.9377" lon="4.7835">
        <ele>183</ele>
        <time>2018-03-13T09:45:08Z</time>
      </trkpt>
      <trkpt lat="45.93767" lon="4.78357">
        <ele>183</ele>
        <time>2018-03-13T09:45:09Z</time>
      </trkpt>
      <trkpt lat="45.93765" lon="4.78364">
        <ele>183</ele>
        <time>2018-03-13T09:45:10Z</time>
      </trkpt>
      <trkpt lat="45.93763" lon="4.78372">
        <ele>183</ele>
        <time>2018-03-13T09:45:11Z</time>
      </trkpt>
      <trkpt lat="45.93762" lon="4.78379">
        <ele>183</ele>
        <time>2018-03-13T09:45:12Z</time>
      </trkpt>
      <trkpt lat="45.93759" lon="4.78387">
        <ele>183</ele>
        <time>2018-03-13T09:45:13Z</time>
      </trkpt>
      <trkpt lat="45.93757" lon="4.78395">
        <ele>183</ele>
        <time>2018-03-13T09:45:14Z</time>
      </trkpt>
      <trkpt lat="45.93756" lon="4.78403">
        <ele>182</ele>
        <time>2018-03-13T09:45:15Z</time>
      </trkpt>
      <trkpt lat="45.93753" lon="4.78411">
        <ele>182</ele>
        <time>2018-03-13T09:45:16Z</time>
      </trkpt>
      <trkpt lat="45.93752" lon="4.78419">
        <ele>181</ele>
        <time>2018-03-13T09:45:17Z</time>
      </trkpt>
      <trkpt lat="45.9375" lon="4.78427">
        <ele>180</ele>
        <time>2018-03-13T09:45:18Z</time>
      </trkpt>
      <trkpt lat="45.93748" lon="4.78435">
        <ele>180</ele>
        <time>2018-03-13T09:45:19Z</time>
      </trkpt>
      <trkpt lat="45.93746" lon="4.78443">
        <ele>180</ele>
        <time>2018-03-13T09:45:20Z</time>
      </trkpt>
      <trkpt lat="45.93744" lon="4.7845">
        <ele>180</ele>
        <time>2018-03-13T09:45:21Z</time>
      </trkpt>
      <trkpt lat="45.93742" lon="4.78459">
        <ele>180</ele>
        <time>2018-03-13T09:45:22Z</time>
      </trkpt>
      <trkpt lat="45.9374" lon="4.78466">
        <ele>180</ele>
        <time>2018-03-13T09:45:23Z</time>
      </trkpt>
      <trkpt lat="45.93737" lon="4.78475">
        <ele>180</ele>
        <time>2018-03-13T09:45:24Z</time>
      </trkpt>
      <trkpt lat="45.93735" lon="4.78483">
        <ele>180</ele>
        <time>2018-03-13T09:45:25Z</time>
      </trkpt>
      <trkpt lat="45.93733" lon="4.78492">
        <ele>180</ele>
        <time>2018-03-13T09:45:26Z</time>
      </trkpt>
      <trkpt lat="45.93731" lon="4.785">
        <ele>179</ele>
        <time>2018-03-13T09:45:27Z</time>
      </trkpt>
      <trkpt lat="45.93729" lon="4.78509">
        <ele>179</ele>
        <time>2018-03-13T09:45:28Z</time>
      </trkpt>
      <trkpt lat="45.93727" lon="4.78518">
        <ele>179</ele>
        <time>2018-03-13T09:45:29Z</time>
      </trkpt>
      <trkpt lat="45.93724" lon="4.78525">
        <ele>178</ele>
        <time>2018-03-13T09:45:30Z</time>
      </trkpt>
      <trkpt lat="45.93722" lon="4.78533">
        <ele>178</ele>
        <time>2018-03-13T09:45:31Z</time>
      </trkpt>
      <trkpt lat="45.9372" lon="4.78541">
        <ele>178</ele>
        <time>2018-03-13T09:45:32Z</time>
      </trkpt>
      <trkpt lat="45.93718" lon="4.78551">
        <ele>178</ele>
        <time>2018-03-13T09:45:33Z</time>
      </trkpt>
      <trkpt lat="45.93716" lon="4.7856">
        <ele>178</ele>
        <time>2018-03-13T09:45:34Z</time>
      </trkpt>
      <trkpt lat="45.93714" lon="4.78568">
        <ele>178</ele>
        <time>2018-03-13T09:45:35Z</time>
      </trkpt>
      <trkpt lat="45.93711" lon="4.78577">
        <ele>177</ele>
        <time>2018-03-13T09:45:36Z</time>
      </trkpt>
      <trkpt lat="45.93709" lon="4.78586">
        <ele>176</ele>
        <time>2018-03-13T09:45:37Z</time>
      </trkpt>
      <trkpt lat="45.93707" lon="4.78595">
        <ele>176</ele>
        <time>2018-03-13T09:45:38Z</time>
      </trkpt>
      <trkpt lat="45.93705" lon="4.78603">
        <ele>176</ele>
        <time>2018-03-13T09:45:39Z</time>
      </trkpt>
      <trkpt lat="45.93702" lon="4.78611">
        <ele>176</ele>
        <time>2018-03-13T09:45:40Z</time>
      </trkpt>
      <trkpt lat="45.93701" lon="4.78618">
        <ele>176</ele>
        <time>2018-03-13T09:45:41Z</time>
      </trkpt>
      <trkpt lat="45.93705" lon="4.7863">
        <ele>176</ele>
        <time>2018-03-13T09:45:43Z</time>
      </trkpt>
      <trkpt lat="45.93708" lon="4.78634">
        <ele>176</ele>
        <time>2018-03-13T09:45:44Z</time>
      </trkpt>
      <trkpt lat="45.93716" lon="4.78634">
        <ele>176</ele>
        <time>2018-03-13T09:45:46Z</time>
      </trkpt>
      <trkpt lat="45.93719" lon="4.78631">
        <ele>177</ele>
        <time>2018-03-13T09:45:47Z</time>
      </trkpt>
      <trkpt lat="45.93725" lon="4.78629">
        <ele>177</ele>
        <time>2018-03-13T09:45:49Z</time>
      </trkpt>
      <trkpt lat="45.93729" lon="4.78628">
        <ele>177</ele>
        <time>2018-03-13T09:45:50Z</time>
      </trkpt>
      <trkpt lat="45.93737" lon="4.78625">
        <ele>177</ele>
        <time>2018-03-13T09:45:54Z</time>
      </trkpt>
      <trkpt lat="45.9374" lon="4.78625">
        <ele>177</ele>
        <time>2018-03-13T09:45:55Z</time>
      </trkpt>
      <trkpt lat="45.93748" lon="4.78623">
        <ele>177</ele>
        <time>2018-03-13T09:45:58Z</time>
      </trkpt>
      <trkpt lat="45.93751" lon="4.78623">
        <ele>181</ele>
        <time>2018-03-13T09:45:59Z</time>
      </trkpt>
      <trkpt lat="45.93759" lon="4.78621">
        <ele>181</ele>
        <time>2018-03-13T09:46:02Z</time>
      </trkpt>
      <trkpt lat="45.93762" lon="4.7862">
        <ele>181</ele>
        <time>2018-03-13T09:46:03Z</time>
      </trkpt>
      <trkpt lat="45.9377" lon="4.78618">
        <ele>181</ele>
        <time>2018-03-13T09:46:06Z</time>
      </trkpt>
      <trkpt lat="45.93773" lon="4.78617">
        <ele>181</ele>
        <time>2018-03-13T09:46:07Z</time>
      </trkpt>
      <trkpt lat="45.93781" lon="4.78615">
        <ele>181</ele>
        <time>2018-03-13T09:46:10Z</time>
      </trkpt>
      <trkpt lat="45.93784" lon="4.78614">
        <ele>182</ele>
        <time>2018-03-13T09:46:11Z</time>
      </trkpt>
      <trkpt lat="45.93792" lon="4.78613">
        <ele>182</ele>
        <time>2018-03-13T09:46:14Z</time>
      </trkpt>
      <trkpt lat="45.93794" lon="4.78612">
        <ele>182</ele>
        <time>2018-03-13T09:46:15Z</time>
      </trkpt>
      <trkpt lat="45.93803" lon="4.78611">
        <ele>182</ele>
        <time>2018-03-13T09:46:18Z</time>
      </trkpt>
      <trkpt lat="45.93805" lon="4.7861">
        <ele>183</ele>
        <time>2018-03-13T09:46:19Z</time>
      </trkpt>
      <trkpt lat="45.93813" lon="4.78609">
        <ele>183</ele>
        <time>2018-03-13T09:46:22Z</time>
      </trkpt>
      <trkpt lat="45.93816" lon="4.78609">
        <ele>183</ele>
        <time>2018-03-13T09:46:23Z</time>
      </trkpt>
      <trkpt lat="45.93824" lon="4.78607">
        <ele>184</ele>
        <time>2018-03-13T09:46:26Z</time>
      </trkpt>
      <trkpt lat="45.93826" lon="4.78607">
        <ele>184</ele>
        <time>2018-03-13T09:46:27Z</time>
      </trkpt>
      <trkpt lat="45.93835" lon="4.78605">
        <ele>187</ele>
        <time>2018-03-13T09:46:31Z</time>
      </trkpt>
      <trkpt lat="45.93837" lon="4.78605">
        <ele>187</ele>
        <time>2018-03-13T09:46:32Z</time>
      </trkpt>
      <trkpt lat="45.93845" lon="4.78601">
        <ele>188</ele>
        <time>2018-03-13T09:46:36Z</time>
      </trkpt>
      <trkpt lat="45.93847" lon="4.78601">
        <ele>188</ele>
        <time>2018-03-13T09:46:37Z</time>
      </trkpt>
      <trkpt lat="45.93856" lon="4.78599">
        <ele>188</ele>
        <time>2018-03-13T09:46:42Z</time>
      </trkpt>
      <trkpt lat="45.93858" lon="4.78599">
        <ele>188</ele>
        <time>2018-03-13T09:46:43Z</time>
      </trkpt>
      <trkpt lat="45.93866" lon="4.78597">
        <ele>188</ele>
        <time>2018-03-13T09:46:47Z</time>
      </trkpt>
      <trkpt lat="45.93868" lon="4.78597">
        <ele>188</ele>
        <time>2018-03-13T09:46:48Z</time>
      </trkpt>
      <trkpt lat="45.93877" lon="4.78595">
        <ele>189</ele>
        <time>2018-03-13T09:46:52Z</time>
      </trkpt>
      <trkpt lat="45.93879" lon="4.78594">
        <ele>189</ele>
        <time>2018-03-13T09:46:53Z</time>
      </trkpt>
      <trkpt lat="45.93888" lon="4.78593">
        <ele>190</ele>
        <time>2018-03-13T09:46:57Z</time>
      </trkpt>
      <trkpt lat="45.9389" lon="4.78592">
        <ele>190</ele>
        <time>2018-03-13T09:46:58Z</time>
      </trkpt>
      <trkpt lat="45.93897" lon="4.7859">
        <ele>190</ele>
        <time>2018-03-13T09:47:02Z</time>
      </trkpt>
      <trkpt lat="45.93899" lon="4.78589">
        <ele>190</ele>
        <time>2018-03-13T09:47:03Z</time>
      </trkpt>
      <trkpt lat="45.93907" lon="4.78587">
        <ele>191</ele>
        <time>2018-03-13T09:47:07Z</time>
      </trkpt>
      <trkpt lat="45.93909" lon="4.78586">
        <ele>192</ele>
        <time>2018-03-13T09:47:08Z</time>
      </trkpt>
      <trkpt lat="45.93915" lon="4.78582">
        <ele>193</ele>
        <time>2018-03-13T09:47:12Z</time>
      </trkpt>
      <trkpt lat="45.93917" lon="4.7858">
        <ele>193</ele>
        <time>2018-03-13T09:47:13Z</time>
      </trkpt>
      <trkpt lat="45.93924" lon="4.78574">
        <ele>195</ele>
        <time>2018-03-13T09:47:18Z</time>
      </trkpt>
      <trkpt lat="45.93926" lon="4.78574">
        <ele>195</ele>
        <time>2018-03-13T09:47:19Z</time>
      </trkpt>
      <trkpt lat="45.93932" lon="4.78582">
        <ele>196</ele>
        <time>2018-03-13T09:47:24Z</time>
      </trkpt>
      <trkpt lat="45.93932" lon="4.78585">
        <ele>195</ele>
        <time>2018-03-13T09:47:25Z</time>
      </trkpt>
      <trkpt lat="45.93933" lon="4.78597">
        <ele>195</ele>
        <time>2018-03-13T09:47:26Z</time>
      </trkpt>
      <trkpt lat="45.93933" lon="4.786">
        <ele>195</ele>
        <time>2018-03-13T09:47:27Z</time>
      </trkpt>
      <trkpt lat="45.93933" lon="4.78611">
        <ele>195</ele>
        <time>2018-03-13T09:47:30Z</time>
      </trkpt>
      <trkpt lat="45.93933" lon="4.78615">
        <ele>195</ele>
        <time>2018-03-13T09:47:31Z</time>
      </trkpt>
      <trkpt lat="45.93934" lon="4.78624">
        <ele>195</ele>
        <time>2018-03-13T09:47:33Z</time>
      </trkpt>
      <trkpt lat="45.93934" lon="4.78628">
        <ele>195</ele>
        <time>2018-03-13T09:47:34Z</time>
      </trkpt>
      <trkpt lat="45.93935" lon="4.78637">
        <ele>195</ele>
        <time>2018-03-13T09:47:36Z</time>
      </trkpt>
      <trkpt lat="45.93935" lon="4.78642">
        <ele>195</ele>
        <time>2018-03-13T09:47:37Z</time>
      </trkpt>
      <trkpt lat="45.93935" lon="4.78646">
        <ele>195</ele>
        <time>2018-03-13T09:47:38Z</time>
      </trkpt>
      <trkpt lat="45.93936" lon="4.7866">
        <ele>194</ele>
        <time>2018-03-13T09:47:39Z</time>
      </trkpt>
      <trkpt lat="45.93935" lon="4.78671">
        <ele>193</ele>
        <time>2018-03-13T09:47:42Z</time>
      </trkpt>
      <trkpt lat="45.93935" lon="4.78675">
        <ele>193</ele>
        <time>2018-03-13T09:47:43Z</time>
      </trkpt>
      <trkpt lat="45.93935" lon="4.78678">
        <ele>193</ele>
        <time>2018-03-13T09:47:44Z</time>
      </trkpt>
      <trkpt lat="45.93933" lon="4.78689">
        <ele>193</ele>
        <time>2018-03-13T09:47:45Z</time>
      </trkpt>
      <trkpt lat="45.93933" lon="4.78699">
        <ele>194</ele>
        <time>2018-03-13T09:47:47Z</time>
      </trkpt>
      <trkpt lat="45.93934" lon="4.78705">
        <ele>194</ele>
        <time>2018-03-13T09:47:48Z</time>
      </trkpt>
      <trkpt lat="45.93934" lon="4.78716">
        <ele>194</ele>
        <time>2018-03-13T09:47:50Z</time>
      </trkpt>
      <trkpt lat="45.93935" lon="4.78723">
        <ele>194</ele>
        <time>2018-03-13T09:47:51Z</time>
      </trkpt>
      <trkpt lat="45.93935" lon="4.78729">
        <ele>193</ele>
        <time>2018-03-13T09:47:52Z</time>
      </trkpt>
      <trkpt lat="45.93937" lon="4.78736">
        <ele>193</ele>
        <time>2018-03-13T09:47:53Z</time>
      </trkpt>
      <trkpt lat="45.93937" lon="4.78742">
        <ele>193</ele>
        <time>2018-03-13T09:47:54Z</time>
      </trkpt>
      <trkpt lat="45.93936" lon="4.78749">
        <ele>193</ele>
        <time>2018-03-13T09:47:55Z</time>
      </trkpt>
      <trkpt lat="45.93937" lon="4.78758">
        <ele>193</ele>
        <time>2018-03-13T09:47:56Z</time>
      </trkpt>
      <trkpt lat="45.93936" lon="4.78764">
        <ele>193</ele>
        <time>2018-03-13T09:47:57Z</time>
      </trkpt>
      <trkpt lat="45.93936" lon="4.78771">
        <ele>193</ele>
        <time>2018-03-13T09:47:58Z</time>
      </trkpt>
      <trkpt lat="45.93936" lon="4.78778">
        <ele>194</ele>
        <time>2018-03-13T09:47:59Z</time>
      </trkpt>
      <trkpt lat="45.93937" lon="4.78785">
        <ele>194</ele>
        <time>2018-03-13T09:48:00Z</time>
      </trkpt>
      <trkpt lat="45.93937" lon="4.78792">
        <ele>194</ele>
        <time>2018-03-13T09:48:01Z</time>
      </trkpt>
      <trkpt lat="45.93937" lon="4.78803">
        <ele>194</ele>
        <time>2018-03-13T09:48:03Z</time>
      </trkpt>
      <trkpt lat="45.93938" lon="4.78807">
        <ele>194</ele>
        <time>2018-03-13T09:48:04Z</time>
      </trkpt>
      <trkpt lat="45.93939" lon="4.78819">
        <ele>194</ele>
        <time>2018-03-13T09:48:06Z</time>
      </trkpt>
      <trkpt lat="45.93938" lon="4.78824">
        <ele>194</ele>
        <time>2018-03-13T09:48:07Z</time>
      </trkpt>
      <trkpt lat="45.93941" lon="4.78836">
        <ele>193</ele>
        <time>2018-03-13T09:48:09Z</time>
      </trkpt>
      <trkpt lat="45.93941" lon="4.7884">
        <ele>193</ele>
        <time>2018-03-13T09:48:10Z</time>
      </trkpt>
      <trkpt lat="45.9394" lon="4.78851">
        <ele>194</ele>
        <time>2018-03-13T09:48:12Z</time>
      </trkpt>
      <trkpt lat="45.9394" lon="4.78857">
        <ele>194</ele>
        <time>2018-03-13T09:48:13Z</time>
      </trkpt>
      <trkpt lat="45.93939" lon="4.7887">
        <ele>194</ele>
        <time>2018-03-13T09:48:15Z</time>
      </trkpt>
      <trkpt lat="45.93939" lon="4.78876">
        <ele>194</ele>
        <time>2018-03-13T09:48:16Z</time>
      </trkpt>
      <trkpt lat="45.93939" lon="4.78888">
        <ele>193</ele>
        <time>2018-03-13T09:48:18Z</time>
      </trkpt>
      <trkpt lat="45.9394" lon="4.78895">
        <ele>193</ele>
        <time>2018-03-13T09:48:19Z</time>
      </trkpt>
      <trkpt lat="45.93941" lon="4.78907">
        <ele>193</ele>
        <time>2018-03-13T09:48:21Z</time>
      </trkpt>
      <trkpt lat="45.93941" lon="4.78913">
        <ele>193</ele>
        <time>2018-03-13T09:48:22Z</time>
      </trkpt>
      <trkpt lat="45.93942" lon="4.78925">
        <ele>193</ele>
        <time>2018-03-13T09:48:24Z</time>
      </trkpt>
      <trkpt lat="45.93942" lon="4.78931">
        <ele>193</ele>
        <time>2018-03-13T09:48:25Z</time>
      </trkpt>
      <trkpt lat="45.93943" lon="4.78939">
        <ele>194</ele>
        <time>2018-03-13T09:48:27Z</time>
      </trkpt>
      <trkpt lat="45.93944" lon="4.78947">
        <ele>194</ele>
        <time>2018-03-13T09:48:28Z</time>
      </trkpt>
      <trkpt lat="45.93944" lon="4.78958">
        <ele>194</ele>
        <time>2018-03-13T09:48:30Z</time>
      </trkpt>
      <trkpt lat="45.93945" lon="4.78964">
        <ele>194</ele>
        <time>2018-03-13T09:48:31Z</time>
      </trkpt>
      <trkpt lat="45.93945" lon="4.78975">
        <ele>194</ele>
        <time>2018-03-13T09:48:33Z</time>
      </trkpt>
      <trkpt lat="45.93945" lon="4.78981">
        <ele>194</ele>
        <time>2018-03-13T09:48:34Z</time>
      </trkpt>
      <trkpt lat="45.93945" lon="4.78992">
        <ele>194</ele>
        <time>2018-03-13T09:48:36Z</time>
      </trkpt>
      <trkpt lat="45.93945" lon="4.78998">
        <ele>194</ele>
        <time>2018-03-13T09:48:37Z</time>
      </trkpt>
      <trkpt lat="45.93944" lon="4.79008">
        <ele>195</ele>
        <time>2018-03-13T09:48:39Z</time>
      </trkpt>
      <trkpt lat="45.93944" lon="4.79013">
        <ele>195</ele>
        <time>2018-03-13T09:48:40Z</time>
      </trkpt>
      <trkpt lat="45.93945" lon="4.79024">
        <ele>195</ele>
        <time>2018-03-13T09:48:42Z</time>
      </trkpt>
      <trkpt lat="45.93945" lon="4.7903">
        <ele>195</ele>
        <time>2018-03-13T09:48:43Z</time>
      </trkpt>
      <trkpt lat="45.93945" lon="4.79041">
        <ele>195</ele>
        <time>2018-03-13T09:48:45Z</time>
      </trkpt>
      <trkpt lat="45.93945" lon="4.79047">
        <ele>195</ele>
        <time>2018-03-13T09:48:46Z</time>
      </trkpt>
      <trkpt lat="45.93945" lon="4.79058">
        <ele>195</ele>
        <time>2018-03-13T09:48:48Z</time>
      </trkpt>
      <trkpt lat="45.93946" lon="4.79063">
        <ele>195</ele>
        <time>2018-03-13T09:48:49Z</time>
      </trkpt>
      <trkpt lat="45.93947" lon="4.79074">
        <ele>195</ele>
        <time>2018-03-13T09:48:51Z</time>
      </trkpt>
      <trkpt lat="45.93947" lon="4.7908">
        <ele>196</ele>
        <time>2018-03-13T09:48:52Z</time>
      </trkpt>
      <trkpt lat="45.93948" lon="4.79091">
        <ele>196</ele>
        <time>2018-03-13T09:48:54Z</time>
      </trkpt>
      <trkpt lat="45.93948" lon="4.79096">
        <ele>196</ele>
        <time>2018-03-13T09:48:55Z</time>
      </trkpt>
      <trkpt lat="45.93948" lon="4.79107">
        <ele>196</ele>
        <time>2018-03-13T09:48:57Z</time>
      </trkpt>
      <trkpt lat="45.93948" lon="4.79113">
        <ele>197</ele>
        <time>2018-03-13T09:48:58Z</time>
      </trkpt>
      <trkpt lat="45.93948" lon="4.79124">
        <ele>197</ele>
        <time>2018-03-13T09:49:00Z</time>
      </trkpt>
      <trkpt lat="45.93948" lon="4.7913">
        <ele>197</ele>
        <time>2018-03-13T09:49:01Z</time>
      </trkpt>
      <trkpt lat="45.93948" lon="4.79142">
        <ele>197</ele>
        <time>2018-03-13T09:49:03Z</time>
      </trkpt>
      <trkpt lat="45.93948" lon="4.79147">
        <ele>196</ele>
        <time>2018-03-13T09:49:04Z</time>
      </trkpt>
      <trkpt lat="45.93947" lon="4.79159">
        <ele>196</ele>
        <time>2018-03-13T09:49:06Z</time>
      </trkpt>
      <trkpt lat="45.93947" lon="4.79164">
        <ele>196</ele>
        <time>2018-03-13T09:49:07Z</time>
      </trkpt>
      <trkpt lat="45.93947" lon="4.79176">
        <ele>196</ele>
        <time>2018-03-13T09:49:09Z</time>
      </trkpt>
      <trkpt lat="45.93948" lon="4.79182">
        <ele>197</ele>
        <time>2018-03-13T09:49:10Z</time>
      </trkpt>
      <trkpt lat="45.93948" lon="4.79194">
        <ele>197</ele>
        <time>2018-03-13T09:49:12Z</time>
      </trkpt>
      <trkpt lat="45.93948" lon="4.79199">
        <ele>197</ele>
        <time>2018-03-13T09:49:13Z</time>
      </trkpt>
      <trkpt lat="45.93948" lon="4.79211">
        <ele>197</ele>
        <time>2018-03-13T09:49:15Z</time>
      </trkpt>
      <trkpt lat="45.93949" lon="4.79217">
        <ele>197</ele>
        <time>2018-03-13T09:49:16Z</time>
      </trkpt>
      <trkpt lat="45.93949" lon="4.79229">
        <ele>197</ele>
        <time>2018-03-13T09:49:18Z</time>
      </trkpt>
      <trkpt lat="45.93949" lon="4.79235">
        <ele>197</ele>
        <time>2018-03-13T09:49:19Z</time>
      </trkpt>
      <trkpt lat="45.93949" lon="4.79247">
        <ele>197</ele>
        <time>2018-03-13T09:49:21Z</time>
      </trkpt>
      <trkpt lat="45.93949" lon="4.79252">
        <ele>197</ele>
        <time>2018-03-13T09:49:22Z</time>
      </trkpt>
      <trkpt lat="45.93949" lon="4.79264">
        <ele>197</ele>
        <time>2018-03-13T09:49:24Z</time>
      </trkpt>
      <trkpt lat="45.93949" lon="4.79269">
        <ele>198</ele>
        <time>2018-03-13T09:49:25Z</time>
      </trkpt>
      <trkpt lat="45.93949" lon="4.7928">
        <ele>198</ele>
        <time>2018-03-13T09:49:27Z</time>
      </trkpt>
      <trkpt lat="45.93949" lon="4.79286">
        <ele>198</ele>
        <time>2018-03-13T09:49:28Z</time>
      </trkpt>
      <trkpt lat="45.9395" lon="4.79297">
        <ele>198</ele>
        <time>2018-03-13T09:49:30Z</time>
      </trkpt>
      <trkpt lat="45.9395" lon="4.793">
        <ele>198</ele>
        <time>2018-03-13T09:49:31Z</time>
      </trkpt>
      <trkpt lat="45.9395" lon="4.79307">
        <ele>198</ele>
        <time>2018-03-13T09:49:32Z</time>
      </trkpt>
      <trkpt lat="45.93951" lon="4.79313">
        <ele>198</ele>
        <time>2018-03-13T09:49:33Z</time>
      </trkpt>
      <trkpt lat="45.93951" lon="4.79324">
        <ele>198</ele>
        <time>2018-03-13T09:49:35Z</time>
      </trkpt>
      <trkpt lat="45.93951" lon="4.7933">
        <ele>198</ele>
        <time>2018-03-13T09:49:36Z</time>
      </trkpt>
      <trkpt lat="45.93951" lon="4.79341">
        <ele>200</ele>
        <time>2018-03-13T09:49:38Z</time>
      </trkpt>
      <trkpt lat="45.93951" lon="4.79347">
        <ele>200</ele>
        <time>2018-03-13T09:49:39Z</time>
      </trkpt>
      <trkpt lat="45.93952" lon="4.79359">
        <ele>200</ele>
        <time>2018-03-13T09:49:42Z</time>
      </trkpt>
      <trkpt lat="45.93952" lon="4.79369">
        <ele>201</ele>
        <time>2018-03-13T09:49:43Z</time>
      </trkpt>
      <trkpt lat="45.93951" lon="4.7938">
        <ele>201</ele>
        <time>2018-03-13T09:49:45Z</time>
      </trkpt>
      <trkpt lat="45.93951" lon="4.79385">
        <ele>201</ele>
        <time>2018-03-13T09:49:46Z</time>
      </trkpt>
      <trkpt lat="45.93951" lon="4.79396">
        <ele>201</ele>
        <time>2018-03-13T09:49:49Z</time>
      </trkpt>
      <trkpt lat="45.93951" lon="4.79399">
        <ele>201</ele>
        <time>2018-03-13T09:49:50Z</time>
      </trkpt>
      <trkpt lat="45.93952" lon="4.79411">
        <ele>201</ele>
        <time>2018-03-13T09:49:53Z</time>
      </trkpt>
      <trkpt lat="45.93952" lon="4.79415">
        <ele>201</ele>
        <time>2018-03-13T09:49:54Z</time>
      </trkpt>
      <trkpt lat="45.93952" lon="4.79425">
        <ele>202</ele>
        <time>2018-03-13T09:49:56Z</time>
      </trkpt>
      <trkpt lat="45.93952" lon="4.7943">
        <ele>202</ele>
        <time>2018-03-13T09:49:57Z</time>
      </trkpt>
      <trkpt lat="45.93952" lon="4.79439">
        <ele>202</ele>
        <time>2018-03-13T09:49:59Z</time>
      </trkpt>
      <trkpt lat="45.93951" lon="4.79444">
        <ele>202</ele>
        <time>2018-03-13T09:50:00Z</time>
      </trkpt>
      <trkpt lat="45.93951" lon="4.79455">
        <ele>202</ele>
        <time>2018-03-13T09:50:02Z</time>
      </trkpt>
      <trkpt lat="45.93951" lon="4.7946">
        <ele>202</ele>
        <time>2018-03-13T09:50:03Z</time>
      </trkpt>
      <trkpt lat="45.9395" lon="4.7947">
        <ele>202</ele>
        <time>2018-03-13T09:50:05Z</time>
      </trkpt>
      <trkpt lat="45.9395" lon="4.79475">
        <ele>202</ele>
        <time>2018-03-13T09:50:06Z</time>
      </trkpt>
      <trkpt lat="45.93951" lon="4.79485">
        <ele>202</ele>
        <time>2018-03-13T09:50:08Z</time>
      </trkpt>
      <trkpt lat="45.93951" lon="4.7949">
        <ele>202</ele>
        <time>2018-03-13T09:50:09Z</time>
      </trkpt>
      <trkpt lat="45.93951" lon="4.795">
        <ele>202</ele>
        <time>2018-03-13T09:50:11Z</time>
      </trkpt>
      <trkpt lat="45.93952" lon="4.79504">
        <ele>204</ele>
        <time>2018-03-13T09:50:12Z</time>
      </trkpt>
      <trkpt lat="45.93953" lon="4.79514">
        <ele>204</ele>
        <time>2018-03-13T09:50:14Z</time>
      </trkpt>
      <trkpt lat="45.93953" lon="4.79518">
        <ele>204</ele>
        <time>2018-03-13T09:50:15Z</time>
      </trkpt>
      <trkpt lat="45.93954" lon="4.79528">
        <ele>204</ele>
        <time>2018-03-13T09:50:17Z</time>
      </trkpt>
      <trkpt lat="45.93955" lon="4.79532">
        <ele>205</ele>
        <time>2018-03-13T09:50:18Z</time>
      </trkpt>
      <trkpt lat="45.93956" lon="4.79541">
        <ele>205</ele>
        <time>2018-03-13T09:50:20Z</time>
      </trkpt>
      <trkpt lat="45.93956" lon="4.79545">
        <ele>205</ele>
        <time>2018-03-13T09:50:21Z</time>
      </trkpt>
      <trkpt lat="45.93957" lon="4.79554">
        <ele>205</ele>
        <time>2018-03-13T09:50:23Z</time>
      </trkpt>
      <trkpt lat="45.93957" lon="4.79558">
        <ele>205</ele>
        <time>2018-03-13T09:50:24Z</time>
      </trkpt>
      <trkpt lat="45.93958" lon="4.79567">
        <ele>205</ele>
        <time>2018-03-13T09:50:26Z</time>
      </trkpt>
      <trkpt lat="45.93958" lon="4.79572">
        <ele>205</ele>
        <time>2018-03-13T09:50:27Z</time>
      </trkpt>
      <trkpt lat="45.93958" lon="4.79581">
        <ele>206</ele>
        <time>2018-03-13T09:50:29Z</time>
      </trkpt>
      <trkpt lat="45.93959" lon="4.79585">
        <ele>207</ele>
        <time>2018-03-13T09:50:30Z</time>
      </trkpt>
      <trkpt lat="45.93959" lon="4.79595">
        <ele>207</ele>
        <time>2018-03-13T09:50:32Z</time>
      </trkpt>
      <trkpt lat="45.9396" lon="4.796">
        <ele>207</ele>
        <time>2018-03-13T09:50:33Z</time>
      </trkpt>
      <trkpt lat="45.93961" lon="4.79609">
        <ele>207</ele>
        <time>2018-03-13T09:50:35Z</time>
      </trkpt>
      <trkpt lat="45.93961" lon="4.79613">
        <ele>207</ele>
        <time>2018-03-13T09:50:36Z</time>
      </trkpt>
      <trkpt lat="45.93962" lon="4.79623">
        <ele>207</ele>
        <time>2018-03-13T09:50:38Z</time>
      </trkpt>
      <trkpt lat="45.93963" lon="4.79638">
        <ele>207</ele>
        <time>2018-03-13T09:50:39Z</time>
      </trkpt>
      <trkpt lat="45.93964" lon="4.79648">
        <ele>207</ele>
        <time>2018-03-13T09:50:41Z</time>
      </trkpt>
      <trkpt lat="45.93965" lon="4.79653">
        <ele>207</ele>
        <time>2018-03-13T09:50:42Z</time>
      </trkpt>
      <trkpt lat="45.93966" lon="4.79665">
        <ele>208</ele>
        <time>2018-03-13T09:50:46Z</time>
      </trkpt>
      <trkpt lat="45.93966" lon="4.79669">
        <ele>207</ele>
        <time>2018-03-13T09:50:47Z</time>
      </trkpt>
      <trkpt lat="45.93966" lon="4.79678">
        <ele>207</ele>
        <time>2018-03-13T09:50:49Z</time>
      </trkpt>
      <trkpt lat="45.93967" lon="4.79691">
        <ele>207</ele>
        <time>2018-03-13T09:50:50Z</time>
      </trkpt>
      <trkpt lat="45.93968" lon="4.79702">
        <ele>207</ele>
        <time>2018-03-13T09:50:52Z</time>
      </trkpt>
      <trkpt lat="45.93968" lon="4.79707">
        <ele>207</ele>
        <time>2018-03-13T09:50:53Z</time>
      </trkpt>
      <trkpt lat="45.93969" lon="4.79717">
        <ele>207</ele>
        <time>2018-03-13T09:50:56Z</time>
      </trkpt>
      <trkpt lat="45.9397" lon="4.79721">
        <ele>207</ele>
        <time>2018-03-13T09:50:57Z</time>
      </trkpt>
      <trkpt lat="45.9397" lon="4.79725">
        <ele>207</ele>
        <time>2018-03-13T09:50:58Z</time>
      </trkpt>
      <trkpt lat="45.9397" lon="4.79737">
        <ele>207</ele>
        <time>2018-03-13T09:50:59Z</time>
      </trkpt>
      <trkpt lat="45.93971" lon="4.79747">
        <ele>207</ele>
        <time>2018-03-13T09:51:01Z</time>
      </trkpt>
      <trkpt lat="45.93972" lon="4.79753">
        <ele>206</ele>
        <time>2018-03-13T09:51:02Z</time>
      </trkpt>
      <trkpt lat="45.93973" lon="4.79765">
        <ele>206</ele>
        <time>2018-03-13T09:51:04Z</time>
      </trkpt>
      <trkpt lat="45.93973" lon="4.7977">
        <ele>206</ele>
        <time>2018-03-13T09:51:05Z</time>
      </trkpt>
      <trkpt lat="45.93973" lon="4.79782">
        <ele>206</ele>
        <time>2018-03-13T09:51:07Z</time>
      </trkpt>
      <trkpt lat="45.93973" lon="4.79787">
        <ele>206</ele>
        <time>2018-03-13T09:51:08Z</time>
      </trkpt>
      <trkpt lat="45.93972" lon="4.79799">
        <ele>206</ele>
        <time>2018-03-13T09:51:10Z</time>
      </trkpt>
      <trkpt lat="45.9397" lon="4.79804">
        <ele>206</ele>
        <time>2018-03-13T09:51:11Z</time>
      </trkpt>
      <trkpt lat="45.93971" lon="4.79812">
        <ele>207</ele>
        <time>2018-03-13T09:51:12Z</time>
      </trkpt>
      <trkpt lat="45.9397" lon="4.79818">
        <ele>207</ele>
        <time>2018-03-13T09:51:13Z</time>
      </trkpt>
      <trkpt lat="45.93969" lon="4.79824">
        <ele>207</ele>
        <time>2018-03-13T09:51:14Z</time>
      </trkpt>
      <trkpt lat="45.93968" lon="4.79831">
        <ele>207</ele>
        <time>2018-03-13T09:51:15Z</time>
      </trkpt>
      <trkpt lat="45.93967" lon="4.79838">
        <ele>206</ele>
        <time>2018-03-13T09:51:16Z</time>
      </trkpt>
      <trkpt lat="45.93965" lon="4.79844">
        <ele>206</ele>
        <time>2018-03-13T09:51:17Z</time>
      </trkpt>
      <trkpt lat="45.93965" lon="4.79852">
        <ele>206</ele>
        <time>2018-03-13T09:51:18Z</time>
      </trkpt>
      <trkpt lat="45.93964" lon="4.7986">
        <ele>206</ele>
        <time>2018-03-13T09:51:19Z</time>
      </trkpt>
      <trkpt lat="45.93963" lon="4.79868">
        <ele>206</ele>
        <time>2018-03-13T09:51:20Z</time>
      </trkpt>
      <trkpt lat="45.93962" lon="4.79876">
        <ele>206</ele>
        <time>2018-03-13T09:51:21Z</time>
      </trkpt>
      <trkpt lat="45.9396" lon="4.79883">
        <ele>206</ele>
        <time>2018-03-13T09:51:22Z</time>
      </trkpt>
      <trkpt lat="45.93959" lon="4.79889">
        <ele>206</ele>
        <time>2018-03-13T09:51:23Z</time>
      </trkpt>
      <trkpt lat="45.93957" lon="4.79901">
        <ele>205</ele>
        <time>2018-03-13T09:51:25Z</time>
      </trkpt>
      <trkpt lat="45.93955" lon="4.79908">
        <ele>205</ele>
        <time>2018-03-13T09:51:26Z</time>
      </trkpt>
      <trkpt lat="45.93954" lon="4.79914">
        <ele>205</ele>
        <time>2018-03-13T09:51:27Z</time>
      </trkpt>
      <trkpt lat="45.93953" lon="4.79921">
        <ele>205</ele>
        <time>2018-03-13T09:51:28Z</time>
      </trkpt>
      <trkpt lat="45.93952" lon="4.79928">
        <ele>205</ele>
        <time>2018-03-13T09:51:29Z</time>
      </trkpt>
      <trkpt lat="45.93951" lon="4.79935">
        <ele>205</ele>
        <time>2018-03-13T09:51:30Z</time>
      </trkpt>
      <trkpt lat="45.9395" lon="4.79942">
        <ele>205</ele>
        <time>2018-03-13T09:51:31Z</time>
      </trkpt>
      <trkpt lat="45.93948" lon="4.79948">
        <ele>205</ele>
        <time>2018-03-13T09:51:32Z</time>
      </trkpt>
      <trkpt lat="45.93945" lon="4.79959">
        <ele>205</ele>
        <time>2018-03-13T09:51:34Z</time>
      </trkpt>
      <trkpt lat="45.93945" lon="4.79966">
        <ele>205</ele>
        <time>2018-03-13T09:51:35Z</time>
      </trkpt>
      <trkpt lat="45.93944" lon="4.79975">
        <ele>205</ele>
        <time>2018-03-13T09:51:36Z</time>
      </trkpt>
      <trkpt lat="45.93943" lon="4.79981">
        <ele>205</ele>
        <time>2018-03-13T09:51:37Z</time>
      </trkpt>
      <trkpt lat="45.93942" lon="4.79988">
        <ele>204</ele>
        <time>2018-03-13T09:51:38Z</time>
      </trkpt>
      <trkpt lat="45.93941" lon="4.79994">
        <ele>204</ele>
        <time>2018-03-13T09:51:39Z</time>
      </trkpt>
      <trkpt lat="45.9394" lon="4.80003">
        <ele>205</ele>
        <time>2018-03-13T09:51:40Z</time>
      </trkpt>
      <trkpt lat="45.9394" lon="4.8001">
        <ele>206</ele>
        <time>2018-03-13T09:51:41Z</time>
      </trkpt>
      <trkpt lat="45.93939" lon="4.80018">
        <ele>206</ele>
        <time>2018-03-13T09:51:42Z</time>
      </trkpt>
      <trkpt lat="45.93938" lon="4.80025">
        <ele>206</ele>
        <time>2018-03-13T09:51:43Z</time>
      </trkpt>
      <trkpt lat="45.93936" lon="4.80037">
        <ele>207</ele>
        <time>2018-03-13T09:51:45Z</time>
      </trkpt>
      <trkpt lat="45.93935" lon="4.80043">
        <ele>207</ele>
        <time>2018-03-13T09:51:46Z</time>
      </trkpt>
      <trkpt lat="45.93936" lon="4.80052">
        <ele>207</ele>
        <time>2018-03-13T09:51:47Z</time>
      </trkpt>
      <trkpt lat="45.93936" lon="4.80059">
        <ele>207</ele>
        <time>2018-03-13T09:51:48Z</time>
      </trkpt>
      <trkpt lat="45.93936" lon="4.80066">
        <ele>207</ele>
        <time>2018-03-13T09:51:49Z</time>
      </trkpt>
      <trkpt lat="45.93936" lon="4.80073">
        <ele>207</ele>
        <time>2018-03-13T09:51:50Z</time>
      </trkpt>
      <trkpt lat="45.93936" lon="4.8008">
        <ele>207</ele>
        <time>2018-03-13T09:51:51Z</time>
      </trkpt>
      <trkpt lat="45.93937" lon="4.80087">
        <ele>208</ele>
        <time>2018-03-13T09:51:52Z</time>
      </trkpt>
      <trkpt lat="45.93937" lon="4.80094">
        <ele>208</ele>
        <time>2018-03-13T09:51:53Z</time>
      </trkpt>
      <trkpt lat="45.93938" lon="4.80101">
        <ele>208</ele>
        <time>2018-03-13T09:51:54Z</time>
      </trkpt>
      <trkpt lat="45.93938" lon="4.80108">
        <ele>208</ele>
        <time>2018-03-13T09:51:55Z</time>
      </trkpt>
      <trkpt lat="45.93939" lon="4.80115">
        <ele>208</ele>
        <time>2018-03-13T09:51:56Z</time>
      </trkpt>
      <trkpt lat="45.93941" lon="4.80122">
        <ele>209</ele>
        <time>2018-03-13T09:51:57Z</time>
      </trkpt>
      <trkpt lat="45.93941" lon="4.8013">
        <ele>208</ele>
        <time>2018-03-13T09:51:58Z</time>
      </trkpt>
      <trkpt lat="45.93942" lon="4.80137">
        <ele>208</ele>
        <time>2018-03-13T09:51:59Z</time>
      </trkpt>
      <trkpt lat="45.93943" lon="4.80144">
        <ele>208</ele>
        <time>2018-03-13T09:52:00Z</time>
      </trkpt>
      <trkpt lat="45.93943" lon="4.8015">
        <ele>208</ele>
        <time>2018-03-13T09:52:01Z</time>
      </trkpt>
      <trkpt lat="45.93945" lon="4.80158">
        <ele>208</ele>
        <time>2018-03-13T09:52:02Z</time>
      </trkpt>
      <trkpt lat="45.93945" lon="4.80165">
        <ele>208</ele>
        <time>2018-03-13T09:52:03Z</time>
      </trkpt>
      <trkpt lat="45.93945" lon="4.80171">
        <ele>206</ele>
        <time>2018-03-13T09:52:04Z</time>
      </trkpt>
      <trkpt lat="45.93946" lon="4.80178">
        <ele>206</ele>
        <time>2018-03-13T09:52:05Z</time>
      </trkpt>
      <trkpt lat="45.93948" lon="4.80184">
        <ele>206</ele>
        <time>2018-03-13T09:52:06Z</time>
      </trkpt>
      <trkpt lat="45.93949" lon="4.80191">
        <ele>205</ele>
        <time>2018-03-13T09:52:07Z</time>
      </trkpt>
      <trkpt lat="45.9395" lon="4.80197">
        <ele>205</ele>
        <time>2018-03-13T09:52:08Z</time>
      </trkpt>
      <trkpt lat="45.93952" lon="4.80205">
        <ele>205</ele>
        <time>2018-03-13T09:52:09Z</time>
      </trkpt>
      <trkpt lat="45.93954" lon="4.80212">
        <ele>205</ele>
        <time>2018-03-13T09:52:10Z</time>
      </trkpt>
      <trkpt lat="45.93955" lon="4.80218">
        <ele>205</ele>
        <time>2018-03-13T09:52:11Z</time>
      </trkpt>
      <trkpt lat="45.93957" lon="4.80225">
        <ele>205</ele>
        <time>2018-03-13T09:52:12Z</time>
      </trkpt>
      <trkpt lat="45.93959" lon="4.80231">
        <ele>204</ele>
        <time>2018-03-13T09:52:13Z</time>
      </trkpt>
      <trkpt lat="45.93959" lon="4.80237">
        <ele>204</ele>
        <time>2018-03-13T09:52:14Z</time>
      </trkpt>
      <trkpt lat="45.93961" lon="4.80244">
        <ele>204</ele>
        <time>2018-03-13T09:52:15Z</time>
      </trkpt>
      <trkpt lat="45.93963" lon="4.8025">
        <ele>202</ele>
        <time>2018-03-13T09:52:16Z</time>
      </trkpt>
      <trkpt lat="45.93966" lon="4.80255">
        <ele>202</ele>
        <time>2018-03-13T09:52:17Z</time>
      </trkpt>
      <trkpt lat="45.93968" lon="4.80262">
        <ele>202</ele>
        <time>2018-03-13T09:52:18Z</time>
      </trkpt>
      <trkpt lat="45.93969" lon="4.80268">
        <ele>202</ele>
        <time>2018-03-13T09:52:19Z</time>
      </trkpt>
      <trkpt lat="45.93971" lon="4.80274">
        <ele>202</ele>
        <time>2018-03-13T09:52:20Z</time>
      </trkpt>
      <trkpt lat="45.93973" lon="4.8028">
        <ele>202</ele>
        <time>2018-03-13T09:52:21Z</time>
      </trkpt>
      <trkpt lat="45.93974" lon="4.80286">
        <ele>203</ele>
        <time>2018-03-13T09:52:22Z</time>
      </trkpt>
      <trkpt lat="45.93978" lon="4.80295">
        <ele>203</ele>
        <time>2018-03-13T09:52:24Z</time>
      </trkpt>
      <trkpt lat="45.9398" lon="4.80301">
        <ele>203</ele>
        <time>2018-03-13T09:52:25Z</time>
      </trkpt>
      <trkpt lat="45.93982" lon="4.80312">
        <ele>203</ele>
        <time>2018-03-13T09:52:29Z</time>
      </trkpt>
      <trkpt lat="45.93983" lon="4.80316">
        <ele>203</ele>
        <time>2018-03-13T09:52:30Z</time>
      </trkpt>
      <trkpt lat="45.93986" lon="4.80325">
        <ele>204</ele>
        <time>2018-03-13T09:52:33Z</time>
      </trkpt>
      <trkpt lat="45.93987" lon="4.80329">
        <ele>204</ele>
        <time>2018-03-13T09:52:34Z</time>
      </trkpt>
      <trkpt lat="45.9399" lon="4.80339">
        <ele>206</ele>
        <time>2018-03-13T09:52:37Z</time>
      </trkpt>
      <trkpt lat="45.93991" lon="4.80342">
        <ele>206</ele>
        <time>2018-03-13T09:52:38Z</time>
      </trkpt>
      <trkpt lat="45.93994" lon="4.80351">
        <ele>206</ele>
        <time>2018-03-13T09:52:41Z</time>
      </trkpt>
      <trkpt lat="45.93995" lon="4.80355">
        <ele>206</ele>
        <time>2018-03-13T09:52:42Z</time>
      </trkpt>
      <trkpt lat="45.93998" lon="4.80365">
        <ele>207</ele>
        <time>2018-03-13T09:52:45Z</time>
      </trkpt>
      <trkpt lat="45.93999" lon="4.80369">
        <ele>207</ele>
        <time>2018-03-13T09:52:46Z</time>
      </trkpt>
      <trkpt lat="45.94001" lon="4.80378">
        <ele>216</ele>
        <time>2018-03-13T09:52:49Z</time>
      </trkpt>
      <trkpt lat="45.94002" lon="4.80382">
        <ele>216</ele>
        <time>2018-03-13T09:52:50Z</time>
      </trkpt>
      <trkpt lat="45.94004" lon="4.80391">
        <ele>217</ele>
        <time>2018-03-13T09:52:53Z</time>
      </trkpt>
      <trkpt lat="45.94005" lon="4.80394">
        <ele>217</ele>
        <time>2018-03-13T09:52:54Z</time>
      </trkpt>
      <trkpt lat="45.94007" lon="4.80404">
        <ele>217</ele>
        <time>2018-03-13T09:52:57Z</time>
      </trkpt>
      <trkpt lat="45.94008" lon="4.80408">
        <ele>217</ele>
        <time>2018-03-13T09:52:58Z</time>
      </trkpt>
      <trkpt lat="45.9401" lon="4.80418">
        <ele>219</ele>
        <time>2018-03-13T09:53:01Z</time>
      </trkpt>
      <trkpt lat="45.9401" lon="4.80421">
        <ele>219</ele>
        <time>2018-03-13T09:53:02Z</time>
      </trkpt>
      <trkpt lat="45.94012" lon="4.80433">
        <ele>221</ele>
        <time>2018-03-13T09:53:06Z</time>
      </trkpt>
      <trkpt lat="45.94012" lon="4.80436">
        <ele>221</ele>
        <time>2018-03-13T09:53:07Z</time>
      </trkpt>
      <trkpt lat="45.94013" lon="4.80446">
        <ele>222</ele>
        <time>2018-03-13T09:53:10Z</time>
      </trkpt>
      <trkpt lat="45.94013" lon="4.8045">
        <ele>223</ele>
        <time>2018-03-13T09:53:11Z</time>
      </trkpt>
      <trkpt lat="45.94014" lon="4.80461">
        <ele>223</ele>
        <time>2018-03-13T09:53:14Z</time>
      </trkpt>
      <trkpt lat="45.94014" lon="4.80465">
        <ele>223</ele>
        <time>2018-03-13T09:53:15Z</time>
      </trkpt>
      <trkpt lat="45.94015" lon="4.80475">
        <ele>223</ele>
        <time>2018-03-13T09:53:18Z</time>
      </trkpt>
      <trkpt lat="45.94015" lon="4.80479">
        <ele>223</ele>
        <time>2018-03-13T09:53:19Z</time>
      </trkpt>
      <trkpt lat="45.94014" lon="4.8049">
        <ele>222</ele>
        <time>2018-03-13T09:53:23Z</time>
      </trkpt>
      <trkpt lat="45.94014" lon="4.80492">
        <ele>222</ele>
        <time>2018-03-13T09:53:24Z</time>
      </trkpt>
      <trkpt lat="45.94012" lon="4.80502">
        <ele>221</ele>
        <time>2018-03-13T09:53:28Z</time>
      </trkpt>
      <trkpt lat="45.94011" lon="4.80506">
        <ele>222</ele>
        <time>2018-03-13T09:53:29Z</time>
      </trkpt>
      <trkpt lat="45.94011" lon="4.80518">
        <ele>223</ele>
        <time>2018-03-13T09:53:33Z</time>
      </trkpt>
      <trkpt lat="45.94011" lon="4.80522">
        <ele>223</ele>
        <time>2018-03-13T09:53:34Z</time>
      </trkpt>
      <trkpt lat="45.94012" lon="4.80531">
        <ele>224</ele>
        <time>2018-03-13T09:53:37Z</time>
      </trkpt>
      <trkpt lat="45.94012" lon="4.80535">
        <ele>224</ele>
        <time>2018-03-13T09:53:38Z</time>
      </trkpt>
      <trkpt lat="45.94013" lon="4.80545">
        <ele>224</ele>
        <time>2018-03-13T09:53:41Z</time>
      </trkpt>
      <trkpt lat="45.94013" lon="4.80548">
        <ele>224</ele>
        <time>2018-03-13T09:53:42Z</time>
      </trkpt>
      <trkpt lat="45.94015" lon="4.80558">
        <ele>224</ele>
        <time>2018-03-13T09:53:45Z</time>
      </trkpt>
      <trkpt lat="45.94015" lon="4.80562">
        <ele>223</ele>
        <time>2018-03-13T09:53:46Z</time>
      </trkpt>
      <trkpt lat="45.94016" lon="4.80572">
        <ele>223</ele>
        <time>2018-03-13T09:53:49Z</time>
      </trkpt>
      <trkpt lat="45.94017" lon="4.80575">
        <ele>222</ele>
        <time>2018-03-13T09:53:50Z</time>
      </trkpt>
      <trkpt lat="45.94018" lon="4.80586">
        <ele>222</ele>
        <time>2018-03-13T09:53:53Z</time>
      </trkpt>
      <trkpt lat="45.94018" lon="4.8059">
        <ele>222</ele>
        <time>2018-03-13T09:53:54Z</time>
      </trkpt>
      <trkpt lat="45.94019" lon="4.80602">
        <ele>224</ele>
        <time>2018-03-13T09:53:58Z</time>
      </trkpt>
      <trkpt lat="45.9402" lon="4.80605">
        <ele>224</ele>
        <time>2018-03-13T09:53:59Z</time>
      </trkpt>
      <trkpt lat="45.94023" lon="4.80617">
        <ele>225</ele>
        <time>2018-03-13T09:54:03Z</time>
      </trkpt>
      <trkpt lat="45.94023" lon="4.8062">
        <ele>225</ele>
        <time>2018-03-13T09:54:04Z</time>
      </trkpt>
      <trkpt lat="45.94024" lon="4.8063">
        <ele>225</ele>
        <time>2018-03-13T09:54:07Z</time>
      </trkpt>
      <trkpt lat="45.94025" lon="4.80633">
        <ele>225</ele>
        <time>2018-03-13T09:54:08Z</time>
      </trkpt>
      <trkpt lat="45.94027" lon="4.80644">
        <ele>224</ele>
        <time>2018-03-13T09:54:12Z</time>
      </trkpt>
      <trkpt lat="45.94027" lon="4.80647">
        <ele>224</ele>
        <time>2018-03-13T09:54:13Z</time>
      </trkpt>
      <trkpt lat="45.94027" lon="4.80657">
        <ele>224</ele>
        <time>2018-03-13T09:54:16Z</time>
      </trkpt>
      <trkpt lat="45.94027" lon="4.8066">
        <ele>224</ele>
        <time>2018-03-13T09:54:17Z</time>
      </trkpt>
      <trkpt lat="45.94029" lon="4.80672">
        <ele>224</ele>
        <time>2018-03-13T09:54:20Z</time>
      </trkpt>
      <trkpt lat="45.94029" lon="4.80676">
        <ele>224</ele>
        <time>2018-03-13T09:54:21Z</time>
      </trkpt>
      <trkpt lat="45.94031" lon="4.80688">
        <ele>225</ele>
        <time>2018-03-13T09:54:24Z</time>
      </trkpt>
      <trkpt lat="45.94031" lon="4.80692">
        <ele>225</ele>
        <time>2018-03-13T09:54:25Z</time>
      </trkpt>
      <trkpt lat="45.94032" lon="4.80704">
        <ele>226</ele>
        <time>2018-03-13T09:54:28Z</time>
      </trkpt>
      <trkpt lat="45.94033" lon="4.80708">
        <ele>226</ele>
        <time>2018-03-13T09:54:29Z</time>
      </trkpt>
      <trkpt lat="45.94034" lon="4.80719">
        <ele>226</ele>
        <time>2018-03-13T09:54:32Z</time>
      </trkpt>
      <trkpt lat="45.94035" lon="4.80723">
        <ele>226</ele>
        <time>2018-03-13T09:54:33Z</time>
      </trkpt>
      <trkpt lat="45.94037" lon="4.80734">
        <ele>226</ele>
        <time>2018-03-13T09:54:36Z</time>
      </trkpt>
      <trkpt lat="45.94037" lon="4.80738">
        <ele>226</ele>
        <time>2018-03-13T09:54:37Z</time>
      </trkpt>
      <trkpt lat="45.94039" lon="4.80748">
        <ele>226</ele>
        <time>2018-03-13T09:54:40Z</time>
      </trkpt>
      <trkpt lat="45.94039" lon="4.80751">
        <ele>227</ele>
        <time>2018-03-13T09:54:41Z</time>
      </trkpt>
      <trkpt lat="45.9404" lon="4.80761">
        <ele>228</ele>
        <time>2018-03-13T09:54:44Z</time>
      </trkpt>
      <trkpt lat="45.94041" lon="4.80764">
        <ele>228</ele>
        <time>2018-03-13T09:54:45Z</time>
      </trkpt>
      <trkpt lat="45.94042" lon="4.80773">
        <ele>228</ele>
        <time>2018-03-13T09:54:48Z</time>
      </trkpt>
      <trkpt lat="45.94042" lon="4.80777">
        <ele>228</ele>
        <time>2018-03-13T09:54:49Z</time>
      </trkpt>
      <trkpt lat="45.94044" lon="4.80787">
        <ele>228</ele>
        <time>2018-03-13T09:54:52Z</time>
      </trkpt>
      <trkpt lat="45.94044" lon="4.8079">
        <ele>228</ele>
        <time>2018-03-13T09:54:53Z</time>
      </trkpt>
      <trkpt lat="45.94046" lon="4.80801">
        <ele>229</ele>
        <time>2018-03-13T09:54:56Z</time>
      </trkpt>
      <trkpt lat="45.94046" lon="4.80804">
        <ele>229</ele>
        <time>2018-03-13T09:54:57Z</time>
      </trkpt>
      <trkpt lat="45.94048" lon="4.80814">
        <ele>229</ele>
        <time>2018-03-13T09:55:00Z</time>
      </trkpt>
      <trkpt lat="45.94049" lon="4.80818">
        <ele>229</ele>
        <time>2018-03-13T09:55:01Z</time>
      </trkpt>
      <trkpt lat="45.9405" lon="4.80827">
        <ele>230</ele>
        <time>2018-03-13T09:55:04Z</time>
      </trkpt>
      <trkpt lat="45.94051" lon="4.80831">
        <ele>230</ele>
        <time>2018-03-13T09:55:05Z</time>
      </trkpt>
      <trkpt lat="45.94052" lon="4.8084">
        <ele>230</ele>
        <time>2018-03-13T09:55:08Z</time>
      </trkpt>
      <trkpt lat="45.94052" lon="4.80844">
        <ele>230</ele>
        <time>2018-03-13T09:55:09Z</time>
      </trkpt>
      <trkpt lat="45.94053" lon="4.80854">
        <ele>230</ele>
        <time>2018-03-13T09:55:12Z</time>
      </trkpt>
      <trkpt lat="45.94053" lon="4.80857">
        <ele>230</ele>
        <time>2018-03-13T09:55:13Z</time>
      </trkpt>
      <trkpt lat="45.94055" lon="4.80868">
        <ele>230</ele>
        <time>2018-03-13T09:55:16Z</time>
      </trkpt>
      <trkpt lat="45.94055" lon="4.80871">
        <ele>230</ele>
        <time>2018-03-13T09:55:17Z</time>
      </trkpt>
      <trkpt lat="45.94057" lon="4.80882">
        <ele>230</ele>
        <time>2018-03-13T09:55:20Z</time>
      </trkpt>
      <trkpt lat="45.94057" lon="4.80885">
        <ele>231</ele>
        <time>2018-03-13T09:55:21Z</time>
      </trkpt>
      <trkpt lat="45.94059" lon="4.80895">
        <ele>231</ele>
        <time>2018-03-13T09:55:24Z</time>
      </trkpt>
      <trkpt lat="45.94059" lon="4.80899">
        <ele>231</ele>
        <time>2018-03-13T09:55:25Z</time>
      </trkpt>
      <trkpt lat="45.94061" lon="4.80908">
        <ele>232</ele>
        <time>2018-03-13T09:55:28Z</time>
      </trkpt>
      <trkpt lat="45.94061" lon="4.80912">
        <ele>232</ele>
        <time>2018-03-13T09:55:29Z</time>
      </trkpt>
      <trkpt lat="45.94062" lon="4.80924">
        <ele>233</ele>
        <time>2018-03-13T09:55:33Z</time>
      </trkpt>
      <trkpt lat="45.94063" lon="4.80927">
        <ele>233</ele>
        <time>2018-03-13T09:55:34Z</time>
      </trkpt>
      <trkpt lat="45.94064" lon="4.80939">
        <ele>232</ele>
        <time>2018-03-13T09:55:38Z</time>
      </trkpt>
      <trkpt lat="45.94065" lon="4.80942">
        <ele>232</ele>
        <time>2018-03-13T09:55:39Z</time>
      </trkpt>
      <trkpt lat="45.94066" lon="4.80954">
        <ele>232</ele>
        <time>2018-03-13T09:55:43Z</time>
      </trkpt>
      <trkpt lat="45.94066" lon="4.80957">
        <ele>232</ele>
        <time>2018-03-13T09:55:44Z</time>
      </trkpt>
      <trkpt lat="45.94068" lon="4.80969">
        <ele>233</ele>
        <time>2018-03-13T09:55:48Z</time>
      </trkpt>
      <trkpt lat="45.94069" lon="4.80972">
        <ele>233</ele>
        <time>2018-03-13T09:55:49Z</time>
      </trkpt>
      <trkpt lat="45.94071" lon="4.80984">
        <ele>234</ele>
        <time>2018-03-13T09:55:53Z</time>
      </trkpt>
      <trkpt lat="45.94071" lon="4.80986">
        <ele>235</ele>
        <time>2018-03-13T09:55:54Z</time>
      </trkpt>
      <trkpt lat="45.94072" lon="4.80999">
        <ele>236</ele>
        <time>2018-03-13T09:55:58Z</time>
      </trkpt>
      <trkpt lat="45.94072" lon="4.81002">
        <ele>236</ele>
        <time>2018-03-13T09:55:59Z</time>
      </trkpt>
      <trkpt lat="45.94073" lon="4.81012">
        <ele>236</ele>
        <time>2018-03-13T09:56:02Z</time>
      </trkpt>
      <trkpt lat="45.94074" lon="4.81015">
        <ele>235</ele>
        <time>2018-03-13T09:56:03Z</time>
      </trkpt>
      <trkpt lat="45.94077" lon="4.81027">
        <ele>234</ele>
        <time>2018-03-13T09:56:07Z</time>
      </trkpt>
      <trkpt lat="45.94077" lon="4.8103">
        <ele>234</ele>
        <time>2018-03-13T09:56:08Z</time>
      </trkpt>
      <trkpt lat="45.94081" lon="4.81041">
        <ele>233</ele>
        <time>2018-03-13T09:56:12Z</time>
      </trkpt>
      <trkpt lat="45.94082" lon="4.81044">
        <ele>233</ele>
        <time>2018-03-13T09:56:13Z</time>
      </trkpt>
      <trkpt lat="45.94085" lon="4.81055">
        <ele>243</ele>
        <time>2018-03-13T09:56:17Z</time>
      </trkpt>
      <trkpt lat="45.94086" lon="4.81058">
        <ele>243</ele>
        <time>2018-03-13T09:56:18Z</time>
      </trkpt>
      <trkpt lat="45.9409" lon="4.8107">
        <ele>241</ele>
        <time>2018-03-13T09:56:22Z</time>
      </trkpt>
      <trkpt lat="45.94091" lon="4.81073">
        <ele>241</ele>
        <time>2018-03-13T09:56:23Z</time>
      </trkpt>
      <trkpt lat="45.94096" lon="4.81084">
        <ele>240</ele>
        <time>2018-03-13T09:56:27Z</time>
      </trkpt>
      <trkpt lat="45.94097" lon="4.81086">
        <ele>240</ele>
        <time>2018-03-13T09:56:28Z</time>
      </trkpt>
      <trkpt lat="45.94102" lon="4.81094">
        <ele>241</ele>
        <time>2018-03-13T09:56:31Z</time>
      </trkpt>
      <trkpt lat="45.94103" lon="4.81097">
        <ele>241</ele>
        <time>2018-03-13T09:56:32Z</time>
      </trkpt>
      <trkpt lat="45.94108" lon="4.81105">
        <ele>242</ele>
        <time>2018-03-13T09:56:35Z</time>
      </trkpt>
      <trkpt lat="45.9411" lon="4.81107">
        <ele>242</ele>
        <time>2018-03-13T09:56:36Z</time>
      </trkpt>
      <trkpt lat="45.94114" lon="4.81116">
        <ele>242</ele>
        <time>2018-03-13T09:56:39Z</time>
      </trkpt>
      <trkpt lat="45.94115" lon="4.81119">
        <ele>243</ele>
        <time>2018-03-13T09:56:40Z</time>
      </trkpt>
      <trkpt lat="45.9412" lon="4.81127">
        <ele>243</ele>
        <time>2018-03-13T09:56:43Z</time>
      </trkpt>
      <trkpt lat="45.94121" lon="4.81129">
        <ele>243</ele>
        <time>2018-03-13T09:56:44Z</time>
      </trkpt>
      <trkpt lat="45.94126" lon="4.81139">
        <ele>243</ele>
        <time>2018-03-13T09:56:48Z</time>
      </trkpt>
      <trkpt lat="45.94127" lon="4.81141">
        <ele>243</ele>
        <time>2018-03-13T09:56:49Z</time>
      </trkpt>
      <trkpt lat="45.94131" lon="4.81149">
        <ele>243</ele>
        <time>2018-03-13T09:56:52Z</time>
      </trkpt>
      <trkpt lat="45.94132" lon="4.81152">
        <ele>244</ele>
        <time>2018-03-13T09:56:53Z</time>
      </trkpt>
      <trkpt lat="45.94136" lon="4.81161">
        <ele>244</ele>
        <time>2018-03-13T09:56:56Z</time>
      </trkpt>
      <trkpt lat="45.94137" lon="4.81164">
        <ele>244</ele>
        <time>2018-03-13T09:56:57Z</time>
      </trkpt>
      <trkpt lat="45.94141" lon="4.81175">
        <ele>244</ele>
        <time>2018-03-13T09:57:01Z</time>
      </trkpt>
      <trkpt lat="45.94142" lon="4.81177">
        <ele>244</ele>
        <time>2018-03-13T09:57:02Z</time>
      </trkpt>
      <trkpt lat="45.94145" lon="4.81186">
        <ele>244</ele>
        <time>2018-03-13T09:57:05Z</time>
      </trkpt>
      <trkpt lat="45.94146" lon="4.81189">
        <ele>244</ele>
        <time>2018-03-13T09:57:06Z</time>
      </trkpt>
      <trkpt lat="45.9415" lon="4.81198">
        <ele>244</ele>
        <time>2018-03-13T09:57:09Z</time>
      </trkpt>
      <trkpt lat="45.9415" lon="4.81201">
        <ele>244</ele>
        <time>2018-03-13T09:57:10Z</time>
      </trkpt>
      <trkpt lat="45.94153" lon="4.81211">
        <ele>244</ele>
        <time>2018-03-13T09:57:13Z</time>
      </trkpt>
      <trkpt lat="45.94154" lon="4.81214">
        <ele>245</ele>
        <time>2018-03-13T09:57:14Z</time>
      </trkpt>
      <trkpt lat="45.94157" lon="4.81226">
        <ele>245</ele>
        <time>2018-03-13T09:57:18Z</time>
      </trkpt>
      <trkpt lat="45.94157" lon="4.81229">
        <ele>246</ele>
        <time>2018-03-13T09:57:19Z</time>
      </trkpt>
      <trkpt lat="45.9416" lon="4.8124">
        <ele>247</ele>
        <time>2018-03-13T09:57:23Z</time>
      </trkpt>
      <trkpt lat="45.94161" lon="4.81243">
        <ele>248</ele>
        <time>2018-03-13T09:57:24Z</time>
      </trkpt>
      <trkpt lat="45.94163" lon="4.81255">
        <ele>249</ele>
        <time>2018-03-13T09:57:28Z</time>
      </trkpt>
      <trkpt lat="45.94163" lon="4.81258">
        <ele>249</ele>
        <time>2018-03-13T09:57:29Z</time>
      </trkpt>
      <trkpt lat="45.94164" lon="4.81268">
        <ele>248</ele>
        <time>2018-03-13T09:57:32Z</time>
      </trkpt>
      <trkpt lat="45.94164" lon="4.81271">
        <ele>248</ele>
        <time>2018-03-13T09:57:33Z</time>
      </trkpt>
      <trkpt lat="45.94165" lon="4.81283">
        <ele>247</ele>
        <time>2018-03-13T09:57:37Z</time>
      </trkpt>
      <trkpt lat="45.94166" lon="4.81287">
        <ele>247</ele>
        <time>2018-03-13T09:57:38Z</time>
      </trkpt>
      <trkpt lat="45.94166" lon="4.81297">
        <ele>247</ele>
        <time>2018-03-13T09:57:41Z</time>
      </trkpt>
      <trkpt lat="45.94167" lon="4.813">
        <ele>248</ele>
        <time>2018-03-13T09:57:42Z</time>
      </trkpt>
      <trkpt lat="45.94166" lon="4.8131">
        <ele>248</ele>
        <time>2018-03-13T09:57:47Z</time>
      </trkpt>
      <trkpt lat="45.94165" lon="4.81313">
        <ele>248</ele>
        <time>2018-03-13T09:57:48Z</time>
      </trkpt>
      <trkpt lat="45.94165" lon="4.81324">
        <ele>250</ele>
        <time>2018-03-13T09:57:53Z</time>
      </trkpt>
      <trkpt lat="45.94165" lon="4.81326">
        <ele>250</ele>
        <time>2018-03-13T09:57:54Z</time>
      </trkpt>
      <trkpt lat="45.94165" lon="4.81337">
        <ele>252</ele>
        <time>2018-03-13T09:57:58Z</time>
      </trkpt>
      <trkpt lat="45.94164" lon="4.8134">
        <ele>251</ele>
        <time>2018-03-13T09:57:59Z</time>
      </trkpt>
      <trkpt lat="45.94164" lon="4.81353">
        <ele>251</ele>
        <time>2018-03-13T09:58:03Z</time>
      </trkpt>
      <trkpt lat="45.94164" lon="4.81355">
        <ele>251</ele>
        <time>2018-03-13T09:58:04Z</time>
      </trkpt>
      <trkpt lat="45.94161" lon="4.81367">
        <ele>251</ele>
        <time>2018-03-13T09:58:09Z</time>
      </trkpt>
      <trkpt lat="45.94161" lon="4.8137">
        <ele>251</ele>
        <time>2018-03-13T09:58:10Z</time>
      </trkpt>
      <trkpt lat="45.94159" lon="4.81379">
        <ele>251</ele>
        <time>2018-03-13T09:58:15Z</time>
      </trkpt>
      <trkpt lat="45.94158" lon="4.81382">
        <ele>251</ele>
        <time>2018-03-13T09:58:16Z</time>
      </trkpt>
      <trkpt lat="45.94156" lon="4.81393">
        <ele>252</ele>
        <time>2018-03-13T09:58:20Z</time>
      </trkpt>
      <trkpt lat="45.94156" lon="4.81397">
        <ele>252</ele>
        <time>2018-03-13T09:58:21Z</time>
      </trkpt>
      <trkpt lat="45.94155" lon="4.81406">
        <ele>253</ele>
        <time>2018-03-13T09:58:23Z</time>
      </trkpt>
      <trkpt lat="45.94155" lon="4.8141">
        <ele>253</ele>
        <time>2018-03-13T09:58:24Z</time>
      </trkpt>
      <trkpt lat="45.94154" lon="4.8142">
        <ele>256</ele>
        <time>2018-03-13T09:58:26Z</time>
      </trkpt>
      <trkpt lat="45.94154" lon="4.81424">
        <ele>256</ele>
        <time>2018-03-13T09:58:27Z</time>
      </trkpt>
      <trkpt lat="45.94153" lon="4.81436">
        <ele>256</ele>
        <time>2018-03-13T09:58:30Z</time>
      </trkpt>
      <trkpt lat="45.94153" lon="4.8144">
        <ele>256</ele>
        <time>2018-03-13T09:58:31Z</time>
      </trkpt>
      <trkpt lat="45.94151" lon="4.81452">
        <ele>257</ele>
        <time>2018-03-13T09:58:35Z</time>
      </trkpt>
      <trkpt lat="45.94151" lon="4.81455">
        <ele>257</ele>
        <time>2018-03-13T09:58:36Z</time>
      </trkpt>
      <trkpt lat="45.9415" lon="4.81467">
        <ele>258</ele>
        <time>2018-03-13T09:58:40Z</time>
      </trkpt>
      <trkpt lat="45.9415" lon="4.81469">
        <ele>258</ele>
        <time>2018-03-13T09:58:41Z</time>
      </trkpt>
      <trkpt lat="45.94149" lon="4.8148">
        <ele>258</ele>
        <time>2018-03-13T09:58:44Z</time>
      </trkpt>
      <trkpt lat="45.94149" lon="4.81484">
        <ele>259</ele>
        <time>2018-03-13T09:58:45Z</time>
      </trkpt>
      <trkpt lat="45.94148" lon="4.81495">
        <ele>259</ele>
        <time>2018-03-13T09:58:48Z</time>
      </trkpt>
      <trkpt lat="45.94148" lon="4.81498">
        <ele>260</ele>
        <time>2018-03-13T09:58:49Z</time>
      </trkpt>
      <trkpt lat="45.94148" lon="4.81508">
        <ele>263</ele>
        <time>2018-03-13T09:58:52Z</time>
      </trkpt>
      <trkpt lat="45.94148" lon="4.81511">
        <ele>263</ele>
        <time>2018-03-13T09:58:53Z</time>
      </trkpt>
      <trkpt lat="45.94149" lon="4.81522">
        <ele>263</ele>
        <time>2018-03-13T09:58:56Z</time>
      </trkpt>
      <trkpt lat="45.94149" lon="4.81525">
        <ele>263</ele>
        <time>2018-03-13T09:58:57Z</time>
      </trkpt>
      <trkpt lat="45.94148" lon="4.81536">
        <ele>264</ele>
        <time>2018-03-13T09:59:00Z</time>
      </trkpt>
      <trkpt lat="45.94148" lon="4.8154">
        <ele>264</ele>
        <time>2018-03-13T09:59:01Z</time>
      </trkpt>
      <trkpt lat="45.94147" lon="4.81552">
        <ele>264</ele>
        <time>2018-03-13T09:59:04Z</time>
      </trkpt>
      <trkpt lat="45.94148" lon="4.81556">
        <ele>264</ele>
        <time>2018-03-13T09:59:05Z</time>
      </trkpt>
      <trkpt lat="45.94148" lon="4.81564">
        <ele>265</ele>
        <time>2018-03-13T09:59:07Z</time>
      </trkpt>
      <trkpt lat="45.94149" lon="4.81569">
        <ele>265</ele>
        <time>2018-03-13T09:59:08Z</time>
      </trkpt>
      <trkpt lat="45.9415" lon="4.81577">
        <ele>265</ele>
        <time>2018-03-13T09:59:10Z</time>
      </trkpt>
      <trkpt lat="45.94151" lon="4.81582">
        <ele>266</ele>
        <time>2018-03-13T09:59:11Z</time>
      </trkpt>
      <trkpt lat="45.94153" lon="4.8159">
        <ele>267</ele>
        <time>2018-03-13T09:59:13Z</time>
      </trkpt>
      <trkpt lat="45.94154" lon="4.81594">
        <ele>267</ele>
        <time>2018-03-13T09:59:14Z</time>
      </trkpt>
      <trkpt lat="45.94155" lon="4.81603">
        <ele>267</ele>
        <time>2018-03-13T09:59:16Z</time>
      </trkpt>
      <trkpt lat="45.94156" lon="4.81607">
        <ele>267</ele>
        <time>2018-03-13T09:59:17Z</time>
      </trkpt>
      <trkpt lat="45.94158" lon="4.81615">
        <ele>268</ele>
        <time>2018-03-13T09:59:19Z</time>
      </trkpt>
      <trkpt lat="45.94159" lon="4.81619">
        <ele>268</ele>
        <time>2018-03-13T09:59:20Z</time>
      </trkpt>
      <trkpt lat="45.94162" lon="4.81628">
        <ele>268</ele>
        <time>2018-03-13T09:59:22Z</time>
      </trkpt>
      <trkpt lat="45.94163" lon="4.81632">
        <ele>268</ele>
        <time>2018-03-13T09:59:23Z</time>
      </trkpt>
      <trkpt lat="45.94165" lon="4.8164">
        <ele>268</ele>
        <time>2018-03-13T09:59:25Z</time>
      </trkpt>
      <trkpt lat="45.94166" lon="4.81645">
        <ele>268</ele>
        <time>2018-03-13T09:59:26Z</time>
      </trkpt>
      <trkpt lat="45.94169" lon="4.81657">
        <ele>268</ele>
        <time>2018-03-13T09:59:29Z</time>
      </trkpt>
      <trkpt lat="45.94169" lon="4.81661">
        <ele>269</ele>
        <time>2018-03-13T09:59:30Z</time>
      </trkpt>
      <trkpt lat="45.94171" lon="4.81674">
        <ele>268</ele>
        <time>2018-03-13T09:59:33Z</time>
      </trkpt>
      <trkpt lat="45.94172" lon="4.81678">
        <ele>268</ele>
        <time>2018-03-13T09:59:34Z</time>
      </trkpt>
      <trkpt lat="45.94174" lon="4.81688">
        <ele>267</ele>
        <time>2018-03-13T09:59:37Z</time>
      </trkpt>
      <trkpt lat="45.94175" lon="4.81691">
        <ele>267</ele>
        <time>2018-03-13T09:59:38Z</time>
      </trkpt>
      <trkpt lat="45.94179" lon="4.817">
        <ele>267</ele>
        <time>2018-03-13T09:59:41Z</time>
      </trkpt>
      <trkpt lat="45.9418" lon="4.81703">
        <ele>267</ele>
        <time>2018-03-13T09:59:42Z</time>
      </trkpt>
      <trkpt lat="45.94183" lon="4.81713">
        <ele>267</ele>
        <time>2018-03-13T09:59:45Z</time>
      </trkpt>
      <trkpt lat="45.94184" lon="4.81717">
        <ele>267</ele>
        <time>2018-03-13T09:59:46Z</time>
      </trkpt>
      <trkpt lat="45.94185" lon="4.81726">
        <ele>267</ele>
        <time>2018-03-13T09:59:48Z</time>
      </trkpt>
      <trkpt lat="45.94185" lon="4.81731">
        <ele>267</ele>
        <time>2018-03-13T09:59:49Z</time>
      </trkpt>
      <trkpt lat="45.94186" lon="4.8174">
        <ele>267</ele>
        <time>2018-03-13T09:59:51Z</time>
      </trkpt>
      <trkpt lat="45.94187" lon="4.81744">
        <ele>267</ele>
        <time>2018-03-13T09:59:52Z</time>
      </trkpt>
      <trkpt lat="45.94189" lon="4.81749">
        <ele>267</ele>
        <time>2018-03-13T09:59:53Z</time>
      </trkpt>
      <trkpt lat="45.94193" lon="4.81762">
        <ele>266</ele>
        <time>2018-03-13T09:59:54Z</time>
      </trkpt>
      <trkpt lat="45.94195" lon="4.81767">
        <ele>266</ele>
        <time>2018-03-13T09:59:56Z</time>
      </trkpt>
      <trkpt lat="45.94198" lon="4.81775">
        <ele>266</ele>
        <time>2018-03-13T09:59:57Z</time>
      </trkpt>
      <trkpt lat="45.942" lon="4.81786">
        <ele>266</ele>
        <time>2018-03-13T09:59:59Z</time>
      </trkpt>
      <trkpt lat="45.942" lon="4.81792">
        <ele>266</ele>
        <time>2018-03-13T10:00:00Z</time>
      </trkpt>
      <trkpt lat="45.942" lon="4.81803">
        <ele>266</ele>
        <time>2018-03-13T10:00:02Z</time>
      </trkpt>
      <trkpt lat="45.942" lon="4.81809">
        <ele>266</ele>
        <time>2018-03-13T10:00:03Z</time>
      </trkpt>
      <trkpt lat="45.94201" lon="4.81819">
        <ele>266</ele>
        <time>2018-03-13T10:00:06Z</time>
      </trkpt>
      <trkpt lat="45.94202" lon="4.81823">
        <ele>266</ele>
        <time>2018-03-13T10:00:07Z</time>
      </trkpt>
      <trkpt lat="45.94204" lon="4.81833">
        <ele>266</ele>
        <time>2018-03-13T10:00:10Z</time>
      </trkpt>
      <trkpt lat="45.94205" lon="4.81837">
        <ele>266</ele>
        <time>2018-03-13T10:00:11Z</time>
      </trkpt>
      <trkpt lat="45.94207" lon="4.8185">
        <ele>266</ele>
        <time>2018-03-13T10:00:12Z</time>
      </trkpt>
      <trkpt lat="45.94209" lon="4.81861">
        <ele>265</ele>
        <time>2018-03-13T10:00:14Z</time>
      </trkpt>
      <trkpt lat="45.9421" lon="4.81867">
        <ele>265</ele>
        <time>2018-03-13T10:00:15Z</time>
      </trkpt>
      <trkpt lat="45.94211" lon="4.81879">
        <ele>265</ele>
        <time>2018-03-13T10:00:17Z</time>
      </trkpt>
      <trkpt lat="45.94213" lon="4.81885">
        <ele>265</ele>
        <time>2018-03-13T10:00:18Z</time>
      </trkpt>
      <trkpt lat="45.94215" lon="4.81897">
        <ele>265</ele>
        <time>2018-03-13T10:00:20Z</time>
      </trkpt>
      <trkpt lat="45.94216" lon="4.81903">
        <ele>265</ele>
        <time>2018-03-13T10:00:21Z</time>
      </trkpt>
      <trkpt lat="45.94218" lon="4.81914">
        <ele>265</ele>
        <time>2018-03-13T10:00:23Z</time>
      </trkpt>
      <trkpt lat="45.94219" lon="4.8192">
        <ele>264</ele>
        <time>2018-03-13T10:00:24Z</time>
      </trkpt>
      <trkpt lat="45.94222" lon="4.81927">
        <ele>264</ele>
        <time>2018-03-13T10:00:25Z</time>
      </trkpt>
      <trkpt lat="45.94223" lon="4.81933">
        <ele>264</ele>
        <time>2018-03-13T10:00:26Z</time>
      </trkpt>
      <trkpt lat="45.94223" lon="4.81939">
        <ele>264</ele>
        <time>2018-03-13T10:00:27Z</time>
      </trkpt>
      <trkpt lat="45.94225" lon="4.81947">
        <ele>264</ele>
        <time>2018-03-13T10:00:28Z</time>
      </trkpt>
      <trkpt lat="45.94228" lon="4.81959">
        <ele>264</ele>
        <time>2018-03-13T10:00:30Z</time>
      </trkpt>
      <trkpt lat="45.94229" lon="4.81966">
        <ele>264</ele>
        <time>2018-03-13T10:00:31Z</time>
      </trkpt>
      <trkpt lat="45.9423" lon="4.81973">
        <ele>264</ele>
        <time>2018-03-13T10:00:32Z</time>
      </trkpt>
      <trkpt lat="45.94231" lon="4.8198">
        <ele>263</ele>
        <time>2018-03-13T10:00:33Z</time>
      </trkpt>
      <trkpt lat="45.94232" lon="4.81988">
        <ele>263</ele>
        <time>2018-03-13T10:00:34Z</time>
      </trkpt>
      <trkpt lat="45.94234" lon="4.81995">
        <ele>263</ele>
        <time>2018-03-13T10:00:35Z</time>
      </trkpt>
      <trkpt lat="45.94235" lon="4.82002">
        <ele>263</ele>
        <time>2018-03-13T10:00:36Z</time>
      </trkpt>
      <trkpt lat="45.94237" lon="4.82008">
        <ele>263</ele>
        <time>2018-03-13T10:00:37Z</time>
      </trkpt>
      <trkpt lat="45.94238" lon="4.82015">
        <ele>263</ele>
        <time>2018-03-13T10:00:38Z</time>
      </trkpt>
      <trkpt lat="45.94239" lon="4.82021">
        <ele>263</ele>
        <time>2018-03-13T10:00:39Z</time>
      </trkpt>
      <trkpt lat="45.94241" lon="4.82033">
        <ele>263</ele>
        <time>2018-03-13T10:00:41Z</time>
      </trkpt>
      <trkpt lat="45.94244" lon="4.82042">
        <ele>263</ele>
        <time>2018-03-13T10:00:42Z</time>
      </trkpt>
      <trkpt lat="45.94245" lon="4.82053">
        <ele>263</ele>
        <time>2018-03-13T10:00:44Z</time>
      </trkpt>
      <trkpt lat="45.94246" lon="4.82061">
        <ele>263</ele>
        <time>2018-03-13T10:00:45Z</time>
      </trkpt>
      <trkpt lat="45.94247" lon="4.8207">
        <ele>263</ele>
        <time>2018-03-13T10:00:46Z</time>
      </trkpt>
      <trkpt lat="45.94248" lon="4.82079">
        <ele>262</ele>
        <time>2018-03-13T10:00:47Z</time>
      </trkpt>
      <trkpt lat="45.94249" lon="4.82087">
        <ele>262</ele>
        <time>2018-03-13T10:00:48Z</time>
      </trkpt>
      <trkpt lat="45.9425" lon="4.82093">
        <ele>263</ele>
        <time>2018-03-13T10:00:49Z</time>
      </trkpt>
      <trkpt lat="45.94252" lon="4.82102">
        <ele>262</ele>
        <time>2018-03-13T10:00:51Z</time>
      </trkpt>
      <trkpt lat="45.94254" lon="4.8211">
        <ele>263</ele>
        <time>2018-03-13T10:00:52Z</time>
      </trkpt>
      <trkpt lat="45.94258" lon="4.82121">
        <ele>263</ele>
        <time>2018-03-13T10:00:54Z</time>
      </trkpt>
      <trkpt lat="45.94259" lon="4.82129">
        <ele>263</ele>
        <time>2018-03-13T10:00:55Z</time>
      </trkpt>
      <trkpt lat="45.94261" lon="4.82137">
        <ele>263</ele>
        <time>2018-03-13T10:00:56Z</time>
      </trkpt>
      <trkpt lat="45.94262" lon="4.82144">
        <ele>263</ele>
        <time>2018-03-13T10:00:57Z</time>
      </trkpt>
      <trkpt lat="45.94263" lon="4.82151">
        <ele>263</ele>
        <time>2018-03-13T10:00:58Z</time>
      </trkpt>
      <trkpt lat="45.94265" lon="4.82159">
        <ele>263</ele>
        <time>2018-03-13T10:00:59Z</time>
      </trkpt>
      <trkpt lat="45.94266" lon="4.82167">
        <ele>263</ele>
        <time>2018-03-13T10:01:00Z</time>
      </trkpt>
      <trkpt lat="45.94268" lon="4.82175">
        <ele>264</ele>
        <time>2018-03-13T10:01:01Z</time>
      </trkpt>
      <trkpt lat="45.9427" lon="4.82183">
        <ele>264</ele>
        <time>2018-03-13T10:01:02Z</time>
      </trkpt>
      <trkpt lat="45.94271" lon="4.82191">
        <ele>264</ele>
        <time>2018-03-13T10:01:03Z</time>
      </trkpt>
      <trkpt lat="45.94272" lon="4.822">
        <ele>264</ele>
        <time>2018-03-13T10:01:04Z</time>
      </trkpt>
      <trkpt lat="45.94273" lon="4.82207">
        <ele>264</ele>
        <time>2018-03-13T10:01:05Z</time>
      </trkpt>
      <trkpt lat="45.94274" lon="4.82214">
        <ele>264</ele>
        <time>2018-03-13T10:01:06Z</time>
      </trkpt>
      <trkpt lat="45.94275" lon="4.82223">
        <ele>264</ele>
        <time>2018-03-13T10:01:07Z</time>
      </trkpt>
      <trkpt lat="45.94276" lon="4.82234">
        <ele>264</ele>
        <time>2018-03-13T10:01:09Z</time>
      </trkpt>
      <trkpt lat="45.94277" lon="4.82239">
        <ele>264</ele>
        <time>2018-03-13T10:01:10Z</time>
      </trkpt>
      <trkpt lat="45.94278" lon="4.82246">
        <ele>264</ele>
        <time>2018-03-13T10:01:11Z</time>
      </trkpt>
      <trkpt lat="45.9428" lon="4.82254">
        <ele>265</ele>
        <time>2018-03-13T10:01:12Z</time>
      </trkpt>
      <trkpt lat="45.9428" lon="4.82261">
        <ele>265</ele>
        <time>2018-03-13T10:01:13Z</time>
      </trkpt>
      <trkpt lat="45.94282" lon="4.8227">
        <ele>265</ele>
        <time>2018-03-13T10:01:14Z</time>
      </trkpt>
      <trkpt lat="45.94282" lon="4.82278">
        <ele>265</ele>
        <time>2018-03-13T10:01:15Z</time>
      </trkpt>
      <trkpt lat="45.94282" lon="4.82283">
        <ele>265</ele>
        <time>2018-03-13T10:01:16Z</time>
      </trkpt>
      <trkpt lat="45.94283" lon="4.82293">
        <ele>265</ele>
        <time>2018-03-13T10:01:17Z</time>
      </trkpt>
      <trkpt lat="45.94284" lon="4.82301">
        <ele>265</ele>
        <time>2018-03-13T10:01:18Z</time>
      </trkpt>
      <trkpt lat="45.94283" lon="4.82308">
        <ele>265</ele>
        <time>2018-03-13T10:01:19Z</time>
      </trkpt>
      <trkpt lat="45.94283" lon="4.82315">
        <ele>265</ele>
        <time>2018-03-13T10:01:20Z</time>
      </trkpt>
      <trkpt lat="45.94284" lon="4.82323">
        <ele>265</ele>
        <time>2018-03-13T10:01:21Z</time>
      </trkpt>
      <trkpt lat="45.94284" lon="4.8233">
        <ele>265</ele>
        <time>2018-03-13T10:01:22Z</time>
      </trkpt>
      <trkpt lat="45.94285" lon="4.82336">
        <ele>264</ele>
        <time>2018-03-13T10:01:23Z</time>
      </trkpt>
      <trkpt lat="45.94285" lon="4.82343">
        <ele>264</ele>
        <time>2018-03-13T10:01:24Z</time>
      </trkpt>
      <trkpt lat="45.94286" lon="4.82356">
        <ele>264</ele>
        <time>2018-03-13T10:01:26Z</time>
      </trkpt>
      <trkpt lat="45.94286" lon="4.82362">
        <ele>264</ele>
        <time>2018-03-13T10:01:27Z</time>
      </trkpt>
      <trkpt lat="45.94286" lon="4.82373">
        <ele>264</ele>
        <time>2018-03-13T10:01:28Z</time>
      </trkpt>
      <trkpt lat="45.94285" lon="4.82377">
        <ele>264</ele>
        <time>2018-03-13T10:01:29Z</time>
      </trkpt>
      <trkpt lat="45.94285" lon="4.82384">
        <ele>264</ele>
        <time>2018-03-13T10:01:30Z</time>
      </trkpt>
      <trkpt lat="45.94286" lon="4.82391">
        <ele>264</ele>
        <time>2018-03-13T10:01:31Z</time>
      </trkpt>
      <trkpt lat="45.94285" lon="4.82399">
        <ele>264</ele>
        <time>2018-03-13T10:01:32Z</time>
      </trkpt>
      <trkpt lat="45.94287" lon="4.82408">
        <ele>264</ele>
        <time>2018-03-13T10:01:33Z</time>
      </trkpt>
      <trkpt lat="45.94288" lon="4.8242">
        <ele>264</ele>
        <time>2018-03-13T10:01:35Z</time>
      </trkpt>
      <trkpt lat="45.94288" lon="4.82426">
        <ele>264</ele>
        <time>2018-03-13T10:01:36Z</time>
      </trkpt>
      <trkpt lat="45.94288" lon="4.82433">
        <ele>264</ele>
        <time>2018-03-13T10:01:37Z</time>
      </trkpt>
      <trkpt lat="45.94289" lon="4.8244">
        <ele>264</ele>
        <time>2018-03-13T10:01:38Z</time>
      </trkpt>
      <trkpt lat="45.94291" lon="4.82449">
        <ele>264</ele>
        <time>2018-03-13T10:01:39Z</time>
      </trkpt>
      <trkpt lat="45.94291" lon="4.82456">
        <ele>264</ele>
        <time>2018-03-13T10:01:40Z</time>
      </trkpt>
      <trkpt lat="45.94292" lon="4.82463">
        <ele>264</ele>
        <time>2018-03-13T10:01:41Z</time>
      </trkpt>
      <trkpt lat="45.94293" lon="4.82469">
        <ele>264</ele>
        <time>2018-03-13T10:01:42Z</time>
      </trkpt>
      <trkpt lat="45.94293" lon="4.82476">
        <ele>264</ele>
        <time>2018-03-13T10:01:43Z</time>
      </trkpt>
      <trkpt lat="45.94293" lon="4.82482">
        <ele>264</ele>
        <time>2018-03-13T10:01:44Z</time>
      </trkpt>
      <trkpt lat="45.94292" lon="4.82494">
        <ele>264</ele>
        <time>2018-03-13T10:01:46Z</time>
      </trkpt>
      <trkpt lat="45.94292" lon="4.82502">
        <ele>264</ele>
        <time>2018-03-13T10:01:47Z</time>
      </trkpt>
      <trkpt lat="45.94292" lon="4.82509">
        <ele>264</ele>
        <time>2018-03-13T10:01:48Z</time>
      </trkpt>
      <trkpt lat="45.94292" lon="4.82516">
        <ele>264</ele>
        <time>2018-03-13T10:01:49Z</time>
      </trkpt>
      <trkpt lat="45.94292" lon="4.82524">
        <ele>264</ele>
        <time>2018-03-13T10:01:50Z</time>
      </trkpt>
      <trkpt lat="45.94291" lon="4.82529">
        <ele>264</ele>
        <time>2018-03-13T10:01:51Z</time>
      </trkpt>
      <trkpt lat="45.94291" lon="4.82535">
        <ele>264</ele>
        <time>2018-03-13T10:01:52Z</time>
      </trkpt>
      <trkpt lat="45.94292" lon="4.82543">
        <ele>264</ele>
        <time>2018-03-13T10:01:53Z</time>
      </trkpt>
      <trkpt lat="45.94291" lon="4.82548">
        <ele>264</ele>
        <time>2018-03-13T10:01:54Z</time>
      </trkpt>
      <trkpt lat="45.94291" lon="4.82557">
        <ele>264</ele>
        <time>2018-03-13T10:01:55Z</time>
      </trkpt>
      <trkpt lat="45.94291" lon="4.82563">
        <ele>264</ele>
        <time>2018-03-13T10:01:56Z</time>
      </trkpt>
      <trkpt lat="45.94291" lon="4.8257">
        <ele>264</ele>
        <time>2018-03-13T10:01:57Z</time>
      </trkpt>
      <trkpt lat="45.94291" lon="4.82579">
        <ele>265</ele>
        <time>2018-03-13T10:01:58Z</time>
      </trkpt>
      <trkpt lat="45.9429" lon="4.82586">
        <ele>265</ele>
        <time>2018-03-13T10:01:59Z</time>
      </trkpt>
      <trkpt lat="45.9429" lon="4.82594">
        <ele>265</ele>
        <time>2018-03-13T10:02:00Z</time>
      </trkpt>
      <trkpt lat="45.94289" lon="4.826">
        <ele>265</ele>
        <time>2018-03-13T10:02:01Z</time>
      </trkpt>
      <trkpt lat="45.94289" lon="4.82607">
        <ele>265</ele>
        <time>2018-03-13T10:02:02Z</time>
      </trkpt>
      <trkpt lat="45.94289" lon="4.82613">
        <ele>265</ele>
        <time>2018-03-13T10:02:03Z</time>
      </trkpt>
      <trkpt lat="45.94289" lon="4.8262">
        <ele>265</ele>
        <time>2018-03-13T10:02:04Z</time>
      </trkpt>
      <trkpt lat="45.94288" lon="4.82628">
        <ele>265</ele>
        <time>2018-03-13T10:02:05Z</time>
      </trkpt>
      <trkpt lat="45.94287" lon="4.82635">
        <ele>265</ele>
        <time>2018-03-13T10:02:06Z</time>
      </trkpt>
      <trkpt lat="45.94287" lon="4.82642">
        <ele>265</ele>
        <time>2018-03-13T10:02:07Z</time>
      </trkpt>
      <trkpt lat="45.94286" lon="4.82649">
        <ele>265</ele>
        <time>2018-03-13T10:02:08Z</time>
      </trkpt>
      <trkpt lat="45.94286" lon="4.82656">
        <ele>265</ele>
        <time>2018-03-13T10:02:09Z</time>
      </trkpt>
      <trkpt lat="45.94287" lon="4.82663">
        <ele>265</ele>
        <time>2018-03-13T10:02:10Z</time>
      </trkpt>
      <trkpt lat="45.94287" lon="4.82673">
        <ele>265</ele>
        <time>2018-03-13T10:02:11Z</time>
      </trkpt>
      <trkpt lat="45.94287" lon="4.8268">
        <ele>265</ele>
        <time>2018-03-13T10:02:12Z</time>
      </trkpt>
      <trkpt lat="45.94287" lon="4.82687">
        <ele>265</ele>
        <time>2018-03-13T10:02:13Z</time>
      </trkpt>
      <trkpt lat="45.94286" lon="4.82694">
        <ele>265</ele>
        <time>2018-03-13T10:02:14Z</time>
      </trkpt>
      <trkpt lat="45.94286" lon="4.82702">
        <ele>265</ele>
        <time>2018-03-13T10:02:15Z</time>
      </trkpt>
      <trkpt lat="45.94287" lon="4.8271">
        <ele>265</ele>
        <time>2018-03-13T10:02:16Z</time>
      </trkpt>
      <trkpt lat="45.94287" lon="4.82718">
        <ele>265</ele>
        <time>2018-03-13T10:02:17Z</time>
      </trkpt>
      <trkpt lat="45.94287" lon="4.82725">
        <ele>265</ele>
        <time>2018-03-13T10:02:18Z</time>
      </trkpt>
      <trkpt lat="45.94287" lon="4.82733">
        <ele>265</ele>
        <time>2018-03-13T10:02:19Z</time>
      </trkpt>
      <trkpt lat="45.94287" lon="4.82739">
        <ele>265</ele>
        <time>2018-03-13T10:02:20Z</time>
      </trkpt>
      <trkpt lat="45.94287" lon="4.82746">
        <ele>265</ele>
        <time>2018-03-13T10:02:21Z</time>
      </trkpt>
      <trkpt lat="45.94287" lon="4.82753">
        <ele>265</ele>
        <time>2018-03-13T10:02:22Z</time>
      </trkpt>
      <trkpt lat="45.94286" lon="4.82761">
        <ele>265</ele>
        <time>2018-03-13T10:02:23Z</time>
      </trkpt>
      <trkpt lat="45.94286" lon="4.82769">
        <ele>265</ele>
        <time>2018-03-13T10:02:24Z</time>
      </trkpt>
      <trkpt lat="45.94286" lon="4.82776">
        <ele>265</ele>
        <time>2018-03-13T10:02:25Z</time>
      </trkpt>
      <trkpt lat="45.94286" lon="4.82782">
        <ele>265</ele>
        <time>2018-03-13T10:02:26Z</time>
      </trkpt>
      <trkpt lat="45.94286" lon="4.82789">
        <ele>265</ele>
        <time>2018-03-13T10:02:27Z</time>
      </trkpt>
      <trkpt lat="45.94285" lon="4.82795">
        <ele>265</ele>
        <time>2018-03-13T10:02:28Z</time>
      </trkpt>
      <trkpt lat="45.94286" lon="4.82802">
        <ele>265</ele>
        <time>2018-03-13T10:02:29Z</time>
      </trkpt>
      <trkpt lat="45.94286" lon="4.82811">
        <ele>265</ele>
        <time>2018-03-13T10:02:30Z</time>
      </trkpt>
      <trkpt lat="45.94286" lon="4.82819">
        <ele>265</ele>
        <time>2018-03-13T10:02:31Z</time>
      </trkpt>
      <trkpt lat="45.94286" lon="4.82826">
        <ele>265</ele>
        <time>2018-03-13T10:02:32Z</time>
      </trkpt>
      <trkpt lat="45.94286" lon="4.82833">
        <ele>265</ele>
        <time>2018-03-13T10:02:33Z</time>
      </trkpt>
      <trkpt lat="45.94285" lon="4.82841">
        <ele>265</ele>
        <time>2018-03-13T10:02:34Z</time>
      </trkpt>
      <trkpt lat="45.94285" lon="4.82847">
        <ele>265</ele>
        <time>2018-03-13T10:02:35Z</time>
      </trkpt>
      <trkpt lat="45.94284" lon="4.8286">
        <ele>265</ele>
        <time>2018-03-13T10:02:37Z</time>
      </trkpt>
      <trkpt lat="45.94284" lon="4.82867">
        <ele>265</ele>
        <time>2018-03-13T10:02:38Z</time>
      </trkpt>
      <trkpt lat="45.94283" lon="4.82879">
        <ele>265</ele>
        <time>2018-03-13T10:02:40Z</time>
      </trkpt>
      <trkpt lat="45.94283" lon="4.82884">
        <ele>265</ele>
        <time>2018-03-13T10:02:41Z</time>
      </trkpt>
      <trkpt lat="45.94283" lon="4.82893">
        <ele>265</ele>
        <time>2018-03-13T10:02:42Z</time>
      </trkpt>
      <trkpt lat="45.94284" lon="4.82901">
        <ele>265</ele>
        <time>2018-03-13T10:02:43Z</time>
      </trkpt>
      <trkpt lat="45.94284" lon="4.82908">
        <ele>265</ele>
        <time>2018-03-13T10:02:44Z</time>
      </trkpt>
      <trkpt lat="45.94283" lon="4.82915">
        <ele>265</ele>
        <time>2018-03-13T10:02:45Z</time>
      </trkpt>
      <trkpt lat="45.94282" lon="4.82922">
        <ele>265</ele>
        <time>2018-03-13T10:02:46Z</time>
      </trkpt>
      <trkpt lat="45.94281" lon="4.8293">
        <ele>265</ele>
        <time>2018-03-13T10:02:47Z</time>
      </trkpt>
      <trkpt lat="45.94279" lon="4.82937">
        <ele>265</ele>
        <time>2018-03-13T10:02:48Z</time>
      </trkpt>
      <trkpt lat="45.94278" lon="4.82947">
        <ele>265</ele>
        <time>2018-03-13T10:02:49Z</time>
      </trkpt>
      <trkpt lat="45.94277" lon="4.82953">
        <ele>265</ele>
        <time>2018-03-13T10:02:50Z</time>
      </trkpt>
      <trkpt lat="45.94278" lon="4.82962">
        <ele>265</ele>
        <time>2018-03-13T10:02:51Z</time>
      </trkpt>
      <trkpt lat="45.94279" lon="4.8297">
        <ele>265</ele>
        <time>2018-03-13T10:02:52Z</time>
      </trkpt>
      <trkpt lat="45.94281" lon="4.82977">
        <ele>265</ele>
        <time>2018-03-13T10:02:53Z</time>
      </trkpt>
      <trkpt lat="45.94282" lon="4.82985">
        <ele>265</ele>
        <time>2018-03-13T10:02:54Z</time>
      </trkpt>
      <trkpt lat="45.94285" lon="4.82991">
        <ele>265</ele>
        <time>2018-03-13T10:02:55Z</time>
      </trkpt>
      <trkpt lat="45.94287" lon="4.82997">
        <ele>265</ele>
        <time>2018-03-13T10:02:56Z</time>
      </trkpt>
      <trkpt lat="45.94289" lon="4.83004">
        <ele>266</ele>
        <time>2018-03-13T10:02:57Z</time>
      </trkpt>
      <trkpt lat="45.94292" lon="4.83011">
        <ele>266</ele>
        <time>2018-03-13T10:02:58Z</time>
      </trkpt>
      <trkpt lat="45.94294" lon="4.83019">
        <ele>266</ele>
        <time>2018-03-13T10:02:59Z</time>
      </trkpt>
      <trkpt lat="45.94295" lon="4.83027">
        <ele>266</ele>
        <time>2018-03-13T10:03:00Z</time>
      </trkpt>
      <trkpt lat="45.94297" lon="4.83035">
        <ele>266</ele>
        <time>2018-03-13T10:03:01Z</time>
      </trkpt>
      <trkpt lat="45.94299" lon="4.83042">
        <ele>266</ele>
        <time>2018-03-13T10:03:02Z</time>
      </trkpt>
      <trkpt lat="45.943" lon="4.8305">
        <ele>266</ele>
        <time>2018-03-13T10:03:03Z</time>
      </trkpt>
      <trkpt lat="45.94302" lon="4.83056">
        <ele>266</ele>
        <time>2018-03-13T10:03:04Z</time>
      </trkpt>
      <trkpt lat="45.94304" lon="4.83064">
        <ele>266</ele>
        <time>2018-03-13T10:03:05Z</time>
      </trkpt>
      <trkpt lat="45.94306" lon="4.83072">
        <ele>266</ele>
        <time>2018-03-13T10:03:06Z</time>
      </trkpt>
      <trkpt lat="45.94308" lon="4.83079">
        <ele>266</ele>
        <time>2018-03-13T10:03:07Z</time>
      </trkpt>
      <trkpt lat="45.9431" lon="4.83086">
        <ele>266</ele>
        <time>2018-03-13T10:03:08Z</time>
      </trkpt>
      <trkpt lat="45.94312" lon="4.83092">
        <ele>266</ele>
        <time>2018-03-13T10:03:09Z</time>
      </trkpt>
      <trkpt lat="45.94314" lon="4.83097">
        <ele>266</ele>
        <time>2018-03-13T10:03:10Z</time>
      </trkpt>
      <trkpt lat="45.94316" lon="4.83106">
        <ele>266</ele>
        <time>2018-03-13T10:03:11Z</time>
      </trkpt>
      <trkpt lat="45.94318" lon="4.83113">
        <ele>266</ele>
        <time>2018-03-13T10:03:12Z</time>
      </trkpt>
      <trkpt lat="45.94321" lon="4.83121">
        <ele>266</ele>
        <time>2018-03-13T10:03:13Z</time>
      </trkpt>
      <trkpt lat="45.94323" lon="4.83128">
        <ele>266</ele>
        <time>2018-03-13T10:03:14Z</time>
      </trkpt>
      <trkpt lat="45.94325" lon="4.83135">
        <ele>266</ele>
        <time>2018-03-13T10:03:15Z</time>
      </trkpt>
      <trkpt lat="45.94328" lon="4.83143">
        <ele>266</ele>
        <time>2018-03-13T10:03:16Z</time>
      </trkpt>
      <trkpt lat="45.9433" lon="4.8315">
        <ele>266</ele>
        <time>2018-03-13T10:03:17Z</time>
      </trkpt>
      <trkpt lat="45.94333" lon="4.83158">
        <ele>266</ele>
        <time>2018-03-13T10:03:18Z</time>
      </trkpt>
      <trkpt lat="45.94335" lon="4.83165">
        <ele>266</ele>
        <time>2018-03-13T10:03:19Z</time>
      </trkpt>
      <trkpt lat="45.94338" lon="4.83172">
        <ele>266</ele>
        <time>2018-03-13T10:03:20Z</time>
      </trkpt>
      <trkpt lat="45.94341" lon="4.8318">
        <ele>266</ele>
        <time>2018-03-13T10:03:21Z</time>
      </trkpt>
      <trkpt lat="45.94344" lon="4.83188">
        <ele>266</ele>
        <time>2018-03-13T10:03:22Z</time>
      </trkpt>
      <trkpt lat="45.94346" lon="4.83194">
        <ele>266</ele>
        <time>2018-03-13T10:03:23Z</time>
      </trkpt>
      <trkpt lat="45.94349" lon="4.83201">
        <ele>266</ele>
        <time>2018-03-13T10:03:24Z</time>
      </trkpt>
      <trkpt lat="45.94352" lon="4.83209">
        <ele>266</ele>
        <time>2018-03-13T10:03:25Z</time>
      </trkpt>
      <trkpt lat="45.94355" lon="4.83218">
        <ele>266</ele>
        <time>2018-03-13T10:03:26Z</time>
      </trkpt>
      <trkpt lat="45.94357" lon="4.83225">
        <ele>266</ele>
        <time>2018-03-13T10:03:27Z</time>
      </trkpt>
      <trkpt lat="45.9436" lon="4.83232">
        <ele>266</ele>
        <time>2018-03-13T10:03:28Z</time>
      </trkpt>
      <trkpt lat="45.94363" lon="4.83241">
        <ele>265</ele>
        <time>2018-03-13T10:03:29Z</time>
      </trkpt>
      <trkpt lat="45.94365" lon="4.83248">
        <ele>265</ele>
        <time>2018-03-13T10:03:30Z</time>
      </trkpt>
      <trkpt lat="45.94367" lon="4.83255">
        <ele>265</ele>
        <time>2018-03-13T10:03:31Z</time>
      </trkpt>
      <trkpt lat="45.9437" lon="4.83262">
        <ele>264</ele>
        <time>2018-03-13T10:03:32Z</time>
      </trkpt>
      <trkpt lat="45.94374" lon="4.8327">
        <ele>264</ele>
        <time>2018-03-13T10:03:33Z</time>
      </trkpt>
      <trkpt lat="45.94376" lon="4.83278">
        <ele>264</ele>
        <time>2018-03-13T10:03:34Z</time>
      </trkpt>
      <trkpt lat="45.94378" lon="4.83286">
        <ele>264</ele>
        <time>2018-03-13T10:03:35Z</time>
      </trkpt>
      <trkpt lat="45.94381" lon="4.83293">
        <ele>264</ele>
        <time>2018-03-13T10:03:36Z</time>
      </trkpt>
      <trkpt lat="45.94384" lon="4.83301">
        <ele>264</ele>
        <time>2018-03-13T10:03:37Z</time>
      </trkpt>
      <trkpt lat="45.94386" lon="4.83308">
        <ele>264</ele>
        <time>2018-03-13T10:03:38Z</time>
      </trkpt>
      <trkpt lat="45.94389" lon="4.83316">
        <ele>264</ele>
        <time>2018-03-13T10:03:39Z</time>
      </trkpt>
      <trkpt lat="45.94392" lon="4.83324">
        <ele>264</ele>
        <time>2018-03-13T10:03:40Z</time>
      </trkpt>
      <trkpt lat="45.94394" lon="4.83331">
        <ele>264</ele>
        <time>2018-03-13T10:03:41Z</time>
      </trkpt>
      <trkpt lat="45.94398" lon="4.83339">
        <ele>263</ele>
        <time>2018-03-13T10:03:42Z</time>
      </trkpt>
      <trkpt lat="45.94401" lon="4.83345">
        <ele>263</ele>
        <time>2018-03-13T10:03:43Z</time>
      </trkpt>
      <trkpt lat="45.94405" lon="4.83354">
        <ele>263</ele>
        <time>2018-03-13T10:03:44Z</time>
      </trkpt>
      <trkpt lat="45.94408" lon="4.83361">
        <ele>264</ele>
        <time>2018-03-13T10:03:45Z</time>
      </trkpt>
      <trkpt lat="45.94411" lon="4.83368">
        <ele>264</ele>
        <time>2018-03-13T10:03:46Z</time>
      </trkpt>
      <trkpt lat="45.94414" lon="4.83375">
        <ele>264</ele>
        <time>2018-03-13T10:03:47Z</time>
      </trkpt>
      <trkpt lat="45.94417" lon="4.83383">
        <ele>264</ele>
        <time>2018-03-13T10:03:48Z</time>
      </trkpt>
      <trkpt lat="45.9442" lon="4.83393">
        <ele>264</ele>
        <time>2018-03-13T10:03:49Z</time>
      </trkpt>
      <trkpt lat="45.94424" lon="4.834">
        <ele>264</ele>
        <time>2018-03-13T10:03:50Z</time>
      </trkpt>
      <trkpt lat="45.94427" lon="4.83408">
        <ele>264</ele>
        <time>2018-03-13T10:03:51Z</time>
      </trkpt>
      <trkpt lat="45.94431" lon="4.83414">
        <ele>264</ele>
        <time>2018-03-13T10:03:52Z</time>
      </trkpt>
      <trkpt lat="45.94435" lon="4.83421">
        <ele>264</ele>
        <time>2018-03-13T10:03:53Z</time>
      </trkpt>
      <trkpt lat="45.94438" lon="4.83427">
        <ele>264</ele>
        <time>2018-03-13T10:03:54Z</time>
      </trkpt>
      <trkpt lat="45.94441" lon="4.83434">
        <ele>263</ele>
        <time>2018-03-13T10:03:55Z</time>
      </trkpt>
      <trkpt lat="45.94445" lon="4.8344">
        <ele>263</ele>
        <time>2018-03-13T10:03:56Z</time>
      </trkpt>
      <trkpt lat="45.94448" lon="4.83448">
        <ele>263</ele>
        <time>2018-03-13T10:03:57Z</time>
      </trkpt>
      <trkpt lat="45.94452" lon="4.83455">
        <ele>263</ele>
        <time>2018-03-13T10:03:58Z</time>
      </trkpt>
      <trkpt lat="45.94456" lon="4.8346">
        <ele>263</ele>
        <time>2018-03-13T10:03:59Z</time>
      </trkpt>
      <trkpt lat="45.94459" lon="4.83467">
        <ele>263</ele>
        <time>2018-03-13T10:04:00Z</time>
      </trkpt>
      <trkpt lat="45.94463" lon="4.83473">
        <ele>263</ele>
        <time>2018-03-13T10:04:01Z</time>
      </trkpt>
      <trkpt lat="45.94467" lon="4.83481">
        <ele>263</ele>
        <time>2018-03-13T10:04:02Z</time>
      </trkpt>
      <trkpt lat="45.94471" lon="4.83488">
        <ele>263</ele>
        <time>2018-03-13T10:04:03Z</time>
      </trkpt>
      <trkpt lat="45.94475" lon="4.83495">
        <ele>263</ele>
        <time>2018-03-13T10:04:04Z</time>
      </trkpt>
      <trkpt lat="45.9448" lon="4.83501">
        <ele>262</ele>
        <time>2018-03-13T10:04:05Z</time>
      </trkpt>
      <trkpt lat="45.94484" lon="4.83508">
        <ele>262</ele>
        <time>2018-03-13T10:04:06Z</time>
      </trkpt>
      <trkpt lat="45.94487" lon="4.83516">
        <ele>262</ele>
        <time>2018-03-13T10:04:07Z</time>
      </trkpt>
      <trkpt lat="45.94491" lon="4.83523">
        <ele>262</ele>
        <time>2018-03-13T10:04:08Z</time>
      </trkpt>
      <trkpt lat="45.94494" lon="4.8353">
        <ele>262</ele>
        <time>2018-03-13T10:04:09Z</time>
      </trkpt>
      <trkpt lat="45.94498" lon="4.83536">
        <ele>262</ele>
        <time>2018-03-13T10:04:10Z</time>
      </trkpt>
      <trkpt lat="45.94502" lon="4.83542">
        <ele>262</ele>
        <time>2018-03-13T10:04:11Z</time>
      </trkpt>
      <trkpt lat="45.94506" lon="4.83548">
        <ele>261</ele>
        <time>2018-03-13T10:04:12Z</time>
      </trkpt>
      <trkpt lat="45.94509" lon="4.83555">
        <ele>261</ele>
        <time>2018-03-13T10:04:13Z</time>
      </trkpt>
      <trkpt lat="45.94513" lon="4.83563">
        <ele>261</ele>
        <time>2018-03-13T10:04:14Z</time>
      </trkpt>
      <trkpt lat="45.94516" lon="4.83571">
        <ele>261</ele>
        <time>2018-03-13T10:04:15Z</time>
      </trkpt>
      <trkpt lat="45.94519" lon="4.83579">
        <ele>261</ele>
        <time>2018-03-13T10:04:16Z</time>
      </trkpt>
      <trkpt lat="45.94521" lon="4.83587">
        <ele>261</ele>
        <time>2018-03-13T10:04:17Z</time>
      </trkpt>
      <trkpt lat="45.94524" lon="4.83596">
        <ele>261</ele>
        <time>2018-03-13T10:04:18Z</time>
      </trkpt>
      <trkpt lat="45.94526" lon="4.83604">
        <ele>261</ele>
        <time>2018-03-13T10:04:19Z</time>
      </trkpt>
      <trkpt lat="45.94528" lon="4.83614">
        <ele>261</ele>
        <time>2018-03-13T10:04:20Z</time>
      </trkpt>
      <trkpt lat="45.94531" lon="4.83624">
        <ele>261</ele>
        <time>2018-03-13T10:04:21Z</time>
      </trkpt>
      <trkpt lat="45.94533" lon="4.83633">
        <ele>261</ele>
        <time>2018-03-13T10:04:22Z</time>
      </trkpt>
      <trkpt lat="45.94534" lon="4.83643">
        <ele>261</ele>
        <time>2018-03-13T10:04:23Z</time>
      </trkpt>
      <trkpt lat="45.94535" lon="4.83652">
        <ele>261</ele>
        <time>2018-03-13T10:04:24Z</time>
      </trkpt>
      <trkpt lat="45.94537" lon="4.83661">
        <ele>261</ele>
        <time>2018-03-13T10:04:25Z</time>
      </trkpt>
      <trkpt lat="45.94539" lon="4.8367">
        <ele>262</ele>
        <time>2018-03-13T10:04:26Z</time>
      </trkpt>
      <trkpt lat="45.9454" lon="4.83679">
        <ele>262</ele>
        <time>2018-03-13T10:04:27Z</time>
      </trkpt>
      <trkpt lat="45.94542" lon="4.83688">
        <ele>262</ele>
        <time>2018-03-13T10:04:28Z</time>
      </trkpt>
      <trkpt lat="45.94543" lon="4.83697">
        <ele>262</ele>
        <time>2018-03-13T10:04:29Z</time>
      </trkpt>
      <trkpt lat="45.94544" lon="4.83705">
        <ele>262</ele>
        <time>2018-03-13T10:04:30Z</time>
      </trkpt>
      <trkpt lat="45.94545" lon="4.83713">
        <ele>262</ele>
        <time>2018-03-13T10:04:31Z</time>
      </trkpt>
      <trkpt lat="45.94546" lon="4.83722">
        <ele>262</ele>
        <time>2018-03-13T10:04:32Z</time>
      </trkpt>
      <trkpt lat="45.94548" lon="4.83728">
        <ele>262</ele>
        <time>2018-03-13T10:04:33Z</time>
      </trkpt>
      <trkpt lat="45.94549" lon="4.83736">
        <ele>262</ele>
        <time>2018-03-13T10:04:34Z</time>
      </trkpt>
      <trkpt lat="45.94551" lon="4.83744">
        <ele>262</ele>
        <time>2018-03-13T10:04:35Z</time>
      </trkpt>
      <trkpt lat="45.94551" lon="4.83751">
        <ele>263</ele>
        <time>2018-03-13T10:04:36Z</time>
      </trkpt>
      <trkpt lat="45.94553" lon="4.83758">
        <ele>263</ele>
        <time>2018-03-13T10:04:37Z</time>
      </trkpt>
      <trkpt lat="45.94554" lon="4.83765">
        <ele>263</ele>
        <time>2018-03-13T10:04:38Z</time>
      </trkpt>
      <trkpt lat="45.94555" lon="4.83774">
        <ele>264</ele>
        <time>2018-03-13T10:04:39Z</time>
      </trkpt>
      <trkpt lat="45.94556" lon="4.83783">
        <ele>264</ele>
        <time>2018-03-13T10:04:40Z</time>
      </trkpt>
      <trkpt lat="45.94559" lon="4.83793">
        <ele>264</ele>
        <time>2018-03-13T10:04:41Z</time>
      </trkpt>
      <trkpt lat="45.94561" lon="4.83802">
        <ele>264</ele>
        <time>2018-03-13T10:04:42Z</time>
      </trkpt>
      <trkpt lat="45.94563" lon="4.83811">
        <ele>264</ele>
        <time>2018-03-13T10:04:43Z</time>
      </trkpt>
      <trkpt lat="45.94564" lon="4.83818">
        <ele>264</ele>
        <time>2018-03-13T10:04:44Z</time>
      </trkpt>
      <trkpt lat="45.94565" lon="4.83825">
        <ele>264</ele>
        <time>2018-03-13T10:04:45Z</time>
      </trkpt>
      <trkpt lat="45.94566" lon="4.83832">
        <ele>265</ele>
        <time>2018-03-13T10:04:46Z</time>
      </trkpt>
      <trkpt lat="45.94567" lon="4.83841">
        <ele>266</ele>
        <time>2018-03-13T10:04:47Z</time>
      </trkpt>
      <trkpt lat="45.94568" lon="4.83849">
        <ele>266</ele>
        <time>2018-03-13T10:04:48Z</time>
      </trkpt>
      <trkpt lat="45.94569" lon="4.83857">
        <ele>267</ele>
        <time>2018-03-13T10:04:49Z</time>
      </trkpt>
      <trkpt lat="45.94571" lon="4.83864">
        <ele>267</ele>
        <time>2018-03-13T10:04:50Z</time>
      </trkpt>
      <trkpt lat="45.94571" lon="4.83872">
        <ele>267</ele>
        <time>2018-03-13T10:04:51Z</time>
      </trkpt>
      <trkpt lat="45.94573" lon="4.8388">
        <ele>267</ele>
        <time>2018-03-13T10:04:52Z</time>
      </trkpt>
      <trkpt lat="45.94574" lon="4.83887">
        <ele>267</ele>
        <time>2018-03-13T10:04:53Z</time>
      </trkpt>
      <trkpt lat="45.94575" lon="4.83894">
        <ele>267</ele>
        <time>2018-03-13T10:04:54Z</time>
      </trkpt>
      <trkpt lat="45.94577" lon="4.83902">
        <ele>268</ele>
        <time>2018-03-13T10:04:55Z</time>
      </trkpt>
      <trkpt lat="45.94578" lon="4.83909">
        <ele>268</ele>
        <time>2018-03-13T10:04:56Z</time>
      </trkpt>
      <trkpt lat="45.9458" lon="4.83916">
        <ele>268</ele>
        <time>2018-03-13T10:04:57Z</time>
      </trkpt>
      <trkpt lat="45.94581" lon="4.83924">
        <ele>268</ele>
        <time>2018-03-13T10:04:58Z</time>
      </trkpt>
      <trkpt lat="45.94582" lon="4.83931">
        <ele>268</ele>
        <time>2018-03-13T10:04:59Z</time>
      </trkpt>
      <trkpt lat="45.94582" lon="4.83937">
        <ele>269</ele>
        <time>2018-03-13T10:05:00Z</time>
      </trkpt>
      <trkpt lat="45.94582" lon="4.83944">
        <ele>269</ele>
        <time>2018-03-13T10:05:01Z</time>
      </trkpt>
      <trkpt lat="45.94583" lon="4.83951">
        <ele>268</ele>
        <time>2018-03-13T10:05:02Z</time>
      </trkpt>
      <trkpt lat="45.94584" lon="4.83959">
        <ele>268</ele>
        <time>2018-03-13T10:05:03Z</time>
      </trkpt>
      <trkpt lat="45.94585" lon="4.83964">
        <ele>268</ele>
        <time>2018-03-13T10:05:04Z</time>
      </trkpt>
      <trkpt lat="45.94587" lon="4.83971">
        <ele>268</ele>
        <time>2018-03-13T10:05:05Z</time>
      </trkpt>
      <trkpt lat="45.94588" lon="4.83978">
        <ele>268</ele>
        <time>2018-03-13T10:05:06Z</time>
      </trkpt>
      <trkpt lat="45.94588" lon="4.83985">
        <ele>269</ele>
        <time>2018-03-13T10:05:07Z</time>
      </trkpt>
      <trkpt lat="45.94589" lon="4.83993">
        <ele>269</ele>
        <time>2018-03-13T10:05:08Z</time>
      </trkpt>
      <trkpt lat="45.94589" lon="4.84">
        <ele>269</ele>
        <time>2018-03-13T10:05:09Z</time>
      </trkpt>
      <trkpt lat="45.94591" lon="4.84007">
        <ele>269</ele>
        <time>2018-03-13T10:05:10Z</time>
      </trkpt>
      <trkpt lat="45.94591" lon="4.84014">
        <ele>269</ele>
        <time>2018-03-13T10:05:11Z</time>
      </trkpt>
      <trkpt lat="45.94593" lon="4.84026">
        <ele>269</ele>
        <time>2018-03-13T10:05:13Z</time>
      </trkpt>
      <trkpt lat="45.94594" lon="4.84034">
        <ele>269</ele>
        <time>2018-03-13T10:05:14Z</time>
      </trkpt>
      <trkpt lat="45.94596" lon="4.84041">
        <ele>269</ele>
        <time>2018-03-13T10:05:15Z</time>
      </trkpt>
      <trkpt lat="45.94596" lon="4.84048">
        <ele>269</ele>
        <time>2018-03-13T10:05:16Z</time>
      </trkpt>
      <trkpt lat="45.94598" lon="4.84054">
        <ele>269</ele>
        <time>2018-03-13T10:05:17Z</time>
      </trkpt>
      <trkpt lat="45.94599" lon="4.84061">
        <ele>269</ele>
        <time>2018-03-13T10:05:18Z</time>
      </trkpt>
      <trkpt lat="45.94602" lon="4.84073">
        <ele>269</ele>
        <time>2018-03-13T10:05:20Z</time>
      </trkpt>
      <trkpt lat="45.94603" lon="4.84079">
        <ele>269</ele>
        <time>2018-03-13T10:05:21Z</time>
      </trkpt>
      <trkpt lat="45.94604" lon="4.84084">
        <ele>269</ele>
        <time>2018-03-13T10:05:22Z</time>
      </trkpt>
      <trkpt lat="45.94605" lon="4.84091">
        <ele>269</ele>
        <time>2018-03-13T10:05:23Z</time>
      </trkpt>
      <trkpt lat="45.94606" lon="4.84098">
        <ele>269</ele>
        <time>2018-03-13T10:05:24Z</time>
      </trkpt>
      <trkpt lat="45.94606" lon="4.84105">
        <ele>269</ele>
        <time>2018-03-13T10:05:25Z</time>
      </trkpt>
      <trkpt lat="45.94608" lon="4.84111">
        <ele>269</ele>
        <time>2018-03-13T10:05:26Z</time>
      </trkpt>
      <trkpt lat="45.94608" lon="4.84119">
        <ele>269</ele>
        <time>2018-03-13T10:05:27Z</time>
      </trkpt>
      <trkpt lat="45.94609" lon="4.84126">
        <ele>269</ele>
        <time>2018-03-13T10:05:28Z</time>
      </trkpt>
      <trkpt lat="45.9461" lon="4.84135">
        <ele>269</ele>
        <time>2018-03-13T10:05:29Z</time>
      </trkpt>
      <trkpt lat="45.94611" lon="4.84142">
        <ele>269</ele>
        <time>2018-03-13T10:05:30Z</time>
      </trkpt>
      <trkpt lat="45.94613" lon="4.8415">
        <ele>269</ele>
        <time>2018-03-13T10:05:31Z</time>
      </trkpt>
      <trkpt lat="45.94615" lon="4.84157">
        <ele>269</ele>
        <time>2018-03-13T10:05:32Z</time>
      </trkpt>
      <trkpt lat="45.94616" lon="4.84164">
        <ele>269</ele>
        <time>2018-03-13T10:05:33Z</time>
      </trkpt>
      <trkpt lat="45.94617" lon="4.8417">
        <ele>269</ele>
        <time>2018-03-13T10:05:34Z</time>
      </trkpt>
      <trkpt lat="45.94618" lon="4.84177">
        <ele>269</ele>
        <time>2018-03-13T10:05:35Z</time>
      </trkpt>
      <trkpt lat="45.94619" lon="4.84184">
        <ele>269</ele>
        <time>2018-03-13T10:05:36Z</time>
      </trkpt>
      <trkpt lat="45.9462" lon="4.84191">
        <ele>269</ele>
        <time>2018-03-13T10:05:37Z</time>
      </trkpt>
      <trkpt lat="45.94623" lon="4.84202">
        <ele>269</ele>
        <time>2018-03-13T10:05:39Z</time>
      </trkpt>
      <trkpt lat="45.94624" lon="4.84207">
        <ele>269</ele>
        <time>2018-03-13T10:05:40Z</time>
      </trkpt>
      <trkpt lat="45.94625" lon="4.84215">
        <ele>269</ele>
        <time>2018-03-13T10:05:41Z</time>
      </trkpt>
      <trkpt lat="45.94626" lon="4.84222">
        <ele>269</ele>
        <time>2018-03-13T10:05:42Z</time>
      </trkpt>
      <trkpt lat="45.94627" lon="4.84231">
        <ele>269</ele>
        <time>2018-03-13T10:05:43Z</time>
      </trkpt>
      <trkpt lat="45.94628" lon="4.84238">
        <ele>269</ele>
        <time>2018-03-13T10:05:44Z</time>
      </trkpt>
      <trkpt lat="45.9463" lon="4.84247">
        <ele>269</ele>
        <time>2018-03-13T10:05:45Z</time>
      </trkpt>
      <trkpt lat="45.9463" lon="4.84257">
        <ele>269</ele>
        <time>2018-03-13T10:05:46Z</time>
      </trkpt>
      <trkpt lat="45.94629" lon="4.84269">
        <ele>269</ele>
        <time>2018-03-13T10:05:48Z</time>
      </trkpt>
      <trkpt lat="45.94631" lon="4.84278">
        <ele>269</ele>
        <time>2018-03-13T10:05:49Z</time>
      </trkpt>
      <trkpt lat="45.94632" lon="4.84287">
        <ele>269</ele>
        <time>2018-03-13T10:05:50Z</time>
      </trkpt>
      <trkpt lat="45.94634" lon="4.84294">
        <ele>269</ele>
        <time>2018-03-13T10:05:51Z</time>
      </trkpt>
      <trkpt lat="45.94635" lon="4.84301">
        <ele>269</ele>
        <time>2018-03-13T10:05:52Z</time>
      </trkpt>
      <trkpt lat="45.94636" lon="4.84309">
        <ele>269</ele>
        <time>2018-03-13T10:05:53Z</time>
      </trkpt>
      <trkpt lat="45.94638" lon="4.8432">
        <ele>269</ele>
        <time>2018-03-13T10:05:55Z</time>
      </trkpt>
      <trkpt lat="45.94639" lon="4.84326">
        <ele>269</ele>
        <time>2018-03-13T10:05:56Z</time>
      </trkpt>
      <trkpt lat="45.9464" lon="4.84332">
        <ele>268</ele>
        <time>2018-03-13T10:05:57Z</time>
      </trkpt>
      <trkpt lat="45.94641" lon="4.8434">
        <ele>268</ele>
        <time>2018-03-13T10:05:58Z</time>
      </trkpt>
      <trkpt lat="45.94641" lon="4.84347">
        <ele>268</ele>
        <time>2018-03-13T10:05:59Z</time>
      </trkpt>
      <trkpt lat="45.94641" lon="4.84354">
        <ele>268</ele>
        <time>2018-03-13T10:06:00Z</time>
      </trkpt>
      <trkpt lat="45.94642" lon="4.84361">
        <ele>268</ele>
        <time>2018-03-13T10:06:01Z</time>
      </trkpt>
      <trkpt lat="45.94643" lon="4.84367">
        <ele>268</ele>
        <time>2018-03-13T10:06:02Z</time>
      </trkpt>
      <trkpt lat="45.94645" lon="4.84374">
        <ele>268</ele>
        <time>2018-03-13T10:06:03Z</time>
      </trkpt>
      <trkpt lat="45.94646" lon="4.84381">
        <ele>268</ele>
        <time>2018-03-13T10:06:04Z</time>
      </trkpt>
      <trkpt lat="45.94647" lon="4.84389">
        <ele>268</ele>
        <time>2018-03-13T10:06:05Z</time>
      </trkpt>
      <trkpt lat="45.94647" lon="4.84396">
        <ele>268</ele>
        <time>2018-03-13T10:06:06Z</time>
      </trkpt>
      <trkpt lat="45.94648" lon="4.84402">
        <ele>268</ele>
        <time>2018-03-13T10:06:07Z</time>
      </trkpt>
      <trkpt lat="45.94649" lon="4.84409">
        <ele>268</ele>
        <time>2018-03-13T10:06:08Z</time>
      </trkpt>
      <trkpt lat="45.94649" lon="4.84417">
        <ele>268</ele>
        <time>2018-03-13T10:06:09Z</time>
      </trkpt>
      <trkpt lat="45.9465" lon="4.84424">
        <ele>268</ele>
        <time>2018-03-13T10:06:10Z</time>
      </trkpt>
      <trkpt lat="45.94652" lon="4.84434">
        <ele>268</ele>
        <time>2018-03-13T10:06:11Z</time>
      </trkpt>
      <trkpt lat="45.94653" lon="4.8444">
        <ele>268</ele>
        <time>2018-03-13T10:06:12Z</time>
      </trkpt>
      <trkpt lat="45.94656" lon="4.8445">
        <ele>268</ele>
        <time>2018-03-13T10:06:13Z</time>
      </trkpt>
      <trkpt lat="45.94657" lon="4.84456">
        <ele>268</ele>
        <time>2018-03-13T10:06:14Z</time>
      </trkpt>
      <trkpt lat="45.94657" lon="4.84462">
        <ele>268</ele>
        <time>2018-03-13T10:06:15Z</time>
      </trkpt>
      <trkpt lat="45.94658" lon="4.8447">
        <ele>268</ele>
        <time>2018-03-13T10:06:16Z</time>
      </trkpt>
      <trkpt lat="45.94658" lon="4.84476">
        <ele>268</ele>
        <time>2018-03-13T10:06:17Z</time>
      </trkpt>
      <trkpt lat="45.94658" lon="4.84484">
        <ele>268</ele>
        <time>2018-03-13T10:06:18Z</time>
      </trkpt>
      <trkpt lat="45.94659" lon="4.84492">
        <ele>268</ele>
        <time>2018-03-13T10:06:19Z</time>
      </trkpt>
      <trkpt lat="45.9466" lon="4.84501">
        <ele>268</ele>
        <time>2018-03-13T10:06:20Z</time>
      </trkpt>
      <trkpt lat="45.94661" lon="4.84509">
        <ele>268</ele>
        <time>2018-03-13T10:06:21Z</time>
      </trkpt>
      <trkpt lat="45.94661" lon="4.84517">
        <ele>268</ele>
        <time>2018-03-13T10:06:22Z</time>
      </trkpt>
      <trkpt lat="45.94661" lon="4.84525">
        <ele>268</ele>
        <time>2018-03-13T10:06:23Z</time>
      </trkpt>
      <trkpt lat="45.94661" lon="4.84532">
        <ele>268</ele>
        <time>2018-03-13T10:06:24Z</time>
      </trkpt>
      <trkpt lat="45.94662" lon="4.84541">
        <ele>268</ele>
        <time>2018-03-13T10:06:25Z</time>
      </trkpt>
      <trkpt lat="45.94663" lon="4.84547">
        <ele>268</ele>
        <time>2018-03-13T10:06:26Z</time>
      </trkpt>
      <trkpt lat="45.94664" lon="4.84556">
        <ele>268</ele>
        <time>2018-03-13T10:06:27Z</time>
      </trkpt>
      <trkpt lat="45.94665" lon="4.84563">
        <ele>268</ele>
        <time>2018-03-13T10:06:28Z</time>
      </trkpt>
      <trkpt lat="45.94665" lon="4.8457">
        <ele>268</ele>
        <time>2018-03-13T10:06:29Z</time>
      </trkpt>
      <trkpt lat="45.94665" lon="4.84577">
        <ele>268</ele>
        <time>2018-03-13T10:06:30Z</time>
      </trkpt>
      <trkpt lat="45.94666" lon="4.84586">
        <ele>268</ele>
        <time>2018-03-13T10:06:31Z</time>
      </trkpt>
      <trkpt lat="45.94666" lon="4.84595">
        <ele>268</ele>
        <time>2018-03-13T10:06:32Z</time>
      </trkpt>
      <trkpt lat="45.94666" lon="4.84603">
        <ele>268</ele>
        <time>2018-03-13T10:06:33Z</time>
      </trkpt>
      <trkpt lat="45.94667" lon="4.84611">
        <ele>268</ele>
        <time>2018-03-13T10:06:34Z</time>
      </trkpt>
      <trkpt lat="45.94667" lon="4.8462">
        <ele>268</ele>
        <time>2018-03-13T10:06:35Z</time>
      </trkpt>
      <trkpt lat="45.94668" lon="4.8463">
        <ele>268</ele>
        <time>2018-03-13T10:06:36Z</time>
      </trkpt>
      <trkpt lat="45.94669" lon="4.84639">
        <ele>268</ele>
        <time>2018-03-13T10:06:37Z</time>
      </trkpt>
      <trkpt lat="45.94669" lon="4.84649">
        <ele>268</ele>
        <time>2018-03-13T10:06:38Z</time>
      </trkpt>
      <trkpt lat="45.94669" lon="4.84658">
        <ele>269</ele>
        <time>2018-03-13T10:06:39Z</time>
      </trkpt>
      <trkpt lat="45.94669" lon="4.84667">
        <ele>269</ele>
        <time>2018-03-13T10:06:40Z</time>
      </trkpt>
      <trkpt lat="45.9467" lon="4.84677">
        <ele>269</ele>
        <time>2018-03-13T10:06:41Z</time>
      </trkpt>
      <trkpt lat="45.9467" lon="4.84685">
        <ele>269</ele>
        <time>2018-03-13T10:06:42Z</time>
      </trkpt>
      <trkpt lat="45.94671" lon="4.84694">
        <ele>269</ele>
        <time>2018-03-13T10:06:43Z</time>
      </trkpt>
      <trkpt lat="45.94671" lon="4.84701">
        <ele>269</ele>
        <time>2018-03-13T10:06:44Z</time>
      </trkpt>
      <trkpt lat="45.94671" lon="4.84709">
        <ele>269</ele>
        <time>2018-03-13T10:06:45Z</time>
      </trkpt>
      <trkpt lat="45.94671" lon="4.84716">
        <ele>269</ele>
        <time>2018-03-13T10:06:46Z</time>
      </trkpt>
      <trkpt lat="45.94671" lon="4.84728">
        <ele>269</ele>
        <time>2018-03-13T10:06:48Z</time>
      </trkpt>
      <trkpt lat="45.94671" lon="4.84735">
        <ele>269</ele>
        <time>2018-03-13T10:06:49Z</time>
      </trkpt>
      <trkpt lat="45.94672" lon="4.84743">
        <ele>269</ele>
        <time>2018-03-13T10:06:50Z</time>
      </trkpt>
      <trkpt lat="45.94673" lon="4.84751">
        <ele>269</ele>
        <time>2018-03-13T10:06:51Z</time>
      </trkpt>
      <trkpt lat="45.94673" lon="4.84758">
        <ele>269</ele>
        <time>2018-03-13T10:06:52Z</time>
      </trkpt>
      <trkpt lat="45.94673" lon="4.84766">
        <ele>269</ele>
        <time>2018-03-13T10:06:53Z</time>
      </trkpt>
      <trkpt lat="45.94674" lon="4.84774">
        <ele>269</ele>
        <time>2018-03-13T10:06:54Z</time>
      </trkpt>
      <trkpt lat="45.94674" lon="4.84781">
        <ele>269</ele>
        <time>2018-03-13T10:06:55Z</time>
      </trkpt>
      <trkpt lat="45.94675" lon="4.8479">
        <ele>269</ele>
        <time>2018-03-13T10:06:56Z</time>
      </trkpt>
      <trkpt lat="45.94676" lon="4.84798">
        <ele>268</ele>
        <time>2018-03-13T10:06:57Z</time>
      </trkpt>
      <trkpt lat="45.94676" lon="4.84805">
        <ele>268</ele>
        <time>2018-03-13T10:06:58Z</time>
      </trkpt>
      <trkpt lat="45.94677" lon="4.84812">
        <ele>268</ele>
        <time>2018-03-13T10:06:59Z</time>
      </trkpt>
      <trkpt lat="45.94678" lon="4.84821">
        <ele>268</ele>
        <time>2018-03-13T10:07:00Z</time>
      </trkpt>
      <trkpt lat="45.94678" lon="4.8483">
        <ele>268</ele>
        <time>2018-03-13T10:07:01Z</time>
      </trkpt>
      <trkpt lat="45.94679" lon="4.84838">
        <ele>268</ele>
        <time>2018-03-13T10:07:02Z</time>
      </trkpt>
      <trkpt lat="45.9468" lon="4.84846">
        <ele>268</ele>
        <time>2018-03-13T10:07:03Z</time>
      </trkpt>
      <trkpt lat="45.94681" lon="4.84854">
        <ele>268</ele>
        <time>2018-03-13T10:07:04Z</time>
      </trkpt>
      <trkpt lat="45.94682" lon="4.84862">
        <ele>268</ele>
        <time>2018-03-13T10:07:05Z</time>
      </trkpt>
      <trkpt lat="45.94682" lon="4.84869">
        <ele>268</ele>
        <time>2018-03-13T10:07:06Z</time>
      </trkpt>
      <trkpt lat="45.94683" lon="4.84877">
        <ele>268</ele>
        <time>2018-03-13T10:07:07Z</time>
      </trkpt>
      <trkpt lat="45.94684" lon="4.84885">
        <ele>268</ele>
        <time>2018-03-13T10:07:08Z</time>
      </trkpt>
      <trkpt lat="45.94684" lon="4.84892">
        <ele>268</ele>
        <time>2018-03-13T10:07:09Z</time>
      </trkpt>
      <trkpt lat="45.94684" lon="4.84897">
        <ele>268</ele>
        <time>2018-03-13T10:07:10Z</time>
      </trkpt>
      <trkpt lat="45.94684" lon="4.84906">
        <ele>269</ele>
        <time>2018-03-13T10:07:11Z</time>
      </trkpt>
      <trkpt lat="45.94685" lon="4.84914">
        <ele>269</ele>
        <time>2018-03-13T10:07:12Z</time>
      </trkpt>
      <trkpt lat="45.94687" lon="4.84921">
        <ele>269</ele>
        <time>2018-03-13T10:07:13Z</time>
      </trkpt>
      <trkpt lat="45.94688" lon="4.84928">
        <ele>269</ele>
        <time>2018-03-13T10:07:14Z</time>
      </trkpt>
      <trkpt lat="45.94688" lon="4.84935">
        <ele>269</ele>
        <time>2018-03-13T10:07:15Z</time>
      </trkpt>
      <trkpt lat="45.94689" lon="4.84943">
        <ele>269</ele>
        <time>2018-03-13T10:07:16Z</time>
      </trkpt>
      <trkpt lat="45.9469" lon="4.8495">
        <ele>269</ele>
        <time>2018-03-13T10:07:17Z</time>
      </trkpt>
      <trkpt lat="45.94691" lon="4.84959">
        <ele>269</ele>
        <time>2018-03-13T10:07:18Z</time>
      </trkpt>
      <trkpt lat="45.94691" lon="4.84966">
        <ele>269</ele>
        <time>2018-03-13T10:07:19Z</time>
      </trkpt>
      <trkpt lat="45.94692" lon="4.84974">
        <ele>269</ele>
        <time>2018-03-13T10:07:20Z</time>
      </trkpt>
      <trkpt lat="45.94694" lon="4.84982">
        <ele>269</ele>
        <time>2018-03-13T10:07:21Z</time>
      </trkpt>
      <trkpt lat="45.94696" lon="4.84989">
        <ele>269</ele>
        <time>2018-03-13T10:07:22Z</time>
      </trkpt>
      <trkpt lat="45.94696" lon="4.85">
        <ele>269</ele>
        <time>2018-03-13T10:07:23Z</time>
      </trkpt>
      <trkpt lat="45.94697" lon="4.85008">
        <ele>269</ele>
        <time>2018-03-13T10:07:24Z</time>
      </trkpt>
      <trkpt lat="45.94698" lon="4.85016">
        <ele>269</ele>
        <time>2018-03-13T10:07:25Z</time>
      </trkpt>
      <trkpt lat="45.94698" lon="4.85023">
        <ele>269</ele>
        <time>2018-03-13T10:07:26Z</time>
      </trkpt>
      <trkpt lat="45.947" lon="4.85031">
        <ele>269</ele>
        <time>2018-03-13T10:07:27Z</time>
      </trkpt>
      <trkpt lat="45.94701" lon="4.85039">
        <ele>269</ele>
        <time>2018-03-13T10:07:28Z</time>
      </trkpt>
      <trkpt lat="45.94703" lon="4.85047">
        <ele>269</ele>
        <time>2018-03-13T10:07:29Z</time>
      </trkpt>
      <trkpt lat="45.94704" lon="4.85055">
        <ele>269</ele>
        <time>2018-03-13T10:07:30Z</time>
      </trkpt>
      <trkpt lat="45.94705" lon="4.85065">
        <ele>269</ele>
        <time>2018-03-13T10:07:31Z</time>
      </trkpt>
      <trkpt lat="45.94706" lon="4.85074">
        <ele>269</ele>
        <time>2018-03-13T10:07:32Z</time>
      </trkpt>
      <trkpt lat="45.94706" lon="4.85088">
        <ele>269</ele>
        <time>2018-03-13T10:07:33Z</time>
      </trkpt>
      <trkpt lat="45.94707" lon="4.85096">
        <ele>269</ele>
        <time>2018-03-13T10:07:34Z</time>
      </trkpt>
      <trkpt lat="45.94707" lon="4.85105">
        <ele>269</ele>
        <time>2018-03-13T10:07:35Z</time>
      </trkpt>
      <trkpt lat="45.94708" lon="4.85112">
        <ele>269</ele>
        <time>2018-03-13T10:07:36Z</time>
      </trkpt>
      <trkpt lat="45.94708" lon="4.85121">
        <ele>269</ele>
        <time>2018-03-13T10:07:37Z</time>
      </trkpt>
      <trkpt lat="45.9471" lon="4.8513">
        <ele>269</ele>
        <time>2018-03-13T10:07:38Z</time>
      </trkpt>
      <trkpt lat="45.94711" lon="4.85137">
        <ele>269</ele>
        <time>2018-03-13T10:07:39Z</time>
      </trkpt>
      <trkpt lat="45.94712" lon="4.85145">
        <ele>269</ele>
        <time>2018-03-13T10:07:40Z</time>
      </trkpt>
      <trkpt lat="45.94713" lon="4.85151">
        <ele>269</ele>
        <time>2018-03-13T10:07:41Z</time>
      </trkpt>
      <trkpt lat="45.94713" lon="4.8516">
        <ele>269</ele>
        <time>2018-03-13T10:07:42Z</time>
      </trkpt>
      <trkpt lat="45.94714" lon="4.85167">
        <ele>269</ele>
        <time>2018-03-13T10:07:43Z</time>
      </trkpt>
      <trkpt lat="45.94715" lon="4.85175">
        <ele>269</ele>
        <time>2018-03-13T10:07:44Z</time>
      </trkpt>
      <trkpt lat="45.94716" lon="4.85181">
        <ele>269</ele>
        <time>2018-03-13T10:07:45Z</time>
      </trkpt>
      <trkpt lat="45.94716" lon="4.85189">
        <ele>269</ele>
        <time>2018-03-13T10:07:46Z</time>
      </trkpt>
      <trkpt lat="45.94718" lon="4.85195">
        <ele>269</ele>
        <time>2018-03-13T10:07:47Z</time>
      </trkpt>
      <trkpt lat="45.94718" lon="4.85201">
        <ele>269</ele>
        <time>2018-03-13T10:07:48Z</time>
      </trkpt>
      <trkpt lat="45.94718" lon="4.85209">
        <ele>269</ele>
        <time>2018-03-13T10:07:49Z</time>
      </trkpt>
      <trkpt lat="45.94719" lon="4.85216">
        <ele>269</ele>
        <time>2018-03-13T10:07:50Z</time>
      </trkpt>
      <trkpt lat="45.9472" lon="4.85225">
        <ele>269</ele>
        <time>2018-03-13T10:07:51Z</time>
      </trkpt>
      <trkpt lat="45.94721" lon="4.85232">
        <ele>269</ele>
        <time>2018-03-13T10:07:52Z</time>
      </trkpt>
      <trkpt lat="45.94722" lon="4.85239">
        <ele>269</ele>
        <time>2018-03-13T10:07:53Z</time>
      </trkpt>
      <trkpt lat="45.94724" lon="4.85246">
        <ele>269</ele>
        <time>2018-03-13T10:07:54Z</time>
      </trkpt>
      <trkpt lat="45.94725" lon="4.85254">
        <ele>269</ele>
        <time>2018-03-13T10:07:55Z</time>
      </trkpt>
      <trkpt lat="45.94726" lon="4.85262">
        <ele>269</ele>
        <time>2018-03-13T10:07:56Z</time>
      </trkpt>
      <trkpt lat="45.94725" lon="4.85268">
        <ele>269</ele>
        <time>2018-03-13T10:07:57Z</time>
      </trkpt>
      <trkpt lat="45.94726" lon="4.85276">
        <ele>269</ele>
        <time>2018-03-13T10:07:58Z</time>
      </trkpt>
      <trkpt lat="45.94727" lon="4.85282">
        <ele>269</ele>
        <time>2018-03-13T10:07:59Z</time>
      </trkpt>
      <trkpt lat="45.94727" lon="4.8529">
        <ele>269</ele>
        <time>2018-03-13T10:08:00Z</time>
      </trkpt>
      <trkpt lat="45.94728" lon="4.85298">
        <ele>270</ele>
        <time>2018-03-13T10:08:01Z</time>
      </trkpt>
      <trkpt lat="45.94728" lon="4.85306">
        <ele>270</ele>
        <time>2018-03-13T10:08:02Z</time>
      </trkpt>
      <trkpt lat="45.94729" lon="4.85313">
        <ele>270</ele>
        <time>2018-03-13T10:08:03Z</time>
      </trkpt>
      <trkpt lat="45.9473" lon="4.85321">
        <ele>270</ele>
        <time>2018-03-13T10:08:04Z</time>
      </trkpt>
      <trkpt lat="45.94731" lon="4.85329">
        <ele>270</ele>
        <time>2018-03-13T10:08:05Z</time>
      </trkpt>
      <trkpt lat="45.94731" lon="4.85337">
        <ele>271</ele>
        <time>2018-03-13T10:08:06Z</time>
      </trkpt>
      <trkpt lat="45.94732" lon="4.85345">
        <ele>271</ele>
        <time>2018-03-13T10:08:07Z</time>
      </trkpt>
      <trkpt lat="45.94733" lon="4.85353">
        <ele>271</ele>
        <time>2018-03-13T10:08:08Z</time>
      </trkpt>
      <trkpt lat="45.94733" lon="4.85361">
        <ele>271</ele>
        <time>2018-03-13T10:08:09Z</time>
      </trkpt>
      <trkpt lat="45.94734" lon="4.85369">
        <ele>271</ele>
        <time>2018-03-13T10:08:10Z</time>
      </trkpt>
      <trkpt lat="45.94735" lon="4.85376">
        <ele>271</ele>
        <time>2018-03-13T10:08:11Z</time>
      </trkpt>
      <trkpt lat="45.94735" lon="4.85384">
        <ele>272</ele>
        <time>2018-03-13T10:08:12Z</time>
      </trkpt>
      <trkpt lat="45.94736" lon="4.85391">
        <ele>272</ele>
        <time>2018-03-13T10:08:13Z</time>
      </trkpt>
      <trkpt lat="45.94737" lon="4.85397">
        <ele>272</ele>
        <time>2018-03-13T10:08:14Z</time>
      </trkpt>
      <trkpt lat="45.94739" lon="4.85404">
        <ele>272</ele>
        <time>2018-03-13T10:08:15Z</time>
      </trkpt>
      <trkpt lat="45.94739" lon="4.8541">
        <ele>272</ele>
        <time>2018-03-13T10:08:16Z</time>
      </trkpt>
      <trkpt lat="45.9474" lon="4.85417">
        <ele>273</ele>
        <time>2018-03-13T10:08:17Z</time>
      </trkpt>
      <trkpt lat="45.9474" lon="4.85424">
        <ele>273</ele>
        <time>2018-03-13T10:08:18Z</time>
      </trkpt>
      <trkpt lat="45.94741" lon="4.85432">
        <ele>273</ele>
        <time>2018-03-13T10:08:19Z</time>
      </trkpt>
      <trkpt lat="45.94741" lon="4.85444">
        <ele>274</ele>
        <time>2018-03-13T10:08:21Z</time>
      </trkpt>
      <trkpt lat="45.94742" lon="4.85451">
        <ele>274</ele>
        <time>2018-03-13T10:08:22Z</time>
      </trkpt>
      <trkpt lat="45.94744" lon="4.85462">
        <ele>274</ele>
        <time>2018-03-13T10:08:24Z</time>
      </trkpt>
      <trkpt lat="45.94745" lon="4.85468">
        <ele>274</ele>
        <time>2018-03-13T10:08:25Z</time>
      </trkpt>
      <trkpt lat="45.94746" lon="4.85476">
        <ele>275</ele>
        <time>2018-03-13T10:08:26Z</time>
      </trkpt>
      <trkpt lat="45.94746" lon="4.85483">
        <ele>275</ele>
        <time>2018-03-13T10:08:27Z</time>
      </trkpt>
      <trkpt lat="45.94746" lon="4.85488">
        <ele>275</ele>
        <time>2018-03-13T10:08:28Z</time>
      </trkpt>
      <trkpt lat="45.94747" lon="4.85495">
        <ele>276</ele>
        <time>2018-03-13T10:08:29Z</time>
      </trkpt>
      <trkpt lat="45.94748" lon="4.85506">
        <ele>276</ele>
        <time>2018-03-13T10:08:31Z</time>
      </trkpt>
      <trkpt lat="45.94748" lon="4.85511">
        <ele>276</ele>
        <time>2018-03-13T10:08:32Z</time>
      </trkpt>
      <trkpt lat="45.94751" lon="4.85523">
        <ele>277</ele>
        <time>2018-03-13T10:08:34Z</time>
      </trkpt>
      <trkpt lat="45.94752" lon="4.85529">
        <ele>278</ele>
        <time>2018-03-13T10:08:35Z</time>
      </trkpt>
      <trkpt lat="45.94754" lon="4.85538">
        <ele>278</ele>
        <time>2018-03-13T10:08:37Z</time>
      </trkpt>
      <trkpt lat="45.94755" lon="4.85541">
        <ele>278</ele>
        <time>2018-03-13T10:08:38Z</time>
      </trkpt>
      <trkpt lat="45.94756" lon="4.85551">
        <ele>278</ele>
        <time>2018-03-13T10:08:41Z</time>
      </trkpt>
      <trkpt lat="45.94757" lon="4.85555">
        <ele>278</ele>
        <time>2018-03-13T10:08:42Z</time>
      </trkpt>
      <trkpt lat="45.94759" lon="4.85567">
        <ele>279</ele>
        <time>2018-03-13T10:08:45Z</time>
      </trkpt>
      <trkpt lat="45.9476" lon="4.85571">
        <ele>279</ele>
        <time>2018-03-13T10:08:46Z</time>
      </trkpt>
      <trkpt lat="45.94762" lon="4.85579">
        <ele>279</ele>
        <time>2018-03-13T10:08:48Z</time>
      </trkpt>
      <trkpt lat="45.94763" lon="4.85584">
        <ele>280</ele>
        <time>2018-03-13T10:08:49Z</time>
      </trkpt>
      <trkpt lat="45.94765" lon="4.85592">
        <ele>280</ele>
        <time>2018-03-13T10:08:51Z</time>
      </trkpt>
      <trkpt lat="45.94766" lon="4.85596">
        <ele>280</ele>
        <time>2018-03-13T10:08:52Z</time>
      </trkpt>
      <trkpt lat="45.94768" lon="4.85605">
        <ele>280</ele>
        <time>2018-03-13T10:08:54Z</time>
      </trkpt>
      <trkpt lat="45.94769" lon="4.85609">
        <ele>280</ele>
        <time>2018-03-13T10:08:55Z</time>
      </trkpt>
      <trkpt lat="45.94771" lon="4.85619">
        <ele>280</ele>
        <time>2018-03-13T10:08:57Z</time>
      </trkpt>
      <trkpt lat="45.94771" lon="4.85623">
        <ele>280</ele>
        <time>2018-03-13T10:08:58Z</time>
      </trkpt>
      <trkpt lat="45.94774" lon="4.85632">
        <ele>280</ele>
        <time>2018-03-13T10:09:00Z</time>
      </trkpt>
      <trkpt lat="45.94775" lon="4.85637">
        <ele>281</ele>
        <time>2018-03-13T10:09:01Z</time>
      </trkpt>
      <trkpt lat="45.94777" lon="4.85646">
        <ele>281</ele>
        <time>2018-03-13T10:09:03Z</time>
      </trkpt>
      <trkpt lat="45.94778" lon="4.8565">
        <ele>281</ele>
        <time>2018-03-13T10:09:04Z</time>
      </trkpt>
      <trkpt lat="45.94781" lon="4.85658">
        <ele>281</ele>
        <time>2018-03-13T10:09:06Z</time>
      </trkpt>
      <trkpt lat="45.94782" lon="4.85663">
        <ele>281</ele>
        <time>2018-03-13T10:09:07Z</time>
      </trkpt>
      <trkpt lat="45.94785" lon="4.85672">
        <ele>280</ele>
        <time>2018-03-13T10:09:09Z</time>
      </trkpt>
      <trkpt lat="45.94789" lon="4.85686">
        <ele>280</ele>
        <time>2018-03-13T10:09:10Z</time>
      </trkpt>
      <trkpt lat="45.94792" lon="4.85697">
        <ele>280</ele>
        <time>2018-03-13T10:09:12Z</time>
      </trkpt>
      <trkpt lat="45.94793" lon="4.85703">
        <ele>280</ele>
        <time>2018-03-13T10:09:13Z</time>
      </trkpt>
      <trkpt lat="45.94794" lon="4.85709">
        <ele>280</ele>
        <time>2018-03-13T10:09:14Z</time>
      </trkpt>
      <trkpt lat="45.94796" lon="4.85715">
        <ele>280</ele>
        <time>2018-03-13T10:09:15Z</time>
      </trkpt>
      <trkpt lat="45.94798" lon="4.85722">
        <ele>280</ele>
        <time>2018-03-13T10:09:16Z</time>
      </trkpt>
      <trkpt lat="45.94799" lon="4.85728">
        <ele>280</ele>
        <time>2018-03-13T10:09:17Z</time>
      </trkpt>
      <trkpt lat="45.948" lon="4.85734">
        <ele>280</ele>
        <time>2018-03-13T10:09:18Z</time>
      </trkpt>
      <trkpt lat="45.94802" lon="4.85741">
        <ele>279</ele>
        <time>2018-03-13T10:09:19Z</time>
      </trkpt>
      <trkpt lat="45.94803" lon="4.85746">
        <ele>279</ele>
        <time>2018-03-13T10:09:20Z</time>
      </trkpt>
      <trkpt lat="45.94804" lon="4.85753">
        <ele>278</ele>
        <time>2018-03-13T10:09:21Z</time>
      </trkpt>
      <trkpt lat="45.94806" lon="4.85759">
        <ele>278</ele>
        <time>2018-03-13T10:09:22Z</time>
      </trkpt>
      <trkpt lat="45.94808" lon="4.85765">
        <ele>278</ele>
        <time>2018-03-13T10:09:23Z</time>
      </trkpt>
      <trkpt lat="45.9481" lon="4.85772">
        <ele>278</ele>
        <time>2018-03-13T10:09:24Z</time>
      </trkpt>
      <trkpt lat="45.94812" lon="4.85781">
        <ele>278</ele>
        <time>2018-03-13T10:09:25Z</time>
      </trkpt>
      <trkpt lat="45.94814" lon="4.85788">
        <ele>278</ele>
        <time>2018-03-13T10:09:26Z</time>
      </trkpt>
      <trkpt lat="45.94816" lon="4.85796">
        <ele>278</ele>
        <time>2018-03-13T10:09:27Z</time>
      </trkpt>
      <trkpt lat="45.94817" lon="4.85805">
        <ele>278</ele>
        <time>2018-03-13T10:09:28Z</time>
      </trkpt>
      <trkpt lat="45.94819" lon="4.85813">
        <ele>278</ele>
        <time>2018-03-13T10:09:29Z</time>
      </trkpt>
      <trkpt lat="45.94822" lon="4.85819">
        <ele>278</ele>
        <time>2018-03-13T10:09:30Z</time>
      </trkpt>
      <trkpt lat="45.94824" lon="4.85827">
        <ele>277</ele>
        <time>2018-03-13T10:09:31Z</time>
      </trkpt>
      <trkpt lat="45.94827" lon="4.85834">
        <ele>277</ele>
        <time>2018-03-13T10:09:32Z</time>
      </trkpt>
      <trkpt lat="45.94828" lon="4.85841">
        <ele>277</ele>
        <time>2018-03-13T10:09:33Z</time>
      </trkpt>
      <trkpt lat="45.9483" lon="4.85849">
        <ele>277</ele>
        <time>2018-03-13T10:09:34Z</time>
      </trkpt>
      <trkpt lat="45.94832" lon="4.85858">
        <ele>277</ele>
        <time>2018-03-13T10:09:35Z</time>
      </trkpt>
      <trkpt lat="45.94834" lon="4.85865">
        <ele>276</ele>
        <time>2018-03-13T10:09:36Z</time>
      </trkpt>
      <trkpt lat="45.94836" lon="4.85874">
        <ele>276</ele>
        <time>2018-03-13T10:09:37Z</time>
      </trkpt>
      <trkpt lat="45.94838" lon="4.85882">
        <ele>276</ele>
        <time>2018-03-13T10:09:38Z</time>
      </trkpt>
      <trkpt lat="45.9484" lon="4.85889">
        <ele>276</ele>
        <time>2018-03-13T10:09:39Z</time>
      </trkpt>
      <trkpt lat="45.94842" lon="4.85895">
        <ele>276</ele>
        <time>2018-03-13T10:09:40Z</time>
      </trkpt>
      <trkpt lat="45.94845" lon="4.85903">
        <ele>276</ele>
        <time>2018-03-13T10:09:41Z</time>
      </trkpt>
      <trkpt lat="45.94847" lon="4.85911">
        <ele>275</ele>
        <time>2018-03-13T10:09:42Z</time>
      </trkpt>
      <trkpt lat="45.94849" lon="4.8592">
        <ele>275</ele>
        <time>2018-03-13T10:09:43Z</time>
      </trkpt>
      <trkpt lat="45.94851" lon="4.85928">
        <ele>275</ele>
        <time>2018-03-13T10:09:44Z</time>
      </trkpt>
      <trkpt lat="45.94853" lon="4.85936">
        <ele>275</ele>
        <time>2018-03-13T10:09:45Z</time>
      </trkpt>
      <trkpt lat="45.94856" lon="4.85943">
        <ele>275</ele>
        <time>2018-03-13T10:09:46Z</time>
      </trkpt>
      <trkpt lat="45.94858" lon="4.85952">
        <ele>275</ele>
        <time>2018-03-13T10:09:47Z</time>
      </trkpt>
      <trkpt lat="45.9486" lon="4.8596">
        <ele>275</ele>
        <time>2018-03-13T10:09:48Z</time>
      </trkpt>
      <trkpt lat="45.94861" lon="4.85968">
        <ele>275</ele>
        <time>2018-03-13T10:09:49Z</time>
      </trkpt>
      <trkpt lat="45.94864" lon="4.85976">
        <ele>275</ele>
        <time>2018-03-13T10:09:50Z</time>
      </trkpt>
      <trkpt lat="45.94866" lon="4.85984">
        <ele>275</ele>
        <time>2018-03-13T10:09:51Z</time>
      </trkpt>
      <trkpt lat="45.94869" lon="4.85993">
        <ele>275</ele>
        <time>2018-03-13T10:09:52Z</time>
      </trkpt>
      <trkpt lat="45.94871" lon="4.86001">
        <ele>274</ele>
        <time>2018-03-13T10:09:53Z</time>
      </trkpt>
      <trkpt lat="45.94874" lon="4.86009">
        <ele>274</ele>
        <time>2018-03-13T10:09:54Z</time>
      </trkpt>
      <trkpt lat="45.94876" lon="4.86017">
        <ele>274</ele>
        <time>2018-03-13T10:09:55Z</time>
      </trkpt>
      <trkpt lat="45.94878" lon="4.86025">
        <ele>274</ele>
        <time>2018-03-13T10:09:56Z</time>
      </trkpt>
      <trkpt lat="45.9488" lon="4.86032">
        <ele>274</ele>
        <time>2018-03-13T10:09:57Z</time>
      </trkpt>
      <trkpt lat="45.94881" lon="4.8604">
        <ele>274</ele>
        <time>2018-03-13T10:09:58Z</time>
      </trkpt>
      <trkpt lat="45.94883" lon="4.86046">
        <ele>274</ele>
        <time>2018-03-13T10:09:59Z</time>
      </trkpt>
      <trkpt lat="45.94886" lon="4.86054">
        <ele>274</ele>
        <time>2018-03-13T10:10:00Z</time>
      </trkpt>
      <trkpt lat="45.94888" lon="4.86062">
        <ele>274</ele>
        <time>2018-03-13T10:10:01Z</time>
      </trkpt>
      <trkpt lat="45.9489" lon="4.86069">
        <ele>274</ele>
        <time>2018-03-13T10:10:02Z</time>
      </trkpt>
      <trkpt lat="45.94893" lon="4.86077">
        <ele>274</ele>
        <time>2018-03-13T10:10:03Z</time>
      </trkpt>
      <trkpt lat="45.94896" lon="4.86086">
        <ele>274</ele>
        <time>2018-03-13T10:10:04Z</time>
      </trkpt>
      <trkpt lat="45.94899" lon="4.86093">
        <ele>274</ele>
        <time>2018-03-13T10:10:05Z</time>
      </trkpt>
      <trkpt lat="45.94901" lon="4.86102">
        <ele>274</ele>
        <time>2018-03-13T10:10:06Z</time>
      </trkpt>
      <trkpt lat="45.94905" lon="4.86111">
        <ele>274</ele>
        <time>2018-03-13T10:10:07Z</time>
      </trkpt>
      <trkpt lat="45.94908" lon="4.86119">
        <ele>274</ele>
        <time>2018-03-13T10:10:08Z</time>
      </trkpt>
      <trkpt lat="45.94911" lon="4.86127">
        <ele>274</ele>
        <time>2018-03-13T10:10:09Z</time>
      </trkpt>
      <trkpt lat="45.94915" lon="4.86135">
        <ele>274</ele>
        <time>2018-03-13T10:10:10Z</time>
      </trkpt>
      <trkpt lat="45.94919" lon="4.86142">
        <ele>273</ele>
        <time>2018-03-13T10:10:11Z</time>
      </trkpt>
      <trkpt lat="45.94924" lon="4.8615">
        <ele>273</ele>
        <time>2018-03-13T10:10:12Z</time>
      </trkpt>
      <trkpt lat="45.94928" lon="4.86157">
        <ele>273</ele>
        <time>2018-03-13T10:10:13Z</time>
      </trkpt>
      <trkpt lat="45.94932" lon="4.86163">
        <ele>273</ele>
        <time>2018-03-13T10:10:14Z</time>
      </trkpt>
      <trkpt lat="45.94937" lon="4.86169">
        <ele>273</ele>
        <time>2018-03-13T10:10:15Z</time>
      </trkpt>
      <trkpt lat="45.94942" lon="4.86175">
        <ele>273</ele>
        <time>2018-03-13T10:10:16Z</time>
      </trkpt>
      <trkpt lat="45.94947" lon="4.86181">
        <ele>273</ele>
        <time>2018-03-13T10:10:17Z</time>
      </trkpt>
      <trkpt lat="45.94952" lon="4.86188">
        <ele>273</ele>
        <time>2018-03-13T10:10:18Z</time>
      </trkpt>
      <trkpt lat="45.94957" lon="4.86194">
        <ele>273</ele>
        <time>2018-03-13T10:10:19Z</time>
      </trkpt>
      <trkpt lat="45.94962" lon="4.862">
        <ele>272</ele>
        <time>2018-03-13T10:10:20Z</time>
      </trkpt>
      <trkpt lat="45.94967" lon="4.86206">
        <ele>272</ele>
        <time>2018-03-13T10:10:21Z</time>
      </trkpt>
      <trkpt lat="45.94972" lon="4.86212">
        <ele>272</ele>
        <time>2018-03-13T10:10:22Z</time>
      </trkpt>
      <trkpt lat="45.94976" lon="4.86218">
        <ele>272</ele>
        <time>2018-03-13T10:10:23Z</time>
      </trkpt>
      <trkpt lat="45.94981" lon="4.86224">
        <ele>272</ele>
        <time>2018-03-13T10:10:24Z</time>
      </trkpt>
      <trkpt lat="45.94986" lon="4.86231">
        <ele>272</ele>
        <time>2018-03-13T10:10:25Z</time>
      </trkpt>
      <trkpt lat="45.94991" lon="4.86237">
        <ele>272</ele>
        <time>2018-03-13T10:10:26Z</time>
      </trkpt>
      <trkpt lat="45.94996" lon="4.86243">
        <ele>272</ele>
        <time>2018-03-13T10:10:27Z</time>
      </trkpt>
      <trkpt lat="45.95002" lon="4.8625">
        <ele>272</ele>
        <time>2018-03-13T10:10:28Z</time>
      </trkpt>
      <trkpt lat="45.95007" lon="4.86256">
        <ele>272</ele>
        <time>2018-03-13T10:10:29Z</time>
      </trkpt>
      <trkpt lat="45.95013" lon="4.86262">
        <ele>272</ele>
        <time>2018-03-13T10:10:30Z</time>
      </trkpt>
      <trkpt lat="45.95019" lon="4.86269">
        <ele>271</ele>
        <time>2018-03-13T10:10:31Z</time>
      </trkpt>
      <trkpt lat="45.95024" lon="4.86275">
        <ele>271</ele>
        <time>2018-03-13T10:10:32Z</time>
      </trkpt>
      <trkpt lat="45.9503" lon="4.86282">
        <ele>271</ele>
        <time>2018-03-13T10:10:33Z</time>
      </trkpt>
      <trkpt lat="45.95036" lon="4.86289">
        <ele>271</ele>
        <time>2018-03-13T10:10:34Z</time>
      </trkpt>
      <trkpt lat="45.95041" lon="4.86296">
        <ele>271</ele>
        <time>2018-03-13T10:10:35Z</time>
      </trkpt>
      <trkpt lat="45.95046" lon="4.86303">
        <ele>271</ele>
        <time>2018-03-13T10:10:36Z</time>
      </trkpt>
      <trkpt lat="45.95051" lon="4.86308">
        <ele>271</ele>
        <time>2018-03-13T10:10:37Z</time>
      </trkpt>
      <trkpt lat="45.95057" lon="4.86314">
        <ele>271</ele>
        <time>2018-03-13T10:10:38Z</time>
      </trkpt>
      <trkpt lat="45.95062" lon="4.86322">
        <ele>270</ele>
        <time>2018-03-13T10:10:39Z</time>
      </trkpt>
      <trkpt lat="45.95067" lon="4.86328">
        <ele>270</ele>
        <time>2018-03-13T10:10:40Z</time>
      </trkpt>
      <trkpt lat="45.95072" lon="4.86333">
        <ele>270</ele>
        <time>2018-03-13T10:10:41Z</time>
      </trkpt>
      <trkpt lat="45.95077" lon="4.86339">
        <ele>270</ele>
        <time>2018-03-13T10:10:42Z</time>
      </trkpt>
      <trkpt lat="45.95082" lon="4.86346">
        <ele>270</ele>
        <time>2018-03-13T10:10:43Z</time>
      </trkpt>
      <trkpt lat="45.95087" lon="4.86352">
        <ele>269</ele>
        <time>2018-03-13T10:10:44Z</time>
      </trkpt>
      <trkpt lat="45.95092" lon="4.86359">
        <ele>269</ele>
        <time>2018-03-13T10:10:45Z</time>
      </trkpt>
      <trkpt lat="45.95097" lon="4.86366">
        <ele>269</ele>
        <time>2018-03-13T10:10:46Z</time>
      </trkpt>
      <trkpt lat="45.95102" lon="4.86371">
        <ele>269</ele>
        <time>2018-03-13T10:10:47Z</time>
      </trkpt>
      <trkpt lat="45.95107" lon="4.86378">
        <ele>269</ele>
        <time>2018-03-13T10:10:48Z</time>
      </trkpt>
      <trkpt lat="45.95112" lon="4.86384">
        <ele>269</ele>
        <time>2018-03-13T10:10:49Z</time>
      </trkpt>
      <trkpt lat="45.95117" lon="4.86391">
        <ele>269</ele>
        <time>2018-03-13T10:10:50Z</time>
      </trkpt>
      <trkpt lat="45.95123" lon="4.86396">
        <ele>269</ele>
        <time>2018-03-13T10:10:51Z</time>
      </trkpt>
      <trkpt lat="45.95128" lon="4.86402">
        <ele>268</ele>
        <time>2018-03-13T10:10:52Z</time>
      </trkpt>
      <trkpt lat="45.95132" lon="4.86408">
        <ele>268</ele>
        <time>2018-03-13T10:10:53Z</time>
      </trkpt>
      <trkpt lat="45.95137" lon="4.86413">
        <ele>268</ele>
        <time>2018-03-13T10:10:54Z</time>
      </trkpt>
      <trkpt lat="45.95142" lon="4.86418">
        <ele>268</ele>
        <time>2018-03-13T10:10:55Z</time>
      </trkpt>
      <trkpt lat="45.95146" lon="4.86424">
        <ele>268</ele>
        <time>2018-03-13T10:10:56Z</time>
      </trkpt>
      <trkpt lat="45.95151" lon="4.86429">
        <ele>268</ele>
        <time>2018-03-13T10:10:57Z</time>
      </trkpt>
      <trkpt lat="45.95155" lon="4.86434">
        <ele>268</ele>
        <time>2018-03-13T10:10:58Z</time>
      </trkpt>
      <trkpt lat="45.95159" lon="4.8644">
        <ele>268</ele>
        <time>2018-03-13T10:10:59Z</time>
      </trkpt>
      <trkpt lat="45.95164" lon="4.86446">
        <ele>269</ele>
        <time>2018-03-13T10:11:00Z</time>
      </trkpt>
      <trkpt lat="45.95169" lon="4.86452">
        <ele>268</ele>
        <time>2018-03-13T10:11:01Z</time>
      </trkpt>
      <trkpt lat="45.95174" lon="4.86458">
        <ele>268</ele>
        <time>2018-03-13T10:11:02Z</time>
      </trkpt>
      <trkpt lat="45.95179" lon="4.86464">
        <ele>268</ele>
        <time>2018-03-13T10:11:03Z</time>
      </trkpt>
      <trkpt lat="45.95184" lon="4.8647">
        <ele>268</ele>
        <time>2018-03-13T10:11:04Z</time>
      </trkpt>
      <trkpt lat="45.95189" lon="4.86476">
        <ele>268</ele>
        <time>2018-03-13T10:11:05Z</time>
      </trkpt>
      <trkpt lat="45.95194" lon="4.86482">
        <ele>268</ele>
        <time>2018-03-13T10:11:06Z</time>
      </trkpt>
      <trkpt lat="45.95199" lon="4.86488">
        <ele>268</ele>
        <time>2018-03-13T10:11:07Z</time>
      </trkpt>
      <trkpt lat="45.95205" lon="4.86495">
        <ele>268</ele>
        <time>2018-03-13T10:11:08Z</time>
      </trkpt>
      <trkpt lat="45.9521" lon="4.86502">
        <ele>268</ele>
        <time>2018-03-13T10:11:09Z</time>
      </trkpt>
      <trkpt lat="45.95216" lon="4.86508">
        <ele>268</ele>
        <time>2018-03-13T10:11:10Z</time>
      </trkpt>
      <trkpt lat="45.95221" lon="4.86515">
        <ele>268</ele>
        <time>2018-03-13T10:11:11Z</time>
      </trkpt>
      <trkpt lat="45.95226" lon="4.86522">
        <ele>268</ele>
        <time>2018-03-13T10:11:12Z</time>
      </trkpt>
      <trkpt lat="45.95232" lon="4.86529">
        <ele>268</ele>
        <time>2018-03-13T10:11:13Z</time>
      </trkpt>
      <trkpt lat="45.95237" lon="4.86534">
        <ele>268</ele>
        <time>2018-03-13T10:11:14Z</time>
      </trkpt>
      <trkpt lat="45.95242" lon="4.86541">
        <ele>268</ele>
        <time>2018-03-13T10:11:15Z</time>
      </trkpt>
      <trkpt lat="45.95247" lon="4.86548">
        <ele>268</ele>
        <time>2018-03-13T10:11:16Z</time>
      </trkpt>
      <trkpt lat="45.95252" lon="4.86551">
        <ele>267</ele>
        <time>2018-03-13T10:11:17Z</time>
      </trkpt>
      <trkpt lat="45.95255" lon="4.8656">
        <ele>267</ele>
        <time>2018-03-13T10:11:18Z</time>
      </trkpt>
      <trkpt lat="45.95257" lon="4.86565">
        <ele>267</ele>
        <time>2018-03-13T10:11:19Z</time>
      </trkpt>
      <trkpt lat="45.95256" lon="4.86573">
        <ele>268</ele>
        <time>2018-03-13T10:11:20Z</time>
      </trkpt>
      <trkpt lat="45.95254" lon="4.8658">
        <ele>268</ele>
        <time>2018-03-13T10:11:21Z</time>
      </trkpt>
      <trkpt lat="45.95246" lon="4.86584">
        <ele>268</ele>
        <time>2018-03-13T10:11:23Z</time>
      </trkpt>
      <trkpt lat="45.95242" lon="4.86585">
        <ele>268</ele>
        <time>2018-03-13T10:11:24Z</time>
      </trkpt>
      <trkpt lat="45.95233" lon="4.86586">
        <ele>269</ele>
        <time>2018-03-13T10:11:26Z</time>
      </trkpt>
      <trkpt lat="45.95229" lon="4.86584">
        <ele>269</ele>
        <time>2018-03-13T10:11:27Z</time>
      </trkpt>
      <trkpt lat="45.9522" lon="4.86583">
        <ele>268</ele>
        <time>2018-03-13T10:11:29Z</time>
      </trkpt>
      <trkpt lat="45.95216" lon="4.86582">
        <ele>268</ele>
        <time>2018-03-13T10:11:30Z</time>
      </trkpt>
      <trkpt lat="45.95211" lon="4.86581">
        <ele>268</ele>
        <time>2018-03-13T10:11:32Z</time>
      </trkpt>
      <trkpt lat="45.95205" lon="4.8658">
        <ele>268</ele>
        <time>2018-03-13T10:11:33Z</time>
      </trkpt>
      <trkpt lat="45.95198" lon="4.86579">
        <ele>268</ele>
        <time>2018-03-13T10:11:36Z</time>
      </trkpt>
      <trkpt lat="45.95195" lon="4.86579">
        <ele>268</ele>
        <time>2018-03-13T10:11:37Z</time>
      </trkpt>
      <trkpt lat="45.95187" lon="4.86579">
        <ele>269</ele>
        <time>2018-03-13T10:11:38Z</time>
      </trkpt>
      <trkpt lat="45.95185" lon="4.86578">
        <ele>269</ele>
        <time>2018-03-13T10:11:39Z</time>
      </trkpt>
      <trkpt lat="45.95178" lon="4.86577">
        <ele>269</ele>
        <time>2018-03-13T10:11:42Z</time>
      </trkpt>
      <trkpt lat="45.95175" lon="4.86577">
        <ele>269</ele>
        <time>2018-03-13T10:11:43Z</time>
      </trkpt>
      <trkpt lat="45.95169" lon="4.86579">
        <ele>269</ele>
        <time>2018-03-13T10:11:45Z</time>
      </trkpt>
      <trkpt lat="45.95166" lon="4.8658">
        <ele>269</ele>
        <time>2018-03-13T10:11:46Z</time>
      </trkpt>
      <trkpt lat="45.95163" lon="4.86581">
        <ele>269</ele>
        <time>2018-03-13T10:11:47Z</time>
      </trkpt>
      <trkpt lat="45.95154" lon="4.86581">
        <ele>269</ele>
        <time>2018-03-13T10:11:48Z</time>
      </trkpt>
      <trkpt lat="45.95147" lon="4.86581">
        <ele>270</ele>
        <time>2018-03-13T10:11:50Z</time>
      </trkpt>
      <trkpt lat="45.95143" lon="4.86582">
        <ele>270</ele>
        <time>2018-03-13T10:11:51Z</time>
      </trkpt>
      <trkpt lat="45.95137" lon="4.86584">
        <ele>270</ele>
        <time>2018-03-13T10:11:54Z</time>
      </trkpt>
      <trkpt lat="45.95134" lon="4.86585">
        <ele>270</ele>
        <time>2018-03-13T10:11:55Z</time>
      </trkpt>
      <trkpt lat="45.95128" lon="4.86587">
        <ele>270</ele>
        <time>2018-03-13T10:11:57Z</time>
      </trkpt>
      <trkpt lat="45.9512" lon="4.86588">
        <ele>270</ele>
        <time>2018-03-13T10:11:58Z</time>
      </trkpt>
      <trkpt lat="45.95113" lon="4.86589">
        <ele>271</ele>
        <time>2018-03-13T10:12:01Z</time>
      </trkpt>
      <trkpt lat="45.9511" lon="4.86589">
        <ele>271</ele>
        <time>2018-03-13T10:12:02Z</time>
      </trkpt>
      <trkpt lat="45.95104" lon="4.8659">
        <ele>271</ele>
        <time>2018-03-13T10:12:04Z</time>
      </trkpt>
      <trkpt lat="45.95101" lon="4.86591">
        <ele>271</ele>
        <time>2018-03-13T10:12:05Z</time>
      </trkpt>
      <trkpt lat="45.95095" lon="4.86592">
        <ele>271</ele>
        <time>2018-03-13T10:12:07Z</time>
      </trkpt>
      <trkpt lat="45.95091" lon="4.86592">
        <ele>271</ele>
        <time>2018-03-13T10:12:08Z</time>
      </trkpt>
      <trkpt lat="45.95084" lon="4.86593">
        <ele>271</ele>
        <time>2018-03-13T10:12:10Z</time>
      </trkpt>
      <trkpt lat="45.95081" lon="4.86593">
        <ele>271</ele>
        <time>2018-03-13T10:12:11Z</time>
      </trkpt>
      <trkpt lat="45.95074" lon="4.86595">
        <ele>272</ele>
        <time>2018-03-13T10:12:13Z</time>
      </trkpt>
      <trkpt lat="45.95071" lon="4.86596">
        <ele>272</ele>
        <time>2018-03-13T10:12:14Z</time>
      </trkpt>
      <trkpt lat="45.95065" lon="4.86599">
        <ele>272</ele>
        <time>2018-03-13T10:12:16Z</time>
      </trkpt>
      <trkpt lat="45.95062" lon="4.86601">
        <ele>272</ele>
        <time>2018-03-13T10:12:17Z</time>
      </trkpt>
      <trkpt lat="45.95056" lon="4.86604">
        <ele>272</ele>
        <time>2018-03-13T10:12:19Z</time>
      </trkpt>
      <trkpt lat="45.95053" lon="4.86606">
        <ele>272</ele>
        <time>2018-03-13T10:12:20Z</time>
      </trkpt>
      <trkpt lat="45.95049" lon="4.86606">
        <ele>272</ele>
        <time>2018-03-13T10:12:21Z</time>
      </trkpt>
      <trkpt lat="45.9504" lon="4.86608">
        <ele>273</ele>
        <time>2018-03-13T10:12:22Z</time>
      </trkpt>
      <trkpt lat="45.95035" lon="4.86608">
        <ele>273</ele>
        <time>2018-03-13T10:12:24Z</time>
      </trkpt>
      <trkpt lat="45.95029" lon="4.86609">
        <ele>273</ele>
        <time>2018-03-13T10:12:25Z</time>
      </trkpt>
      <trkpt lat="45.95022" lon="4.86612">
        <ele>273</ele>
        <time>2018-03-13T10:12:27Z</time>
      </trkpt>
      <trkpt lat="45.95018" lon="4.86613">
        <ele>273</ele>
        <time>2018-03-13T10:12:28Z</time>
      </trkpt>
      <trkpt lat="45.9501" lon="4.86614">
        <ele>273</ele>
        <time>2018-03-13T10:12:31Z</time>
      </trkpt>
      <trkpt lat="45.95008" lon="4.86615">
        <ele>273</ele>
        <time>2018-03-13T10:12:32Z</time>
      </trkpt>
      <trkpt lat="45.95002" lon="4.86616">
        <ele>273</ele>
        <time>2018-03-13T10:12:34Z</time>
      </trkpt>
      <trkpt lat="45.94999" lon="4.86617">
        <ele>275</ele>
        <time>2018-03-13T10:12:35Z</time>
      </trkpt>
      <trkpt lat="45.94992" lon="4.86618">
        <ele>275</ele>
        <time>2018-03-13T10:12:37Z</time>
      </trkpt>
      <trkpt lat="45.94988" lon="4.86619">
        <ele>275</ele>
        <time>2018-03-13T10:12:38Z</time>
      </trkpt>
      <trkpt lat="45.94978" lon="4.8662">
        <ele>275</ele>
        <time>2018-03-13T10:12:39Z</time>
      </trkpt>
      <trkpt lat="45.94974" lon="4.8662">
        <ele>275</ele>
        <time>2018-03-13T10:12:41Z</time>
      </trkpt>
      <trkpt lat="45.94968" lon="4.86621">
        <ele>275</ele>
        <time>2018-03-13T10:12:42Z</time>
      </trkpt>
      <trkpt lat="45.94961" lon="4.86625">
        <ele>275</ele>
        <time>2018-03-13T10:12:44Z</time>
      </trkpt>
      <trkpt lat="45.94958" lon="4.86627">
        <ele>276</ele>
        <time>2018-03-13T10:12:45Z</time>
      </trkpt>
      <trkpt lat="45.94951" lon="4.86633">
        <ele>276</ele>
        <time>2018-03-13T10:12:47Z</time>
      </trkpt>
      <trkpt lat="45.94949" lon="4.86637">
        <ele>276</ele>
        <time>2018-03-13T10:12:48Z</time>
      </trkpt>
      <trkpt lat="45.94944" lon="4.86646">
        <ele>276</ele>
        <time>2018-03-13T10:12:50Z</time>
      </trkpt>
      <trkpt lat="45.94942" lon="4.86651">
        <ele>276</ele>
        <time>2018-03-13T10:12:51Z</time>
      </trkpt>
      <trkpt lat="45.94939" lon="4.86662">
        <ele>276</ele>
        <time>2018-03-13T10:12:53Z</time>
      </trkpt>
      <trkpt lat="45.94939" lon="4.86668">
        <ele>276</ele>
        <time>2018-03-13T10:12:54Z</time>
      </trkpt>
      <trkpt lat="45.94938" lon="4.86675">
        <ele>276</ele>
        <time>2018-03-13T10:12:55Z</time>
      </trkpt>
      <trkpt lat="45.9494" lon="4.86682">
        <ele>276</ele>
        <time>2018-03-13T10:12:56Z</time>
      </trkpt>
      <trkpt lat="45.94941" lon="4.86689">
        <ele>276</ele>
        <time>2018-03-13T10:12:57Z</time>
      </trkpt>
      <trkpt lat="45.94941" lon="4.86695">
        <ele>276</ele>
        <time>2018-03-13T10:12:58Z</time>
      </trkpt>
      <trkpt lat="45.94944" lon="4.86707">
        <ele>275</ele>
        <time>2018-03-13T10:13:00Z</time>
      </trkpt>
      <trkpt lat="45.94945" lon="4.86712">
        <ele>275</ele>
        <time>2018-03-13T10:13:01Z</time>
      </trkpt>
      <trkpt lat="45.94947" lon="4.86718">
        <ele>275</ele>
        <time>2018-03-13T10:13:02Z</time>
      </trkpt>
      <trkpt lat="45.9495" lon="4.86724">
        <ele>275</ele>
        <time>2018-03-13T10:13:03Z</time>
      </trkpt>
      <trkpt lat="45.94952" lon="4.8673">
        <ele>275</ele>
        <time>2018-03-13T10:13:04Z</time>
      </trkpt>
      <trkpt lat="45.94954" lon="4.86736">
        <ele>275</ele>
        <time>2018-03-13T10:13:05Z</time>
      </trkpt>
      <trkpt lat="45.94957" lon="4.86742">
        <ele>275</ele>
        <time>2018-03-13T10:13:06Z</time>
      </trkpt>
      <trkpt lat="45.94959" lon="4.86747">
        <ele>275</ele>
        <time>2018-03-13T10:13:07Z</time>
      </trkpt>
      <trkpt lat="45.94962" lon="4.86753">
        <ele>275</ele>
        <time>2018-03-13T10:13:08Z</time>
      </trkpt>
      <trkpt lat="45.94965" lon="4.86758">
        <ele>275</ele>
        <time>2018-03-13T10:13:09Z</time>
      </trkpt>
      <trkpt lat="45.94968" lon="4.86764">
        <ele>275</ele>
        <time>2018-03-13T10:13:10Z</time>
      </trkpt>
      <trkpt lat="45.94972" lon="4.8677">
        <ele>275</ele>
        <time>2018-03-13T10:13:11Z</time>
      </trkpt>
      <trkpt lat="45.94975" lon="4.86775">
        <ele>275</ele>
        <time>2018-03-13T10:13:12Z</time>
      </trkpt>
      <trkpt lat="45.94978" lon="4.86781">
        <ele>275</ele>
        <time>2018-03-13T10:13:13Z</time>
      </trkpt>
      <trkpt lat="45.94981" lon="4.86786">
        <ele>275</ele>
        <time>2018-03-13T10:13:14Z</time>
      </trkpt>
      <trkpt lat="45.94985" lon="4.86793">
        <ele>276</ele>
        <time>2018-03-13T10:13:15Z</time>
      </trkpt>
      <trkpt lat="45.94988" lon="4.86798">
        <ele>276</ele>
        <time>2018-03-13T10:13:16Z</time>
      </trkpt>
      <trkpt lat="45.94992" lon="4.86805">
        <ele>276</ele>
        <time>2018-03-13T10:13:17Z</time>
      </trkpt>
      <trkpt lat="45.94995" lon="4.86811">
        <ele>276</ele>
        <time>2018-03-13T10:13:18Z</time>
      </trkpt>
      <trkpt lat="45.94998" lon="4.86818">
        <ele>276</ele>
        <time>2018-03-13T10:13:19Z</time>
      </trkpt>
      <trkpt lat="45.95" lon="4.86825">
        <ele>275</ele>
        <time>2018-03-13T10:13:20Z</time>
      </trkpt>
      <trkpt lat="45.95004" lon="4.86831">
        <ele>276</ele>
        <time>2018-03-13T10:13:21Z</time>
      </trkpt>
      <trkpt lat="45.95006" lon="4.86837">
        <ele>276</ele>
        <time>2018-03-13T10:13:22Z</time>
      </trkpt>
      <trkpt lat="45.95009" lon="4.86845">
        <ele>276</ele>
        <time>2018-03-13T10:13:23Z</time>
      </trkpt>
      <trkpt lat="45.95012" lon="4.86852">
        <ele>275</ele>
        <time>2018-03-13T10:13:24Z</time>
      </trkpt>
      <trkpt lat="45.95015" lon="4.86857">
        <ele>275</ele>
        <time>2018-03-13T10:13:25Z</time>
      </trkpt>
      <trkpt lat="45.95017" lon="4.86864">
        <ele>275</ele>
        <time>2018-03-13T10:13:26Z</time>
      </trkpt>
      <trkpt lat="45.95019" lon="4.86872">
        <ele>275</ele>
        <time>2018-03-13T10:13:27Z</time>
      </trkpt>
      <trkpt lat="45.95022" lon="4.86879">
        <ele>275</ele>
        <time>2018-03-13T10:13:28Z</time>
      </trkpt>
      <trkpt lat="45.95024" lon="4.86886">
        <ele>275</ele>
        <time>2018-03-13T10:13:29Z</time>
      </trkpt>
      <trkpt lat="45.95026" lon="4.86893">
        <ele>275</ele>
        <time>2018-03-13T10:13:30Z</time>
      </trkpt>
      <trkpt lat="45.95028" lon="4.86901">
        <ele>275</ele>
        <time>2018-03-13T10:13:31Z</time>
      </trkpt>
      <trkpt lat="45.9503" lon="4.86909">
        <ele>275</ele>
        <time>2018-03-13T10:13:32Z</time>
      </trkpt>
      <trkpt lat="45.95032" lon="4.86917">
        <ele>275</ele>
        <time>2018-03-13T10:13:33Z</time>
      </trkpt>
      <trkpt lat="45.95035" lon="4.86924">
        <ele>276</ele>
        <time>2018-03-13T10:13:34Z</time>
      </trkpt>
      <trkpt lat="45.95037" lon="4.86931">
        <ele>276</ele>
        <time>2018-03-13T10:13:35Z</time>
      </trkpt>
      <trkpt lat="45.95039" lon="4.8694">
        <ele>276</ele>
        <time>2018-03-13T10:13:36Z</time>
      </trkpt>
      <trkpt lat="45.9504" lon="4.86945">
        <ele>276</ele>
        <time>2018-03-13T10:13:37Z</time>
      </trkpt>
      <trkpt lat="45.95042" lon="4.86954">
        <ele>276</ele>
        <time>2018-03-13T10:13:38Z</time>
      </trkpt>
      <trkpt lat="45.95043" lon="4.86961">
        <ele>276</ele>
        <time>2018-03-13T10:13:39Z</time>
      </trkpt>
      <trkpt lat="45.95046" lon="4.8697">
        <ele>276</ele>
        <time>2018-03-13T10:13:40Z</time>
      </trkpt>
      <trkpt lat="45.95049" lon="4.86976">
        <ele>276</ele>
        <time>2018-03-13T10:13:41Z</time>
      </trkpt>
      <trkpt lat="45.95052" lon="4.86983">
        <ele>276</ele>
        <time>2018-03-13T10:13:42Z</time>
      </trkpt>
      <trkpt lat="45.95055" lon="4.86987">
        <ele>276</ele>
        <time>2018-03-13T10:13:43Z</time>
      </trkpt>
      <trkpt lat="45.95057" lon="4.86995">
        <ele>276</ele>
        <time>2018-03-13T10:13:44Z</time>
      </trkpt>
      <trkpt lat="45.9506" lon="4.87001">
        <ele>277</ele>
        <time>2018-03-13T10:13:45Z</time>
      </trkpt>
      <trkpt lat="45.95063" lon="4.87007">
        <ele>277</ele>
        <time>2018-03-13T10:13:46Z</time>
      </trkpt>
      <trkpt lat="45.95066" lon="4.87013">
        <ele>277</ele>
        <time>2018-03-13T10:13:47Z</time>
      </trkpt>
      <trkpt lat="45.95069" lon="4.87018">
        <ele>277</ele>
        <time>2018-03-13T10:13:48Z</time>
      </trkpt>
      <trkpt lat="45.95072" lon="4.87024">
        <ele>277</ele>
        <time>2018-03-13T10:13:49Z</time>
      </trkpt>
      <trkpt lat="45.95074" lon="4.87029">
        <ele>277</ele>
        <time>2018-03-13T10:13:50Z</time>
      </trkpt>
      <trkpt lat="45.95078" lon="4.87034">
        <ele>277</ele>
        <time>2018-03-13T10:13:51Z</time>
      </trkpt>
      <trkpt lat="45.95081" lon="4.8704">
        <ele>277</ele>
        <time>2018-03-13T10:13:52Z</time>
      </trkpt>
      <trkpt lat="45.95084" lon="4.87044">
        <ele>277</ele>
        <time>2018-03-13T10:13:53Z</time>
      </trkpt>
      <trkpt lat="45.95089" lon="4.87054">
        <ele>277</ele>
        <time>2018-03-13T10:13:55Z</time>
      </trkpt>
      <trkpt lat="45.95092" lon="4.87059">
        <ele>277</ele>
        <time>2018-03-13T10:13:56Z</time>
      </trkpt>
      <trkpt lat="45.95096" lon="4.8707">
        <ele>277</ele>
        <time>2018-03-13T10:13:58Z</time>
      </trkpt>
      <trkpt lat="45.95098" lon="4.87075">
        <ele>277</ele>
        <time>2018-03-13T10:13:59Z</time>
      </trkpt>
      <trkpt lat="45.951" lon="4.87082">
        <ele>277</ele>
        <time>2018-03-13T10:14:00Z</time>
      </trkpt>
      <trkpt lat="45.95102" lon="4.87088">
        <ele>277</ele>
        <time>2018-03-13T10:14:01Z</time>
      </trkpt>
      <trkpt lat="45.95105" lon="4.87098">
        <ele>277</ele>
        <time>2018-03-13T10:14:03Z</time>
      </trkpt>
      <trkpt lat="45.95107" lon="4.87104">
        <ele>277</ele>
        <time>2018-03-13T10:14:04Z</time>
      </trkpt>
      <trkpt lat="45.95109" lon="4.8711">
        <ele>277</ele>
        <time>2018-03-13T10:14:05Z</time>
      </trkpt>
      <trkpt lat="45.95111" lon="4.87117">
        <ele>277</ele>
        <time>2018-03-13T10:14:06Z</time>
      </trkpt>
      <trkpt lat="45.95112" lon="4.87123">
        <ele>277</ele>
        <time>2018-03-13T10:14:07Z</time>
      </trkpt>
      <trkpt lat="45.95113" lon="4.8713">
        <ele>277</ele>
        <time>2018-03-13T10:14:08Z</time>
      </trkpt>
      <trkpt lat="45.95115" lon="4.87142">
        <ele>277</ele>
        <time>2018-03-13T10:14:10Z</time>
      </trkpt>
      <trkpt lat="45.95117" lon="4.87149">
        <ele>277</ele>
        <time>2018-03-13T10:14:11Z</time>
      </trkpt>
      <trkpt lat="45.95119" lon="4.87156">
        <ele>277</ele>
        <time>2018-03-13T10:14:12Z</time>
      </trkpt>
      <trkpt lat="45.9512" lon="4.87163">
        <ele>277</ele>
        <time>2018-03-13T10:14:13Z</time>
      </trkpt>
      <trkpt lat="45.95121" lon="4.8717">
        <ele>277</ele>
        <time>2018-03-13T10:14:14Z</time>
      </trkpt>
      <trkpt lat="45.95122" lon="4.87178">
        <ele>276</ele>
        <time>2018-03-13T10:14:15Z</time>
      </trkpt>
      <trkpt lat="45.95124" lon="4.87186">
        <ele>276</ele>
        <time>2018-03-13T10:14:16Z</time>
      </trkpt>
      <trkpt lat="45.95126" lon="4.87193">
        <ele>276</ele>
        <time>2018-03-13T10:14:17Z</time>
      </trkpt>
      <trkpt lat="45.95128" lon="4.87203">
        <ele>276</ele>
        <time>2018-03-13T10:14:18Z</time>
      </trkpt>
      <trkpt lat="45.9513" lon="4.87211">
        <ele>276</ele>
        <time>2018-03-13T10:14:19Z</time>
      </trkpt>
      <trkpt lat="45.95133" lon="4.87221">
        <ele>276</ele>
        <time>2018-03-13T10:14:20Z</time>
      </trkpt>
      <trkpt lat="45.95135" lon="4.87231">
        <ele>276</ele>
        <time>2018-03-13T10:14:21Z</time>
      </trkpt>
      <trkpt lat="45.95137" lon="4.8724">
        <ele>276</ele>
        <time>2018-03-13T10:14:22Z</time>
      </trkpt>
      <trkpt lat="45.95139" lon="4.8725">
        <ele>275</ele>
        <time>2018-03-13T10:14:23Z</time>
      </trkpt>
      <trkpt lat="45.95142" lon="4.8726">
        <ele>274</ele>
        <time>2018-03-13T10:14:24Z</time>
      </trkpt>
      <trkpt lat="45.95144" lon="4.8727">
        <ele>274</ele>
        <time>2018-03-13T10:14:25Z</time>
      </trkpt>
      <trkpt lat="45.95146" lon="4.87282">
        <ele>274</ele>
        <time>2018-03-13T10:14:26Z</time>
      </trkpt>
      <trkpt lat="45.95148" lon="4.87292">
        <ele>274</ele>
        <time>2018-03-13T10:14:27Z</time>
      </trkpt>
      <trkpt lat="45.95151" lon="4.87303">
        <ele>274</ele>
        <time>2018-03-13T10:14:28Z</time>
      </trkpt>
      <trkpt lat="45.95152" lon="4.87314">
        <ele>273</ele>
        <time>2018-03-13T10:14:29Z</time>
      </trkpt>
      <trkpt lat="45.95155" lon="4.87325">
        <ele>273</ele>
        <time>2018-03-13T10:14:30Z</time>
      </trkpt>
      <trkpt lat="45.95158" lon="4.87334">
        <ele>272</ele>
        <time>2018-03-13T10:14:31Z</time>
      </trkpt>
      <trkpt lat="45.95161" lon="4.87343">
        <ele>272</ele>
        <time>2018-03-13T10:14:32Z</time>
      </trkpt>
      <trkpt lat="45.95164" lon="4.87353">
        <ele>272</ele>
        <time>2018-03-13T10:14:33Z</time>
      </trkpt>
      <trkpt lat="45.95165" lon="4.87362">
        <ele>272</ele>
        <time>2018-03-13T10:14:34Z</time>
      </trkpt>
      <trkpt lat="45.95166" lon="4.8737">
        <ele>272</ele>
        <time>2018-03-13T10:14:35Z</time>
      </trkpt>
      <trkpt lat="45.95168" lon="4.87378">
        <ele>271</ele>
        <time>2018-03-13T10:14:36Z</time>
      </trkpt>
      <trkpt lat="45.9517" lon="4.87387">
        <ele>271</ele>
        <time>2018-03-13T10:14:37Z</time>
      </trkpt>
      <trkpt lat="45.95172" lon="4.87396">
        <ele>271</ele>
        <time>2018-03-13T10:14:38Z</time>
      </trkpt>
      <trkpt lat="45.95174" lon="4.87404">
        <ele>271</ele>
        <time>2018-03-13T10:14:39Z</time>
      </trkpt>
      <trkpt lat="45.95176" lon="4.87412">
        <ele>271</ele>
        <time>2018-03-13T10:14:40Z</time>
      </trkpt>
      <trkpt lat="45.95178" lon="4.8742">
        <ele>271</ele>
        <time>2018-03-13T10:14:41Z</time>
      </trkpt>
      <trkpt lat="45.9518" lon="4.87428">
        <ele>271</ele>
        <time>2018-03-13T10:14:42Z</time>
      </trkpt>
      <trkpt lat="45.95182" lon="4.87439">
        <ele>272</ele>
        <time>2018-03-13T10:14:43Z</time>
      </trkpt>
      <trkpt lat="45.95184" lon="4.87447">
        <ele>272</ele>
        <time>2018-03-13T10:14:44Z</time>
      </trkpt>
      <trkpt lat="45.95186" lon="4.87457">
        <ele>272</ele>
        <time>2018-03-13T10:14:45Z</time>
      </trkpt>
      <trkpt lat="45.95188" lon="4.87465">
        <ele>272</ele>
        <time>2018-03-13T10:14:46Z</time>
      </trkpt>
      <trkpt lat="45.9519" lon="4.87473">
        <ele>272</ele>
        <time>2018-03-13T10:14:47Z</time>
      </trkpt>
      <trkpt lat="45.95192" lon="4.87481">
        <ele>272</ele>
        <time>2018-03-13T10:14:48Z</time>
      </trkpt>
      <trkpt lat="45.95194" lon="4.8749">
        <ele>272</ele>
        <time>2018-03-13T10:14:49Z</time>
      </trkpt>
      <trkpt lat="45.95196" lon="4.87498">
        <ele>272</ele>
        <time>2018-03-13T10:14:50Z</time>
      </trkpt>
      <trkpt lat="45.95198" lon="4.87507">
        <ele>273</ele>
        <time>2018-03-13T10:14:51Z</time>
      </trkpt>
      <trkpt lat="45.952" lon="4.87514">
        <ele>273</ele>
        <time>2018-03-13T10:14:52Z</time>
      </trkpt>
      <trkpt lat="45.95201" lon="4.87524">
        <ele>274</ele>
        <time>2018-03-13T10:14:53Z</time>
      </trkpt>
      <trkpt lat="45.95202" lon="4.87531">
        <ele>274</ele>
        <time>2018-03-13T10:14:54Z</time>
      </trkpt>
      <trkpt lat="45.95204" lon="4.87539">
        <ele>274</ele>
        <time>2018-03-13T10:14:55Z</time>
      </trkpt>
      <trkpt lat="45.95205" lon="4.87547">
        <ele>274</ele>
        <time>2018-03-13T10:14:56Z</time>
      </trkpt>
      <trkpt lat="45.95207" lon="4.87555">
        <ele>274</ele>
        <time>2018-03-13T10:14:57Z</time>
      </trkpt>
      <trkpt lat="45.95208" lon="4.87562">
        <ele>274</ele>
        <time>2018-03-13T10:14:58Z</time>
      </trkpt>
      <trkpt lat="45.95208" lon="4.87568">
        <ele>274</ele>
        <time>2018-03-13T10:14:59Z</time>
      </trkpt>
      <trkpt lat="45.95209" lon="4.87575">
        <ele>274</ele>
        <time>2018-03-13T10:15:00Z</time>
      </trkpt>
      <trkpt lat="45.9521" lon="4.87582">
        <ele>274</ele>
        <time>2018-03-13T10:15:01Z</time>
      </trkpt>
      <trkpt lat="45.95211" lon="4.87589">
        <ele>276</ele>
        <time>2018-03-13T10:15:02Z</time>
      </trkpt>
      <trkpt lat="45.95211" lon="4.87596">
        <ele>276</ele>
        <time>2018-03-13T10:15:03Z</time>
      </trkpt>
      <trkpt lat="45.95211" lon="4.87608">
        <ele>276</ele>
        <time>2018-03-13T10:15:05Z</time>
      </trkpt>
      <trkpt lat="45.9521" lon="4.87614">
        <ele>276</ele>
        <time>2018-03-13T10:15:06Z</time>
      </trkpt>
      <trkpt lat="45.95213" lon="4.87626">
        <ele>276</ele>
        <time>2018-03-13T10:15:08Z</time>
      </trkpt>
      <trkpt lat="45.95214" lon="4.87632">
        <ele>276</ele>
        <time>2018-03-13T10:15:09Z</time>
      </trkpt>
      <trkpt lat="45.95215" lon="4.87644">
        <ele>276</ele>
        <time>2018-03-13T10:15:11Z</time>
      </trkpt>
      <trkpt lat="45.95215" lon="4.87646">
        <ele>276</ele>
        <time>2018-03-13T10:15:12Z</time>
      </trkpt>
      <trkpt lat="45.95216" lon="4.87654">
        <ele>276</ele>
        <time>2018-03-13T10:15:13Z</time>
      </trkpt>
      <trkpt lat="45.95217" lon="4.8766">
        <ele>276</ele>
        <time>2018-03-13T10:15:14Z</time>
      </trkpt>
      <trkpt lat="45.95218" lon="4.8767">
        <ele>278</ele>
        <time>2018-03-13T10:15:16Z</time>
      </trkpt>
      <trkpt lat="45.95219" lon="4.87675">
        <ele>278</ele>
        <time>2018-03-13T10:15:17Z</time>
      </trkpt>
      <trkpt lat="45.95222" lon="4.87685">
        <ele>279</ele>
        <time>2018-03-13T10:15:19Z</time>
      </trkpt>
      <trkpt lat="45.95222" lon="4.87688">
        <ele>279</ele>
        <time>2018-03-13T10:15:20Z</time>
      </trkpt>
      <trkpt lat="45.95223" lon="4.87698">
        <ele>279</ele>
        <time>2018-03-13T10:15:23Z</time>
      </trkpt>
      <trkpt lat="45.95223" lon="4.87701">
        <ele>279</ele>
        <time>2018-03-13T10:15:24Z</time>
      </trkpt>
      <trkpt lat="45.95225" lon="4.87714">
        <ele>279</ele>
        <time>2018-03-13T10:15:27Z</time>
      </trkpt>
      <trkpt lat="45.95226" lon="4.87719">
        <ele>279</ele>
        <time>2018-03-13T10:15:28Z</time>
      </trkpt>
      <trkpt lat="45.95228" lon="4.87723">
        <ele>280</ele>
        <time>2018-03-13T10:15:29Z</time>
      </trkpt>
      <trkpt lat="45.95231" lon="4.87741">
        <ele>280</ele>
        <time>2018-03-13T10:15:30Z</time>
      </trkpt>
      <trkpt lat="45.95233" lon="4.87748">
        <ele>280</ele>
        <time>2018-03-13T10:15:32Z</time>
      </trkpt>
      <trkpt lat="45.95234" lon="4.87754">
        <ele>281</ele>
        <time>2018-03-13T10:15:33Z</time>
      </trkpt>
      <trkpt lat="45.95235" lon="4.87761">
        <ele>281</ele>
        <time>2018-03-13T10:15:35Z</time>
      </trkpt>
      <trkpt lat="45.95237" lon="4.87767">
        <ele>282</ele>
        <time>2018-03-13T10:15:36Z</time>
      </trkpt>
      <trkpt lat="45.95239" lon="4.87777">
        <ele>282</ele>
        <time>2018-03-13T10:15:38Z</time>
      </trkpt>
      <trkpt lat="45.9524" lon="4.87782">
        <ele>282</ele>
        <time>2018-03-13T10:15:39Z</time>
      </trkpt>
      <trkpt lat="45.95241" lon="4.8779">
        <ele>282</ele>
        <time>2018-03-13T10:15:41Z</time>
      </trkpt>
      <trkpt lat="45.95243" lon="4.87797">
        <ele>282</ele>
        <time>2018-03-13T10:15:42Z</time>
      </trkpt>
      <trkpt lat="45.95244" lon="4.87806">
        <ele>282</ele>
        <time>2018-03-13T10:15:45Z</time>
      </trkpt>
      <trkpt lat="45.95246" lon="4.87816">
        <ele>282</ele>
        <time>2018-03-13T10:15:46Z</time>
      </trkpt>
      <trkpt lat="45.95247" lon="4.87828">
        <ele>282</ele>
        <time>2018-03-13T10:15:49Z</time>
      </trkpt>
      <trkpt lat="45.95247" lon="4.87831">
        <ele>282</ele>
        <time>2018-03-13T10:15:50Z</time>
      </trkpt>
      <trkpt lat="45.95249" lon="4.87844">
        <ele>283</ele>
        <time>2018-03-13T10:15:53Z</time>
      </trkpt>
      <trkpt lat="45.95252" lon="4.87857">
        <ele>281</ele>
        <time>2018-03-13T10:15:54Z</time>
      </trkpt>
      <trkpt lat="45.95253" lon="4.87867">
        <ele>281</ele>
        <time>2018-03-13T10:15:56Z</time>
      </trkpt>
      <trkpt lat="45.95253" lon="4.8787">
        <ele>281</ele>
        <time>2018-03-13T10:15:57Z</time>
      </trkpt>
      <trkpt lat="45.95255" lon="4.8788">
        <ele>281</ele>
        <time>2018-03-13T10:15:58Z</time>
      </trkpt>
      <trkpt lat="45.95256" lon="4.87886">
        <ele>281</ele>
        <time>2018-03-13T10:15:59Z</time>
      </trkpt>
      <trkpt lat="45.95259" lon="4.87898">
        <ele>281</ele>
        <time>2018-03-13T10:16:01Z</time>
      </trkpt>
      <trkpt lat="45.9526" lon="4.87906">
        <ele>281</ele>
        <time>2018-03-13T10:16:02Z</time>
      </trkpt>
      <trkpt lat="45.9526" lon="4.87918">
        <ele>282</ele>
        <time>2018-03-13T10:16:05Z</time>
      </trkpt>
      <trkpt lat="45.9526" lon="4.87924">
        <ele>281</ele>
        <time>2018-03-13T10:16:06Z</time>
      </trkpt>
      <trkpt lat="45.9526" lon="4.87936">
        <ele>281</ele>
        <time>2018-03-13T10:16:09Z</time>
      </trkpt>
      <trkpt lat="45.95258" lon="4.87941">
        <ele>280</ele>
        <time>2018-03-13T10:16:10Z</time>
      </trkpt>
      <trkpt lat="45.95255" lon="4.8795">
        <ele>280</ele>
        <time>2018-03-13T10:16:12Z</time>
      </trkpt>
      <trkpt lat="45.95253" lon="4.87955">
        <ele>280</ele>
        <time>2018-03-13T10:16:13Z</time>
      </trkpt>
      <trkpt lat="45.95249" lon="4.87964">
        <ele>282</ele>
        <time>2018-03-13T10:16:15Z</time>
      </trkpt>
      <trkpt lat="45.95246" lon="4.87969">
        <ele>282</ele>
        <time>2018-03-13T10:16:16Z</time>
      </trkpt>
      <trkpt lat="45.9524" lon="4.87978">
        <ele>282</ele>
        <time>2018-03-13T10:16:18Z</time>
      </trkpt>
      <trkpt lat="45.95237" lon="4.87983">
        <ele>281</ele>
        <time>2018-03-13T10:16:19Z</time>
      </trkpt>
      <trkpt lat="45.95233" lon="4.87987">
        <ele>281</ele>
        <time>2018-03-13T10:16:20Z</time>
      </trkpt>
      <trkpt lat="45.9523" lon="4.87992">
        <ele>281</ele>
        <time>2018-03-13T10:16:21Z</time>
      </trkpt>
      <trkpt lat="45.95227" lon="4.87998">
        <ele>281</ele>
        <time>2018-03-13T10:16:22Z</time>
      </trkpt>
      <trkpt lat="45.95223" lon="4.88003">
        <ele>281</ele>
        <time>2018-03-13T10:16:23Z</time>
      </trkpt>
      <trkpt lat="45.9522" lon="4.88007">
        <ele>281</ele>
        <time>2018-03-13T10:16:24Z</time>
      </trkpt>
      <trkpt lat="45.95217" lon="4.88015">
        <ele>281</ele>
        <time>2018-03-13T10:16:25Z</time>
      </trkpt>
      <trkpt lat="45.95213" lon="4.88019">
        <ele>281</ele>
        <time>2018-03-13T10:16:26Z</time>
      </trkpt>
      <trkpt lat="45.9521" lon="4.88024">
        <ele>281</ele>
        <time>2018-03-13T10:16:27Z</time>
      </trkpt>
      <trkpt lat="45.95206" lon="4.88029">
        <ele>281</ele>
        <time>2018-03-13T10:16:28Z</time>
      </trkpt>
      <trkpt lat="45.95203" lon="4.88036">
        <ele>281</ele>
        <time>2018-03-13T10:16:29Z</time>
      </trkpt>
      <trkpt lat="45.95198" lon="4.88045">
        <ele>281</ele>
        <time>2018-03-13T10:16:31Z</time>
      </trkpt>
      <trkpt lat="45.95196" lon="4.88051">
        <ele>281</ele>
        <time>2018-03-13T10:16:32Z</time>
      </trkpt>
      <trkpt lat="45.95192" lon="4.88061">
        <ele>281</ele>
        <time>2018-03-13T10:16:34Z</time>
      </trkpt>
      <trkpt lat="45.95191" lon="4.88067">
        <ele>281</ele>
        <time>2018-03-13T10:16:35Z</time>
      </trkpt>
      <trkpt lat="45.95187" lon="4.88079">
        <ele>281</ele>
        <time>2018-03-13T10:16:37Z</time>
      </trkpt>
      <trkpt lat="45.95185" lon="4.88085">
        <ele>282</ele>
        <time>2018-03-13T10:16:38Z</time>
      </trkpt>
      <trkpt lat="45.95184" lon="4.88092">
        <ele>282</ele>
        <time>2018-03-13T10:16:39Z</time>
      </trkpt>
      <trkpt lat="45.95183" lon="4.88098">
        <ele>282</ele>
        <time>2018-03-13T10:16:40Z</time>
      </trkpt>
      <trkpt lat="45.95182" lon="4.88107">
        <ele>282</ele>
        <time>2018-03-13T10:16:42Z</time>
      </trkpt>
      <trkpt lat="45.9518" lon="4.88116">
        <ele>282</ele>
        <time>2018-03-13T10:16:43Z</time>
      </trkpt>
      <trkpt lat="45.95177" lon="4.88126">
        <ele>282</ele>
        <time>2018-03-13T10:16:45Z</time>
      </trkpt>
      <trkpt lat="45.95176" lon="4.88132">
        <ele>283</ele>
        <time>2018-03-13T10:16:46Z</time>
      </trkpt>
      <trkpt lat="45.95173" lon="4.88142">
        <ele>283</ele>
        <time>2018-03-13T10:16:48Z</time>
      </trkpt>
      <trkpt lat="45.95172" lon="4.88147">
        <ele>283</ele>
        <time>2018-03-13T10:16:49Z</time>
      </trkpt>
      <trkpt lat="45.9517" lon="4.88158">
        <ele>284</ele>
        <time>2018-03-13T10:16:51Z</time>
      </trkpt>
      <trkpt lat="45.95171" lon="4.88164">
        <ele>284</ele>
        <time>2018-03-13T10:16:52Z</time>
      </trkpt>
      <trkpt lat="45.95174" lon="4.88174">
        <ele>285</ele>
        <time>2018-03-13T10:16:54Z</time>
      </trkpt>
      <trkpt lat="45.95177" lon="4.88176">
        <ele>285</ele>
        <time>2018-03-13T10:16:55Z</time>
      </trkpt>
      <trkpt lat="45.95181" lon="4.88177">
        <ele>285</ele>
        <time>2018-03-13T10:16:56Z</time>
      </trkpt>
      <trkpt lat="45.95188" lon="4.88175">
        <ele>285</ele>
        <time>2018-03-13T10:16:57Z</time>
      </trkpt>
      <trkpt lat="45.95192" lon="4.88174">
        <ele>285</ele>
        <time>2018-03-13T10:16:58Z</time>
      </trkpt>
      <trkpt lat="45.95198" lon="4.88172">
        <ele>285</ele>
        <time>2018-03-13T10:16:59Z</time>
      </trkpt>
      <trkpt lat="45.95203" lon="4.88171">
        <ele>285</ele>
        <time>2018-03-13T10:17:00Z</time>
      </trkpt>
      <trkpt lat="45.95209" lon="4.88171">
        <ele>284</ele>
        <time>2018-03-13T10:17:01Z</time>
      </trkpt>
      <trkpt lat="45.95214" lon="4.8817">
        <ele>284</ele>
        <time>2018-03-13T10:17:02Z</time>
      </trkpt>
      <trkpt lat="45.9522" lon="4.88169">
        <ele>284</ele>
        <time>2018-03-13T10:17:03Z</time>
      </trkpt>
      <trkpt lat="45.95226" lon="4.88169">
        <ele>284</ele>
        <time>2018-03-13T10:17:04Z</time>
      </trkpt>
      <trkpt lat="45.95232" lon="4.88169">
        <ele>283</ele>
        <time>2018-03-13T10:17:05Z</time>
      </trkpt>
      <trkpt lat="45.95238" lon="4.88169">
        <ele>283</ele>
        <time>2018-03-13T10:17:06Z</time>
      </trkpt>
      <trkpt lat="45.95244" lon="4.88169">
        <ele>282</ele>
        <time>2018-03-13T10:17:07Z</time>
      </trkpt>
      <trkpt lat="45.95251" lon="4.88169">
        <ele>281</ele>
        <time>2018-03-13T10:17:08Z</time>
      </trkpt>
      <trkpt lat="45.95257" lon="4.8817">
        <ele>281</ele>
        <time>2018-03-13T10:17:09Z</time>
      </trkpt>
      <trkpt lat="45.95264" lon="4.88171">
        <ele>281</ele>
        <time>2018-03-13T10:17:10Z</time>
      </trkpt>
      <trkpt lat="45.95271" lon="4.88172">
        <ele>281</ele>
        <time>2018-03-13T10:17:11Z</time>
      </trkpt>
      <trkpt lat="45.95279" lon="4.88172">
        <ele>281</ele>
        <time>2018-03-13T10:17:12Z</time>
      </trkpt>
      <trkpt lat="45.95286" lon="4.88173">
        <ele>281</ele>
        <time>2018-03-13T10:17:13Z</time>
      </trkpt>
      <trkpt lat="45.95293" lon="4.88173">
        <ele>281</ele>
        <time>2018-03-13T10:17:14Z</time>
      </trkpt>
      <trkpt lat="45.953" lon="4.88174">
        <ele>281</ele>
        <time>2018-03-13T10:17:15Z</time>
      </trkpt>
      <trkpt lat="45.95308" lon="4.88175">
        <ele>280</ele>
        <time>2018-03-13T10:17:16Z</time>
      </trkpt>
      <trkpt lat="45.95316" lon="4.88176">
        <ele>280</ele>
        <time>2018-03-13T10:17:17Z</time>
      </trkpt>
      <trkpt lat="45.95323" lon="4.88176">
        <ele>280</ele>
        <time>2018-03-13T10:17:18Z</time>
      </trkpt>
      <trkpt lat="45.9533" lon="4.88176">
        <ele>279</ele>
        <time>2018-03-13T10:17:19Z</time>
      </trkpt>
      <trkpt lat="45.95338" lon="4.88175">
        <ele>278</ele>
        <time>2018-03-13T10:17:20Z</time>
      </trkpt>
      <trkpt lat="45.95346" lon="4.88175">
        <ele>278</ele>
        <time>2018-03-13T10:17:21Z</time>
      </trkpt>
      <trkpt lat="45.95353" lon="4.88174">
        <ele>278</ele>
        <time>2018-03-13T10:17:22Z</time>
      </trkpt>
      <trkpt lat="45.9536" lon="4.88172">
        <ele>278</ele>
        <time>2018-03-13T10:17:23Z</time>
      </trkpt>
      <trkpt lat="45.95368" lon="4.88172">
        <ele>278</ele>
        <time>2018-03-13T10:17:24Z</time>
      </trkpt>
      <trkpt lat="45.95375" lon="4.88169">
        <ele>278</ele>
        <time>2018-03-13T10:17:25Z</time>
      </trkpt>
      <trkpt lat="45.95382" lon="4.88167">
        <ele>278</ele>
        <time>2018-03-13T10:17:26Z</time>
      </trkpt>
      <trkpt lat="45.95388" lon="4.88165">
        <ele>276</ele>
        <time>2018-03-13T10:17:27Z</time>
      </trkpt>
      <trkpt lat="45.95396" lon="4.88161">
        <ele>276</ele>
        <time>2018-03-13T10:17:28Z</time>
      </trkpt>
      <trkpt lat="45.95402" lon="4.88161">
        <ele>276</ele>
        <time>2018-03-13T10:17:29Z</time>
      </trkpt>
      <trkpt lat="45.95407" lon="4.88157">
        <ele>276</ele>
        <time>2018-03-13T10:17:30Z</time>
      </trkpt>
      <trkpt lat="45.95413" lon="4.88155">
        <ele>276</ele>
        <time>2018-03-13T10:17:31Z</time>
      </trkpt>
      <trkpt lat="45.95418" lon="4.88152">
        <ele>276</ele>
        <time>2018-03-13T10:17:32Z</time>
      </trkpt>
      <trkpt lat="45.95423" lon="4.8815">
        <ele>276</ele>
        <time>2018-03-13T10:17:33Z</time>
      </trkpt>
      <trkpt lat="45.95429" lon="4.88148">
        <ele>276</ele>
        <time>2018-03-13T10:17:34Z</time>
      </trkpt>
      <trkpt lat="45.95435" lon="4.88145">
        <ele>276</ele>
        <time>2018-03-13T10:17:35Z</time>
      </trkpt>
      <trkpt lat="45.9544" lon="4.88142">
        <ele>276</ele>
        <time>2018-03-13T10:17:36Z</time>
      </trkpt>
      <trkpt lat="45.95445" lon="4.8814">
        <ele>276</ele>
        <time>2018-03-13T10:17:37Z</time>
      </trkpt>
      <trkpt lat="45.9545" lon="4.88138">
        <ele>276</ele>
        <time>2018-03-13T10:17:38Z</time>
      </trkpt>
      <trkpt lat="45.95455" lon="4.88136">
        <ele>276</ele>
        <time>2018-03-13T10:17:39Z</time>
      </trkpt>
      <trkpt lat="45.9546" lon="4.88133">
        <ele>276</ele>
        <time>2018-03-13T10:17:40Z</time>
      </trkpt>
      <trkpt lat="45.95466" lon="4.88131">
        <ele>276</ele>
        <time>2018-03-13T10:17:41Z</time>
      </trkpt>
      <trkpt lat="45.95471" lon="4.88129">
        <ele>276</ele>
        <time>2018-03-13T10:17:42Z</time>
      </trkpt>
      <trkpt lat="45.95477" lon="4.88126">
        <ele>276</ele>
        <time>2018-03-13T10:17:43Z</time>
      </trkpt>
      <trkpt lat="45.95482" lon="4.88124">
        <ele>276</ele>
        <time>2018-03-13T10:17:44Z</time>
      </trkpt>
      <trkpt lat="45.95487" lon="4.88122">
        <ele>276</ele>
        <time>2018-03-13T10:17:45Z</time>
      </trkpt>
      <trkpt lat="45.95492" lon="4.8812">
        <ele>276</ele>
        <time>2018-03-13T10:17:46Z</time>
      </trkpt>
      <trkpt lat="45.95497" lon="4.88118">
        <ele>276</ele>
        <time>2018-03-13T10:17:47Z</time>
      </trkpt>
      <trkpt lat="45.95502" lon="4.88116">
        <ele>276</ele>
        <time>2018-03-13T10:17:48Z</time>
      </trkpt>
      <trkpt lat="45.95507" lon="4.88114">
        <ele>276</ele>
        <time>2018-03-13T10:17:49Z</time>
      </trkpt>
      <trkpt lat="45.95511" lon="4.88112">
        <ele>276</ele>
        <time>2018-03-13T10:17:50Z</time>
      </trkpt>
      <trkpt lat="45.95515" lon="4.88108">
        <ele>276</ele>
        <time>2018-03-13T10:17:51Z</time>
      </trkpt>
      <trkpt lat="45.95519" lon="4.88105">
        <ele>276</ele>
        <time>2018-03-13T10:17:52Z</time>
      </trkpt>
      <trkpt lat="45.95525" lon="4.88102">
        <ele>277</ele>
        <time>2018-03-13T10:17:53Z</time>
      </trkpt>
      <trkpt lat="45.95529" lon="4.881">
        <ele>277</ele>
        <time>2018-03-13T10:17:54Z</time>
      </trkpt>
      <trkpt lat="45.95534" lon="4.88098">
        <ele>277</ele>
        <time>2018-03-13T10:17:55Z</time>
      </trkpt>
      <trkpt lat="45.95538" lon="4.88095">
        <ele>277</ele>
        <time>2018-03-13T10:17:56Z</time>
      </trkpt>
      <trkpt lat="45.95543" lon="4.88092">
        <ele>277</ele>
        <time>2018-03-13T10:17:57Z</time>
      </trkpt>
      <trkpt lat="45.95548" lon="4.8809">
        <ele>277</ele>
        <time>2018-03-13T10:17:58Z</time>
      </trkpt>
      <trkpt lat="45.95552" lon="4.88088">
        <ele>277</ele>
        <time>2018-03-13T10:17:59Z</time>
      </trkpt>
      <trkpt lat="45.95556" lon="4.88085">
        <ele>277</ele>
        <time>2018-03-13T10:18:00Z</time>
      </trkpt>
      <trkpt lat="45.95561" lon="4.88083">
        <ele>276</ele>
        <time>2018-03-13T10:18:01Z</time>
      </trkpt>
      <trkpt lat="45.95566" lon="4.8808">
        <ele>276</ele>
        <time>2018-03-13T10:18:02Z</time>
      </trkpt>
      <trkpt lat="45.9557" lon="4.88078">
        <ele>276</ele>
        <time>2018-03-13T10:18:03Z</time>
      </trkpt>
      <trkpt lat="45.95575" lon="4.88075">
        <ele>277</ele>
        <time>2018-03-13T10:18:04Z</time>
      </trkpt>
      <trkpt lat="45.95579" lon="4.88073">
        <ele>277</ele>
        <time>2018-03-13T10:18:05Z</time>
      </trkpt>
      <trkpt lat="45.95583" lon="4.8807">
        <ele>277</ele>
        <time>2018-03-13T10:18:06Z</time>
      </trkpt>
      <trkpt lat="45.95588" lon="4.88067">
        <ele>278</ele>
        <time>2018-03-13T10:18:07Z</time>
      </trkpt>
      <trkpt lat="45.95592" lon="4.88063">
        <ele>278</ele>
        <time>2018-03-13T10:18:08Z</time>
      </trkpt>
      <trkpt lat="45.95596" lon="4.88059">
        <ele>278</ele>
        <time>2018-03-13T10:18:09Z</time>
      </trkpt>
      <trkpt lat="45.956" lon="4.88055">
        <ele>278</ele>
        <time>2018-03-13T10:18:10Z</time>
      </trkpt>
      <trkpt lat="45.95604" lon="4.88053">
        <ele>278</ele>
        <time>2018-03-13T10:18:11Z</time>
      </trkpt>
      <trkpt lat="45.95608" lon="4.88049">
        <ele>278</ele>
        <time>2018-03-13T10:18:12Z</time>
      </trkpt>
      <trkpt lat="45.95612" lon="4.88046">
        <ele>278</ele>
        <time>2018-03-13T10:18:13Z</time>
      </trkpt>
      <trkpt lat="45.95619" lon="4.88038">
        <ele>278</ele>
        <time>2018-03-13T10:18:15Z</time>
      </trkpt>
      <trkpt lat="45.95623" lon="4.88035">
        <ele>278</ele>
        <time>2018-03-13T10:18:16Z</time>
      </trkpt>
      <trkpt lat="45.9563" lon="4.88028">
        <ele>279</ele>
        <time>2018-03-13T10:18:18Z</time>
      </trkpt>
      <trkpt lat="45.95633" lon="4.88026">
        <ele>279</ele>
        <time>2018-03-13T10:18:19Z</time>
      </trkpt>
      <trkpt lat="45.9564" lon="4.8802">
        <ele>279</ele>
        <time>2018-03-13T10:18:21Z</time>
      </trkpt>
      <trkpt lat="45.95644" lon="4.88017">
        <ele>279</ele>
        <time>2018-03-13T10:18:22Z</time>
      </trkpt>
      <trkpt lat="45.9565" lon="4.88011">
        <ele>280</ele>
        <time>2018-03-13T10:18:24Z</time>
      </trkpt>
      <trkpt lat="45.95653" lon="4.88008">
        <ele>280</ele>
        <time>2018-03-13T10:18:25Z</time>
      </trkpt>
      <trkpt lat="45.9566" lon="4.88003">
        <ele>280</ele>
        <time>2018-03-13T10:18:27Z</time>
      </trkpt>
      <trkpt lat="45.95661" lon="4.88001">
        <ele>280</ele>
        <time>2018-03-13T10:18:28Z</time>
      </trkpt>
      <trkpt lat="45.95668" lon="4.87996">
        <ele>281</ele>
        <time>2018-03-13T10:18:31Z</time>
      </trkpt>
      <trkpt lat="45.9567" lon="4.87994">
        <ele>281</ele>
        <time>2018-03-13T10:18:32Z</time>
      </trkpt>
      <trkpt lat="45.95675" lon="4.87989">
        <ele>282</ele>
        <time>2018-03-13T10:18:34Z</time>
      </trkpt>
      <trkpt lat="45.95678" lon="4.87987">
        <ele>282</ele>
        <time>2018-03-13T10:18:35Z</time>
      </trkpt>
      <trkpt lat="45.95683" lon="4.87982">
        <ele>282</ele>
        <time>2018-03-13T10:18:37Z</time>
      </trkpt>
      <trkpt lat="45.95686" lon="4.87979">
        <ele>282</ele>
        <time>2018-03-13T10:18:38Z</time>
      </trkpt>
      <trkpt lat="45.95692" lon="4.87974">
        <ele>282</ele>
        <time>2018-03-13T10:18:40Z</time>
      </trkpt>
      <trkpt lat="45.95694" lon="4.87972">
        <ele>282</ele>
        <time>2018-03-13T10:18:41Z</time>
      </trkpt>
      <trkpt lat="45.95697" lon="4.8797">
        <ele>282</ele>
        <time>2018-03-13T10:18:42Z</time>
      </trkpt>
      <trkpt lat="45.95705" lon="4.87962">
        <ele>283</ele>
        <time>2018-03-13T10:18:43Z</time>
      </trkpt>
      <trkpt lat="45.95712" lon="4.87956">
        <ele>283</ele>
        <time>2018-03-13T10:18:47Z</time>
      </trkpt>
      <trkpt lat="45.95714" lon="4.87954">
        <ele>283</ele>
        <time>2018-03-13T10:18:48Z</time>
      </trkpt>
      <trkpt lat="45.9572" lon="4.87946">
        <ele>283</ele>
        <time>2018-03-13T10:18:51Z</time>
      </trkpt>
      <trkpt lat="45.95722" lon="4.87944">
        <ele>283</ele>
        <time>2018-03-13T10:18:52Z</time>
      </trkpt>
      <trkpt lat="45.95729" lon="4.87938">
        <ele>283</ele>
        <time>2018-03-13T10:18:55Z</time>
      </trkpt>
      <trkpt lat="45.95732" lon="4.87936">
        <ele>283</ele>
        <time>2018-03-13T10:18:56Z</time>
      </trkpt>
      <trkpt lat="45.95739" lon="4.8793">
        <ele>284</ele>
        <time>2018-03-13T10:18:59Z</time>
      </trkpt>
      <trkpt lat="45.95742" lon="4.87928">
        <ele>284</ele>
        <time>2018-03-13T10:19:00Z</time>
      </trkpt>
      <trkpt lat="45.95748" lon="4.87922">
        <ele>285</ele>
        <time>2018-03-13T10:19:03Z</time>
      </trkpt>
      <trkpt lat="45.95751" lon="4.8792">
        <ele>285</ele>
        <time>2018-03-13T10:19:04Z</time>
      </trkpt>
      <trkpt lat="45.95758" lon="4.87915">
        <ele>285</ele>
        <time>2018-03-13T10:19:07Z</time>
      </trkpt>
      <trkpt lat="45.9576" lon="4.87913">
        <ele>285</ele>
        <time>2018-03-13T10:19:08Z</time>
      </trkpt>
      <trkpt lat="45.95768" lon="4.87908">
        <ele>286</ele>
        <time>2018-03-13T10:19:11Z</time>
      </trkpt>
      <trkpt lat="45.9577" lon="4.87906">
        <ele>286</ele>
        <time>2018-03-13T10:19:12Z</time>
      </trkpt>
      <trkpt lat="45.95777" lon="4.87901">
        <ele>286</ele>
        <time>2018-03-13T10:19:15Z</time>
      </trkpt>
      <trkpt lat="45.95779" lon="4.87899">
        <ele>286</ele>
        <time>2018-03-13T10:19:16Z</time>
      </trkpt>
      <trkpt lat="45.95786" lon="4.87894">
        <ele>286</ele>
        <time>2018-03-13T10:19:19Z</time>
      </trkpt>
      <trkpt lat="45.95789" lon="4.87893">
        <ele>286</ele>
        <time>2018-03-13T10:19:20Z</time>
      </trkpt>
      <trkpt lat="45.95796" lon="4.87888">
        <ele>286</ele>
        <time>2018-03-13T10:19:23Z</time>
      </trkpt>
      <trkpt lat="45.95798" lon="4.87886">
        <ele>287</ele>
        <time>2018-03-13T10:19:24Z</time>
      </trkpt>
      <trkpt lat="45.95806" lon="4.87882">
        <ele>287</ele>
        <time>2018-03-13T10:19:27Z</time>
      </trkpt>
      <trkpt lat="45.95809" lon="4.87881">
        <ele>287</ele>
        <time>2018-03-13T10:19:28Z</time>
      </trkpt>
      <trkpt lat="45.95817" lon="4.87879">
        <ele>287</ele>
        <time>2018-03-13T10:19:31Z</time>
      </trkpt>
      <trkpt lat="45.9582" lon="4.87878">
        <ele>287</ele>
        <time>2018-03-13T10:19:32Z</time>
      </trkpt>
      <trkpt lat="45.95828" lon="4.87876">
        <ele>287</ele>
        <time>2018-03-13T10:19:35Z</time>
      </trkpt>
      <trkpt lat="45.95831" lon="4.87875">
        <ele>287</ele>
        <time>2018-03-13T10:19:36Z</time>
      </trkpt>
      <trkpt lat="45.95837" lon="4.87873">
        <ele>289</ele>
        <time>2018-03-13T10:19:38Z</time>
      </trkpt>
      <trkpt lat="45.95846" lon="4.87866">
        <ele>289</ele>
        <time>2018-03-13T10:19:39Z</time>
      </trkpt>
      <trkpt lat="45.95852" lon="4.87859">
        <ele>289</ele>
        <time>2018-03-13T10:19:41Z</time>
      </trkpt>
      <trkpt lat="45.95853" lon="4.87857">
        <ele>289</ele>
        <time>2018-03-13T10:19:42Z</time>
      </trkpt>
      <trkpt lat="45.9586" lon="4.8785">
        <ele>289</ele>
        <time>2018-03-13T10:19:44Z</time>
      </trkpt>
      <trkpt lat="45.95863" lon="4.87847">
        <ele>289</ele>
        <time>2018-03-13T10:19:45Z</time>
      </trkpt>
      <trkpt lat="45.9587" lon="4.8784">
        <ele>289</ele>
        <time>2018-03-13T10:19:47Z</time>
      </trkpt>
      <trkpt lat="45.95873" lon="4.87837">
        <ele>289</ele>
        <time>2018-03-13T10:19:48Z</time>
      </trkpt>
      <trkpt lat="45.9588" lon="4.8783">
        <ele>288</ele>
        <time>2018-03-13T10:19:50Z</time>
      </trkpt>
      <trkpt lat="45.95883" lon="4.87827">
        <ele>288</ele>
        <time>2018-03-13T10:19:51Z</time>
      </trkpt>
      <trkpt lat="45.95889" lon="4.8782">
        <ele>288</ele>
        <time>2018-03-13T10:19:53Z</time>
      </trkpt>
      <trkpt lat="45.95892" lon="4.87816">
        <ele>288</ele>
        <time>2018-03-13T10:19:54Z</time>
      </trkpt>
      <trkpt lat="45.95898" lon="4.87807">
        <ele>288</ele>
        <time>2018-03-13T10:19:56Z</time>
      </trkpt>
      <trkpt lat="45.95901" lon="4.87803">
        <ele>288</ele>
        <time>2018-03-13T10:19:57Z</time>
      </trkpt>
      <trkpt lat="45.95906" lon="4.87795">
        <ele>288</ele>
        <time>2018-03-13T10:19:59Z</time>
      </trkpt>
      <trkpt lat="45.95909" lon="4.87791">
        <ele>288</ele>
        <time>2018-03-13T10:20:00Z</time>
      </trkpt>
      <trkpt lat="45.95914" lon="4.87782">
        <ele>288</ele>
        <time>2018-03-13T10:20:02Z</time>
      </trkpt>
      <trkpt lat="45.95916" lon="4.87778">
        <ele>288</ele>
        <time>2018-03-13T10:20:03Z</time>
      </trkpt>
      <trkpt lat="45.95921" lon="4.87769">
        <ele>289</ele>
        <time>2018-03-13T10:20:05Z</time>
      </trkpt>
      <trkpt lat="45.95923" lon="4.87765">
        <ele>288</ele>
        <time>2018-03-13T10:20:06Z</time>
      </trkpt>
      <trkpt lat="45.95928" lon="4.87756">
        <ele>288</ele>
        <time>2018-03-13T10:20:08Z</time>
      </trkpt>
      <trkpt lat="45.9593" lon="4.87752">
        <ele>288</ele>
        <time>2018-03-13T10:20:09Z</time>
      </trkpt>
      <trkpt lat="45.95935" lon="4.87743">
        <ele>288</ele>
        <time>2018-03-13T10:20:11Z</time>
      </trkpt>
      <trkpt lat="45.95938" lon="4.87739">
        <ele>288</ele>
        <time>2018-03-13T10:20:12Z</time>
      </trkpt>
      <trkpt lat="45.95943" lon="4.87731">
        <ele>289</ele>
        <time>2018-03-13T10:20:14Z</time>
      </trkpt>
      <trkpt lat="45.95946" lon="4.87728">
        <ele>289</ele>
        <time>2018-03-13T10:20:15Z</time>
      </trkpt>
      <trkpt lat="45.95952" lon="4.8772">
        <ele>289</ele>
        <time>2018-03-13T10:20:17Z</time>
      </trkpt>
      <trkpt lat="45.95955" lon="4.87717">
        <ele>289</ele>
        <time>2018-03-13T10:20:18Z</time>
      </trkpt>
      <trkpt lat="45.95961" lon="4.87709">
        <ele>289</ele>
        <time>2018-03-13T10:20:20Z</time>
      </trkpt>
      <trkpt lat="45.95964" lon="4.87705">
        <ele>289</ele>
        <time>2018-03-13T10:20:21Z</time>
      </trkpt>
      <trkpt lat="45.95968" lon="4.87702">
        <ele>289</ele>
        <time>2018-03-13T10:20:22Z</time>
      </trkpt>
      <trkpt lat="45.95972" lon="4.87698">
        <ele>289</ele>
        <time>2018-03-13T10:20:23Z</time>
      </trkpt>
      <trkpt lat="45.95979" lon="4.87691">
        <ele>289</ele>
        <time>2018-03-13T10:20:25Z</time>
      </trkpt>
      <trkpt lat="45.95982" lon="4.87687">
        <ele>289</ele>
        <time>2018-03-13T10:20:26Z</time>
      </trkpt>
      <trkpt lat="45.95988" lon="4.87679">
        <ele>289</ele>
        <time>2018-03-13T10:20:28Z</time>
      </trkpt>
      <trkpt lat="45.95992" lon="4.87675">
        <ele>290</ele>
        <time>2018-03-13T10:20:29Z</time>
      </trkpt>
      <trkpt lat="45.95998" lon="4.87668">
        <ele>290</ele>
        <time>2018-03-13T10:20:31Z</time>
      </trkpt>
      <trkpt lat="45.96002" lon="4.87664">
        <ele>290</ele>
        <time>2018-03-13T10:20:32Z</time>
      </trkpt>
      <trkpt lat="45.96007" lon="4.8766">
        <ele>290</ele>
        <time>2018-03-13T10:20:33Z</time>
      </trkpt>
      <trkpt lat="45.9601" lon="4.87655">
        <ele>289</ele>
        <time>2018-03-13T10:20:34Z</time>
      </trkpt>
      <trkpt lat="45.96014" lon="4.87651">
        <ele>289</ele>
        <time>2018-03-13T10:20:35Z</time>
      </trkpt>
      <trkpt lat="45.96017" lon="4.87647">
        <ele>289</ele>
        <time>2018-03-13T10:20:36Z</time>
      </trkpt>
      <trkpt lat="45.96021" lon="4.87643">
        <ele>289</ele>
        <time>2018-03-13T10:20:37Z</time>
      </trkpt>
      <trkpt lat="45.96025" lon="4.87638">
        <ele>289</ele>
        <time>2018-03-13T10:20:38Z</time>
      </trkpt>
      <trkpt lat="45.96031" lon="4.8763">
        <ele>289</ele>
        <time>2018-03-13T10:20:40Z</time>
      </trkpt>
      <trkpt lat="45.96036" lon="4.87623">
        <ele>289</ele>
        <time>2018-03-13T10:20:41Z</time>
      </trkpt>
      <trkpt lat="45.9604" lon="4.87618">
        <ele>289</ele>
        <time>2018-03-13T10:20:42Z</time>
      </trkpt>
      <trkpt lat="45.96043" lon="4.87614">
        <ele>289</ele>
        <time>2018-03-13T10:20:43Z</time>
      </trkpt>
      <trkpt lat="45.96047" lon="4.8761">
        <ele>289</ele>
        <time>2018-03-13T10:20:44Z</time>
      </trkpt>
      <trkpt lat="45.96051" lon="4.87606">
        <ele>289</ele>
        <time>2018-03-13T10:20:45Z</time>
      </trkpt>
      <trkpt lat="45.96056" lon="4.87601">
        <ele>289</ele>
        <time>2018-03-13T10:20:46Z</time>
      </trkpt>
      <trkpt lat="45.9606" lon="4.87597">
        <ele>288</ele>
        <time>2018-03-13T10:20:47Z</time>
      </trkpt>
      <trkpt lat="45.96064" lon="4.87593">
        <ele>288</ele>
        <time>2018-03-13T10:20:48Z</time>
      </trkpt>
      <trkpt lat="45.96068" lon="4.87589">
        <ele>288</ele>
        <time>2018-03-13T10:20:49Z</time>
      </trkpt>
      <trkpt lat="45.96072" lon="4.87584">
        <ele>288</ele>
        <time>2018-03-13T10:20:50Z</time>
      </trkpt>
      <trkpt lat="45.96075" lon="4.8758">
        <ele>288</ele>
        <time>2018-03-13T10:20:51Z</time>
      </trkpt>
      <trkpt lat="45.96079" lon="4.87575">
        <ele>288</ele>
        <time>2018-03-13T10:20:52Z</time>
      </trkpt>
      <trkpt lat="45.96083" lon="4.87571">
        <ele>288</ele>
        <time>2018-03-13T10:20:53Z</time>
      </trkpt>
      <trkpt lat="45.96087" lon="4.87567">
        <ele>287</ele>
        <time>2018-03-13T10:20:54Z</time>
      </trkpt>
      <trkpt lat="45.96091" lon="4.87563">
        <ele>287</ele>
        <time>2018-03-13T10:20:55Z</time>
      </trkpt>
      <trkpt lat="45.96095" lon="4.87558">
        <ele>287</ele>
        <time>2018-03-13T10:20:56Z</time>
      </trkpt>
      <trkpt lat="45.96099" lon="4.87551">
        <ele>287</ele>
        <time>2018-03-13T10:20:57Z</time>
      </trkpt>
      <trkpt lat="45.96103" lon="4.87546">
        <ele>287</ele>
        <time>2018-03-13T10:20:58Z</time>
      </trkpt>
      <trkpt lat="45.96107" lon="4.87542">
        <ele>287</ele>
        <time>2018-03-13T10:20:59Z</time>
      </trkpt>
      <trkpt lat="45.96112" lon="4.87536">
        <ele>287</ele>
        <time>2018-03-13T10:21:00Z</time>
      </trkpt>
      <trkpt lat="45.96116" lon="4.87532">
        <ele>287</ele>
        <time>2018-03-13T10:21:01Z</time>
      </trkpt>
      <trkpt lat="45.9612" lon="4.87528">
        <ele>286</ele>
        <time>2018-03-13T10:21:02Z</time>
      </trkpt>
      <trkpt lat="45.96125" lon="4.87523">
        <ele>286</ele>
        <time>2018-03-13T10:21:03Z</time>
      </trkpt>
      <trkpt lat="45.96129" lon="4.87517">
        <ele>286</ele>
        <time>2018-03-13T10:21:04Z</time>
      </trkpt>
      <trkpt lat="45.96133" lon="4.87513">
        <ele>286</ele>
        <time>2018-03-13T10:21:05Z</time>
      </trkpt>
      <trkpt lat="45.96137" lon="4.87507">
        <ele>286</ele>
        <time>2018-03-13T10:21:06Z</time>
      </trkpt>
      <trkpt lat="45.96141" lon="4.87502">
        <ele>286</ele>
        <time>2018-03-13T10:21:07Z</time>
      </trkpt>
      <trkpt lat="45.96145" lon="4.87497">
        <ele>285</ele>
        <time>2018-03-13T10:21:08Z</time>
      </trkpt>
      <trkpt lat="45.96149" lon="4.87492">
        <ele>285</ele>
        <time>2018-03-13T10:21:09Z</time>
      </trkpt>
      <trkpt lat="45.96154" lon="4.87487">
        <ele>285</ele>
        <time>2018-03-13T10:21:10Z</time>
      </trkpt>
      <trkpt lat="45.96158" lon="4.87481">
        <ele>285</ele>
        <time>2018-03-13T10:21:11Z</time>
      </trkpt>
      <trkpt lat="45.96163" lon="4.87476">
        <ele>285</ele>
        <time>2018-03-13T10:21:12Z</time>
      </trkpt>
      <trkpt lat="45.96167" lon="4.87471">
        <ele>284</ele>
        <time>2018-03-13T10:21:13Z</time>
      </trkpt>
      <trkpt lat="45.96172" lon="4.87467">
        <ele>284</ele>
        <time>2018-03-13T10:21:14Z</time>
      </trkpt>
      <trkpt lat="45.96177" lon="4.87462">
        <ele>284</ele>
        <time>2018-03-13T10:21:15Z</time>
      </trkpt>
      <trkpt lat="45.96181" lon="4.87456">
        <ele>284</ele>
        <time>2018-03-13T10:21:16Z</time>
      </trkpt>
      <trkpt lat="45.96186" lon="4.8745">
        <ele>284</ele>
        <time>2018-03-13T10:21:17Z</time>
      </trkpt>
      <trkpt lat="45.96191" lon="4.87445">
        <ele>284</ele>
        <time>2018-03-13T10:21:18Z</time>
      </trkpt>
      <trkpt lat="45.96196" lon="4.87439">
        <ele>284</ele>
        <time>2018-03-13T10:21:19Z</time>
      </trkpt>
      <trkpt lat="45.96201" lon="4.87434">
        <ele>284</ele>
        <time>2018-03-13T10:21:20Z</time>
      </trkpt>
      <trkpt lat="45.96206" lon="4.87428">
        <ele>284</ele>
        <time>2018-03-13T10:21:21Z</time>
      </trkpt>
      <trkpt lat="45.96211" lon="4.87423">
        <ele>284</ele>
        <time>2018-03-13T10:21:22Z</time>
      </trkpt>
      <trkpt lat="45.96216" lon="4.87418">
        <ele>284</ele>
        <time>2018-03-13T10:21:23Z</time>
      </trkpt>
      <trkpt lat="45.96221" lon="4.87413">
        <ele>283</ele>
        <time>2018-03-13T10:21:24Z</time>
      </trkpt>
      <trkpt lat="45.96225" lon="4.87408">
        <ele>283</ele>
        <time>2018-03-13T10:21:25Z</time>
      </trkpt>
      <trkpt lat="45.96229" lon="4.87403">
        <ele>283</ele>
        <time>2018-03-13T10:21:26Z</time>
      </trkpt>
      <trkpt lat="45.96233" lon="4.87397">
        <ele>283</ele>
        <time>2018-03-13T10:21:27Z</time>
      </trkpt>
      <trkpt lat="45.96237" lon="4.87392">
        <ele>283</ele>
        <time>2018-03-13T10:21:28Z</time>
      </trkpt>
      <trkpt lat="45.96242" lon="4.87387">
        <ele>283</ele>
        <time>2018-03-13T10:21:29Z</time>
      </trkpt>
      <trkpt lat="45.96247" lon="4.87382">
        <ele>283</ele>
        <time>2018-03-13T10:21:30Z</time>
      </trkpt>
      <trkpt lat="45.9625" lon="4.87374">
        <ele>283</ele>
        <time>2018-03-13T10:21:31Z</time>
      </trkpt>
      <trkpt lat="45.96255" lon="4.87369">
        <ele>283</ele>
        <time>2018-03-13T10:21:32Z</time>
      </trkpt>
      <trkpt lat="45.96259" lon="4.87363">
        <ele>283</ele>
        <time>2018-03-13T10:21:33Z</time>
      </trkpt>
      <trkpt lat="45.96264" lon="4.87358">
        <ele>283</ele>
        <time>2018-03-13T10:21:34Z</time>
      </trkpt>
      <trkpt lat="45.96268" lon="4.87352">
        <ele>283</ele>
        <time>2018-03-13T10:21:35Z</time>
      </trkpt>
      <trkpt lat="45.96273" lon="4.87346">
        <ele>283</ele>
        <time>2018-03-13T10:21:36Z</time>
      </trkpt>
      <trkpt lat="45.96278" lon="4.87341">
        <ele>284</ele>
        <time>2018-03-13T10:21:37Z</time>
      </trkpt>
      <trkpt lat="45.96282" lon="4.87336">
        <ele>284</ele>
        <time>2018-03-13T10:21:38Z</time>
      </trkpt>
      <trkpt lat="45.96287" lon="4.8733">
        <ele>283</ele>
        <time>2018-03-13T10:21:39Z</time>
      </trkpt>
      <trkpt lat="45.96291" lon="4.87324">
        <ele>283</ele>
        <time>2018-03-13T10:21:40Z</time>
      </trkpt>
      <trkpt lat="45.96294" lon="4.87319">
        <ele>283</ele>
        <time>2018-03-13T10:21:41Z</time>
      </trkpt>
      <trkpt lat="45.96298" lon="4.87314">
        <ele>283</ele>
        <time>2018-03-13T10:21:42Z</time>
      </trkpt>
      <trkpt lat="45.96303" lon="4.87308">
        <ele>283</ele>
        <time>2018-03-13T10:21:43Z</time>
      </trkpt>
      <trkpt lat="45.96307" lon="4.87303">
        <ele>283</ele>
        <time>2018-03-13T10:21:44Z</time>
      </trkpt>
      <trkpt lat="45.96311" lon="4.87298">
        <ele>283</ele>
        <time>2018-03-13T10:21:45Z</time>
      </trkpt>
      <trkpt lat="45.96315" lon="4.87292">
        <ele>283</ele>
        <time>2018-03-13T10:21:46Z</time>
      </trkpt>
      <trkpt lat="45.96319" lon="4.87287">
        <ele>283</ele>
        <time>2018-03-13T10:21:47Z</time>
      </trkpt>
      <trkpt lat="45.96323" lon="4.87281">
        <ele>283</ele>
        <time>2018-03-13T10:21:48Z</time>
      </trkpt>
      <trkpt lat="45.96328" lon="4.87276">
        <ele>283</ele>
        <time>2018-03-13T10:21:49Z</time>
      </trkpt>
      <trkpt lat="45.96332" lon="4.8727">
        <ele>283</ele>
        <time>2018-03-13T10:21:50Z</time>
      </trkpt>
      <trkpt lat="45.96337" lon="4.87265">
        <ele>283</ele>
        <time>2018-03-13T10:21:51Z</time>
      </trkpt>
      <trkpt lat="45.96342" lon="4.87259">
        <ele>283</ele>
        <time>2018-03-13T10:21:52Z</time>
      </trkpt>
      <trkpt lat="45.96345" lon="4.87254">
        <ele>283</ele>
        <time>2018-03-13T10:21:53Z</time>
      </trkpt>
      <trkpt lat="45.96349" lon="4.87248">
        <ele>283</ele>
        <time>2018-03-13T10:21:54Z</time>
      </trkpt>
      <trkpt lat="45.96353" lon="4.87244">
        <ele>282</ele>
        <time>2018-03-13T10:21:55Z</time>
      </trkpt>
      <trkpt lat="45.96357" lon="4.87238">
        <ele>282</ele>
        <time>2018-03-13T10:21:56Z</time>
      </trkpt>
      <trkpt lat="45.9636" lon="4.87232">
        <ele>282</ele>
        <time>2018-03-13T10:21:57Z</time>
      </trkpt>
      <trkpt lat="45.96365" lon="4.87225">
        <ele>282</ele>
        <time>2018-03-13T10:21:58Z</time>
      </trkpt>
      <trkpt lat="45.96369" lon="4.87219">
        <ele>282</ele>
        <time>2018-03-13T10:21:59Z</time>
      </trkpt>
      <trkpt lat="45.96375" lon="4.87212">
        <ele>282</ele>
        <time>2018-03-13T10:22:00Z</time>
      </trkpt>
      <trkpt lat="45.96379" lon="4.87206">
        <ele>282</ele>
        <time>2018-03-13T10:22:01Z</time>
      </trkpt>
      <trkpt lat="45.96384" lon="4.872">
        <ele>282</ele>
        <time>2018-03-13T10:22:02Z</time>
      </trkpt>
      <trkpt lat="45.96389" lon="4.87194">
        <ele>282</ele>
        <time>2018-03-13T10:22:03Z</time>
      </trkpt>
      <trkpt lat="45.96394" lon="4.87188">
        <ele>282</ele>
        <time>2018-03-13T10:22:04Z</time>
      </trkpt>
      <trkpt lat="45.96399" lon="4.87182">
        <ele>282</ele>
        <time>2018-03-13T10:22:05Z</time>
      </trkpt>
      <trkpt lat="45.96403" lon="4.87177">
        <ele>281</ele>
        <time>2018-03-13T10:22:06Z</time>
      </trkpt>
      <trkpt lat="45.96407" lon="4.87171">
        <ele>281</ele>
        <time>2018-03-13T10:22:07Z</time>
      </trkpt>
      <trkpt lat="45.96412" lon="4.87166">
        <ele>281</ele>
        <time>2018-03-13T10:22:08Z</time>
      </trkpt>
      <trkpt lat="45.96415" lon="4.8716">
        <ele>281</ele>
        <time>2018-03-13T10:22:09Z</time>
      </trkpt>
      <trkpt lat="45.96422" lon="4.87152">
        <ele>281</ele>
        <time>2018-03-13T10:22:11Z</time>
      </trkpt>
      <trkpt lat="45.96425" lon="4.87146">
        <ele>281</ele>
        <time>2018-03-13T10:22:12Z</time>
      </trkpt>
      <trkpt lat="45.96429" lon="4.87142">
        <ele>281</ele>
        <time>2018-03-13T10:22:13Z</time>
      </trkpt>
      <trkpt lat="45.96433" lon="4.87137">
        <ele>281</ele>
        <time>2018-03-13T10:22:14Z</time>
      </trkpt>
      <trkpt lat="45.96437" lon="4.87132">
        <ele>281</ele>
        <time>2018-03-13T10:22:15Z</time>
      </trkpt>
      <trkpt lat="45.96441" lon="4.87126">
        <ele>281</ele>
        <time>2018-03-13T10:22:16Z</time>
      </trkpt>
      <trkpt lat="45.96445" lon="4.87121">
        <ele>281</ele>
        <time>2018-03-13T10:22:17Z</time>
      </trkpt>
      <trkpt lat="45.96449" lon="4.87117">
        <ele>281</ele>
        <time>2018-03-13T10:22:18Z</time>
      </trkpt>
      <trkpt lat="45.96455" lon="4.87109">
        <ele>281</ele>
        <time>2018-03-13T10:22:20Z</time>
      </trkpt>
      <trkpt lat="45.96458" lon="4.87105">
        <ele>281</ele>
        <time>2018-03-13T10:22:21Z</time>
      </trkpt>
      <trkpt lat="45.96462" lon="4.87099">
        <ele>282</ele>
        <time>2018-03-13T10:22:22Z</time>
      </trkpt>
      <trkpt lat="45.96466" lon="4.87095">
        <ele>282</ele>
        <time>2018-03-13T10:22:23Z</time>
      </trkpt>
      <trkpt lat="45.9647" lon="4.87089">
        <ele>282</ele>
        <time>2018-03-13T10:22:24Z</time>
      </trkpt>
      <trkpt lat="45.96474" lon="4.87085">
        <ele>282</ele>
        <time>2018-03-13T10:22:25Z</time>
      </trkpt>
      <trkpt lat="45.9648" lon="4.87076">
        <ele>282</ele>
        <time>2018-03-13T10:22:27Z</time>
      </trkpt>
      <trkpt lat="45.96483" lon="4.87071">
        <ele>282</ele>
        <time>2018-03-13T10:22:28Z</time>
      </trkpt>
      <trkpt lat="45.96489" lon="4.87063">
        <ele>282</ele>
        <time>2018-03-13T10:22:30Z</time>
      </trkpt>
      <trkpt lat="45.9649" lon="4.87061">
        <ele>282</ele>
        <time>2018-03-13T10:22:31Z</time>
      </trkpt>
      <trkpt lat="45.96496" lon="4.87054">
        <ele>281</ele>
        <time>2018-03-13T10:22:33Z</time>
      </trkpt>
      <trkpt lat="45.96497" lon="4.87052">
        <ele>281</ele>
        <time>2018-03-13T10:22:34Z</time>
      </trkpt>
      <trkpt lat="45.96506" lon="4.87051">
        <ele>283</ele>
        <time>2018-03-13T10:22:38Z</time>
      </trkpt>
      <trkpt lat="45.96508" lon="4.87052">
        <ele>283</ele>
        <time>2018-03-13T10:22:39Z</time>
      </trkpt>
      <trkpt lat="45.96514" lon="4.87059">
        <ele>283</ele>
        <time>2018-03-13T10:22:42Z</time>
      </trkpt>
      <trkpt lat="45.96516" lon="4.87062">
        <ele>283</ele>
        <time>2018-03-13T10:22:43Z</time>
      </trkpt>
      <trkpt lat="45.96522" lon="4.87068">
        <ele>283</ele>
        <time>2018-03-13T10:22:46Z</time>
      </trkpt>
      <trkpt lat="45.96524" lon="4.87069">
        <ele>283</ele>
        <time>2018-03-13T10:22:47Z</time>
      </trkpt>
      <trkpt lat="45.96531" lon="4.87065">
        <ele>283</ele>
        <time>2018-03-13T10:22:51Z</time>
      </trkpt>
      <trkpt lat="45.96533" lon="4.87063">
        <ele>283</ele>
        <time>2018-03-13T10:22:52Z</time>
      </trkpt>
      <trkpt lat="45.96542" lon="4.87066">
        <ele>283</ele>
        <time>2018-03-13T10:23:00Z</time>
      </trkpt>
      <trkpt lat="45.96543" lon="4.87067">
        <ele>283</ele>
        <time>2018-03-13T10:23:01Z</time>
      </trkpt>
      <trkpt lat="45.96551" lon="4.87069">
        <ele>283</ele>
        <time>2018-03-13T10:23:07Z</time>
      </trkpt>
      <trkpt lat="45.96553" lon="4.87069">
        <ele>283</ele>
        <time>2018-03-13T10:23:08Z</time>
      </trkpt>
      <trkpt lat="45.96558" lon="4.87061">
        <ele>283</ele>
        <time>2018-03-13T10:23:12Z</time>
      </trkpt>
      <trkpt lat="45.96559" lon="4.87057">
        <ele>283</ele>
        <time>2018-03-13T10:23:13Z</time>
      </trkpt>
      <trkpt lat="45.96558" lon="4.87046">
        <ele>283</ele>
        <time>2018-03-13T10:23:16Z</time>
      </trkpt>
      <trkpt lat="45.96558" lon="4.87042">
        <ele>283</ele>
        <time>2018-03-13T10:23:17Z</time>
      </trkpt>
      <trkpt lat="45.96555" lon="4.87032">
        <ele>283</ele>
        <time>2018-03-13T10:23:20Z</time>
      </trkpt>
      <trkpt lat="45.96553" lon="4.87029">
        <ele>283</ele>
        <time>2018-03-13T10:23:21Z</time>
      </trkpt>
      <trkpt lat="45.96547" lon="4.87029">
        <ele>283</ele>
        <time>2018-03-13T10:23:35Z</time>
      </trkpt>
      <trkpt lat="45.96547" lon="4.87029">
        <ele>283</ele>
        <time>2018-03-13T10:23:36Z</time>
      </trkpt>
      <trkpt lat="45.96547" lon="4.87029">
        <ele>283</ele>
        <time>2018-03-13T10:23:37Z</time>
      </trkpt>
      <trkpt lat="45.96548" lon="4.87029">
        <ele>283</ele>
        <time>2018-03-13T10:23:38Z</time>
      </trkpt>
      <trkpt lat="45.96548" lon="4.87029">
        <ele>283</ele>
        <time>2018-03-13T10:23:41Z</time>
      </trkpt>
      <trkpt lat="45.96548" lon="4.87029">
        <ele>283</ele>
        <time>2018-03-13T10:23:42Z</time>
      </trkpt>
      <trkpt lat="45.96549" lon="4.87031">
        <ele>283</ele>
        <time>2018-03-13T10:23:46Z</time>
      </trkpt>
      <trkpt lat="45.96549" lon="4.87031">
        <ele>283</ele>
        <time>2018-03-13T10:23:47Z</time>
      </trkpt>
      <trkpt lat="45.96549" lon="4.87031">
        <ele>283</ele>
        <time>2018-03-13T10:23:48Z</time>
      </trkpt>
      <trkpt lat="45.96549" lon="4.87031">
        <ele>283</ele>
        <time>2018-03-13T10:23:49Z</time>
      </trkpt>
      <trkpt lat="45.96549" lon="4.8703">
        <ele>283</ele>
        <time>2018-03-13T10:23:50Z</time>
      </trkpt>
      <trkpt lat="45.96547" lon="4.8702">
        <ele>283</ele>
        <time>2018-03-13T10:35:09Z</time>
      </trkpt>
      <trkpt lat="45.96547" lon="4.87017">
        <ele>283</ele>
        <time>2018-03-13T10:35:10Z</time>
      </trkpt>
      <trkpt lat="45.96545" lon="4.87005">
        <ele>283</ele>
        <time>2018-03-13T10:35:14Z</time>
      </trkpt>
      <trkpt lat="45.96545" lon="4.87001">
        <ele>283</ele>
        <time>2018-03-13T10:35:15Z</time>
      </trkpt>
      <trkpt lat="45.96545" lon="4.86991">
        <ele>283</ele>
        <time>2018-03-13T10:35:18Z</time>
      </trkpt>
      <trkpt lat="45.96546" lon="4.86988">
        <ele>283</ele>
        <time>2018-03-13T10:35:19Z</time>
      </trkpt>
      <trkpt lat="45.96551" lon="4.8698">
        <ele>283</ele>
        <time>2018-03-13T10:35:22Z</time>
      </trkpt>
      <trkpt lat="45.96553" lon="4.86977">
        <ele>283</ele>
        <time>2018-03-13T10:35:23Z</time>
      </trkpt>
      <trkpt lat="45.96557" lon="4.8697">
        <ele>283</ele>
        <time>2018-03-13T10:35:25Z</time>
      </trkpt>
      <trkpt lat="45.96564" lon="4.8696">
        <ele>284</ele>
        <time>2018-03-13T10:35:26Z</time>
      </trkpt>
      <trkpt lat="45.9657" lon="4.86952">
        <ele>284</ele>
        <time>2018-03-13T10:35:29Z</time>
      </trkpt>
      <trkpt lat="45.96571" lon="4.86949">
        <ele>284</ele>
        <time>2018-03-13T10:35:30Z</time>
      </trkpt>
      <trkpt lat="45.96575" lon="4.86943">
        <ele>284</ele>
        <time>2018-03-13T10:35:32Z</time>
      </trkpt>
      <trkpt lat="45.96577" lon="4.86939">
        <ele>284</ele>
        <time>2018-03-13T10:35:33Z</time>
      </trkpt>
      <trkpt lat="45.96583" lon="4.86929">
        <ele>284</ele>
        <time>2018-03-13T10:35:36Z</time>
      </trkpt>
      <trkpt lat="45.96585" lon="4.86926">
        <ele>285</ele>
        <time>2018-03-13T10:35:37Z</time>
      </trkpt>
      <trkpt lat="45.96589" lon="4.86919">
        <ele>285</ele>
        <time>2018-03-13T10:35:39Z</time>
      </trkpt>
      <trkpt lat="45.96595" lon="4.8691">
        <ele>286</ele>
        <time>2018-03-13T10:35:40Z</time>
      </trkpt>
      <trkpt lat="45.966" lon="4.869">
        <ele>286</ele>
        <time>2018-03-13T10:35:44Z</time>
      </trkpt>
      <trkpt lat="45.96602" lon="4.86898">
        <ele>286</ele>
        <time>2018-03-13T10:35:45Z</time>
      </trkpt>
      <trkpt lat="45.96607" lon="4.86888">
        <ele>287</ele>
        <time>2018-03-13T10:35:47Z</time>
      </trkpt>
      <trkpt lat="45.96608" lon="4.86887">
        <ele>287</ele>
        <time>2018-03-13T10:35:48Z</time>
      </trkpt>
      <trkpt lat="45.96613" lon="4.86879">
        <ele>287</ele>
        <time>2018-03-13T10:35:52Z</time>
      </trkpt>
      <trkpt lat="45.96619" lon="4.8687">
        <ele>287</ele>
        <time>2018-03-13T10:35:53Z</time>
      </trkpt>
      <trkpt lat="45.96624" lon="4.86863">
        <ele>287</ele>
        <time>2018-03-13T10:35:56Z</time>
      </trkpt>
      <trkpt lat="45.96626" lon="4.8686">
        <ele>287</ele>
        <time>2018-03-13T10:35:57Z</time>
      </trkpt>
      <trkpt lat="45.96628" lon="4.86857">
        <ele>287</ele>
        <time>2018-03-13T10:35:58Z</time>
      </trkpt>
      <trkpt lat="45.96633" lon="4.86847">
        <ele>287</ele>
        <time>2018-03-13T10:35:59Z</time>
      </trkpt>
      <trkpt lat="45.96639" lon="4.86838">
        <ele>287</ele>
        <time>2018-03-13T10:36:02Z</time>
      </trkpt>
      <trkpt lat="45.9664" lon="4.86835">
        <ele>287</ele>
        <time>2018-03-13T10:36:03Z</time>
      </trkpt>
      <trkpt lat="45.96645" lon="4.86827">
        <ele>288</ele>
        <time>2018-03-13T10:36:04Z</time>
      </trkpt>
      <trkpt lat="45.96647" lon="4.86823">
        <ele>288</ele>
        <time>2018-03-13T10:36:05Z</time>
      </trkpt>
      <trkpt lat="45.96653" lon="4.86815">
        <ele>288</ele>
        <time>2018-03-13T10:36:08Z</time>
      </trkpt>
      <trkpt lat="45.96656" lon="4.86808">
        <ele>288</ele>
        <time>2018-03-13T10:36:09Z</time>
      </trkpt>
      <trkpt lat="45.96661" lon="4.86799">
        <ele>288</ele>
        <time>2018-03-13T10:36:11Z</time>
      </trkpt>
      <trkpt lat="45.96664" lon="4.86795">
        <ele>288</ele>
        <time>2018-03-13T10:36:12Z</time>
      </trkpt>
      <trkpt lat="45.96666" lon="4.86791">
        <ele>288</ele>
        <time>2018-03-13T10:36:14Z</time>
      </trkpt>
      <trkpt lat="45.96671" lon="4.86783">
        <ele>289</ele>
        <time>2018-03-13T10:36:15Z</time>
      </trkpt>
      <trkpt lat="45.96675" lon="4.86777">
        <ele>289</ele>
        <time>2018-03-13T10:36:18Z</time>
      </trkpt>
      <trkpt lat="45.96677" lon="4.86774">
        <ele>289</ele>
        <time>2018-03-13T10:36:19Z</time>
      </trkpt>
      <trkpt lat="45.96683" lon="4.86765">
        <ele>289</ele>
        <time>2018-03-13T10:36:20Z</time>
      </trkpt>
      <trkpt lat="45.96685" lon="4.86761">
        <ele>289</ele>
        <time>2018-03-13T10:36:21Z</time>
      </trkpt>
      <trkpt lat="45.96691" lon="4.86753">
        <ele>289</ele>
        <time>2018-03-13T10:36:23Z</time>
      </trkpt>
      <trkpt lat="45.96694" lon="4.86749">
        <ele>289</ele>
        <time>2018-03-13T10:36:24Z</time>
      </trkpt>
      <trkpt lat="45.96698" lon="4.8674">
        <ele>289</ele>
        <time>2018-03-13T10:36:26Z</time>
      </trkpt>
      <trkpt lat="45.96699" lon="4.86738">
        <ele>289</ele>
        <time>2018-03-13T10:36:27Z</time>
      </trkpt>
      <trkpt lat="45.96703" lon="4.86733">
        <ele>289</ele>
        <time>2018-03-13T10:36:28Z</time>
      </trkpt>
      <trkpt lat="45.96705" lon="4.86728">
        <ele>289</ele>
        <time>2018-03-13T10:36:29Z</time>
      </trkpt>
      <trkpt lat="45.9671" lon="4.8672">
        <ele>289</ele>
        <time>2018-03-13T10:36:31Z</time>
      </trkpt>
      <trkpt lat="45.96713" lon="4.86716">
        <ele>289</ele>
        <time>2018-03-13T10:36:32Z</time>
      </trkpt>
      <trkpt lat="45.96717" lon="4.86708">
        <ele>289</ele>
        <time>2018-03-13T10:36:34Z</time>
      </trkpt>
      <trkpt lat="45.96718" lon="4.86706">
        <ele>289</ele>
        <time>2018-03-13T10:36:35Z</time>
      </trkpt>
      <trkpt lat="45.96723" lon="4.86698">
        <ele>289</ele>
        <time>2018-03-13T10:36:37Z</time>
      </trkpt>
      <trkpt lat="45.96726" lon="4.86692">
        <ele>289</ele>
        <time>2018-03-13T10:36:38Z</time>
      </trkpt>
      <trkpt lat="45.96731" lon="4.86684">
        <ele>289</ele>
        <time>2018-03-13T10:36:40Z</time>
      </trkpt>
      <trkpt lat="45.96734" lon="4.8668">
        <ele>290</ele>
        <time>2018-03-13T10:36:41Z</time>
      </trkpt>
      <trkpt lat="45.9674" lon="4.86671">
        <ele>290</ele>
        <time>2018-03-13T10:36:44Z</time>
      </trkpt>
      <trkpt lat="45.96742" lon="4.86668">
        <ele>290</ele>
        <time>2018-03-13T10:36:45Z</time>
      </trkpt>
      <trkpt lat="45.96746" lon="4.86661">
        <ele>290</ele>
        <time>2018-03-13T10:36:46Z</time>
      </trkpt>
      <trkpt lat="45.96749" lon="4.86657">
        <ele>290</ele>
        <time>2018-03-13T10:36:47Z</time>
      </trkpt>
      <trkpt lat="45.96755" lon="4.86648">
        <ele>290</ele>
        <time>2018-03-13T10:36:51Z</time>
      </trkpt>
      <trkpt lat="45.96757" lon="4.86644">
        <ele>290</ele>
        <time>2018-03-13T10:36:52Z</time>
      </trkpt>
      <trkpt lat="45.96762" lon="4.86635">
        <ele>289</ele>
        <time>2018-03-13T10:36:53Z</time>
      </trkpt>
      <trkpt lat="45.96765" lon="4.8663">
        <ele>289</ele>
        <time>2018-03-13T10:36:54Z</time>
      </trkpt>
      <trkpt lat="45.9677" lon="4.86621">
        <ele>289</ele>
        <time>2018-03-13T10:36:56Z</time>
      </trkpt>
      <trkpt lat="45.96772" lon="4.86617">
        <ele>289</ele>
        <time>2018-03-13T10:36:57Z</time>
      </trkpt>
      <trkpt lat="45.96778" lon="4.86608">
        <ele>289</ele>
        <time>2018-03-13T10:36:59Z</time>
      </trkpt>
      <trkpt lat="45.96781" lon="4.86604">
        <ele>289</ele>
        <time>2018-03-13T10:37:00Z</time>
      </trkpt>
      <trkpt lat="45.96786" lon="4.86595">
        <ele>289</ele>
        <time>2018-03-13T10:37:02Z</time>
      </trkpt>
      <trkpt lat="45.96788" lon="4.8659">
        <ele>289</ele>
        <time>2018-03-13T10:37:03Z</time>
      </trkpt>
      <trkpt lat="45.96794" lon="4.86582">
        <ele>290</ele>
        <time>2018-03-13T10:37:05Z</time>
      </trkpt>
      <trkpt lat="45.96796" lon="4.86577">
        <ele>290</ele>
        <time>2018-03-13T10:37:06Z</time>
      </trkpt>
      <trkpt lat="45.96802" lon="4.86567">
        <ele>290</ele>
        <time>2018-03-13T10:37:08Z</time>
      </trkpt>
      <trkpt lat="45.96804" lon="4.86563">
        <ele>290</ele>
        <time>2018-03-13T10:37:09Z</time>
      </trkpt>
      <trkpt lat="45.9681" lon="4.86554">
        <ele>290</ele>
        <time>2018-03-13T10:37:11Z</time>
      </trkpt>
      <trkpt lat="45.96812" lon="4.8655">
        <ele>290</ele>
        <time>2018-03-13T10:37:12Z</time>
      </trkpt>
      <trkpt lat="45.96818" lon="4.8654">
        <ele>290</ele>
        <time>2018-03-13T10:37:14Z</time>
      </trkpt>
      <trkpt lat="45.9682" lon="4.86535">
        <ele>290</ele>
        <time>2018-03-13T10:37:15Z</time>
      </trkpt>
      <trkpt lat="45.96826" lon="4.86526">
        <ele>289</ele>
        <time>2018-03-13T10:37:17Z</time>
      </trkpt>
      <trkpt lat="45.96828" lon="4.86521">
        <ele>289</ele>
        <time>2018-03-13T10:37:18Z</time>
      </trkpt>
      <trkpt lat="45.96833" lon="4.86512">
        <ele>289</ele>
        <time>2018-03-13T10:37:20Z</time>
      </trkpt>
      <trkpt lat="45.96835" lon="4.86506">
        <ele>289</ele>
        <time>2018-03-13T10:37:21Z</time>
      </trkpt>
      <trkpt lat="45.9684" lon="4.86496">
        <ele>289</ele>
        <time>2018-03-13T10:37:23Z</time>
      </trkpt>
      <trkpt lat="45.96842" lon="4.86491">
        <ele>289</ele>
        <time>2018-03-13T10:37:24Z</time>
      </trkpt>
      <trkpt lat="45.96844" lon="4.86485">
        <ele>289</ele>
        <time>2018-03-13T10:37:25Z</time>
      </trkpt>
      <trkpt lat="45.96846" lon="4.8648">
        <ele>289</ele>
        <time>2018-03-13T10:37:26Z</time>
      </trkpt>
      <trkpt lat="45.96848" lon="4.86474">
        <ele>289</ele>
        <time>2018-03-13T10:37:27Z</time>
      </trkpt>
      <trkpt lat="45.9685" lon="4.86467">
        <ele>289</ele>
        <time>2018-03-13T10:37:28Z</time>
      </trkpt>
      <trkpt lat="45.96851" lon="4.86461">
        <ele>289</ele>
        <time>2018-03-13T10:37:29Z</time>
      </trkpt>
      <trkpt lat="45.96853" lon="4.86455">
        <ele>289</ele>
        <time>2018-03-13T10:37:30Z</time>
      </trkpt>
      <trkpt lat="45.96854" lon="4.86448">
        <ele>289</ele>
        <time>2018-03-13T10:37:31Z</time>
      </trkpt>
      <trkpt lat="45.96857" lon="4.86441">
        <ele>290</ele>
        <time>2018-03-13T10:37:32Z</time>
      </trkpt>
      <trkpt lat="45.96858" lon="4.86434">
        <ele>290</ele>
        <time>2018-03-13T10:37:33Z</time>
      </trkpt>
      <trkpt lat="45.96859" lon="4.86427">
        <ele>290</ele>
        <time>2018-03-13T10:37:34Z</time>
      </trkpt>
      <trkpt lat="45.9686" lon="4.86421">
        <ele>290</ele>
        <time>2018-03-13T10:37:35Z</time>
      </trkpt>
      <trkpt lat="45.96862" lon="4.86414">
        <ele>290</ele>
        <time>2018-03-13T10:37:36Z</time>
      </trkpt>
      <trkpt lat="45.96863" lon="4.86407">
        <ele>290</ele>
        <time>2018-03-13T10:37:37Z</time>
      </trkpt>
      <trkpt lat="45.96864" lon="4.864">
        <ele>290</ele>
        <time>2018-03-13T10:37:38Z</time>
      </trkpt>
      <trkpt lat="45.96865" lon="4.86393">
        <ele>290</ele>
        <time>2018-03-13T10:37:39Z</time>
      </trkpt>
      <trkpt lat="45.96866" lon="4.86387">
        <ele>290</ele>
        <time>2018-03-13T10:37:40Z</time>
      </trkpt>
      <trkpt lat="45.96868" lon="4.86374">
        <ele>290</ele>
        <time>2018-03-13T10:37:42Z</time>
      </trkpt>
      <trkpt lat="45.96869" lon="4.86368">
        <ele>290</ele>
        <time>2018-03-13T10:37:43Z</time>
      </trkpt>
      <trkpt lat="45.96869" lon="4.86356">
        <ele>290</ele>
        <time>2018-03-13T10:37:45Z</time>
      </trkpt>
      <trkpt lat="45.9687" lon="4.8635">
        <ele>290</ele>
        <time>2018-03-13T10:37:46Z</time>
      </trkpt>
      <trkpt lat="45.96871" lon="4.86338">
        <ele>290</ele>
        <time>2018-03-13T10:37:48Z</time>
      </trkpt>
      <trkpt lat="45.96871" lon="4.86331">
        <ele>289</ele>
        <time>2018-03-13T10:37:49Z</time>
      </trkpt>
      <trkpt lat="45.96874" lon="4.8632">
        <ele>289</ele>
        <time>2018-03-13T10:37:51Z</time>
      </trkpt>
      <trkpt lat="45.96874" lon="4.86314">
        <ele>289</ele>
        <time>2018-03-13T10:37:52Z</time>
      </trkpt>
      <trkpt lat="45.96876" lon="4.86302">
        <ele>289</ele>
        <time>2018-03-13T10:37:54Z</time>
      </trkpt>
      <trkpt lat="45.96877" lon="4.86296">
        <ele>289</ele>
        <time>2018-03-13T10:37:55Z</time>
      </trkpt>
      <trkpt lat="45.96879" lon="4.86285">
        <ele>289</ele>
        <time>2018-03-13T10:37:57Z</time>
      </trkpt>
      <trkpt lat="45.96879" lon="4.86279">
        <ele>289</ele>
        <time>2018-03-13T10:37:58Z</time>
      </trkpt>
      <trkpt lat="45.96881" lon="4.86267">
        <ele>288</ele>
        <time>2018-03-13T10:38:00Z</time>
      </trkpt>
      <trkpt lat="45.96881" lon="4.86261">
        <ele>288</ele>
        <time>2018-03-13T10:38:01Z</time>
      </trkpt>
      <trkpt lat="45.96882" lon="4.86249">
        <ele>288</ele>
        <time>2018-03-13T10:38:03Z</time>
      </trkpt>
      <trkpt lat="45.96883" lon="4.86244">
        <ele>288</ele>
        <time>2018-03-13T10:38:04Z</time>
      </trkpt>
      <trkpt lat="45.96885" lon="4.86232">
        <ele>289</ele>
        <time>2018-03-13T10:38:06Z</time>
      </trkpt>
      <trkpt lat="45.96886" lon="4.86226">
        <ele>289</ele>
        <time>2018-03-13T10:38:07Z</time>
      </trkpt>
      <trkpt lat="45.96886" lon="4.8622">
        <ele>289</ele>
        <time>2018-03-13T10:38:08Z</time>
      </trkpt>
      <trkpt lat="45.96888" lon="4.86213">
        <ele>289</ele>
        <time>2018-03-13T10:38:09Z</time>
      </trkpt>
      <trkpt lat="45.96889" lon="4.86206">
        <ele>289</ele>
        <time>2018-03-13T10:38:10Z</time>
      </trkpt>
      <trkpt lat="45.9689" lon="4.86199">
        <ele>289</ele>
        <time>2018-03-13T10:38:11Z</time>
      </trkpt>
      <trkpt lat="45.96891" lon="4.86193">
        <ele>289</ele>
        <time>2018-03-13T10:38:12Z</time>
      </trkpt>
      <trkpt lat="45.96891" lon="4.86185">
        <ele>289</ele>
        <time>2018-03-13T10:38:13Z</time>
      </trkpt>
      <trkpt lat="45.96892" lon="4.86178">
        <ele>289</ele>
        <time>2018-03-13T10:38:14Z</time>
      </trkpt>
      <trkpt lat="45.96892" lon="4.86171">
        <ele>289</ele>
        <time>2018-03-13T10:38:15Z</time>
      </trkpt>
      <trkpt lat="45.96893" lon="4.86163">
        <ele>289</ele>
        <time>2018-03-13T10:38:16Z</time>
      </trkpt>
      <trkpt lat="45.96893" lon="4.86155">
        <ele>289</ele>
        <time>2018-03-13T10:38:17Z</time>
      </trkpt>
      <trkpt lat="45.96895" lon="4.86149">
        <ele>289</ele>
        <time>2018-03-13T10:38:18Z</time>
      </trkpt>
      <trkpt lat="45.96896" lon="4.86141">
        <ele>289</ele>
        <time>2018-03-13T10:38:19Z</time>
      </trkpt>
      <trkpt lat="45.96898" lon="4.86134">
        <ele>289</ele>
        <time>2018-03-13T10:38:20Z</time>
      </trkpt>
      <trkpt lat="45.969" lon="4.86127">
        <ele>289</ele>
        <time>2018-03-13T10:38:21Z</time>
      </trkpt>
      <trkpt lat="45.96901" lon="4.8612">
        <ele>289</ele>
        <time>2018-03-13T10:38:22Z</time>
      </trkpt>
      <trkpt lat="45.96902" lon="4.86112">
        <ele>289</ele>
        <time>2018-03-13T10:38:23Z</time>
      </trkpt>
      <trkpt lat="45.96903" lon="4.86104">
        <ele>288</ele>
        <time>2018-03-13T10:38:24Z</time>
      </trkpt>
      <trkpt lat="45.96905" lon="4.86097">
        <ele>288</ele>
        <time>2018-03-13T10:38:25Z</time>
      </trkpt>
      <trkpt lat="45.96906" lon="4.86089">
        <ele>288</ele>
        <time>2018-03-13T10:38:26Z</time>
      </trkpt>
      <trkpt lat="45.96906" lon="4.8608">
        <ele>288</ele>
        <time>2018-03-13T10:38:27Z</time>
      </trkpt>
      <trkpt lat="45.96906" lon="4.86072">
        <ele>288</ele>
        <time>2018-03-13T10:38:28Z</time>
      </trkpt>
      <trkpt lat="45.96906" lon="4.86064">
        <ele>288</ele>
        <time>2018-03-13T10:38:29Z</time>
      </trkpt>
      <trkpt lat="45.96907" lon="4.86056">
        <ele>288</ele>
        <time>2018-03-13T10:38:30Z</time>
      </trkpt>
      <trkpt lat="45.96908" lon="4.86048">
        <ele>289</ele>
        <time>2018-03-13T10:38:31Z</time>
      </trkpt>
      <trkpt lat="45.96909" lon="4.86039">
        <ele>289</ele>
        <time>2018-03-13T10:38:32Z</time>
      </trkpt>
      <trkpt lat="45.9691" lon="4.86033">
        <ele>289</ele>
        <time>2018-03-13T10:38:33Z</time>
      </trkpt>
      <trkpt lat="45.96911" lon="4.86024">
        <ele>289</ele>
        <time>2018-03-13T10:38:34Z</time>
      </trkpt>
      <trkpt lat="45.96912" lon="4.86017">
        <ele>289</ele>
        <time>2018-03-13T10:38:35Z</time>
      </trkpt>
      <trkpt lat="45.96914" lon="4.8601">
        <ele>288</ele>
        <time>2018-03-13T10:38:36Z</time>
      </trkpt>
      <trkpt lat="45.96915" lon="4.86003">
        <ele>288</ele>
        <time>2018-03-13T10:38:37Z</time>
      </trkpt>
      <trkpt lat="45.96917" lon="4.85995">
        <ele>288</ele>
        <time>2018-03-13T10:38:38Z</time>
      </trkpt>
      <trkpt lat="45.96919" lon="4.85988">
        <ele>287</ele>
        <time>2018-03-13T10:38:39Z</time>
      </trkpt>
      <trkpt lat="45.96917" lon="4.85981">
        <ele>287</ele>
        <time>2018-03-13T10:38:40Z</time>
      </trkpt>
      <trkpt lat="45.96919" lon="4.85974">
        <ele>287</ele>
        <time>2018-03-13T10:38:41Z</time>
      </trkpt>
      <trkpt lat="45.96921" lon="4.85966">
        <ele>287</ele>
        <time>2018-03-13T10:38:42Z</time>
      </trkpt>
      <trkpt lat="45.96922" lon="4.85958">
        <ele>287</ele>
        <time>2018-03-13T10:38:43Z</time>
      </trkpt>
      <trkpt lat="45.96924" lon="4.85951">
        <ele>287</ele>
        <time>2018-03-13T10:38:44Z</time>
      </trkpt>
      <trkpt lat="45.96926" lon="4.85942">
        <ele>286</ele>
        <time>2018-03-13T10:38:45Z</time>
      </trkpt>
      <trkpt lat="45.96928" lon="4.85934">
        <ele>286</ele>
        <time>2018-03-13T10:38:46Z</time>
      </trkpt>
      <trkpt lat="45.96931" lon="4.85927">
        <ele>286</ele>
        <time>2018-03-13T10:38:47Z</time>
      </trkpt>
      <trkpt lat="45.96934" lon="4.85918">
        <ele>286</ele>
        <time>2018-03-13T10:38:48Z</time>
      </trkpt>
      <trkpt lat="45.96936" lon="4.8591">
        <ele>286</ele>
        <time>2018-03-13T10:38:49Z</time>
      </trkpt>
      <trkpt lat="45.96938" lon="4.85903">
        <ele>285</ele>
        <time>2018-03-13T10:38:50Z</time>
      </trkpt>
      <trkpt lat="45.9694" lon="4.85895">
        <ele>285</ele>
        <time>2018-03-13T10:38:51Z</time>
      </trkpt>
      <trkpt lat="45.96942" lon="4.85888">
        <ele>285</ele>
        <time>2018-03-13T10:38:52Z</time>
      </trkpt>
      <trkpt lat="45.96944" lon="4.8588">
        <ele>285</ele>
        <time>2018-03-13T10:38:53Z</time>
      </trkpt>
      <trkpt lat="45.96946" lon="4.85872">
        <ele>285</ele>
        <time>2018-03-13T10:38:54Z</time>
      </trkpt>
      <trkpt lat="45.96948" lon="4.85864">
        <ele>285</ele>
        <time>2018-03-13T10:38:55Z</time>
      </trkpt>
      <trkpt lat="45.9695" lon="4.85856">
        <ele>285</ele>
        <time>2018-03-13T10:38:56Z</time>
      </trkpt>
      <trkpt lat="45.96952" lon="4.85848">
        <ele>285</ele>
        <time>2018-03-13T10:38:57Z</time>
      </trkpt>
      <trkpt lat="45.96954" lon="4.8584">
        <ele>285</ele>
        <time>2018-03-13T10:38:58Z</time>
      </trkpt>
      <trkpt lat="45.96957" lon="4.85833">
        <ele>285</ele>
        <time>2018-03-13T10:38:59Z</time>
      </trkpt>
      <trkpt lat="45.96958" lon="4.85826">
        <ele>285</ele>
        <time>2018-03-13T10:39:00Z</time>
      </trkpt>
      <trkpt lat="45.9696" lon="4.85818">
        <ele>285</ele>
        <time>2018-03-13T10:39:01Z</time>
      </trkpt>
      <trkpt lat="45.96962" lon="4.85811">
        <ele>285</ele>
        <time>2018-03-13T10:39:02Z</time>
      </trkpt>
      <trkpt lat="45.96964" lon="4.85805">
        <ele>285</ele>
        <time>2018-03-13T10:39:03Z</time>
      </trkpt>
      <trkpt lat="45.96966" lon="4.85797">
        <ele>285</ele>
        <time>2018-03-13T10:39:04Z</time>
      </trkpt>
      <trkpt lat="45.96968" lon="4.8579">
        <ele>285</ele>
        <time>2018-03-13T10:39:05Z</time>
      </trkpt>
      <trkpt lat="45.96971" lon="4.85782">
        <ele>285</ele>
        <time>2018-03-13T10:39:06Z</time>
      </trkpt>
      <trkpt lat="45.96973" lon="4.85775">
        <ele>285</ele>
        <time>2018-03-13T10:39:07Z</time>
      </trkpt>
      <trkpt lat="45.96975" lon="4.85767">
        <ele>285</ele>
        <time>2018-03-13T10:39:08Z</time>
      </trkpt>
      <trkpt lat="45.96977" lon="4.8576">
        <ele>285</ele>
        <time>2018-03-13T10:39:09Z</time>
      </trkpt>
      <trkpt lat="45.96979" lon="4.85752">
        <ele>285</ele>
        <time>2018-03-13T10:39:10Z</time>
      </trkpt>
      <trkpt lat="45.96982" lon="4.85743">
        <ele>285</ele>
        <time>2018-03-13T10:39:11Z</time>
      </trkpt>
      <trkpt lat="45.96984" lon="4.85736">
        <ele>285</ele>
        <time>2018-03-13T10:39:12Z</time>
      </trkpt>
      <trkpt lat="45.96987" lon="4.85729">
        <ele>285</ele>
        <time>2018-03-13T10:39:13Z</time>
      </trkpt>
      <trkpt lat="45.96989" lon="4.85723">
        <ele>285</ele>
        <time>2018-03-13T10:39:14Z</time>
      </trkpt>
      <trkpt lat="45.96991" lon="4.85715">
        <ele>285</ele>
        <time>2018-03-13T10:39:15Z</time>
      </trkpt>
      <trkpt lat="45.96993" lon="4.85709">
        <ele>285</ele>
        <time>2018-03-13T10:39:16Z</time>
      </trkpt>
      <trkpt lat="45.96996" lon="4.85702">
        <ele>285</ele>
        <time>2018-03-13T10:39:17Z</time>
      </trkpt>
      <trkpt lat="45.96998" lon="4.85695">
        <ele>285</ele>
        <time>2018-03-13T10:39:18Z</time>
      </trkpt>
      <trkpt lat="45.97" lon="4.85688">
        <ele>285</ele>
        <time>2018-03-13T10:39:19Z</time>
      </trkpt>
      <trkpt lat="45.97001" lon="4.8568">
        <ele>285</ele>
        <time>2018-03-13T10:39:20Z</time>
      </trkpt>
      <trkpt lat="45.97002" lon="4.85673">
        <ele>285</ele>
        <time>2018-03-13T10:39:21Z</time>
      </trkpt>
      <trkpt lat="45.97003" lon="4.85666">
        <ele>286</ele>
        <time>2018-03-13T10:39:22Z</time>
      </trkpt>
      <trkpt lat="45.97005" lon="4.85657">
        <ele>285</ele>
        <time>2018-03-13T10:39:23Z</time>
      </trkpt>
      <trkpt lat="45.97008" lon="4.8565">
        <ele>285</ele>
        <time>2018-03-13T10:39:24Z</time>
      </trkpt>
      <trkpt lat="45.97008" lon="4.85642">
        <ele>284</ele>
        <time>2018-03-13T10:39:25Z</time>
      </trkpt>
      <trkpt lat="45.97011" lon="4.85634">
        <ele>284</ele>
        <time>2018-03-13T10:39:26Z</time>
      </trkpt>
      <trkpt lat="45.97012" lon="4.85627">
        <ele>284</ele>
        <time>2018-03-13T10:39:27Z</time>
      </trkpt>
      <trkpt lat="45.97014" lon="4.85619">
        <ele>284</ele>
        <time>2018-03-13T10:39:28Z</time>
      </trkpt>
      <trkpt lat="45.97016" lon="4.85611">
        <ele>284</ele>
        <time>2018-03-13T10:39:29Z</time>
      </trkpt>
      <trkpt lat="45.97018" lon="4.85604">
        <ele>284</ele>
        <time>2018-03-13T10:39:30Z</time>
      </trkpt>
      <trkpt lat="45.9702" lon="4.85596">
        <ele>284</ele>
        <time>2018-03-13T10:39:31Z</time>
      </trkpt>
      <trkpt lat="45.97022" lon="4.85588">
        <ele>284</ele>
        <time>2018-03-13T10:39:32Z</time>
      </trkpt>
      <trkpt lat="45.97025" lon="4.8558">
        <ele>283</ele>
        <time>2018-03-13T10:39:33Z</time>
      </trkpt>
      <trkpt lat="45.97026" lon="4.85571">
        <ele>283</ele>
        <time>2018-03-13T10:39:34Z</time>
      </trkpt>
      <trkpt lat="45.97029" lon="4.85563">
        <ele>283</ele>
        <time>2018-03-13T10:39:35Z</time>
      </trkpt>
      <trkpt lat="45.97031" lon="4.85554">
        <ele>283</ele>
        <time>2018-03-13T10:39:36Z</time>
      </trkpt>
      <trkpt lat="45.97034" lon="4.85546">
        <ele>282</ele>
        <time>2018-03-13T10:39:37Z</time>
      </trkpt>
      <trkpt lat="45.97036" lon="4.85538">
        <ele>282</ele>
        <time>2018-03-13T10:39:38Z</time>
      </trkpt>
      <trkpt lat="45.97038" lon="4.8553">
        <ele>282</ele>
        <time>2018-03-13T10:39:39Z</time>
      </trkpt>
      <trkpt lat="45.97041" lon="4.85522">
        <ele>282</ele>
        <time>2018-03-13T10:39:40Z</time>
      </trkpt>
      <trkpt lat="45.97044" lon="4.85513">
        <ele>282</ele>
        <time>2018-03-13T10:39:41Z</time>
      </trkpt>
      <trkpt lat="45.97047" lon="4.85506">
        <ele>282</ele>
        <time>2018-03-13T10:39:42Z</time>
      </trkpt>
      <trkpt lat="45.97049" lon="4.85496">
        <ele>281</ele>
        <time>2018-03-13T10:39:43Z</time>
      </trkpt>
      <trkpt lat="45.97052" lon="4.85488">
        <ele>281</ele>
        <time>2018-03-13T10:39:44Z</time>
      </trkpt>
      <trkpt lat="45.97054" lon="4.85481">
        <ele>281</ele>
        <time>2018-03-13T10:39:45Z</time>
      </trkpt>
      <trkpt lat="45.97056" lon="4.85471">
        <ele>281</ele>
        <time>2018-03-13T10:39:46Z</time>
      </trkpt>
      <trkpt lat="45.97059" lon="4.85463">
        <ele>281</ele>
        <time>2018-03-13T10:39:47Z</time>
      </trkpt>
      <trkpt lat="45.9706" lon="4.85455">
        <ele>281</ele>
        <time>2018-03-13T10:39:48Z</time>
      </trkpt>
      <trkpt lat="45.97064" lon="4.85448">
        <ele>281</ele>
        <time>2018-03-13T10:39:49Z</time>
      </trkpt>
      <trkpt lat="45.97067" lon="4.85441">
        <ele>281</ele>
        <time>2018-03-13T10:39:50Z</time>
      </trkpt>
      <trkpt lat="45.9707" lon="4.85432">
        <ele>281</ele>
        <time>2018-03-13T10:39:51Z</time>
      </trkpt>
      <trkpt lat="45.97073" lon="4.85425">
        <ele>281</ele>
        <time>2018-03-13T10:39:52Z</time>
      </trkpt>
      <trkpt lat="45.97075" lon="4.85417">
        <ele>280</ele>
        <time>2018-03-13T10:39:53Z</time>
      </trkpt>
      <trkpt lat="45.97078" lon="4.85409">
        <ele>280</ele>
        <time>2018-03-13T10:39:54Z</time>
      </trkpt>
      <trkpt lat="45.9708" lon="4.85401">
        <ele>281</ele>
        <time>2018-03-13T10:39:55Z</time>
      </trkpt>
      <trkpt lat="45.97083" lon="4.85394">
        <ele>281</ele>
        <time>2018-03-13T10:39:56Z</time>
      </trkpt>
      <trkpt lat="45.97086" lon="4.85385">
        <ele>280</ele>
        <time>2018-03-13T10:39:57Z</time>
      </trkpt>
      <trkpt lat="45.97088" lon="4.85378">
        <ele>280</ele>
        <time>2018-03-13T10:39:58Z</time>
      </trkpt>
      <trkpt lat="45.97091" lon="4.85369">
        <ele>280</ele>
        <time>2018-03-13T10:39:59Z</time>
      </trkpt>
      <trkpt lat="45.97094" lon="4.85361">
        <ele>280</ele>
        <time>2018-03-13T10:40:00Z</time>
      </trkpt>
      <trkpt lat="45.97095" lon="4.85353">
        <ele>280</ele>
        <time>2018-03-13T10:40:01Z</time>
      </trkpt>
      <trkpt lat="45.97098" lon="4.85346">
        <ele>280</ele>
        <time>2018-03-13T10:40:02Z</time>
      </trkpt>
      <trkpt lat="45.971" lon="4.85339">
        <ele>280</ele>
        <time>2018-03-13T10:40:03Z</time>
      </trkpt>
      <trkpt lat="45.97102" lon="4.85331">
        <ele>280</ele>
        <time>2018-03-13T10:40:04Z</time>
      </trkpt>
      <trkpt lat="45.97105" lon="4.85324">
        <ele>280</ele>
        <time>2018-03-13T10:40:05Z</time>
      </trkpt>
      <trkpt lat="45.97108" lon="4.85316">
        <ele>280</ele>
        <time>2018-03-13T10:40:06Z</time>
      </trkpt>
      <trkpt lat="45.97111" lon="4.85308">
        <ele>280</ele>
        <time>2018-03-13T10:40:07Z</time>
      </trkpt>
      <trkpt lat="45.97114" lon="4.85302">
        <ele>280</ele>
        <time>2018-03-13T10:40:08Z</time>
      </trkpt>
      <trkpt lat="45.97118" lon="4.85296">
        <ele>280</ele>
        <time>2018-03-13T10:40:09Z</time>
      </trkpt>
      <trkpt lat="45.97121" lon="4.85289">
        <ele>280</ele>
        <time>2018-03-13T10:40:10Z</time>
      </trkpt>
      <trkpt lat="45.97123" lon="4.85282">
        <ele>280</ele>
        <time>2018-03-13T10:40:11Z</time>
      </trkpt>
      <trkpt lat="45.97127" lon="4.85276">
        <ele>279</ele>
        <time>2018-03-13T10:40:12Z</time>
      </trkpt>
      <trkpt lat="45.97131" lon="4.8527">
        <ele>279</ele>
        <time>2018-03-13T10:40:13Z</time>
      </trkpt>
      <trkpt lat="45.97135" lon="4.85263">
        <ele>279</ele>
        <time>2018-03-13T10:40:14Z</time>
      </trkpt>
      <trkpt lat="45.97138" lon="4.85256">
        <ele>279</ele>
        <time>2018-03-13T10:40:15Z</time>
      </trkpt>
      <trkpt lat="45.97141" lon="4.85249">
        <ele>279</ele>
        <time>2018-03-13T10:40:16Z</time>
      </trkpt>
      <trkpt lat="45.97144" lon="4.85242">
        <ele>279</ele>
        <time>2018-03-13T10:40:17Z</time>
      </trkpt>
      <trkpt lat="45.97147" lon="4.85236">
        <ele>279</ele>
        <time>2018-03-13T10:40:18Z</time>
      </trkpt>
      <trkpt lat="45.9715" lon="4.8523">
        <ele>279</ele>
        <time>2018-03-13T10:40:19Z</time>
      </trkpt>
      <trkpt lat="45.97154" lon="4.85224">
        <ele>279</ele>
        <time>2018-03-13T10:40:20Z</time>
      </trkpt>
      <trkpt lat="45.97158" lon="4.85217">
        <ele>279</ele>
        <time>2018-03-13T10:40:21Z</time>
      </trkpt>
      <trkpt lat="45.97158" lon="4.8521">
        <ele>279</ele>
        <time>2018-03-13T10:40:22Z</time>
      </trkpt>
      <trkpt lat="45.97161" lon="4.85202">
        <ele>279</ele>
        <time>2018-03-13T10:40:23Z</time>
      </trkpt>
      <trkpt lat="45.97164" lon="4.85197">
        <ele>279</ele>
        <time>2018-03-13T10:40:24Z</time>
      </trkpt>
      <trkpt lat="45.97166" lon="4.8519">
        <ele>279</ele>
        <time>2018-03-13T10:40:25Z</time>
      </trkpt>
      <trkpt lat="45.97169" lon="4.85185">
        <ele>278</ele>
        <time>2018-03-13T10:40:26Z</time>
      </trkpt>
      <trkpt lat="45.97172" lon="4.85179">
        <ele>278</ele>
        <time>2018-03-13T10:40:27Z</time>
      </trkpt>
      <trkpt lat="45.97176" lon="4.85172">
        <ele>278</ele>
        <time>2018-03-13T10:40:28Z</time>
      </trkpt>
      <trkpt lat="45.97179" lon="4.85166">
        <ele>278</ele>
        <time>2018-03-13T10:40:29Z</time>
      </trkpt>
      <trkpt lat="45.97181" lon="4.85159">
        <ele>278</ele>
        <time>2018-03-13T10:40:30Z</time>
      </trkpt>
      <trkpt lat="45.97185" lon="4.85152">
        <ele>278</ele>
        <time>2018-03-13T10:40:31Z</time>
      </trkpt>
      <trkpt lat="45.97187" lon="4.85146">
        <ele>278</ele>
        <time>2018-03-13T10:40:32Z</time>
      </trkpt>
      <trkpt lat="45.97191" lon="4.85139">
        <ele>278</ele>
        <time>2018-03-13T10:40:33Z</time>
      </trkpt>
      <trkpt lat="45.97194" lon="4.85133">
        <ele>278</ele>
        <time>2018-03-13T10:40:34Z</time>
      </trkpt>
      <trkpt lat="45.97197" lon="4.85126">
        <ele>278</ele>
        <time>2018-03-13T10:40:35Z</time>
      </trkpt>
      <trkpt lat="45.972" lon="4.85119">
        <ele>278</ele>
        <time>2018-03-13T10:40:36Z</time>
      </trkpt>
      <trkpt lat="45.97204" lon="4.85112">
        <ele>278</ele>
        <time>2018-03-13T10:40:37Z</time>
      </trkpt>
      <trkpt lat="45.97208" lon="4.85105">
        <ele>278</ele>
        <time>2018-03-13T10:40:38Z</time>
      </trkpt>
      <trkpt lat="45.97211" lon="4.85099">
        <ele>278</ele>
        <time>2018-03-13T10:40:39Z</time>
      </trkpt>
      <trkpt lat="45.97214" lon="4.85092">
        <ele>278</ele>
        <time>2018-03-13T10:40:40Z</time>
      </trkpt>
      <trkpt lat="45.97218" lon="4.85085">
        <ele>278</ele>
        <time>2018-03-13T10:40:41Z</time>
      </trkpt>
      <trkpt lat="45.97221" lon="4.85078">
        <ele>278</ele>
        <time>2018-03-13T10:40:42Z</time>
      </trkpt>
      <trkpt lat="45.97224" lon="4.85071">
        <ele>278</ele>
        <time>2018-03-13T10:40:43Z</time>
      </trkpt>
      <trkpt lat="45.97227" lon="4.85063">
        <ele>279</ele>
        <time>2018-03-13T10:40:44Z</time>
      </trkpt>
      <trkpt lat="45.9723" lon="4.85057">
        <ele>279</ele>
        <time>2018-03-13T10:40:45Z</time>
      </trkpt>
      <trkpt lat="45.97233" lon="4.8505">
        <ele>279</ele>
        <time>2018-03-13T10:40:46Z</time>
      </trkpt>
      <trkpt lat="45.97237" lon="4.85044">
        <ele>279</ele>
        <time>2018-03-13T10:40:47Z</time>
      </trkpt>
      <trkpt lat="45.97241" lon="4.85038">
        <ele>279</ele>
        <time>2018-03-13T10:40:48Z</time>
      </trkpt>
      <trkpt lat="45.97244" lon="4.85031">
        <ele>279</ele>
        <time>2018-03-13T10:40:49Z</time>
      </trkpt>
      <trkpt lat="45.97247" lon="4.85024">
        <ele>279</ele>
        <time>2018-03-13T10:40:50Z</time>
      </trkpt>
      <trkpt lat="45.97251" lon="4.85018">
        <ele>279</ele>
        <time>2018-03-13T10:40:51Z</time>
      </trkpt>
      <trkpt lat="45.97254" lon="4.85011">
        <ele>279</ele>
        <time>2018-03-13T10:40:52Z</time>
      </trkpt>
      <trkpt lat="45.97257" lon="4.85004">
        <ele>279</ele>
        <time>2018-03-13T10:40:53Z</time>
      </trkpt>
      <trkpt lat="45.9726" lon="4.84998">
        <ele>279</ele>
        <time>2018-03-13T10:40:54Z</time>
      </trkpt>
      <trkpt lat="45.97263" lon="4.84992">
        <ele>279</ele>
        <time>2018-03-13T10:40:55Z</time>
      </trkpt>
      <trkpt lat="45.97266" lon="4.84984">
        <ele>279</ele>
        <time>2018-03-13T10:40:56Z</time>
      </trkpt>
      <trkpt lat="45.9727" lon="4.84978">
        <ele>279</ele>
        <time>2018-03-13T10:40:57Z</time>
      </trkpt>
      <trkpt lat="45.97272" lon="4.8497">
        <ele>278</ele>
        <time>2018-03-13T10:40:58Z</time>
      </trkpt>
      <trkpt lat="45.97277" lon="4.84963">
        <ele>278</ele>
        <time>2018-03-13T10:40:59Z</time>
      </trkpt>
      <trkpt lat="45.97279" lon="4.84956">
        <ele>278</ele>
        <time>2018-03-13T10:41:00Z</time>
      </trkpt>
      <trkpt lat="45.97283" lon="4.84951">
        <ele>278</ele>
        <time>2018-03-13T10:41:01Z</time>
      </trkpt>
      <trkpt lat="45.97284" lon="4.84945">
        <ele>278</ele>
        <time>2018-03-13T10:41:02Z</time>
      </trkpt>
      <trkpt lat="45.97288" lon="4.84939">
        <ele>278</ele>
        <time>2018-03-13T10:41:03Z</time>
      </trkpt>
      <trkpt lat="45.97291" lon="4.84934">
        <ele>278</ele>
        <time>2018-03-13T10:41:04Z</time>
      </trkpt>
      <trkpt lat="45.97293" lon="4.84928">
        <ele>278</ele>
        <time>2018-03-13T10:41:05Z</time>
      </trkpt>
      <trkpt lat="45.97296" lon="4.84922">
        <ele>278</ele>
        <time>2018-03-13T10:41:06Z</time>
      </trkpt>
      <trkpt lat="45.973" lon="4.84917">
        <ele>278</ele>
        <time>2018-03-13T10:41:07Z</time>
      </trkpt>
      <trkpt lat="45.97304" lon="4.84912">
        <ele>278</ele>
        <time>2018-03-13T10:41:08Z</time>
      </trkpt>
      <trkpt lat="45.97307" lon="4.84908">
        <ele>278</ele>
        <time>2018-03-13T10:41:09Z</time>
      </trkpt>
      <trkpt lat="45.9731" lon="4.84903">
        <ele>278</ele>
        <time>2018-03-13T10:41:10Z</time>
      </trkpt>
      <trkpt lat="45.97314" lon="4.84897">
        <ele>278</ele>
        <time>2018-03-13T10:41:11Z</time>
      </trkpt>
      <trkpt lat="45.97318" lon="4.84891">
        <ele>278</ele>
        <time>2018-03-13T10:41:12Z</time>
      </trkpt>
      <trkpt lat="45.97321" lon="4.84885">
        <ele>278</ele>
        <time>2018-03-13T10:41:13Z</time>
      </trkpt>
      <trkpt lat="45.97324" lon="4.8488">
        <ele>278</ele>
        <time>2018-03-13T10:41:14Z</time>
      </trkpt>
      <trkpt lat="45.97327" lon="4.84874">
        <ele>278</ele>
        <time>2018-03-13T10:41:15Z</time>
      </trkpt>
      <trkpt lat="45.9733" lon="4.84868">
        <ele>278</ele>
        <time>2018-03-13T10:41:16Z</time>
      </trkpt>
      <trkpt lat="45.97336" lon="4.84861">
        <ele>277</ele>
        <time>2018-03-13T10:41:17Z</time>
      </trkpt>
      <trkpt lat="45.97338" lon="4.84855">
        <ele>277</ele>
        <time>2018-03-13T10:41:18Z</time>
      </trkpt>
      <trkpt lat="45.97342" lon="4.84847">
        <ele>277</ele>
        <time>2018-03-13T10:41:19Z</time>
      </trkpt>
      <trkpt lat="45.97344" lon="4.84841">
        <ele>277</ele>
        <time>2018-03-13T10:41:20Z</time>
      </trkpt>
      <trkpt lat="45.97348" lon="4.84832">
        <ele>278</ele>
        <time>2018-03-13T10:41:21Z</time>
      </trkpt>
      <trkpt lat="45.97351" lon="4.84827">
        <ele>278</ele>
        <time>2018-03-13T10:41:22Z</time>
      </trkpt>
      <trkpt lat="45.97354" lon="4.84821">
        <ele>278</ele>
        <time>2018-03-13T10:41:23Z</time>
      </trkpt>
      <trkpt lat="45.97356" lon="4.84815">
        <ele>278</ele>
        <time>2018-03-13T10:41:24Z</time>
      </trkpt>
      <trkpt lat="45.9736" lon="4.84808">
        <ele>278</ele>
        <time>2018-03-13T10:41:25Z</time>
      </trkpt>
      <trkpt lat="45.97362" lon="4.84802">
        <ele>278</ele>
        <time>2018-03-13T10:41:26Z</time>
      </trkpt>
      <trkpt lat="45.97364" lon="4.84795">
        <ele>278</ele>
        <time>2018-03-13T10:41:27Z</time>
      </trkpt>
      <trkpt lat="45.97367" lon="4.84789">
        <ele>278</ele>
        <time>2018-03-13T10:41:28Z</time>
      </trkpt>
      <trkpt lat="45.9737" lon="4.84781">
        <ele>278</ele>
        <time>2018-03-13T10:41:29Z</time>
      </trkpt>
      <trkpt lat="45.97372" lon="4.84773">
        <ele>278</ele>
        <time>2018-03-13T10:41:30Z</time>
      </trkpt>
      <trkpt lat="45.97375" lon="4.84766">
        <ele>278</ele>
        <time>2018-03-13T10:41:31Z</time>
      </trkpt>
      <trkpt lat="45.97377" lon="4.8476">
        <ele>278</ele>
        <time>2018-03-13T10:41:32Z</time>
      </trkpt>
      <trkpt lat="45.97379" lon="4.84754">
        <ele>278</ele>
        <time>2018-03-13T10:41:33Z</time>
      </trkpt>
      <trkpt lat="45.97382" lon="4.84747">
        <ele>278</ele>
        <time>2018-03-13T10:41:34Z</time>
      </trkpt>
      <trkpt lat="45.97385" lon="4.84741">
        <ele>278</ele>
        <time>2018-03-13T10:41:35Z</time>
      </trkpt>
      <trkpt lat="45.97388" lon="4.84733">
        <ele>278</ele>
        <time>2018-03-13T10:41:36Z</time>
      </trkpt>
      <trkpt lat="45.9739" lon="4.84725">
        <ele>278</ele>
        <time>2018-03-13T10:41:37Z</time>
      </trkpt>
      <trkpt lat="45.97393" lon="4.84718">
        <ele>278</ele>
        <time>2018-03-13T10:41:38Z</time>
      </trkpt>
      <trkpt lat="45.97395" lon="4.84711">
        <ele>278</ele>
        <time>2018-03-13T10:41:39Z</time>
      </trkpt>
      <trkpt lat="45.97398" lon="4.84705">
        <ele>278</ele>
        <time>2018-03-13T10:41:40Z</time>
      </trkpt>
      <trkpt lat="45.974" lon="4.84699">
        <ele>278</ele>
        <time>2018-03-13T10:41:41Z</time>
      </trkpt>
      <trkpt lat="45.97402" lon="4.84692">
        <ele>278</ele>
        <time>2018-03-13T10:41:42Z</time>
      </trkpt>
      <trkpt lat="45.97405" lon="4.84684">
        <ele>278</ele>
        <time>2018-03-13T10:41:43Z</time>
      </trkpt>
      <trkpt lat="45.97407" lon="4.84678">
        <ele>277</ele>
        <time>2018-03-13T10:41:44Z</time>
      </trkpt>
      <trkpt lat="45.9741" lon="4.84671">
        <ele>277</ele>
        <time>2018-03-13T10:41:45Z</time>
      </trkpt>
      <trkpt lat="45.97411" lon="4.84664">
        <ele>277</ele>
        <time>2018-03-13T10:41:46Z</time>
      </trkpt>
      <trkpt lat="45.97413" lon="4.84657">
        <ele>277</ele>
        <time>2018-03-13T10:41:47Z</time>
      </trkpt>
      <trkpt lat="45.97415" lon="4.84651">
        <ele>277</ele>
        <time>2018-03-13T10:41:48Z</time>
      </trkpt>
      <trkpt lat="45.97416" lon="4.84644">
        <ele>278</ele>
        <time>2018-03-13T10:41:49Z</time>
      </trkpt>
      <trkpt lat="45.97416" lon="4.84636">
        <ele>278</ele>
        <time>2018-03-13T10:41:50Z</time>
      </trkpt>
      <trkpt lat="45.97417" lon="4.8463">
        <ele>276</ele>
        <time>2018-03-13T10:41:51Z</time>
      </trkpt>
      <trkpt lat="45.97419" lon="4.84624">
        <ele>276</ele>
        <time>2018-03-13T10:41:52Z</time>
      </trkpt>
      <trkpt lat="45.97421" lon="4.84616">
        <ele>276</ele>
        <time>2018-03-13T10:41:53Z</time>
      </trkpt>
      <trkpt lat="45.97422" lon="4.84609">
        <ele>276</ele>
        <time>2018-03-13T10:41:54Z</time>
      </trkpt>
      <trkpt lat="45.97423" lon="4.84601">
        <ele>277</ele>
        <time>2018-03-13T10:41:55Z</time>
      </trkpt>
      <trkpt lat="45.97423" lon="4.84594">
        <ele>277</ele>
        <time>2018-03-13T10:41:56Z</time>
      </trkpt>
      <trkpt lat="45.97424" lon="4.84587">
        <ele>277</ele>
        <time>2018-03-13T10:41:57Z</time>
      </trkpt>
      <trkpt lat="45.97426" lon="4.84579">
        <ele>277</ele>
        <time>2018-03-13T10:41:58Z</time>
      </trkpt>
      <trkpt lat="45.97427" lon="4.84572">
        <ele>277</ele>
        <time>2018-03-13T10:41:59Z</time>
      </trkpt>
      <trkpt lat="45.97428" lon="4.84564">
        <ele>277</ele>
        <time>2018-03-13T10:42:00Z</time>
      </trkpt>
      <trkpt lat="45.97429" lon="4.84557">
        <ele>277</ele>
        <time>2018-03-13T10:42:01Z</time>
      </trkpt>
      <trkpt lat="45.9743" lon="4.84551">
        <ele>277</ele>
        <time>2018-03-13T10:42:02Z</time>
      </trkpt>
      <trkpt lat="45.97431" lon="4.84544">
        <ele>277</ele>
        <time>2018-03-13T10:42:03Z</time>
      </trkpt>
      <trkpt lat="45.97431" lon="4.84537">
        <ele>277</ele>
        <time>2018-03-13T10:42:04Z</time>
      </trkpt>
      <trkpt lat="45.97433" lon="4.8453">
        <ele>277</ele>
        <time>2018-03-13T10:42:05Z</time>
      </trkpt>
      <trkpt lat="45.97434" lon="4.84524">
        <ele>277</ele>
        <time>2018-03-13T10:42:06Z</time>
      </trkpt>
      <trkpt lat="45.97435" lon="4.84517">
        <ele>277</ele>
        <time>2018-03-13T10:42:07Z</time>
      </trkpt>
      <trkpt lat="45.97436" lon="4.8451">
        <ele>277</ele>
        <time>2018-03-13T10:42:08Z</time>
      </trkpt>
      <trkpt lat="45.97437" lon="4.84502">
        <ele>277</ele>
        <time>2018-03-13T10:42:09Z</time>
      </trkpt>
      <trkpt lat="45.97438" lon="4.84495">
        <ele>277</ele>
        <time>2018-03-13T10:42:10Z</time>
      </trkpt>
      <trkpt lat="45.97439" lon="4.84488">
        <ele>277</ele>
        <time>2018-03-13T10:42:11Z</time>
      </trkpt>
      <trkpt lat="45.9744" lon="4.84482">
        <ele>277</ele>
        <time>2018-03-13T10:42:12Z</time>
      </trkpt>
      <trkpt lat="45.9744" lon="4.84474">
        <ele>277</ele>
        <time>2018-03-13T10:42:13Z</time>
      </trkpt>
      <trkpt lat="45.97441" lon="4.84461">
        <ele>277</ele>
        <time>2018-03-13T10:42:15Z</time>
      </trkpt>
      <trkpt lat="45.97442" lon="4.84455">
        <ele>278</ele>
        <time>2018-03-13T10:42:16Z</time>
      </trkpt>
      <trkpt lat="45.97443" lon="4.84448">
        <ele>278</ele>
        <time>2018-03-13T10:42:17Z</time>
      </trkpt>
      <trkpt lat="45.97443" lon="4.84442">
        <ele>278</ele>
        <time>2018-03-13T10:42:18Z</time>
      </trkpt>
      <trkpt lat="45.97444" lon="4.84436">
        <ele>278</ele>
        <time>2018-03-13T10:42:19Z</time>
      </trkpt>
      <trkpt lat="45.97445" lon="4.84429">
        <ele>278</ele>
        <time>2018-03-13T10:42:20Z</time>
      </trkpt>
      <trkpt lat="45.97446" lon="4.84422">
        <ele>278</ele>
        <time>2018-03-13T10:42:21Z</time>
      </trkpt>
      <trkpt lat="45.97446" lon="4.84414">
        <ele>278</ele>
        <time>2018-03-13T10:42:22Z</time>
      </trkpt>
      <trkpt lat="45.97447" lon="4.84407">
        <ele>278</ele>
        <time>2018-03-13T10:42:23Z</time>
      </trkpt>
      <trkpt lat="45.97448" lon="4.84401">
        <ele>278</ele>
        <time>2018-03-13T10:42:24Z</time>
      </trkpt>
      <trkpt lat="45.97449" lon="4.84395">
        <ele>278</ele>
        <time>2018-03-13T10:42:25Z</time>
      </trkpt>
      <trkpt lat="45.97451" lon="4.84388">
        <ele>278</ele>
        <time>2018-03-13T10:42:26Z</time>
      </trkpt>
      <trkpt lat="45.97452" lon="4.84381">
        <ele>278</ele>
        <time>2018-03-13T10:42:27Z</time>
      </trkpt>
      <trkpt lat="45.97453" lon="4.84375">
        <ele>278</ele>
        <time>2018-03-13T10:42:28Z</time>
      </trkpt>
      <trkpt lat="45.97454" lon="4.84368">
        <ele>278</ele>
        <time>2018-03-13T10:42:29Z</time>
      </trkpt>
      <trkpt lat="45.97456" lon="4.84362">
        <ele>277</ele>
        <time>2018-03-13T10:42:30Z</time>
      </trkpt>
      <trkpt lat="45.97457" lon="4.84356">
        <ele>277</ele>
        <time>2018-03-13T10:42:31Z</time>
      </trkpt>
      <trkpt lat="45.97458" lon="4.8435">
        <ele>277</ele>
        <time>2018-03-13T10:42:32Z</time>
      </trkpt>
      <trkpt lat="45.97459" lon="4.84337">
        <ele>277</ele>
        <time>2018-03-13T10:42:34Z</time>
      </trkpt>
      <trkpt lat="45.97459" lon="4.84331">
        <ele>277</ele>
        <time>2018-03-13T10:42:35Z</time>
      </trkpt>
      <trkpt lat="45.97459" lon="4.84324">
        <ele>277</ele>
        <time>2018-03-13T10:42:36Z</time>
      </trkpt>
      <trkpt lat="45.97459" lon="4.84318">
        <ele>278</ele>
        <time>2018-03-13T10:42:37Z</time>
      </trkpt>
      <trkpt lat="45.97462" lon="4.84305">
        <ele>278</ele>
        <time>2018-03-13T10:42:39Z</time>
      </trkpt>
      <trkpt lat="45.97463" lon="4.843">
        <ele>278</ele>
        <time>2018-03-13T10:42:40Z</time>
      </trkpt>
      <trkpt lat="45.97463" lon="4.84293">
        <ele>278</ele>
        <time>2018-03-13T10:42:41Z</time>
      </trkpt>
      <trkpt lat="45.97464" lon="4.84287">
        <ele>278</ele>
        <time>2018-03-13T10:42:42Z</time>
      </trkpt>
      <trkpt lat="45.97467" lon="4.84274">
        <ele>278</ele>
        <time>2018-03-13T10:42:44Z</time>
      </trkpt>
      <trkpt lat="45.97467" lon="4.84268">
        <ele>278</ele>
        <time>2018-03-13T10:42:45Z</time>
      </trkpt>
      <trkpt lat="45.97466" lon="4.84262">
        <ele>278</ele>
        <time>2018-03-13T10:42:46Z</time>
      </trkpt>
      <trkpt lat="45.97467" lon="4.84255">
        <ele>278</ele>
        <time>2018-03-13T10:42:47Z</time>
      </trkpt>
      <trkpt lat="45.97468" lon="4.84247">
        <ele>279</ele>
        <time>2018-03-13T10:42:48Z</time>
      </trkpt>
      <trkpt lat="45.97468" lon="4.84239">
        <ele>279</ele>
        <time>2018-03-13T10:42:49Z</time>
      </trkpt>
      <trkpt lat="45.97469" lon="4.84233">
        <ele>279</ele>
        <time>2018-03-13T10:42:50Z</time>
      </trkpt>
      <trkpt lat="45.9747" lon="4.84226">
        <ele>279</ele>
        <time>2018-03-13T10:42:51Z</time>
      </trkpt>
      <trkpt lat="45.97471" lon="4.84219">
        <ele>279</ele>
        <time>2018-03-13T10:42:52Z</time>
      </trkpt>
      <trkpt lat="45.97471" lon="4.84213">
        <ele>279</ele>
        <time>2018-03-13T10:42:53Z</time>
      </trkpt>
      <trkpt lat="45.97473" lon="4.84207">
        <ele>279</ele>
        <time>2018-03-13T10:42:54Z</time>
      </trkpt>
      <trkpt lat="45.97474" lon="4.842">
        <ele>279</ele>
        <time>2018-03-13T10:42:55Z</time>
      </trkpt>
      <trkpt lat="45.97476" lon="4.84193">
        <ele>279</ele>
        <time>2018-03-13T10:42:56Z</time>
      </trkpt>
      <trkpt lat="45.97476" lon="4.84186">
        <ele>279</ele>
        <time>2018-03-13T10:42:57Z</time>
      </trkpt>
      <trkpt lat="45.97478" lon="4.84179">
        <ele>279</ele>
        <time>2018-03-13T10:42:58Z</time>
      </trkpt>
      <trkpt lat="45.97479" lon="4.84172">
        <ele>279</ele>
        <time>2018-03-13T10:42:59Z</time>
      </trkpt>
      <trkpt lat="45.9748" lon="4.84165">
        <ele>279</ele>
        <time>2018-03-13T10:43:00Z</time>
      </trkpt>
      <trkpt lat="45.97481" lon="4.84158">
        <ele>279</ele>
        <time>2018-03-13T10:43:01Z</time>
      </trkpt>
      <trkpt lat="45.97482" lon="4.84151">
        <ele>279</ele>
        <time>2018-03-13T10:43:02Z</time>
      </trkpt>
      <trkpt lat="45.97483" lon="4.84143">
        <ele>279</ele>
        <time>2018-03-13T10:43:03Z</time>
      </trkpt>
      <trkpt lat="45.97483" lon="4.84136">
        <ele>279</ele>
        <time>2018-03-13T10:43:04Z</time>
      </trkpt>
      <trkpt lat="45.97484" lon="4.84129">
        <ele>279</ele>
        <time>2018-03-13T10:43:05Z</time>
      </trkpt>
      <trkpt lat="45.97485" lon="4.84122">
        <ele>279</ele>
        <time>2018-03-13T10:43:06Z</time>
      </trkpt>
      <trkpt lat="45.97487" lon="4.84115">
        <ele>279</ele>
        <time>2018-03-13T10:43:07Z</time>
      </trkpt>
      <trkpt lat="45.9749" lon="4.84109">
        <ele>279</ele>
        <time>2018-03-13T10:43:08Z</time>
      </trkpt>
      <trkpt lat="45.97491" lon="4.84101">
        <ele>279</ele>
        <time>2018-03-13T10:43:09Z</time>
      </trkpt>
      <trkpt lat="45.97492" lon="4.84094">
        <ele>278</ele>
        <time>2018-03-13T10:43:10Z</time>
      </trkpt>
      <trkpt lat="45.97493" lon="4.84088">
        <ele>278</ele>
        <time>2018-03-13T10:43:11Z</time>
      </trkpt>
      <trkpt lat="45.97495" lon="4.84079">
        <ele>278</ele>
        <time>2018-03-13T10:43:12Z</time>
      </trkpt>
      <trkpt lat="45.97496" lon="4.84072">
        <ele>278</ele>
        <time>2018-03-13T10:43:13Z</time>
      </trkpt>
      <trkpt lat="45.97499" lon="4.84066">
        <ele>278</ele>
        <time>2018-03-13T10:43:14Z</time>
      </trkpt>
      <trkpt lat="45.975" lon="4.84058">
        <ele>278</ele>
        <time>2018-03-13T10:43:15Z</time>
      </trkpt>
      <trkpt lat="45.97501" lon="4.84052">
        <ele>277</ele>
        <time>2018-03-13T10:43:16Z</time>
      </trkpt>
      <trkpt lat="45.97502" lon="4.84046">
        <ele>277</ele>
        <time>2018-03-13T10:43:17Z</time>
      </trkpt>
      <trkpt lat="45.97504" lon="4.84038">
        <ele>277</ele>
        <time>2018-03-13T10:43:18Z</time>
      </trkpt>
      <trkpt lat="45.97505" lon="4.84031">
        <ele>277</ele>
        <time>2018-03-13T10:43:19Z</time>
      </trkpt>
      <trkpt lat="45.97506" lon="4.84024">
        <ele>277</ele>
        <time>2018-03-13T10:43:20Z</time>
      </trkpt>
      <trkpt lat="45.97508" lon="4.84018">
        <ele>277</ele>
        <time>2018-03-13T10:43:21Z</time>
      </trkpt>
      <trkpt lat="45.97509" lon="4.84012">
        <ele>277</ele>
        <time>2018-03-13T10:43:22Z</time>
      </trkpt>
      <trkpt lat="45.97511" lon="4.84005">
        <ele>277</ele>
        <time>2018-03-13T10:43:23Z</time>
      </trkpt>
      <trkpt lat="45.97512" lon="4.83999">
        <ele>277</ele>
        <time>2018-03-13T10:43:24Z</time>
      </trkpt>
      <trkpt lat="45.97513" lon="4.83991">
        <ele>277</ele>
        <time>2018-03-13T10:43:25Z</time>
      </trkpt>
      <trkpt lat="45.97515" lon="4.83984">
        <ele>277</ele>
        <time>2018-03-13T10:43:26Z</time>
      </trkpt>
      <trkpt lat="45.97516" lon="4.83978">
        <ele>277</ele>
        <time>2018-03-13T10:43:27Z</time>
      </trkpt>
      <trkpt lat="45.97518" lon="4.83971">
        <ele>277</ele>
        <time>2018-03-13T10:43:28Z</time>
      </trkpt>
      <trkpt lat="45.97519" lon="4.83964">
        <ele>277</ele>
        <time>2018-03-13T10:43:29Z</time>
      </trkpt>
      <trkpt lat="45.9752" lon="4.83957">
        <ele>277</ele>
        <time>2018-03-13T10:43:30Z</time>
      </trkpt>
      <trkpt lat="45.97521" lon="4.8395">
        <ele>277</ele>
        <time>2018-03-13T10:43:31Z</time>
      </trkpt>
      <trkpt lat="45.97522" lon="4.83943">
        <ele>277</ele>
        <time>2018-03-13T10:43:32Z</time>
      </trkpt>
      <trkpt lat="45.97522" lon="4.83937">
        <ele>277</ele>
        <time>2018-03-13T10:43:33Z</time>
      </trkpt>
      <trkpt lat="45.97523" lon="4.83931">
        <ele>277</ele>
        <time>2018-03-13T10:43:34Z</time>
      </trkpt>
      <trkpt lat="45.97525" lon="4.83924">
        <ele>277</ele>
        <time>2018-03-13T10:43:35Z</time>
      </trkpt>
      <trkpt lat="45.97527" lon="4.83917">
        <ele>277</ele>
        <time>2018-03-13T10:43:36Z</time>
      </trkpt>
      <trkpt lat="45.97528" lon="4.8391">
        <ele>277</ele>
        <time>2018-03-13T10:43:37Z</time>
      </trkpt>
      <trkpt lat="45.97529" lon="4.83903">
        <ele>278</ele>
        <time>2018-03-13T10:43:38Z</time>
      </trkpt>
      <trkpt lat="45.97531" lon="4.83896">
        <ele>278</ele>
        <time>2018-03-13T10:43:39Z</time>
      </trkpt>
      <trkpt lat="45.97534" lon="4.83889">
        <ele>278</ele>
        <time>2018-03-13T10:43:40Z</time>
      </trkpt>
      <trkpt lat="45.97535" lon="4.83882">
        <ele>278</ele>
        <time>2018-03-13T10:43:41Z</time>
      </trkpt>
      <trkpt lat="45.97536" lon="4.83875">
        <ele>278</ele>
        <time>2018-03-13T10:43:42Z</time>
      </trkpt>
      <trkpt lat="45.97537" lon="4.8387">
        <ele>278</ele>
        <time>2018-03-13T10:43:43Z</time>
      </trkpt>
      <trkpt lat="45.97539" lon="4.83863">
        <ele>278</ele>
        <time>2018-03-13T10:43:44Z</time>
      </trkpt>
      <trkpt lat="45.9754" lon="4.83857">
        <ele>278</ele>
        <time>2018-03-13T10:43:45Z</time>
      </trkpt>
      <trkpt lat="45.9754" lon="4.83851">
        <ele>278</ele>
        <time>2018-03-13T10:43:46Z</time>
      </trkpt>
      <trkpt lat="45.97541" lon="4.83843">
        <ele>278</ele>
        <time>2018-03-13T10:43:47Z</time>
      </trkpt>
      <trkpt lat="45.97542" lon="4.83837">
        <ele>278</ele>
        <time>2018-03-13T10:43:48Z</time>
      </trkpt>
      <trkpt lat="45.97544" lon="4.83831">
        <ele>278</ele>
        <time>2018-03-13T10:43:49Z</time>
      </trkpt>
      <trkpt lat="45.97544" lon="4.83819">
        <ele>278</ele>
        <time>2018-03-13T10:43:51Z</time>
      </trkpt>
      <trkpt lat="45.97543" lon="4.83812">
        <ele>278</ele>
        <time>2018-03-13T10:43:52Z</time>
      </trkpt>
      <trkpt lat="45.97545" lon="4.83802">
        <ele>278</ele>
        <time>2018-03-13T10:43:54Z</time>
      </trkpt>
      <trkpt lat="45.97545" lon="4.83797">
        <ele>278</ele>
        <time>2018-03-13T10:43:55Z</time>
      </trkpt>
      <trkpt lat="45.97544" lon="4.83786">
        <ele>278</ele>
        <time>2018-03-13T10:43:57Z</time>
      </trkpt>
      <trkpt lat="45.97544" lon="4.8378">
        <ele>278</ele>
        <time>2018-03-13T10:43:58Z</time>
      </trkpt>
      <trkpt lat="45.97544" lon="4.83768">
        <ele>278</ele>
        <time>2018-03-13T10:44:00Z</time>
      </trkpt>
      <trkpt lat="45.97544" lon="4.83762">
        <ele>278</ele>
        <time>2018-03-13T10:44:01Z</time>
      </trkpt>
      <trkpt lat="45.97543" lon="4.83755">
        <ele>278</ele>
        <time>2018-03-13T10:44:02Z</time>
      </trkpt>
      <trkpt lat="45.97543" lon="4.83747">
        <ele>278</ele>
        <time>2018-03-13T10:44:03Z</time>
      </trkpt>
      <trkpt lat="45.97542" lon="4.8374">
        <ele>278</ele>
        <time>2018-03-13T10:44:04Z</time>
      </trkpt>
      <trkpt lat="45.97542" lon="4.83734">
        <ele>278</ele>
        <time>2018-03-13T10:44:05Z</time>
      </trkpt>
      <trkpt lat="45.9754" lon="4.83721">
        <ele>278</ele>
        <time>2018-03-13T10:44:07Z</time>
      </trkpt>
      <trkpt lat="45.9754" lon="4.83716">
        <ele>278</ele>
        <time>2018-03-13T10:44:08Z</time>
      </trkpt>
      <trkpt lat="45.97538" lon="4.83703">
        <ele>278</ele>
        <time>2018-03-13T10:44:10Z</time>
      </trkpt>
      <trkpt lat="45.97538" lon="4.83697">
        <ele>278</ele>
        <time>2018-03-13T10:44:11Z</time>
      </trkpt>
      <trkpt lat="45.97537" lon="4.8369">
        <ele>278</ele>
        <time>2018-03-13T10:44:12Z</time>
      </trkpt>
      <trkpt lat="45.97537" lon="4.83683">
        <ele>278</ele>
        <time>2018-03-13T10:44:13Z</time>
      </trkpt>
      <trkpt lat="45.97536" lon="4.83671">
        <ele>278</ele>
        <time>2018-03-13T10:44:15Z</time>
      </trkpt>
      <trkpt lat="45.97535" lon="4.83663">
        <ele>277</ele>
        <time>2018-03-13T10:44:16Z</time>
      </trkpt>
      <trkpt lat="45.97535" lon="4.83656">
        <ele>277</ele>
        <time>2018-03-13T10:44:17Z</time>
      </trkpt>
      <trkpt lat="45.97535" lon="4.83649">
        <ele>277</ele>
        <time>2018-03-13T10:44:18Z</time>
      </trkpt>
      <trkpt lat="45.97535" lon="4.83642">
        <ele>277</ele>
        <time>2018-03-13T10:44:19Z</time>
      </trkpt>
      <trkpt lat="45.97535" lon="4.83635">
        <ele>277</ele>
        <time>2018-03-13T10:44:20Z</time>
      </trkpt>
      <trkpt lat="45.97535" lon="4.83628">
        <ele>277</ele>
        <time>2018-03-13T10:44:21Z</time>
      </trkpt>
      <trkpt lat="45.97534" lon="4.83621">
        <ele>277</ele>
        <time>2018-03-13T10:44:22Z</time>
      </trkpt>
      <trkpt lat="45.97534" lon="4.83614">
        <ele>277</ele>
        <time>2018-03-13T10:44:23Z</time>
      </trkpt>
      <trkpt lat="45.97534" lon="4.83607">
        <ele>277</ele>
        <time>2018-03-13T10:44:24Z</time>
      </trkpt>
      <trkpt lat="45.97534" lon="4.836">
        <ele>277</ele>
        <time>2018-03-13T10:44:25Z</time>
      </trkpt>
      <trkpt lat="45.97534" lon="4.83593">
        <ele>277</ele>
        <time>2018-03-13T10:44:26Z</time>
      </trkpt>
      <trkpt lat="45.97535" lon="4.83586">
        <ele>277</ele>
        <time>2018-03-13T10:44:27Z</time>
      </trkpt>
      <trkpt lat="45.97534" lon="4.8358">
        <ele>276</ele>
        <time>2018-03-13T10:44:28Z</time>
      </trkpt>
      <trkpt lat="45.97535" lon="4.83573">
        <ele>276</ele>
        <time>2018-03-13T10:44:29Z</time>
      </trkpt>
      <trkpt lat="45.97536" lon="4.83566">
        <ele>276</ele>
        <time>2018-03-13T10:44:30Z</time>
      </trkpt>
      <trkpt lat="45.97536" lon="4.83559">
        <ele>276</ele>
        <time>2018-03-13T10:44:31Z</time>
      </trkpt>
      <trkpt lat="45.97536" lon="4.83552">
        <ele>276</ele>
        <time>2018-03-13T10:44:32Z</time>
      </trkpt>
      <trkpt lat="45.97536" lon="4.83545">
        <ele>276</ele>
        <time>2018-03-13T10:44:33Z</time>
      </trkpt>
      <trkpt lat="45.97537" lon="4.83538">
        <ele>276</ele>
        <time>2018-03-13T10:44:34Z</time>
      </trkpt>
      <trkpt lat="45.97538" lon="4.83529">
        <ele>276</ele>
        <time>2018-03-13T10:44:35Z</time>
      </trkpt>
      <trkpt lat="45.97539" lon="4.83522">
        <ele>276</ele>
        <time>2018-03-13T10:44:36Z</time>
      </trkpt>
      <trkpt lat="45.97539" lon="4.83515">
        <ele>276</ele>
        <time>2018-03-13T10:44:37Z</time>
      </trkpt>
      <trkpt lat="45.97539" lon="4.83509">
        <ele>276</ele>
        <time>2018-03-13T10:44:38Z</time>
      </trkpt>
      <trkpt lat="45.97539" lon="4.83496">
        <ele>276</ele>
        <time>2018-03-13T10:44:40Z</time>
      </trkpt>
      <trkpt lat="45.97539" lon="4.83489">
        <ele>276</ele>
        <time>2018-03-13T10:44:41Z</time>
      </trkpt>
      <trkpt lat="45.97539" lon="4.83483">
        <ele>276</ele>
        <time>2018-03-13T10:44:42Z</time>
      </trkpt>
      <trkpt lat="45.9754" lon="4.83476">
        <ele>276</ele>
        <time>2018-03-13T10:44:43Z</time>
      </trkpt>
      <trkpt lat="45.9754" lon="4.83463">
        <ele>276</ele>
        <time>2018-03-13T10:44:45Z</time>
      </trkpt>
      <trkpt lat="45.97541" lon="4.83457">
        <ele>276</ele>
        <time>2018-03-13T10:44:46Z</time>
      </trkpt>
      <trkpt lat="45.97541" lon="4.8345">
        <ele>276</ele>
        <time>2018-03-13T10:44:47Z</time>
      </trkpt>
      <trkpt lat="45.97542" lon="4.83442">
        <ele>276</ele>
        <time>2018-03-13T10:44:48Z</time>
      </trkpt>
      <trkpt lat="45.97542" lon="4.83436">
        <ele>276</ele>
        <time>2018-03-13T10:44:49Z</time>
      </trkpt>
      <trkpt lat="45.97541" lon="4.83428">
        <ele>276</ele>
        <time>2018-03-13T10:44:50Z</time>
      </trkpt>
      <trkpt lat="45.9754" lon="4.83421">
        <ele>276</ele>
        <time>2018-03-13T10:44:51Z</time>
      </trkpt>
      <trkpt lat="45.9754" lon="4.83413">
        <ele>277</ele>
        <time>2018-03-13T10:44:52Z</time>
      </trkpt>
      <trkpt lat="45.97539" lon="4.83405">
        <ele>277</ele>
        <time>2018-03-13T10:44:53Z</time>
      </trkpt>
      <trkpt lat="45.9754" lon="4.83398">
        <ele>277</ele>
        <time>2018-03-13T10:44:54Z</time>
      </trkpt>
      <trkpt lat="45.9754" lon="4.83391">
        <ele>277</ele>
        <time>2018-03-13T10:44:55Z</time>
      </trkpt>
      <trkpt lat="45.9754" lon="4.83383">
        <ele>277</ele>
        <time>2018-03-13T10:44:56Z</time>
      </trkpt>
      <trkpt lat="45.9754" lon="4.83375">
        <ele>277</ele>
        <time>2018-03-13T10:44:57Z</time>
      </trkpt>
      <trkpt lat="45.97539" lon="4.83367">
        <ele>277</ele>
        <time>2018-03-13T10:44:58Z</time>
      </trkpt>
      <trkpt lat="45.97539" lon="4.83359">
        <ele>277</ele>
        <time>2018-03-13T10:44:59Z</time>
      </trkpt>
      <trkpt lat="45.97538" lon="4.83351">
        <ele>277</ele>
        <time>2018-03-13T10:45:00Z</time>
      </trkpt>
      <trkpt lat="45.97538" lon="4.83343">
        <ele>277</ele>
        <time>2018-03-13T10:45:01Z</time>
      </trkpt>
      <trkpt lat="45.97538" lon="4.83335">
        <ele>277</ele>
        <time>2018-03-13T10:45:02Z</time>
      </trkpt>
      <trkpt lat="45.97537" lon="4.83327">
        <ele>276</ele>
        <time>2018-03-13T10:45:03Z</time>
      </trkpt>
      <trkpt lat="45.97537" lon="4.83319">
        <ele>276</ele>
        <time>2018-03-13T10:45:04Z</time>
      </trkpt>
      <trkpt lat="45.97536" lon="4.8331">
        <ele>276</ele>
        <time>2018-03-13T10:45:05Z</time>
      </trkpt>
      <trkpt lat="45.97536" lon="4.83302">
        <ele>276</ele>
        <time>2018-03-13T10:45:06Z</time>
      </trkpt>
      <trkpt lat="45.97536" lon="4.83295">
        <ele>276</ele>
        <time>2018-03-13T10:45:07Z</time>
      </trkpt>
      <trkpt lat="45.97536" lon="4.83287">
        <ele>276</ele>
        <time>2018-03-13T10:45:08Z</time>
      </trkpt>
      <trkpt lat="45.97537" lon="4.8328">
        <ele>276</ele>
        <time>2018-03-13T10:45:09Z</time>
      </trkpt>
      <trkpt lat="45.97536" lon="4.83271">
        <ele>276</ele>
        <time>2018-03-13T10:45:10Z</time>
      </trkpt>
      <trkpt lat="45.97535" lon="4.83264">
        <ele>276</ele>
        <time>2018-03-13T10:45:11Z</time>
      </trkpt>
      <trkpt lat="45.97534" lon="4.83256">
        <ele>276</ele>
        <time>2018-03-13T10:45:12Z</time>
      </trkpt>
      <trkpt lat="45.97533" lon="4.83247">
        <ele>275</ele>
        <time>2018-03-13T10:45:13Z</time>
      </trkpt>
      <trkpt lat="45.97531" lon="4.83239">
        <ele>275</ele>
        <time>2018-03-13T10:45:14Z</time>
      </trkpt>
      <trkpt lat="45.97526" lon="4.8323">
        <ele>275</ele>
        <time>2018-03-13T10:45:15Z</time>
      </trkpt>
      <trkpt lat="45.97523" lon="4.83222">
        <ele>275</ele>
        <time>2018-03-13T10:45:16Z</time>
      </trkpt>
      <trkpt lat="45.9752" lon="4.83213">
        <ele>275</ele>
        <time>2018-03-13T10:45:17Z</time>
      </trkpt>
      <trkpt lat="45.97518" lon="4.83206">
        <ele>275</ele>
        <time>2018-03-13T10:45:18Z</time>
      </trkpt>
      <trkpt lat="45.97515" lon="4.83198">
        <ele>275</ele>
        <time>2018-03-13T10:45:19Z</time>
      </trkpt>
      <trkpt lat="45.97513" lon="4.8319">
        <ele>275</ele>
        <time>2018-03-13T10:45:20Z</time>
      </trkpt>
      <trkpt lat="45.9751" lon="4.83184">
        <ele>275</ele>
        <time>2018-03-13T10:45:21Z</time>
      </trkpt>
      <trkpt lat="45.97507" lon="4.83176">
        <ele>274</ele>
        <time>2018-03-13T10:45:22Z</time>
      </trkpt>
      <trkpt lat="45.97504" lon="4.8317">
        <ele>274</ele>
        <time>2018-03-13T10:45:23Z</time>
      </trkpt>
      <trkpt lat="45.97501" lon="4.83162">
        <ele>274</ele>
        <time>2018-03-13T10:45:24Z</time>
      </trkpt>
      <trkpt lat="45.97498" lon="4.83156">
        <ele>273</ele>
        <time>2018-03-13T10:45:25Z</time>
      </trkpt>
      <trkpt lat="45.97496" lon="4.83149">
        <ele>273</ele>
        <time>2018-03-13T10:45:26Z</time>
      </trkpt>
      <trkpt lat="45.97493" lon="4.83141">
        <ele>273</ele>
        <time>2018-03-13T10:45:27Z</time>
      </trkpt>
      <trkpt lat="45.9749" lon="4.83133">
        <ele>273</ele>
        <time>2018-03-13T10:45:28Z</time>
      </trkpt>
      <trkpt lat="45.97488" lon="4.83125">
        <ele>273</ele>
        <time>2018-03-13T10:45:29Z</time>
      </trkpt>
      <trkpt lat="45.97485" lon="4.83117">
        <ele>272</ele>
        <time>2018-03-13T10:45:30Z</time>
      </trkpt>
      <trkpt lat="45.97483" lon="4.83108">
        <ele>272</ele>
        <time>2018-03-13T10:45:31Z</time>
      </trkpt>
      <trkpt lat="45.97481" lon="4.83098">
        <ele>272</ele>
        <time>2018-03-13T10:45:32Z</time>
      </trkpt>
      <trkpt lat="45.97479" lon="4.83089">
        <ele>272</ele>
        <time>2018-03-13T10:45:33Z</time>
      </trkpt>
      <trkpt lat="45.97478" lon="4.83082">
        <ele>271</ele>
        <time>2018-03-13T10:45:34Z</time>
      </trkpt>
      <trkpt lat="45.97476" lon="4.83074">
        <ele>271</ele>
        <time>2018-03-13T10:45:35Z</time>
      </trkpt>
      <trkpt lat="45.97473" lon="4.83065">
        <ele>271</ele>
        <time>2018-03-13T10:45:36Z</time>
      </trkpt>
      <trkpt lat="45.97471" lon="4.83056">
        <ele>271</ele>
        <time>2018-03-13T10:45:37Z</time>
      </trkpt>
      <trkpt lat="45.97468" lon="4.83048">
        <ele>271</ele>
        <time>2018-03-13T10:45:38Z</time>
      </trkpt>
      <trkpt lat="45.97466" lon="4.8304">
        <ele>271</ele>
        <time>2018-03-13T10:45:39Z</time>
      </trkpt>
      <trkpt lat="45.97463" lon="4.83032">
        <ele>271</ele>
        <time>2018-03-13T10:45:40Z</time>
      </trkpt>
      <trkpt lat="45.97461" lon="4.83024">
        <ele>270</ele>
        <time>2018-03-13T10:45:41Z</time>
      </trkpt>
      <trkpt lat="45.97458" lon="4.83014">
        <ele>270</ele>
        <time>2018-03-13T10:45:42Z</time>
      </trkpt>
      <trkpt lat="45.97456" lon="4.83006">
        <ele>270</ele>
        <time>2018-03-13T10:45:43Z</time>
      </trkpt>
      <trkpt lat="45.97453" lon="4.82997">
        <ele>269</ele>
        <time>2018-03-13T10:45:44Z</time>
      </trkpt>
      <trkpt lat="45.97451" lon="4.82988">
        <ele>269</ele>
        <time>2018-03-13T10:45:45Z</time>
      </trkpt>
      <trkpt lat="45.97449" lon="4.82978">
        <ele>269</ele>
        <time>2018-03-13T10:45:46Z</time>
      </trkpt>
      <trkpt lat="45.97446" lon="4.82969">
        <ele>269</ele>
        <time>2018-03-13T10:45:47Z</time>
      </trkpt>
      <trkpt lat="45.97445" lon="4.82959">
        <ele>269</ele>
        <time>2018-03-13T10:45:48Z</time>
      </trkpt>
      <trkpt lat="45.97442" lon="4.82948">
        <ele>269</ele>
        <time>2018-03-13T10:45:49Z</time>
      </trkpt>
      <trkpt lat="45.9744" lon="4.82939">
        <ele>268</ele>
        <time>2018-03-13T10:45:50Z</time>
      </trkpt>
      <trkpt lat="45.97439" lon="4.82929">
        <ele>268</ele>
        <time>2018-03-13T10:45:51Z</time>
      </trkpt>
      <trkpt lat="45.97438" lon="4.82919">
        <ele>268</ele>
        <time>2018-03-13T10:45:52Z</time>
      </trkpt>
      <trkpt lat="45.97436" lon="4.82909">
        <ele>267</ele>
        <time>2018-03-13T10:45:53Z</time>
      </trkpt>
      <trkpt lat="45.97435" lon="4.82899">
        <ele>267</ele>
        <time>2018-03-13T10:45:54Z</time>
      </trkpt>
      <trkpt lat="45.97433" lon="4.82889">
        <ele>267</ele>
        <time>2018-03-13T10:45:55Z</time>
      </trkpt>
      <trkpt lat="45.97432" lon="4.8288">
        <ele>267</ele>
        <time>2018-03-13T10:45:56Z</time>
      </trkpt>
      <trkpt lat="45.9743" lon="4.8287">
        <ele>267</ele>
        <time>2018-03-13T10:45:57Z</time>
      </trkpt>
      <trkpt lat="45.97428" lon="4.82861">
        <ele>267</ele>
        <time>2018-03-13T10:45:58Z</time>
      </trkpt>
      <trkpt lat="45.97427" lon="4.82851">
        <ele>267</ele>
        <time>2018-03-13T10:45:59Z</time>
      </trkpt>
      <trkpt lat="45.97426" lon="4.82841">
        <ele>266</ele>
        <time>2018-03-13T10:46:00Z</time>
      </trkpt>
      <trkpt lat="45.97424" lon="4.8283">
        <ele>266</ele>
        <time>2018-03-13T10:46:01Z</time>
      </trkpt>
      <trkpt lat="45.97422" lon="4.8282">
        <ele>266</ele>
        <time>2018-03-13T10:46:02Z</time>
      </trkpt>
      <trkpt lat="45.9742" lon="4.82809">
        <ele>265</ele>
        <time>2018-03-13T10:46:03Z</time>
      </trkpt>
      <trkpt lat="45.97419" lon="4.82799">
        <ele>265</ele>
        <time>2018-03-13T10:46:04Z</time>
      </trkpt>
      <trkpt lat="45.97417" lon="4.82789">
        <ele>265</ele>
        <time>2018-03-13T10:46:05Z</time>
      </trkpt>
      <trkpt lat="45.97416" lon="4.82779">
        <ele>264</ele>
        <time>2018-03-13T10:46:06Z</time>
      </trkpt>
      <trkpt lat="45.97415" lon="4.82768">
        <ele>263</ele>
        <time>2018-03-13T10:46:07Z</time>
      </trkpt>
      <trkpt lat="45.97413" lon="4.82758">
        <ele>263</ele>
        <time>2018-03-13T10:46:08Z</time>
      </trkpt>
      <trkpt lat="45.97412" lon="4.82749">
        <ele>263</ele>
        <time>2018-03-13T10:46:09Z</time>
      </trkpt>
      <trkpt lat="45.97411" lon="4.82739">
        <ele>263</ele>
        <time>2018-03-13T10:46:10Z</time>
      </trkpt>
      <trkpt lat="45.97409" lon="4.8273">
        <ele>263</ele>
        <time>2018-03-13T10:46:11Z</time>
      </trkpt>
      <trkpt lat="45.97407" lon="4.82721">
        <ele>263</ele>
        <time>2018-03-13T10:46:12Z</time>
      </trkpt>
      <trkpt lat="45.97406" lon="4.82711">
        <ele>262</ele>
        <time>2018-03-13T10:46:13Z</time>
      </trkpt>
      <trkpt lat="45.97405" lon="4.82702">
        <ele>262</ele>
        <time>2018-03-13T10:46:14Z</time>
      </trkpt>
      <trkpt lat="45.97404" lon="4.82693">
        <ele>263</ele>
        <time>2018-03-13T10:46:15Z</time>
      </trkpt>
      <trkpt lat="45.97403" lon="4.82684">
        <ele>263</ele>
        <time>2018-03-13T10:46:16Z</time>
      </trkpt>
      <trkpt lat="45.97402" lon="4.82675">
        <ele>263</ele>
        <time>2018-03-13T10:46:17Z</time>
      </trkpt>
      <trkpt lat="45.974" lon="4.82665">
        <ele>262</ele>
        <time>2018-03-13T10:46:18Z</time>
      </trkpt>
      <trkpt lat="45.97399" lon="4.82657">
        <ele>262</ele>
        <time>2018-03-13T10:46:19Z</time>
      </trkpt>
      <trkpt lat="45.97397" lon="4.82649">
        <ele>262</ele>
        <time>2018-03-13T10:46:20Z</time>
      </trkpt>
      <trkpt lat="45.97396" lon="4.8264">
        <ele>262</ele>
        <time>2018-03-13T10:46:21Z</time>
      </trkpt>
      <trkpt lat="45.97394" lon="4.82631">
        <ele>262</ele>
        <time>2018-03-13T10:46:22Z</time>
      </trkpt>
      <trkpt lat="45.97393" lon="4.82624">
        <ele>262</ele>
        <time>2018-03-13T10:46:23Z</time>
      </trkpt>
      <trkpt lat="45.97392" lon="4.82615">
        <ele>262</ele>
        <time>2018-03-13T10:46:24Z</time>
      </trkpt>
      <trkpt lat="45.97391" lon="4.82606">
        <ele>262</ele>
        <time>2018-03-13T10:46:25Z</time>
      </trkpt>
      <trkpt lat="45.9739" lon="4.82598">
        <ele>262</ele>
        <time>2018-03-13T10:46:26Z</time>
      </trkpt>
      <trkpt lat="45.97389" lon="4.8259">
        <ele>262</ele>
        <time>2018-03-13T10:46:27Z</time>
      </trkpt>
      <trkpt lat="45.97389" lon="4.82582">
        <ele>262</ele>
        <time>2018-03-13T10:46:28Z</time>
      </trkpt>
      <trkpt lat="45.97389" lon="4.82574">
        <ele>262</ele>
        <time>2018-03-13T10:46:29Z</time>
      </trkpt>
      <trkpt lat="45.97387" lon="4.82565">
        <ele>262</ele>
        <time>2018-03-13T10:46:30Z</time>
      </trkpt>
      <trkpt lat="45.97386" lon="4.82557">
        <ele>262</ele>
        <time>2018-03-13T10:46:31Z</time>
      </trkpt>
      <trkpt lat="45.97385" lon="4.82548">
        <ele>262</ele>
        <time>2018-03-13T10:46:32Z</time>
      </trkpt>
      <trkpt lat="45.97384" lon="4.82539">
        <ele>262</ele>
        <time>2018-03-13T10:46:33Z</time>
      </trkpt>
      <trkpt lat="45.97383" lon="4.8253">
        <ele>262</ele>
        <time>2018-03-13T10:46:34Z</time>
      </trkpt>
      <trkpt lat="45.97381" lon="4.82521">
        <ele>262</ele>
        <time>2018-03-13T10:46:35Z</time>
      </trkpt>
      <trkpt lat="45.9738" lon="4.82513">
        <ele>262</ele>
        <time>2018-03-13T10:46:36Z</time>
      </trkpt>
      <trkpt lat="45.97379" lon="4.82505">
        <ele>262</ele>
        <time>2018-03-13T10:46:37Z</time>
      </trkpt>
      <trkpt lat="45.97378" lon="4.82496">
        <ele>262</ele>
        <time>2018-03-13T10:46:38Z</time>
      </trkpt>
      <trkpt lat="45.97378" lon="4.82489">
        <ele>262</ele>
        <time>2018-03-13T10:46:39Z</time>
      </trkpt>
      <trkpt lat="45.97377" lon="4.82481">
        <ele>262</ele>
        <time>2018-03-13T10:46:40Z</time>
      </trkpt>
      <trkpt lat="45.97377" lon="4.82473">
        <ele>262</ele>
        <time>2018-03-13T10:46:41Z</time>
      </trkpt>
      <trkpt lat="45.97377" lon="4.82465">
        <ele>262</ele>
        <time>2018-03-13T10:46:42Z</time>
      </trkpt>
      <trkpt lat="45.97377" lon="4.82457">
        <ele>262</ele>
        <time>2018-03-13T10:46:43Z</time>
      </trkpt>
      <trkpt lat="45.97376" lon="4.82449">
        <ele>262</ele>
        <time>2018-03-13T10:46:44Z</time>
      </trkpt>
      <trkpt lat="45.97376" lon="4.82441">
        <ele>262</ele>
        <time>2018-03-13T10:46:45Z</time>
      </trkpt>
      <trkpt lat="45.97376" lon="4.82434">
        <ele>262</ele>
        <time>2018-03-13T10:46:46Z</time>
      </trkpt>
      <trkpt lat="45.97375" lon="4.82426">
        <ele>262</ele>
        <time>2018-03-13T10:46:47Z</time>
      </trkpt>
      <trkpt lat="45.97375" lon="4.82419">
        <ele>262</ele>
        <time>2018-03-13T10:46:48Z</time>
      </trkpt>
      <trkpt lat="45.97375" lon="4.82411">
        <ele>263</ele>
        <time>2018-03-13T10:46:49Z</time>
      </trkpt>
      <trkpt lat="45.97374" lon="4.82404">
        <ele>263</ele>
        <time>2018-03-13T10:46:50Z</time>
      </trkpt>
      <trkpt lat="45.97374" lon="4.82397">
        <ele>263</ele>
        <time>2018-03-13T10:46:51Z</time>
      </trkpt>
      <trkpt lat="45.97374" lon="4.82389">
        <ele>263</ele>
        <time>2018-03-13T10:46:52Z</time>
      </trkpt>
      <trkpt lat="45.97375" lon="4.8238">
        <ele>263</ele>
        <time>2018-03-13T10:46:53Z</time>
      </trkpt>
      <trkpt lat="45.97375" lon="4.82373">
        <ele>263</ele>
        <time>2018-03-13T10:46:54Z</time>
      </trkpt>
      <trkpt lat="45.97375" lon="4.82366">
        <ele>263</ele>
        <time>2018-03-13T10:46:55Z</time>
      </trkpt>
      <trkpt lat="45.97375" lon="4.82359">
        <ele>263</ele>
        <time>2018-03-13T10:46:56Z</time>
      </trkpt>
      <trkpt lat="45.97376" lon="4.82351">
        <ele>263</ele>
        <time>2018-03-13T10:46:57Z</time>
      </trkpt>
      <trkpt lat="45.97376" lon="4.82344">
        <ele>263</ele>
        <time>2018-03-13T10:46:58Z</time>
      </trkpt>
      <trkpt lat="45.97376" lon="4.82337">
        <ele>263</ele>
        <time>2018-03-13T10:46:59Z</time>
      </trkpt>
      <trkpt lat="45.97377" lon="4.8233">
        <ele>263</ele>
        <time>2018-03-13T10:47:00Z</time>
      </trkpt>
      <trkpt lat="45.97377" lon="4.82318">
        <ele>263</ele>
        <time>2018-03-13T10:47:02Z</time>
      </trkpt>
      <trkpt lat="45.97378" lon="4.82311">
        <ele>263</ele>
        <time>2018-03-13T10:47:03Z</time>
      </trkpt>
      <trkpt lat="45.97378" lon="4.82305">
        <ele>263</ele>
        <time>2018-03-13T10:47:04Z</time>
      </trkpt>
      <trkpt lat="45.97378" lon="4.82298">
        <ele>263</ele>
        <time>2018-03-13T10:47:05Z</time>
      </trkpt>
      <trkpt lat="45.97379" lon="4.82291">
        <ele>263</ele>
        <time>2018-03-13T10:47:06Z</time>
      </trkpt>
      <trkpt lat="45.97379" lon="4.82284">
        <ele>263</ele>
        <time>2018-03-13T10:47:07Z</time>
      </trkpt>
      <trkpt lat="45.9738" lon="4.82277">
        <ele>263</ele>
        <time>2018-03-13T10:47:08Z</time>
      </trkpt>
      <trkpt lat="45.9738" lon="4.82271">
        <ele>263</ele>
        <time>2018-03-13T10:47:09Z</time>
      </trkpt>
      <trkpt lat="45.9738" lon="4.82263">
        <ele>263</ele>
        <time>2018-03-13T10:47:10Z</time>
      </trkpt>
      <trkpt lat="45.97381" lon="4.82257">
        <ele>263</ele>
        <time>2018-03-13T10:47:11Z</time>
      </trkpt>
      <trkpt lat="45.97382" lon="4.8225">
        <ele>263</ele>
        <time>2018-03-13T10:47:12Z</time>
      </trkpt>
      <trkpt lat="45.97383" lon="4.82244">
        <ele>263</ele>
        <time>2018-03-13T10:47:13Z</time>
      </trkpt>
      <trkpt lat="45.97384" lon="4.82236">
        <ele>263</ele>
        <time>2018-03-13T10:47:14Z</time>
      </trkpt>
      <trkpt lat="45.97385" lon="4.8223">
        <ele>263</ele>
        <time>2018-03-13T10:47:15Z</time>
      </trkpt>
      <trkpt lat="45.97387" lon="4.82222">
        <ele>263</ele>
        <time>2018-03-13T10:47:16Z</time>
      </trkpt>
      <trkpt lat="45.97388" lon="4.82215">
        <ele>263</ele>
        <time>2018-03-13T10:47:17Z</time>
      </trkpt>
      <trkpt lat="45.97391" lon="4.82208">
        <ele>263</ele>
        <time>2018-03-13T10:47:18Z</time>
      </trkpt>
      <trkpt lat="45.97395" lon="4.82202">
        <ele>262</ele>
        <time>2018-03-13T10:47:19Z</time>
      </trkpt>
      <trkpt lat="45.97398" lon="4.82196">
        <ele>262</ele>
        <time>2018-03-13T10:47:20Z</time>
      </trkpt>
      <trkpt lat="45.97402" lon="4.8219">
        <ele>262</ele>
        <time>2018-03-13T10:47:21Z</time>
      </trkpt>
      <trkpt lat="45.97406" lon="4.82184">
        <ele>262</ele>
        <time>2018-03-13T10:47:22Z</time>
      </trkpt>
      <trkpt lat="45.97409" lon="4.82178">
        <ele>262</ele>
        <time>2018-03-13T10:47:23Z</time>
      </trkpt>
      <trkpt lat="45.97413" lon="4.82173">
        <ele>261</ele>
        <time>2018-03-13T10:47:24Z</time>
      </trkpt>
      <trkpt lat="45.97417" lon="4.82168">
        <ele>261</ele>
        <time>2018-03-13T10:47:25Z</time>
      </trkpt>
      <trkpt lat="45.97422" lon="4.82159">
        <ele>261</ele>
        <time>2018-03-13T10:47:26Z</time>
      </trkpt>
      <trkpt lat="45.97426" lon="4.82153">
        <ele>261</ele>
        <time>2018-03-13T10:47:27Z</time>
      </trkpt>
      <trkpt lat="45.9743" lon="4.82149">
        <ele>261</ele>
        <time>2018-03-13T10:47:28Z</time>
      </trkpt>
      <trkpt lat="45.97434" lon="4.82144">
        <ele>261</ele>
        <time>2018-03-13T10:47:29Z</time>
      </trkpt>
      <trkpt lat="45.97439" lon="4.82139">
        <ele>261</ele>
        <time>2018-03-13T10:47:30Z</time>
      </trkpt>
      <trkpt lat="45.97443" lon="4.82132">
        <ele>261</ele>
        <time>2018-03-13T10:47:31Z</time>
      </trkpt>
      <trkpt lat="45.97447" lon="4.82125">
        <ele>260</ele>
        <time>2018-03-13T10:47:32Z</time>
      </trkpt>
      <trkpt lat="45.97451" lon="4.82118">
        <ele>260</ele>
        <time>2018-03-13T10:47:33Z</time>
      </trkpt>
      <trkpt lat="45.97454" lon="4.8211">
        <ele>260</ele>
        <time>2018-03-13T10:47:34Z</time>
      </trkpt>
      <trkpt lat="45.97456" lon="4.82101">
        <ele>260</ele>
        <time>2018-03-13T10:47:35Z</time>
      </trkpt>
      <trkpt lat="45.97457" lon="4.82094">
        <ele>260</ele>
        <time>2018-03-13T10:47:36Z</time>
      </trkpt>
      <trkpt lat="45.97459" lon="4.82085">
        <ele>260</ele>
        <time>2018-03-13T10:47:37Z</time>
      </trkpt>
      <trkpt lat="45.97461" lon="4.82077">
        <ele>258</ele>
        <time>2018-03-13T10:47:38Z</time>
      </trkpt>
      <trkpt lat="45.97462" lon="4.82066">
        <ele>258</ele>
        <time>2018-03-13T10:47:39Z</time>
      </trkpt>
      <trkpt lat="45.97463" lon="4.82056">
        <ele>258</ele>
        <time>2018-03-13T10:47:40Z</time>
      </trkpt>
      <trkpt lat="45.97463" lon="4.82047">
        <ele>258</ele>
        <time>2018-03-13T10:47:41Z</time>
      </trkpt>
      <trkpt lat="45.97462" lon="4.82038">
        <ele>258</ele>
        <time>2018-03-13T10:47:42Z</time>
      </trkpt>
      <trkpt lat="45.97461" lon="4.82028">
        <ele>257</ele>
        <time>2018-03-13T10:47:43Z</time>
      </trkpt>
      <trkpt lat="45.97461" lon="4.82018">
        <ele>257</ele>
        <time>2018-03-13T10:47:44Z</time>
      </trkpt>
      <trkpt lat="45.97461" lon="4.82007">
        <ele>257</ele>
        <time>2018-03-13T10:47:45Z</time>
      </trkpt>
      <trkpt lat="45.9746" lon="4.81998">
        <ele>255</ele>
        <time>2018-03-13T10:47:46Z</time>
      </trkpt>
      <trkpt lat="45.97459" lon="4.81988">
        <ele>255</ele>
        <time>2018-03-13T10:47:47Z</time>
      </trkpt>
      <trkpt lat="45.97457" lon="4.81978">
        <ele>255</ele>
        <time>2018-03-13T10:47:48Z</time>
      </trkpt>
      <trkpt lat="45.97455" lon="4.81969">
        <ele>255</ele>
        <time>2018-03-13T10:47:49Z</time>
      </trkpt>
      <trkpt lat="45.97453" lon="4.81959">
        <ele>255</ele>
        <time>2018-03-13T10:47:50Z</time>
      </trkpt>
      <trkpt lat="45.97453" lon="4.81949">
        <ele>255</ele>
        <time>2018-03-13T10:47:51Z</time>
      </trkpt>
      <trkpt lat="45.97451" lon="4.81939">
        <ele>255</ele>
        <time>2018-03-13T10:47:52Z</time>
      </trkpt>
      <trkpt lat="45.97449" lon="4.81928">
        <ele>255</ele>
        <time>2018-03-13T10:47:53Z</time>
      </trkpt>
      <trkpt lat="45.97448" lon="4.81919">
        <ele>254</ele>
        <time>2018-03-13T10:47:54Z</time>
      </trkpt>
      <trkpt lat="45.97448" lon="4.81908">
        <ele>253</ele>
        <time>2018-03-13T10:47:55Z</time>
      </trkpt>
      <trkpt lat="45.97447" lon="4.81897">
        <ele>253</ele>
        <time>2018-03-13T10:47:56Z</time>
      </trkpt>
      <trkpt lat="45.97446" lon="4.81887">
        <ele>253</ele>
        <time>2018-03-13T10:47:57Z</time>
      </trkpt>
      <trkpt lat="45.97444" lon="4.81878">
        <ele>253</ele>
        <time>2018-03-13T10:47:58Z</time>
      </trkpt>
      <trkpt lat="45.97443" lon="4.81867">
        <ele>253</ele>
        <time>2018-03-13T10:47:59Z</time>
      </trkpt>
      <trkpt lat="45.97441" lon="4.81858">
        <ele>253</ele>
        <time>2018-03-13T10:48:00Z</time>
      </trkpt>
      <trkpt lat="45.9744" lon="4.81848">
        <ele>253</ele>
        <time>2018-03-13T10:48:01Z</time>
      </trkpt>
      <trkpt lat="45.97439" lon="4.81838">
        <ele>253</ele>
        <time>2018-03-13T10:48:02Z</time>
      </trkpt>
      <trkpt lat="45.97439" lon="4.81828">
        <ele>252</ele>
        <time>2018-03-13T10:48:03Z</time>
      </trkpt>
      <trkpt lat="45.97438" lon="4.81817">
        <ele>252</ele>
        <time>2018-03-13T10:48:04Z</time>
      </trkpt>
      <trkpt lat="45.97437" lon="4.81807">
        <ele>252</ele>
        <time>2018-03-13T10:48:05Z</time>
      </trkpt>
      <trkpt lat="45.97436" lon="4.81798">
        <ele>252</ele>
        <time>2018-03-13T10:48:06Z</time>
      </trkpt>
      <trkpt lat="45.97436" lon="4.81787">
        <ele>252</ele>
        <time>2018-03-13T10:48:07Z</time>
      </trkpt>
      <trkpt lat="45.97435" lon="4.81776">
        <ele>251</ele>
        <time>2018-03-13T10:48:08Z</time>
      </trkpt>
      <trkpt lat="45.97436" lon="4.81766">
        <ele>251</ele>
        <time>2018-03-13T10:48:09Z</time>
      </trkpt>
      <trkpt lat="45.97436" lon="4.81755">
        <ele>251</ele>
        <time>2018-03-13T10:48:10Z</time>
      </trkpt>
      <trkpt lat="45.97437" lon="4.81744">
        <ele>250</ele>
        <time>2018-03-13T10:48:11Z</time>
      </trkpt>
      <trkpt lat="45.97436" lon="4.81734">
        <ele>250</ele>
        <time>2018-03-13T10:48:12Z</time>
      </trkpt>
      <trkpt lat="45.97436" lon="4.81722">
        <ele>250</ele>
        <time>2018-03-13T10:48:13Z</time>
      </trkpt>
      <trkpt lat="45.97436" lon="4.81711">
        <ele>250</ele>
        <time>2018-03-13T10:48:14Z</time>
      </trkpt>
      <trkpt lat="45.97436" lon="4.817">
        <ele>250</ele>
        <time>2018-03-13T10:48:15Z</time>
      </trkpt>
      <trkpt lat="45.97437" lon="4.81688">
        <ele>250</ele>
        <time>2018-03-13T10:48:16Z</time>
      </trkpt>
      <trkpt lat="45.97438" lon="4.81676">
        <ele>249</ele>
        <time>2018-03-13T10:48:17Z</time>
      </trkpt>
      <trkpt lat="45.97438" lon="4.81665">
        <ele>248</ele>
        <time>2018-03-13T10:48:18Z</time>
      </trkpt>
      <trkpt lat="45.97439" lon="4.81653">
        <ele>248</ele>
        <time>2018-03-13T10:48:19Z</time>
      </trkpt>
      <trkpt lat="45.97439" lon="4.81641">
        <ele>248</ele>
        <time>2018-03-13T10:48:20Z</time>
      </trkpt>
      <trkpt lat="45.9744" lon="4.8163">
        <ele>248</ele>
        <time>2018-03-13T10:48:21Z</time>
      </trkpt>
      <trkpt lat="45.9744" lon="4.81618">
        <ele>248</ele>
        <time>2018-03-13T10:48:22Z</time>
      </trkpt>
      <trkpt lat="45.9744" lon="4.81608">
        <ele>248</ele>
        <time>2018-03-13T10:48:23Z</time>
      </trkpt>
      <trkpt lat="45.9744" lon="4.81597">
        <ele>248</ele>
        <time>2018-03-13T10:48:24Z</time>
      </trkpt>
      <trkpt lat="45.97439" lon="4.81585">
        <ele>247</ele>
        <time>2018-03-13T10:48:25Z</time>
      </trkpt>
      <trkpt lat="45.97437" lon="4.81575">
        <ele>246</ele>
        <time>2018-03-13T10:48:26Z</time>
      </trkpt>
      <trkpt lat="45.97438" lon="4.81563">
        <ele>246</ele>
        <time>2018-03-13T10:48:27Z</time>
      </trkpt>
      <trkpt lat="45.97438" lon="4.81552">
        <ele>246</ele>
        <time>2018-03-13T10:48:28Z</time>
      </trkpt>
      <trkpt lat="45.97437" lon="4.81541">
        <ele>246</ele>
        <time>2018-03-13T10:48:29Z</time>
      </trkpt>
      <trkpt lat="45.97437" lon="4.8153">
        <ele>245</ele>
        <time>2018-03-13T10:48:30Z</time>
      </trkpt>
      <trkpt lat="45.97437" lon="4.81518">
        <ele>245</ele>
        <time>2018-03-13T10:48:31Z</time>
      </trkpt>
      <trkpt lat="45.97436" lon="4.81507">
        <ele>244</ele>
        <time>2018-03-13T10:48:32Z</time>
      </trkpt>
      <trkpt lat="45.97436" lon="4.81497">
        <ele>243</ele>
        <time>2018-03-13T10:48:33Z</time>
      </trkpt>
      <trkpt lat="45.97436" lon="4.81487">
        <ele>243</ele>
        <time>2018-03-13T10:48:34Z</time>
      </trkpt>
      <trkpt lat="45.97435" lon="4.81476">
        <ele>243</ele>
        <time>2018-03-13T10:48:35Z</time>
      </trkpt>
      <trkpt lat="45.97428" lon="4.81467">
        <ele>243</ele>
        <time>2018-03-13T10:48:36Z</time>
      </trkpt>
      <trkpt lat="45.97424" lon="4.81458">
        <ele>243</ele>
        <time>2018-03-13T10:48:37Z</time>
      </trkpt>
      <trkpt lat="45.9742" lon="4.8145">
        <ele>242</ele>
        <time>2018-03-13T10:48:38Z</time>
      </trkpt>
      <trkpt lat="45.97415" lon="4.81442">
        <ele>241</ele>
        <time>2018-03-13T10:48:39Z</time>
      </trkpt>
      <trkpt lat="45.9741" lon="4.81435">
        <ele>241</ele>
        <time>2018-03-13T10:48:40Z</time>
      </trkpt>
      <trkpt lat="45.97406" lon="4.81428">
        <ele>241</ele>
        <time>2018-03-13T10:48:41Z</time>
      </trkpt>
      <trkpt lat="45.97401" lon="4.81421">
        <ele>241</ele>
        <time>2018-03-13T10:48:42Z</time>
      </trkpt>
      <trkpt lat="45.97396" lon="4.81414">
        <ele>240</ele>
        <time>2018-03-13T10:48:43Z</time>
      </trkpt>
      <trkpt lat="45.9739" lon="4.81406">
        <ele>240</ele>
        <time>2018-03-13T10:48:44Z</time>
      </trkpt>
      <trkpt lat="45.97388" lon="4.81397">
        <ele>240</ele>
        <time>2018-03-13T10:48:45Z</time>
      </trkpt>
      <trkpt lat="45.97387" lon="4.81388">
        <ele>240</ele>
        <time>2018-03-13T10:48:46Z</time>
      </trkpt>
      <trkpt lat="45.97385" lon="4.81379">
        <ele>239</ele>
        <time>2018-03-13T10:48:47Z</time>
      </trkpt>
      <trkpt lat="45.97382" lon="4.81371">
        <ele>239</ele>
        <time>2018-03-13T10:48:48Z</time>
      </trkpt>
      <trkpt lat="45.9738" lon="4.81361">
        <ele>239</ele>
        <time>2018-03-13T10:48:49Z</time>
      </trkpt>
      <trkpt lat="45.97382" lon="4.81351">
        <ele>239</ele>
        <time>2018-03-13T10:48:50Z</time>
      </trkpt>
      <trkpt lat="45.97382" lon="4.81342">
        <ele>239</ele>
        <time>2018-03-13T10:48:51Z</time>
      </trkpt>
      <trkpt lat="45.97381" lon="4.81332">
        <ele>238</ele>
        <time>2018-03-13T10:48:52Z</time>
      </trkpt>
      <trkpt lat="45.97379" lon="4.81322">
        <ele>238</ele>
        <time>2018-03-13T10:48:53Z</time>
      </trkpt>
      <trkpt lat="45.97381" lon="4.81313">
        <ele>238</ele>
        <time>2018-03-13T10:48:54Z</time>
      </trkpt>
      <trkpt lat="45.97382" lon="4.81304">
        <ele>238</ele>
        <time>2018-03-13T10:48:55Z</time>
      </trkpt>
      <trkpt lat="45.97384" lon="4.81295">
        <ele>238</ele>
        <time>2018-03-13T10:48:56Z</time>
      </trkpt>
      <trkpt lat="45.97385" lon="4.81285">
        <ele>238</ele>
        <time>2018-03-13T10:48:57Z</time>
      </trkpt>
      <trkpt lat="45.97387" lon="4.81275">
        <ele>238</ele>
        <time>2018-03-13T10:48:58Z</time>
      </trkpt>
      <trkpt lat="45.97389" lon="4.81266">
        <ele>238</ele>
        <time>2018-03-13T10:48:59Z</time>
      </trkpt>
      <trkpt lat="45.9739" lon="4.81258">
        <ele>238</ele>
        <time>2018-03-13T10:49:00Z</time>
      </trkpt>
      <trkpt lat="45.97392" lon="4.81249">
        <ele>237</ele>
        <time>2018-03-13T10:49:01Z</time>
      </trkpt>
      <trkpt lat="45.97392" lon="4.81239">
        <ele>237</ele>
        <time>2018-03-13T10:49:02Z</time>
      </trkpt>
      <trkpt lat="45.97393" lon="4.81231">
        <ele>237</ele>
        <time>2018-03-13T10:49:03Z</time>
      </trkpt>
      <trkpt lat="45.97393" lon="4.81222">
        <ele>237</ele>
        <time>2018-03-13T10:49:04Z</time>
      </trkpt>
      <trkpt lat="45.97391" lon="4.81212">
        <ele>237</ele>
        <time>2018-03-13T10:49:05Z</time>
      </trkpt>
      <trkpt lat="45.97392" lon="4.81202">
        <ele>237</ele>
        <time>2018-03-13T10:49:06Z</time>
      </trkpt>
      <trkpt lat="45.97392" lon="4.81194">
        <ele>237</ele>
        <time>2018-03-13T10:49:07Z</time>
      </trkpt>
      <trkpt lat="45.97389" lon="4.81185">
        <ele>237</ele>
        <time>2018-03-13T10:49:08Z</time>
      </trkpt>
      <trkpt lat="45.97389" lon="4.81178">
        <ele>237</ele>
        <time>2018-03-13T10:49:09Z</time>
      </trkpt>
      <trkpt lat="45.97388" lon="4.81169">
        <ele>237</ele>
        <time>2018-03-13T10:49:10Z</time>
      </trkpt>
      <trkpt lat="45.97388" lon="4.8116">
        <ele>236</ele>
        <time>2018-03-13T10:49:11Z</time>
      </trkpt>
      <trkpt lat="45.97388" lon="4.81152">
        <ele>236</ele>
        <time>2018-03-13T10:49:12Z</time>
      </trkpt>
      <trkpt lat="45.97387" lon="4.81143">
        <ele>236</ele>
        <time>2018-03-13T10:49:13Z</time>
      </trkpt>
      <trkpt lat="45.97387" lon="4.81136">
        <ele>236</ele>
        <time>2018-03-13T10:49:14Z</time>
      </trkpt>
      <trkpt lat="45.97386" lon="4.81128">
        <ele>236</ele>
        <time>2018-03-13T10:49:15Z</time>
      </trkpt>
      <trkpt lat="45.97386" lon="4.8112">
        <ele>235</ele>
        <time>2018-03-13T10:49:16Z</time>
      </trkpt>
      <trkpt lat="45.97386" lon="4.81114">
        <ele>235</ele>
        <time>2018-03-13T10:49:17Z</time>
      </trkpt>
      <trkpt lat="45.97389" lon="4.81103">
        <ele>235</ele>
        <time>2018-03-13T10:49:19Z</time>
      </trkpt>
      <trkpt lat="45.97389" lon="4.81101">
        <ele>235</ele>
        <time>2018-03-13T10:49:20Z</time>
      </trkpt>
      <trkpt lat="45.97396" lon="4.81093">
        <ele>235</ele>
        <time>2018-03-13T10:49:24Z</time>
      </trkpt>
      <trkpt lat="45.97399" lon="4.81092">
        <ele>235</ele>
        <time>2018-03-13T10:49:25Z</time>
      </trkpt>
      <trkpt lat="45.97407" lon="4.81088">
        <ele>236</ele>
        <time>2018-03-13T10:49:28Z</time>
      </trkpt>
      <trkpt lat="45.9741" lon="4.81087">
        <ele>236</ele>
        <time>2018-03-13T10:49:29Z</time>
      </trkpt>
      <trkpt lat="45.97416" lon="4.81085">
        <ele>236</ele>
        <time>2018-03-13T10:49:31Z</time>
      </trkpt>
      <trkpt lat="45.97419" lon="4.81083">
        <ele>236</ele>
        <time>2018-03-13T10:49:32Z</time>
      </trkpt>
      <trkpt lat="45.97428" lon="4.81079">
        <ele>235</ele>
        <time>2018-03-13T10:49:33Z</time>
      </trkpt>
      <trkpt lat="45.97435" lon="4.81075">
        <ele>235</ele>
        <time>2018-03-13T10:49:35Z</time>
      </trkpt>
      <trkpt lat="45.97439" lon="4.81073">
        <ele>235</ele>
        <time>2018-03-13T10:49:36Z</time>
      </trkpt>
      <trkpt lat="45.97444" lon="4.81071">
        <ele>235</ele>
        <time>2018-03-13T10:49:37Z</time>
      </trkpt>
      <trkpt lat="45.97449" lon="4.81067">
        <ele>235</ele>
        <time>2018-03-13T10:49:38Z</time>
      </trkpt>
      <trkpt lat="45.97453" lon="4.81063">
        <ele>235</ele>
        <time>2018-03-13T10:49:39Z</time>
      </trkpt>
      <trkpt lat="45.97457" lon="4.81061">
        <ele>235</ele>
        <time>2018-03-13T10:49:40Z</time>
      </trkpt>
      <trkpt lat="45.97463" lon="4.81054">
        <ele>235</ele>
        <time>2018-03-13T10:49:42Z</time>
      </trkpt>
      <trkpt lat="45.97467" lon="4.81052">
        <ele>235</ele>
        <time>2018-03-13T10:49:43Z</time>
      </trkpt>
      <trkpt lat="45.97472" lon="4.81049">
        <ele>235</ele>
        <time>2018-03-13T10:49:44Z</time>
      </trkpt>
      <trkpt lat="45.97476" lon="4.81046">
        <ele>235</ele>
        <time>2018-03-13T10:49:45Z</time>
      </trkpt>
      <trkpt lat="45.9748" lon="4.81043">
        <ele>235</ele>
        <time>2018-03-13T10:49:46Z</time>
      </trkpt>
      <trkpt lat="45.97486" lon="4.81039">
        <ele>234</ele>
        <time>2018-03-13T10:49:47Z</time>
      </trkpt>
      <trkpt lat="45.97491" lon="4.81036">
        <ele>234</ele>
        <time>2018-03-13T10:49:48Z</time>
      </trkpt>
      <trkpt lat="45.97495" lon="4.81034">
        <ele>234</ele>
        <time>2018-03-13T10:49:49Z</time>
      </trkpt>
      <trkpt lat="45.97501" lon="4.81032">
        <ele>234</ele>
        <time>2018-03-13T10:49:50Z</time>
      </trkpt>
      <trkpt lat="45.97507" lon="4.8103">
        <ele>234</ele>
        <time>2018-03-13T10:49:51Z</time>
      </trkpt>
      <trkpt lat="45.97511" lon="4.81027">
        <ele>234</ele>
        <time>2018-03-13T10:49:52Z</time>
      </trkpt>
      <trkpt lat="45.97517" lon="4.81025">
        <ele>234</ele>
        <time>2018-03-13T10:49:53Z</time>
      </trkpt>
      <trkpt lat="45.97524" lon="4.81023">
        <ele>234</ele>
        <time>2018-03-13T10:49:54Z</time>
      </trkpt>
      <trkpt lat="45.97528" lon="4.8102">
        <ele>234</ele>
        <time>2018-03-13T10:49:55Z</time>
      </trkpt>
      <trkpt lat="45.97531" lon="4.81017">
        <ele>234</ele>
        <time>2018-03-13T10:49:56Z</time>
      </trkpt>
      <trkpt lat="45.97536" lon="4.81014">
        <ele>234</ele>
        <time>2018-03-13T10:49:57Z</time>
      </trkpt>
      <trkpt lat="45.97541" lon="4.81011">
        <ele>234</ele>
        <time>2018-03-13T10:49:58Z</time>
      </trkpt>
      <trkpt lat="45.97547" lon="4.81008">
        <ele>234</ele>
        <time>2018-03-13T10:49:59Z</time>
      </trkpt>
      <trkpt lat="45.97551" lon="4.81006">
        <ele>234</ele>
        <time>2018-03-13T10:50:00Z</time>
      </trkpt>
      <trkpt lat="45.97557" lon="4.81002">
        <ele>234</ele>
        <time>2018-03-13T10:50:01Z</time>
      </trkpt>
      <trkpt lat="45.97565" lon="4.80997">
        <ele>233</ele>
        <time>2018-03-13T10:50:03Z</time>
      </trkpt>
      <trkpt lat="45.9757" lon="4.80993">
        <ele>233</ele>
        <time>2018-03-13T10:50:04Z</time>
      </trkpt>
      <trkpt lat="45.97577" lon="4.80989">
        <ele>233</ele>
        <time>2018-03-13T10:50:05Z</time>
      </trkpt>
      <trkpt lat="45.97582" lon="4.80985">
        <ele>233</ele>
        <time>2018-03-13T10:50:06Z</time>
      </trkpt>
      <trkpt lat="45.97589" lon="4.80979">
        <ele>233</ele>
        <time>2018-03-13T10:50:08Z</time>
      </trkpt>
      <trkpt lat="45.97594" lon="4.80977">
        <ele>233</ele>
        <time>2018-03-13T10:50:09Z</time>
      </trkpt>
      <trkpt lat="45.97598" lon="4.80974">
        <ele>233</ele>
        <time>2018-03-13T10:50:10Z</time>
      </trkpt>
      <trkpt lat="45.97603" lon="4.80971">
        <ele>233</ele>
        <time>2018-03-13T10:50:11Z</time>
      </trkpt>
      <trkpt lat="45.97607" lon="4.80968">
        <ele>233</ele>
        <time>2018-03-13T10:50:12Z</time>
      </trkpt>
      <trkpt lat="45.97612" lon="4.80965">
        <ele>233</ele>
        <time>2018-03-13T10:50:13Z</time>
      </trkpt>
      <trkpt lat="45.97616" lon="4.80961">
        <ele>233</ele>
        <time>2018-03-13T10:50:14Z</time>
      </trkpt>
      <trkpt lat="45.97621" lon="4.80954">
        <ele>233</ele>
        <time>2018-03-13T10:50:15Z</time>
      </trkpt>
      <trkpt lat="45.97629" lon="4.80949">
        <ele>233</ele>
        <time>2018-03-13T10:50:17Z</time>
      </trkpt>
      <trkpt lat="45.97633" lon="4.80945">
        <ele>233</ele>
        <time>2018-03-13T10:50:18Z</time>
      </trkpt>
      <trkpt lat="45.97638" lon="4.80941">
        <ele>233</ele>
        <time>2018-03-13T10:50:19Z</time>
      </trkpt>
      <trkpt lat="45.97642" lon="4.80939">
        <ele>233</ele>
        <time>2018-03-13T10:50:20Z</time>
      </trkpt>
      <trkpt lat="45.97645" lon="4.80937">
        <ele>233</ele>
        <time>2018-03-13T10:50:21Z</time>
      </trkpt>
      <trkpt lat="45.9765" lon="4.80933">
        <ele>233</ele>
        <time>2018-03-13T10:50:22Z</time>
      </trkpt>
      <trkpt lat="45.97654" lon="4.80931">
        <ele>233</ele>
        <time>2018-03-13T10:50:23Z</time>
      </trkpt>
      <trkpt lat="45.97659" lon="4.80928">
        <ele>233</ele>
        <time>2018-03-13T10:50:24Z</time>
      </trkpt>
      <trkpt lat="45.97665" lon="4.80926">
        <ele>233</ele>
        <time>2018-03-13T10:50:25Z</time>
      </trkpt>
      <trkpt lat="45.97669" lon="4.80923">
        <ele>234</ele>
        <time>2018-03-13T10:50:26Z</time>
      </trkpt>
      <trkpt lat="45.97673" lon="4.80921">
        <ele>234</ele>
        <time>2018-03-13T10:50:27Z</time>
      </trkpt>
      <trkpt lat="45.97678" lon="4.80918">
        <ele>234</ele>
        <time>2018-03-13T10:50:28Z</time>
      </trkpt>
      <trkpt lat="45.97682" lon="4.80917">
        <ele>234</ele>
        <time>2018-03-13T10:50:29Z</time>
      </trkpt>
      <trkpt lat="45.97686" lon="4.80915">
        <ele>233</ele>
        <time>2018-03-13T10:50:30Z</time>
      </trkpt>
      <trkpt lat="45.97691" lon="4.80913">
        <ele>234</ele>
        <time>2018-03-13T10:50:31Z</time>
      </trkpt>
      <trkpt lat="45.97695" lon="4.80911">
        <ele>234</ele>
        <time>2018-03-13T10:50:32Z</time>
      </trkpt>
      <trkpt lat="45.97704" lon="4.80907">
        <ele>234</ele>
        <time>2018-03-13T10:50:34Z</time>
      </trkpt>
      <trkpt lat="45.97707" lon="4.80904">
        <ele>234</ele>
        <time>2018-03-13T10:50:35Z</time>
      </trkpt>
      <trkpt lat="45.97715" lon="4.809">
        <ele>234</ele>
        <time>2018-03-13T10:50:37Z</time>
      </trkpt>
      <trkpt lat="45.97718" lon="4.80898">
        <ele>234</ele>
        <time>2018-03-13T10:50:38Z</time>
      </trkpt>
      <trkpt lat="45.97726" lon="4.80893">
        <ele>234</ele>
        <time>2018-03-13T10:50:40Z</time>
      </trkpt>
      <trkpt lat="45.97729" lon="4.80891">
        <ele>234</ele>
        <time>2018-03-13T10:50:41Z</time>
      </trkpt>
      <trkpt lat="45.97737" lon="4.80885">
        <ele>234</ele>
        <time>2018-03-13T10:50:43Z</time>
      </trkpt>
      <trkpt lat="45.9774" lon="4.80882">
        <ele>234</ele>
        <time>2018-03-13T10:50:44Z</time>
      </trkpt>
      <trkpt lat="45.97748" lon="4.80875">
        <ele>234</ele>
        <time>2018-03-13T10:50:46Z</time>
      </trkpt>
      <trkpt lat="45.97751" lon="4.80872">
        <ele>236</ele>
        <time>2018-03-13T10:50:47Z</time>
      </trkpt>
      <trkpt lat="45.97758" lon="4.80867">
        <ele>236</ele>
        <time>2018-03-13T10:50:49Z</time>
      </trkpt>
      <trkpt lat="45.97761" lon="4.80864">
        <ele>236</ele>
        <time>2018-03-13T10:50:50Z</time>
      </trkpt>
      <trkpt lat="45.97768" lon="4.80858">
        <ele>236</ele>
        <time>2018-03-13T10:50:52Z</time>
      </trkpt>
      <trkpt lat="45.97771" lon="4.80856">
        <ele>236</ele>
        <time>2018-03-13T10:50:53Z</time>
      </trkpt>
      <trkpt lat="45.97775" lon="4.80853">
        <ele>236</ele>
        <time>2018-03-13T10:50:54Z</time>
      </trkpt>
      <trkpt lat="45.9778" lon="4.80849">
        <ele>236</ele>
        <time>2018-03-13T10:50:55Z</time>
      </trkpt>
      <trkpt lat="45.97787" lon="4.80843">
        <ele>236</ele>
        <time>2018-03-13T10:50:57Z</time>
      </trkpt>
      <trkpt lat="45.97791" lon="4.8084">
        <ele>236</ele>
        <time>2018-03-13T10:50:58Z</time>
      </trkpt>
      <trkpt lat="45.97795" lon="4.80836">
        <ele>236</ele>
        <time>2018-03-13T10:50:59Z</time>
      </trkpt>
      <trkpt lat="45.978" lon="4.80832">
        <ele>236</ele>
        <time>2018-03-13T10:51:00Z</time>
      </trkpt>
      <trkpt lat="45.97804" lon="4.80829">
        <ele>236</ele>
        <time>2018-03-13T10:51:01Z</time>
      </trkpt>
      <trkpt lat="45.97807" lon="4.80823">
        <ele>236</ele>
        <time>2018-03-13T10:51:02Z</time>
      </trkpt>
      <trkpt lat="45.9781" lon="4.80821">
        <ele>236</ele>
        <time>2018-03-13T10:51:03Z</time>
      </trkpt>
      <trkpt lat="45.97814" lon="4.80815">
        <ele>236</ele>
        <time>2018-03-13T10:51:04Z</time>
      </trkpt>
      <trkpt lat="45.97818" lon="4.8081">
        <ele>236</ele>
        <time>2018-03-13T10:51:05Z</time>
      </trkpt>
      <trkpt lat="45.97822" lon="4.80807">
        <ele>236</ele>
        <time>2018-03-13T10:51:06Z</time>
      </trkpt>
      <trkpt lat="45.97826" lon="4.80803">
        <ele>236</ele>
        <time>2018-03-13T10:51:07Z</time>
      </trkpt>
      <trkpt lat="45.97831" lon="4.80799">
        <ele>236</ele>
        <time>2018-03-13T10:51:08Z</time>
      </trkpt>
      <trkpt lat="45.97835" lon="4.80796">
        <ele>237</ele>
        <time>2018-03-13T10:51:09Z</time>
      </trkpt>
      <trkpt lat="45.97839" lon="4.80792">
        <ele>237</ele>
        <time>2018-03-13T10:51:10Z</time>
      </trkpt>
      <trkpt lat="45.97844" lon="4.80789">
        <ele>236</ele>
        <time>2018-03-13T10:51:11Z</time>
      </trkpt>
      <trkpt lat="45.97848" lon="4.80786">
        <ele>236</ele>
        <time>2018-03-13T10:51:12Z</time>
      </trkpt>
      <trkpt lat="45.97852" lon="4.80782">
        <ele>236</ele>
        <time>2018-03-13T10:51:13Z</time>
      </trkpt>
      <trkpt lat="45.97857" lon="4.80779">
        <ele>236</ele>
        <time>2018-03-13T10:51:14Z</time>
      </trkpt>
      <trkpt lat="45.97864" lon="4.80771">
        <ele>236</ele>
        <time>2018-03-13T10:51:16Z</time>
      </trkpt>
      <trkpt lat="45.97867" lon="4.80768">
        <ele>236</ele>
        <time>2018-03-13T10:51:17Z</time>
      </trkpt>
      <trkpt lat="45.97872" lon="4.80765">
        <ele>236</ele>
        <time>2018-03-13T10:51:18Z</time>
      </trkpt>
      <trkpt lat="45.97876" lon="4.80764">
        <ele>236</ele>
        <time>2018-03-13T10:51:19Z</time>
      </trkpt>
      <trkpt lat="45.97883" lon="4.80759">
        <ele>236</ele>
        <time>2018-03-13T10:51:21Z</time>
      </trkpt>
      <trkpt lat="45.97885" lon="4.80756">
        <ele>236</ele>
        <time>2018-03-13T10:51:22Z</time>
      </trkpt>
      <trkpt lat="45.97889" lon="4.80752">
        <ele>236</ele>
        <time>2018-03-13T10:51:23Z</time>
      </trkpt>
      <trkpt lat="45.97894" lon="4.8075">
        <ele>236</ele>
        <time>2018-03-13T10:51:24Z</time>
      </trkpt>
      <trkpt lat="45.97899" lon="4.80746">
        <ele>236</ele>
        <time>2018-03-13T10:51:25Z</time>
      </trkpt>
      <trkpt lat="45.97903" lon="4.80744">
        <ele>236</ele>
        <time>2018-03-13T10:51:26Z</time>
      </trkpt>
      <trkpt lat="45.97908" lon="4.80742">
        <ele>236</ele>
        <time>2018-03-13T10:51:27Z</time>
      </trkpt>
      <trkpt lat="45.97913" lon="4.80739">
        <ele>236</ele>
        <time>2018-03-13T10:51:28Z</time>
      </trkpt>
      <trkpt lat="45.9792" lon="4.80736">
        <ele>235</ele>
        <time>2018-03-13T10:51:29Z</time>
      </trkpt>
      <trkpt lat="45.97925" lon="4.80734">
        <ele>235</ele>
        <time>2018-03-13T10:51:30Z</time>
      </trkpt>
      <trkpt lat="45.97931" lon="4.80732">
        <ele>235</ele>
        <time>2018-03-13T10:51:31Z</time>
      </trkpt>
      <trkpt lat="45.97937" lon="4.8073">
        <ele>235</ele>
        <time>2018-03-13T10:51:32Z</time>
      </trkpt>
      <trkpt lat="45.97942" lon="4.80728">
        <ele>234</ele>
        <time>2018-03-13T10:51:33Z</time>
      </trkpt>
      <trkpt lat="45.97948" lon="4.80728">
        <ele>234</ele>
        <time>2018-03-13T10:51:34Z</time>
      </trkpt>
      <trkpt lat="45.97953" lon="4.80726">
        <ele>234</ele>
        <time>2018-03-13T10:51:35Z</time>
      </trkpt>
      <trkpt lat="45.9796" lon="4.80723">
        <ele>234</ele>
        <time>2018-03-13T10:51:36Z</time>
      </trkpt>
      <trkpt lat="45.97966" lon="4.80721">
        <ele>234</ele>
        <time>2018-03-13T10:51:37Z</time>
      </trkpt>
      <trkpt lat="45.9797" lon="4.80718">
        <ele>234</ele>
        <time>2018-03-13T10:51:38Z</time>
      </trkpt>
      <trkpt lat="45.97977" lon="4.80715">
        <ele>233</ele>
        <time>2018-03-13T10:51:39Z</time>
      </trkpt>
      <trkpt lat="45.97984" lon="4.80713">
        <ele>233</ele>
        <time>2018-03-13T10:51:40Z</time>
      </trkpt>
      <trkpt lat="45.9799" lon="4.80709">
        <ele>233</ele>
        <time>2018-03-13T10:51:41Z</time>
      </trkpt>
      <trkpt lat="45.97996" lon="4.80707">
        <ele>233</ele>
        <time>2018-03-13T10:51:42Z</time>
      </trkpt>
      <trkpt lat="45.98001" lon="4.80706">
        <ele>231</ele>
        <time>2018-03-13T10:51:43Z</time>
      </trkpt>
      <trkpt lat="45.98007" lon="4.80704">
        <ele>231</ele>
        <time>2018-03-13T10:51:44Z</time>
      </trkpt>
      <trkpt lat="45.98014" lon="4.80702">
        <ele>231</ele>
        <time>2018-03-13T10:51:45Z</time>
      </trkpt>
      <trkpt lat="45.9802" lon="4.807">
        <ele>231</ele>
        <time>2018-03-13T10:51:46Z</time>
      </trkpt>
      <trkpt lat="45.98026" lon="4.80699">
        <ele>231</ele>
        <time>2018-03-13T10:51:47Z</time>
      </trkpt>
      <trkpt lat="45.98033" lon="4.80697">
        <ele>230</ele>
        <time>2018-03-13T10:51:48Z</time>
      </trkpt>
      <trkpt lat="45.98039" lon="4.80696">
        <ele>230</ele>
        <time>2018-03-13T10:51:49Z</time>
      </trkpt>
      <trkpt lat="45.98046" lon="4.80694">
        <ele>230</ele>
        <time>2018-03-13T10:51:50Z</time>
      </trkpt>
      <trkpt lat="45.98053" lon="4.80693">
        <ele>230</ele>
        <time>2018-03-13T10:51:51Z</time>
      </trkpt>
      <trkpt lat="45.9806" lon="4.80692">
        <ele>230</ele>
        <time>2018-03-13T10:51:52Z</time>
      </trkpt>
      <trkpt lat="45.98067" lon="4.80693">
        <ele>230</ele>
        <time>2018-03-13T10:51:53Z</time>
      </trkpt>
      <trkpt lat="45.98074" lon="4.80692">
        <ele>230</ele>
        <time>2018-03-13T10:51:54Z</time>
      </trkpt>
      <trkpt lat="45.98082" lon="4.80692">
        <ele>230</ele>
        <time>2018-03-13T10:51:55Z</time>
      </trkpt>
      <trkpt lat="45.98089" lon="4.80692">
        <ele>228</ele>
        <time>2018-03-13T10:51:56Z</time>
      </trkpt>
      <trkpt lat="45.98094" lon="4.80691">
        <ele>228</ele>
        <time>2018-03-13T10:51:57Z</time>
      </trkpt>
      <trkpt lat="45.98102" lon="4.80692">
        <ele>228</ele>
        <time>2018-03-13T10:51:58Z</time>
      </trkpt>
      <trkpt lat="45.98109" lon="4.80693">
        <ele>228</ele>
        <time>2018-03-13T10:51:59Z</time>
      </trkpt>
      <trkpt lat="45.98117" lon="4.80693">
        <ele>228</ele>
        <time>2018-03-13T10:52:00Z</time>
      </trkpt>
      <trkpt lat="45.98125" lon="4.80692">
        <ele>228</ele>
        <time>2018-03-13T10:52:01Z</time>
      </trkpt>
      <trkpt lat="45.98133" lon="4.80691">
        <ele>228</ele>
        <time>2018-03-13T10:52:02Z</time>
      </trkpt>
      <trkpt lat="45.9814" lon="4.80691">
        <ele>228</ele>
        <time>2018-03-13T10:52:03Z</time>
      </trkpt>
      <trkpt lat="45.98149" lon="4.8069">
        <ele>228</ele>
        <time>2018-03-13T10:52:04Z</time>
      </trkpt>
      <trkpt lat="45.98156" lon="4.8069">
        <ele>227</ele>
        <time>2018-03-13T10:52:05Z</time>
      </trkpt>
      <trkpt lat="45.98164" lon="4.80689">
        <ele>227</ele>
        <time>2018-03-13T10:52:06Z</time>
      </trkpt>
      <trkpt lat="45.98171" lon="4.80689">
        <ele>225</ele>
        <time>2018-03-13T10:52:07Z</time>
      </trkpt>
      <trkpt lat="45.98179" lon="4.80688">
        <ele>225</ele>
        <time>2018-03-13T10:52:08Z</time>
      </trkpt>
      <trkpt lat="45.98186" lon="4.80687">
        <ele>225</ele>
        <time>2018-03-13T10:52:09Z</time>
      </trkpt>
      <trkpt lat="45.98193" lon="4.80684">
        <ele>225</ele>
        <time>2018-03-13T10:52:10Z</time>
      </trkpt>
      <trkpt lat="45.982" lon="4.80681">
        <ele>225</ele>
        <time>2018-03-13T10:52:11Z</time>
      </trkpt>
      <trkpt lat="45.98208" lon="4.80677">
        <ele>224</ele>
        <time>2018-03-13T10:52:12Z</time>
      </trkpt>
      <trkpt lat="45.98215" lon="4.80672">
        <ele>224</ele>
        <time>2018-03-13T10:52:13Z</time>
      </trkpt>
      <trkpt lat="45.98221" lon="4.80667">
        <ele>224</ele>
        <time>2018-03-13T10:52:14Z</time>
      </trkpt>
      <trkpt lat="45.98226" lon="4.80659">
        <ele>223</ele>
        <time>2018-03-13T10:52:15Z</time>
      </trkpt>
      <trkpt lat="45.98229" lon="4.80649">
        <ele>223</ele>
        <time>2018-03-13T10:52:16Z</time>
      </trkpt>
      <trkpt lat="45.98233" lon="4.8064">
        <ele>224</ele>
        <time>2018-03-13T10:52:17Z</time>
      </trkpt>
      <trkpt lat="45.98235" lon="4.8063">
        <ele>224</ele>
        <time>2018-03-13T10:52:18Z</time>
      </trkpt>
      <trkpt lat="45.98238" lon="4.80621">
        <ele>224</ele>
        <time>2018-03-13T10:52:19Z</time>
      </trkpt>
      <trkpt lat="45.9824" lon="4.80611">
        <ele>224</ele>
        <time>2018-03-13T10:52:20Z</time>
      </trkpt>
      <trkpt lat="45.98243" lon="4.80601">
        <ele>224</ele>
        <time>2018-03-13T10:52:21Z</time>
      </trkpt>
      <trkpt lat="45.98245" lon="4.80592">
        <ele>224</ele>
        <time>2018-03-13T10:52:22Z</time>
      </trkpt>
      <trkpt lat="45.98248" lon="4.80582">
        <ele>224</ele>
        <time>2018-03-13T10:52:23Z</time>
      </trkpt>
      <trkpt lat="45.9825" lon="4.80574">
        <ele>224</ele>
        <time>2018-03-13T10:52:24Z</time>
      </trkpt>
      <trkpt lat="45.98253" lon="4.80566">
        <ele>224</ele>
        <time>2018-03-13T10:52:25Z</time>
      </trkpt>
      <trkpt lat="45.98255" lon="4.80558">
        <ele>224</ele>
        <time>2018-03-13T10:52:26Z</time>
      </trkpt>
      <trkpt lat="45.98257" lon="4.8055">
        <ele>224</ele>
        <time>2018-03-13T10:52:27Z</time>
      </trkpt>
      <trkpt lat="45.9826" lon="4.80544">
        <ele>224</ele>
        <time>2018-03-13T10:52:28Z</time>
      </trkpt>
      <trkpt lat="45.98261" lon="4.80535">
        <ele>224</ele>
        <time>2018-03-13T10:52:29Z</time>
      </trkpt>
      <trkpt lat="45.98264" lon="4.80527">
        <ele>224</ele>
        <time>2018-03-13T10:52:30Z</time>
      </trkpt>
      <trkpt lat="45.98265" lon="4.80519">
        <ele>223</ele>
        <time>2018-03-13T10:52:31Z</time>
      </trkpt>
      <trkpt lat="45.98267" lon="4.80511">
        <ele>223</ele>
        <time>2018-03-13T10:52:32Z</time>
      </trkpt>
      <trkpt lat="45.98269" lon="4.80504">
        <ele>223</ele>
        <time>2018-03-13T10:52:33Z</time>
      </trkpt>
      <trkpt lat="45.9827" lon="4.80495">
        <ele>223</ele>
        <time>2018-03-13T10:52:34Z</time>
      </trkpt>
      <trkpt lat="45.98272" lon="4.80488">
        <ele>223</ele>
        <time>2018-03-13T10:52:35Z</time>
      </trkpt>
      <trkpt lat="45.98275" lon="4.80477">
        <ele>223</ele>
        <time>2018-03-13T10:52:36Z</time>
      </trkpt>
      <trkpt lat="45.98277" lon="4.80471">
        <ele>223</ele>
        <time>2018-03-13T10:52:37Z</time>
      </trkpt>
      <trkpt lat="45.98279" lon="4.80463">
        <ele>223</ele>
        <time>2018-03-13T10:52:38Z</time>
      </trkpt>
      <trkpt lat="45.98281" lon="4.80456">
        <ele>223</ele>
        <time>2018-03-13T10:52:39Z</time>
      </trkpt>
      <trkpt lat="45.98283" lon="4.80448">
        <ele>223</ele>
        <time>2018-03-13T10:52:40Z</time>
      </trkpt>
      <trkpt lat="45.98285" lon="4.80441">
        <ele>223</ele>
        <time>2018-03-13T10:52:41Z</time>
      </trkpt>
      <trkpt lat="45.98287" lon="4.80434">
        <ele>224</ele>
        <time>2018-03-13T10:52:42Z</time>
      </trkpt>
      <trkpt lat="45.98289" lon="4.80426">
        <ele>224</ele>
        <time>2018-03-13T10:52:43Z</time>
      </trkpt>
      <trkpt lat="45.98292" lon="4.80416">
        <ele>224</ele>
        <time>2018-03-13T10:52:44Z</time>
      </trkpt>
      <trkpt lat="45.98294" lon="4.80405">
        <ele>224</ele>
        <time>2018-03-13T10:52:46Z</time>
      </trkpt>
      <trkpt lat="45.98296" lon="4.80399">
        <ele>224</ele>
        <time>2018-03-13T10:52:47Z</time>
      </trkpt>
      <trkpt lat="45.98297" lon="4.80387">
        <ele>225</ele>
        <time>2018-03-13T10:52:49Z</time>
      </trkpt>
      <trkpt lat="45.98299" lon="4.80381">
        <ele>225</ele>
        <time>2018-03-13T10:52:50Z</time>
      </trkpt>
      <trkpt lat="45.98302" lon="4.80371">
        <ele>225</ele>
        <time>2018-03-13T10:52:52Z</time>
      </trkpt>
      <trkpt lat="45.98302" lon="4.80367">
        <ele>225</ele>
        <time>2018-03-13T10:52:53Z</time>
      </trkpt>
      <trkpt lat="45.98302" lon="4.80354">
        <ele>225</ele>
        <time>2018-03-13T10:52:56Z</time>
      </trkpt>
      <trkpt lat="45.98302" lon="4.80352">
        <ele>225</ele>
        <time>2018-03-13T10:52:57Z</time>
      </trkpt>
      <trkpt lat="45.98306" lon="4.80341">
        <ele>226</ele>
        <time>2018-03-13T10:52:59Z</time>
      </trkpt>
      <trkpt lat="45.98306" lon="4.80338">
        <ele>226</ele>
        <time>2018-03-13T10:53:00Z</time>
      </trkpt>
      <trkpt lat="45.98309" lon="4.80329">
        <ele>226</ele>
        <time>2018-03-13T10:53:01Z</time>
      </trkpt>
      <trkpt lat="45.9831" lon="4.80323">
        <ele>227</ele>
        <time>2018-03-13T10:53:02Z</time>
      </trkpt>
      <trkpt lat="45.98312" lon="4.80313">
        <ele>226</ele>
        <time>2018-03-13T10:53:04Z</time>
      </trkpt>
      <trkpt lat="45.98314" lon="4.80307">
        <ele>226</ele>
        <time>2018-03-13T10:53:05Z</time>
      </trkpt>
      <trkpt lat="45.98316" lon="4.80297">
        <ele>226</ele>
        <time>2018-03-13T10:53:07Z</time>
      </trkpt>
      <trkpt lat="45.98317" lon="4.80295">
        <ele>226</ele>
        <time>2018-03-13T10:53:08Z</time>
      </trkpt>
      <trkpt lat="45.9832" lon="4.80284">
        <ele>227</ele>
        <time>2018-03-13T10:53:10Z</time>
      </trkpt>
      <trkpt lat="45.98322" lon="4.80279">
        <ele>227</ele>
        <time>2018-03-13T10:53:11Z</time>
      </trkpt>
      <trkpt lat="45.98325" lon="4.80271">
        <ele>227</ele>
        <time>2018-03-13T10:53:14Z</time>
      </trkpt>
      <trkpt lat="45.98327" lon="4.8026">
        <ele>228</ele>
        <time>2018-03-13T10:53:15Z</time>
      </trkpt>
      <trkpt lat="45.98329" lon="4.80249">
        <ele>229</ele>
        <time>2018-03-13T10:53:19Z</time>
      </trkpt>
      <trkpt lat="45.98332" lon="4.80238">
        <ele>228</ele>
        <time>2018-03-13T10:53:20Z</time>
      </trkpt>
      <trkpt lat="45.98334" lon="4.80229">
        <ele>230</ele>
        <time>2018-03-13T10:53:23Z</time>
      </trkpt>
      <trkpt lat="45.98334" lon="4.80225">
        <ele>230</ele>
        <time>2018-03-13T10:53:24Z</time>
      </trkpt>
      <trkpt lat="45.98333" lon="4.80221">
        <ele>227</ele>
        <time>2018-03-13T10:53:25Z</time>
      </trkpt>
      <trkpt lat="45.98331" lon="4.8021">
        <ele>227</ele>
        <time>2018-03-13T10:53:26Z</time>
      </trkpt>
      <trkpt lat="45.98328" lon="4.80205">
        <ele>227</ele>
        <time>2018-03-13T10:53:28Z</time>
      </trkpt>
      <trkpt lat="45.98325" lon="4.80197">
        <ele>227</ele>
        <time>2018-03-13T10:53:29Z</time>
      </trkpt>
      <trkpt lat="45.98321" lon="4.80188">
        <ele>227</ele>
        <time>2018-03-13T10:53:31Z</time>
      </trkpt>
      <trkpt lat="45.98319" lon="4.80183">
        <ele>227</ele>
        <time>2018-03-13T10:53:32Z</time>
      </trkpt>
      <trkpt lat="45.98314" lon="4.80172">
        <ele>227</ele>
        <time>2018-03-13T10:53:34Z</time>
      </trkpt>
      <trkpt lat="45.98312" lon="4.80167">
        <ele>228</ele>
        <time>2018-03-13T10:53:35Z</time>
      </trkpt>
      <trkpt lat="45.98308" lon="4.80156">
        <ele>228</ele>
        <time>2018-03-13T10:53:37Z</time>
      </trkpt>
      <trkpt lat="45.98306" lon="4.80151">
        <ele>228</ele>
        <time>2018-03-13T10:53:38Z</time>
      </trkpt>
      <trkpt lat="45.98303" lon="4.8014">
        <ele>228</ele>
        <time>2018-03-13T10:53:40Z</time>
      </trkpt>
      <trkpt lat="45.98301" lon="4.80135">
        <ele>228</ele>
        <time>2018-03-13T10:53:41Z</time>
      </trkpt>
      <trkpt lat="45.98298" lon="4.80128">
        <ele>228</ele>
        <time>2018-03-13T10:53:42Z</time>
      </trkpt>
      <trkpt lat="45.98296" lon="4.80122">
        <ele>228</ele>
        <time>2018-03-13T10:53:43Z</time>
      </trkpt>
      <trkpt lat="45.98293" lon="4.80116">
        <ele>228</ele>
        <time>2018-03-13T10:53:44Z</time>
      </trkpt>
      <trkpt lat="45.98289" lon="4.8011">
        <ele>228</ele>
        <time>2018-03-13T10:53:45Z</time>
      </trkpt>
      <trkpt lat="45.98286" lon="4.80104">
        <ele>228</ele>
        <time>2018-03-13T10:53:46Z</time>
      </trkpt>
      <trkpt lat="45.98284" lon="4.80099">
        <ele>228</ele>
        <time>2018-03-13T10:53:47Z</time>
      </trkpt>
      <trkpt lat="45.98281" lon="4.80087">
        <ele>228</ele>
        <time>2018-03-13T10:53:49Z</time>
      </trkpt>
      <trkpt lat="45.98279" lon="4.80081">
        <ele>229</ele>
        <time>2018-03-13T10:53:50Z</time>
      </trkpt>
      <trkpt lat="45.98277" lon="4.8007">
        <ele>229</ele>
        <time>2018-03-13T10:53:52Z</time>
      </trkpt>
      <trkpt lat="45.98276" lon="4.80064">
        <ele>229</ele>
        <time>2018-03-13T10:53:53Z</time>
      </trkpt>
      <trkpt lat="45.98273" lon="4.80052">
        <ele>229</ele>
        <time>2018-03-13T10:53:55Z</time>
      </trkpt>
      <trkpt lat="45.9827" lon="4.80047">
        <ele>229</ele>
        <time>2018-03-13T10:53:56Z</time>
      </trkpt>
      <trkpt lat="45.98268" lon="4.8004">
        <ele>229</ele>
        <time>2018-03-13T10:53:57Z</time>
      </trkpt>
      <trkpt lat="45.98266" lon="4.80034">
        <ele>229</ele>
        <time>2018-03-13T10:53:58Z</time>
      </trkpt>
      <trkpt lat="45.98263" lon="4.80029">
        <ele>228</ele>
        <time>2018-03-13T10:53:59Z</time>
      </trkpt>
      <trkpt lat="45.98261" lon="4.80023">
        <ele>228</ele>
        <time>2018-03-13T10:54:00Z</time>
      </trkpt>
      <trkpt lat="45.98259" lon="4.80017">
        <ele>228</ele>
        <time>2018-03-13T10:54:01Z</time>
      </trkpt>
      <trkpt lat="45.98257" lon="4.8001">
        <ele>227</ele>
        <time>2018-03-13T10:54:02Z</time>
      </trkpt>
      <trkpt lat="45.98255" lon="4.80004">
        <ele>227</ele>
        <time>2018-03-13T10:54:03Z</time>
      </trkpt>
      <trkpt lat="45.98253" lon="4.79997">
        <ele>227</ele>
        <time>2018-03-13T10:54:04Z</time>
      </trkpt>
      <trkpt lat="45.98251" lon="4.79991">
        <ele>227</ele>
        <time>2018-03-13T10:54:05Z</time>
      </trkpt>
      <trkpt lat="45.98249" lon="4.79983">
        <ele>225</ele>
        <time>2018-03-13T10:54:06Z</time>
      </trkpt>
      <trkpt lat="45.98246" lon="4.79972">
        <ele>225</ele>
        <time>2018-03-13T10:54:08Z</time>
      </trkpt>
      <trkpt lat="45.98243" lon="4.79966">
        <ele>225</ele>
        <time>2018-03-13T10:54:09Z</time>
      </trkpt>
      <trkpt lat="45.9824" lon="4.7996">
        <ele>225</ele>
        <time>2018-03-13T10:54:10Z</time>
      </trkpt>
      <trkpt lat="45.98238" lon="4.79953">
        <ele>225</ele>
        <time>2018-03-13T10:54:11Z</time>
      </trkpt>
      <trkpt lat="45.98236" lon="4.79947">
        <ele>225</ele>
        <time>2018-03-13T10:54:12Z</time>
      </trkpt>
      <trkpt lat="45.98233" lon="4.79941">
        <ele>225</ele>
        <time>2018-03-13T10:54:13Z</time>
      </trkpt>
      <trkpt lat="45.98232" lon="4.79934">
        <ele>225</ele>
        <time>2018-03-13T10:54:14Z</time>
      </trkpt>
      <trkpt lat="45.9823" lon="4.79928">
        <ele>225</ele>
        <time>2018-03-13T10:54:15Z</time>
      </trkpt>
      <trkpt lat="45.98228" lon="4.79921">
        <ele>225</ele>
        <time>2018-03-13T10:54:16Z</time>
      </trkpt>
      <trkpt lat="45.98226" lon="4.79915">
        <ele>225</ele>
        <time>2018-03-13T10:54:17Z</time>
      </trkpt>
      <trkpt lat="45.98224" lon="4.79909">
        <ele>225</ele>
        <time>2018-03-13T10:54:18Z</time>
      </trkpt>
      <trkpt lat="45.98221" lon="4.79903">
        <ele>225</ele>
        <time>2018-03-13T10:54:19Z</time>
      </trkpt>
      <trkpt lat="45.98221" lon="4.79891">
        <ele>225</ele>
        <time>2018-03-13T10:54:21Z</time>
      </trkpt>
      <trkpt lat="45.98218" lon="4.79886">
        <ele>225</ele>
        <time>2018-03-13T10:54:22Z</time>
      </trkpt>
      <trkpt lat="45.98215" lon="4.79874">
        <ele>225</ele>
        <time>2018-03-13T10:54:24Z</time>
      </trkpt>
      <trkpt lat="45.98213" lon="4.79869">
        <ele>225</ele>
        <time>2018-03-13T10:54:25Z</time>
      </trkpt>
      <trkpt lat="45.9821" lon="4.79864">
        <ele>225</ele>
        <time>2018-03-13T10:54:26Z</time>
      </trkpt>
      <trkpt lat="45.98206" lon="4.79858">
        <ele>225</ele>
        <time>2018-03-13T10:54:27Z</time>
      </trkpt>
      <trkpt lat="45.98201" lon="4.79847">
        <ele>225</ele>
        <time>2018-03-13T10:54:29Z</time>
      </trkpt>
      <trkpt lat="45.98199" lon="4.79841">
        <ele>225</ele>
        <time>2018-03-13T10:54:30Z</time>
      </trkpt>
      <trkpt lat="45.98196" lon="4.79831">
        <ele>225</ele>
        <time>2018-03-13T10:54:32Z</time>
      </trkpt>
      <trkpt lat="45.98194" lon="4.79826">
        <ele>225</ele>
        <time>2018-03-13T10:54:33Z</time>
      </trkpt>
      <trkpt lat="45.98191" lon="4.79816">
        <ele>225</ele>
        <time>2018-03-13T10:54:36Z</time>
      </trkpt>
      <trkpt lat="45.9819" lon="4.79813">
        <ele>225</ele>
        <time>2018-03-13T10:54:37Z</time>
      </trkpt>
      <trkpt lat="45.98186" lon="4.79803">
        <ele>226</ele>
        <time>2018-03-13T10:54:40Z</time>
      </trkpt>
      <trkpt lat="45.98185" lon="4.798">
        <ele>226</ele>
        <time>2018-03-13T10:54:41Z</time>
      </trkpt>
      <trkpt lat="45.98183" lon="4.79789">
        <ele>226</ele>
        <time>2018-03-13T10:54:44Z</time>
      </trkpt>
      <trkpt lat="45.98182" lon="4.79786">
        <ele>226</ele>
        <time>2018-03-13T10:54:45Z</time>
      </trkpt>
      <trkpt lat="45.98182" lon="4.79775">
        <ele>226</ele>
        <time>2018-03-13T10:54:48Z</time>
      </trkpt>
      <trkpt lat="45.98182" lon="4.79771">
        <ele>226</ele>
        <time>2018-03-13T10:54:49Z</time>
      </trkpt>
      <trkpt lat="45.98183" lon="4.79758">
        <ele>226</ele>
        <time>2018-03-13T10:54:52Z</time>
      </trkpt>
      <trkpt lat="45.98182" lon="4.79745">
        <ele>227</ele>
        <time>2018-03-13T10:54:53Z</time>
      </trkpt>
      <trkpt lat="45.98175" lon="4.79737">
        <ele>227</ele>
        <time>2018-03-13T10:54:55Z</time>
      </trkpt>
      <trkpt lat="45.98169" lon="4.7974">
        <ele>227</ele>
        <time>2018-03-13T10:54:56Z</time>
      </trkpt>
      <trkpt lat="45.98163" lon="4.79742">
        <ele>226</ele>
        <time>2018-03-13T10:54:57Z</time>
      </trkpt>
      <trkpt lat="45.98159" lon="4.79746">
        <ele>226</ele>
        <time>2018-03-13T10:54:58Z</time>
      </trkpt>
      <trkpt lat="45.98154" lon="4.79749">
        <ele>226</ele>
        <time>2018-03-13T10:54:59Z</time>
      </trkpt>
      <trkpt lat="45.98149" lon="4.79753">
        <ele>225</ele>
        <time>2018-03-13T10:55:00Z</time>
      </trkpt>
      <trkpt lat="45.98143" lon="4.79755">
        <ele>225</ele>
        <time>2018-03-13T10:55:01Z</time>
      </trkpt>
      <trkpt lat="45.98137" lon="4.79756">
        <ele>224</ele>
        <time>2018-03-13T10:55:02Z</time>
      </trkpt>
      <trkpt lat="45.98131" lon="4.79757">
        <ele>224</ele>
        <time>2018-03-13T10:55:03Z</time>
      </trkpt>
      <trkpt lat="45.98124" lon="4.79759">
        <ele>224</ele>
        <time>2018-03-13T10:55:04Z</time>
      </trkpt>
      <trkpt lat="45.98117" lon="4.7976">
        <ele>224</ele>
        <time>2018-03-13T10:55:05Z</time>
      </trkpt>
      <trkpt lat="45.98111" lon="4.79761">
        <ele>224</ele>
        <time>2018-03-13T10:55:06Z</time>
      </trkpt>
      <trkpt lat="45.98103" lon="4.79762">
        <ele>224</ele>
        <time>2018-03-13T10:55:07Z</time>
      </trkpt>
      <trkpt lat="45.98097" lon="4.79763">
        <ele>223</ele>
        <time>2018-03-13T10:55:08Z</time>
      </trkpt>
      <trkpt lat="45.9809" lon="4.79764">
        <ele>223</ele>
        <time>2018-03-13T10:55:09Z</time>
      </trkpt>
      <trkpt lat="45.98084" lon="4.79765">
        <ele>223</ele>
        <time>2018-03-13T10:55:10Z</time>
      </trkpt>
      <trkpt lat="45.98077" lon="4.79767">
        <ele>223</ele>
        <time>2018-03-13T10:55:11Z</time>
      </trkpt>
      <trkpt lat="45.98071" lon="4.79767">
        <ele>223</ele>
        <time>2018-03-13T10:55:12Z</time>
      </trkpt>
      <trkpt lat="45.98064" lon="4.79768">
        <ele>223</ele>
        <time>2018-03-13T10:55:13Z</time>
      </trkpt>
      <trkpt lat="45.98058" lon="4.79768">
        <ele>223</ele>
        <time>2018-03-13T10:55:14Z</time>
      </trkpt>
      <trkpt lat="45.98052" lon="4.79769">
        <ele>223</ele>
        <time>2018-03-13T10:55:15Z</time>
      </trkpt>
      <trkpt lat="45.98046" lon="4.7977">
        <ele>223</ele>
        <time>2018-03-13T10:55:16Z</time>
      </trkpt>
      <trkpt lat="45.98039" lon="4.7977">
        <ele>223</ele>
        <time>2018-03-13T10:55:17Z</time>
      </trkpt>
      <trkpt lat="45.98033" lon="4.79771">
        <ele>223</ele>
        <time>2018-03-13T10:55:18Z</time>
      </trkpt>
      <trkpt lat="45.98027" lon="4.79772">
        <ele>223</ele>
        <time>2018-03-13T10:55:19Z</time>
      </trkpt>
      <trkpt lat="45.9802" lon="4.79773">
        <ele>223</ele>
        <time>2018-03-13T10:55:20Z</time>
      </trkpt>
      <trkpt lat="45.98014" lon="4.79774">
        <ele>223</ele>
        <time>2018-03-13T10:55:21Z</time>
      </trkpt>
      <trkpt lat="45.98008" lon="4.79775">
        <ele>223</ele>
        <time>2018-03-13T10:55:22Z</time>
      </trkpt>
      <trkpt lat="45.98002" lon="4.79776">
        <ele>223</ele>
        <time>2018-03-13T10:55:23Z</time>
      </trkpt>
      <trkpt lat="45.97996" lon="4.79776">
        <ele>224</ele>
        <time>2018-03-13T10:55:24Z</time>
      </trkpt>
      <trkpt lat="45.9799" lon="4.79777">
        <ele>224</ele>
        <time>2018-03-13T10:55:25Z</time>
      </trkpt>
      <trkpt lat="45.97984" lon="4.79777">
        <ele>224</ele>
        <time>2018-03-13T10:55:26Z</time>
      </trkpt>
      <trkpt lat="45.97978" lon="4.79778">
        <ele>224</ele>
        <time>2018-03-13T10:55:27Z</time>
      </trkpt>
      <trkpt lat="45.97973" lon="4.79779">
        <ele>224</ele>
        <time>2018-03-13T10:55:28Z</time>
      </trkpt>
      <trkpt lat="45.97967" lon="4.79779">
        <ele>224</ele>
        <time>2018-03-13T10:55:29Z</time>
      </trkpt>
      <trkpt lat="45.97961" lon="4.7978">
        <ele>224</ele>
        <time>2018-03-13T10:55:30Z</time>
      </trkpt>
      <trkpt lat="45.97957" lon="4.79781">
        <ele>224</ele>
        <time>2018-03-13T10:55:31Z</time>
      </trkpt>
      <trkpt lat="45.9795" lon="4.79781">
        <ele>224</ele>
        <time>2018-03-13T10:55:32Z</time>
      </trkpt>
      <trkpt lat="45.97944" lon="4.79782">
        <ele>224</ele>
        <time>2018-03-13T10:55:33Z</time>
      </trkpt>
      <trkpt lat="45.97938" lon="4.79784">
        <ele>224</ele>
        <time>2018-03-13T10:55:34Z</time>
      </trkpt>
      <trkpt lat="45.97932" lon="4.79785">
        <ele>224</ele>
        <time>2018-03-13T10:55:35Z</time>
      </trkpt>
      <trkpt lat="45.97927" lon="4.79785">
        <ele>225</ele>
        <time>2018-03-13T10:55:36Z</time>
      </trkpt>
      <trkpt lat="45.97921" lon="4.79785">
        <ele>225</ele>
        <time>2018-03-13T10:55:37Z</time>
      </trkpt>
      <trkpt lat="45.97916" lon="4.79785">
        <ele>225</ele>
        <time>2018-03-13T10:55:38Z</time>
      </trkpt>
      <trkpt lat="45.97911" lon="4.79785">
        <ele>225</ele>
        <time>2018-03-13T10:55:39Z</time>
      </trkpt>
      <trkpt lat="45.97905" lon="4.79788">
        <ele>225</ele>
        <time>2018-03-13T10:55:40Z</time>
      </trkpt>
      <trkpt lat="45.97898" lon="4.7979">
        <ele>224</ele>
        <time>2018-03-13T10:55:41Z</time>
      </trkpt>
      <trkpt lat="45.97893" lon="4.79791">
        <ele>224</ele>
        <time>2018-03-13T10:55:42Z</time>
      </trkpt>
      <trkpt lat="45.97887" lon="4.79792">
        <ele>224</ele>
        <time>2018-03-13T10:55:43Z</time>
      </trkpt>
      <trkpt lat="45.97883" lon="4.79793">
        <ele>224</ele>
        <time>2018-03-13T10:55:44Z</time>
      </trkpt>
      <trkpt lat="45.97877" lon="4.79794">
        <ele>224</ele>
        <time>2018-03-13T10:55:45Z</time>
      </trkpt>
      <trkpt lat="45.97872" lon="4.79795">
        <ele>224</ele>
        <time>2018-03-13T10:55:46Z</time>
      </trkpt>
      <trkpt lat="45.97866" lon="4.79797">
        <ele>224</ele>
        <time>2018-03-13T10:55:47Z</time>
      </trkpt>
      <trkpt lat="45.97861" lon="4.79798">
        <ele>224</ele>
        <time>2018-03-13T10:55:48Z</time>
      </trkpt>
      <trkpt lat="45.97854" lon="4.79799">
        <ele>224</ele>
        <time>2018-03-13T10:55:49Z</time>
      </trkpt>
      <trkpt lat="45.97848" lon="4.79799">
        <ele>224</ele>
        <time>2018-03-13T10:55:50Z</time>
      </trkpt>
      <trkpt lat="45.97842" lon="4.798">
        <ele>224</ele>
        <time>2018-03-13T10:55:51Z</time>
      </trkpt>
      <trkpt lat="45.97836" lon="4.79801">
        <ele>224</ele>
        <time>2018-03-13T10:55:52Z</time>
      </trkpt>
      <trkpt lat="45.9783" lon="4.79802">
        <ele>223</ele>
        <time>2018-03-13T10:55:53Z</time>
      </trkpt>
      <trkpt lat="45.97825" lon="4.79804">
        <ele>223</ele>
        <time>2018-03-13T10:55:54Z</time>
      </trkpt>
      <trkpt lat="45.9782" lon="4.79803">
        <ele>223</ele>
        <time>2018-03-13T10:55:55Z</time>
      </trkpt>
      <trkpt lat="45.97814" lon="4.79804">
        <ele>223</ele>
        <time>2018-03-13T10:55:56Z</time>
      </trkpt>
      <trkpt lat="45.97809" lon="4.79805">
        <ele>223</ele>
        <time>2018-03-13T10:55:57Z</time>
      </trkpt>
      <trkpt lat="45.97803" lon="4.79806">
        <ele>223</ele>
        <time>2018-03-13T10:55:58Z</time>
      </trkpt>
      <trkpt lat="45.97797" lon="4.79807">
        <ele>223</ele>
        <time>2018-03-13T10:55:59Z</time>
      </trkpt>
      <trkpt lat="45.97791" lon="4.79807">
        <ele>223</ele>
        <time>2018-03-13T10:56:00Z</time>
      </trkpt>
      <trkpt lat="45.97785" lon="4.79808">
        <ele>223</ele>
        <time>2018-03-13T10:56:01Z</time>
      </trkpt>
      <trkpt lat="45.97779" lon="4.79809">
        <ele>223</ele>
        <time>2018-03-13T10:56:02Z</time>
      </trkpt>
      <trkpt lat="45.97773" lon="4.79811">
        <ele>223</ele>
        <time>2018-03-13T10:56:03Z</time>
      </trkpt>
      <trkpt lat="45.97767" lon="4.79812">
        <ele>223</ele>
        <time>2018-03-13T10:56:04Z</time>
      </trkpt>
      <trkpt lat="45.97762" lon="4.79813">
        <ele>223</ele>
        <time>2018-03-13T10:56:05Z</time>
      </trkpt>
      <trkpt lat="45.97756" lon="4.79814">
        <ele>223</ele>
        <time>2018-03-13T10:56:06Z</time>
      </trkpt>
      <trkpt lat="45.9775" lon="4.79815">
        <ele>223</ele>
        <time>2018-03-13T10:56:07Z</time>
      </trkpt>
      <trkpt lat="45.97744" lon="4.79815">
        <ele>223</ele>
        <time>2018-03-13T10:56:08Z</time>
      </trkpt>
      <trkpt lat="45.97737" lon="4.79816">
        <ele>223</ele>
        <time>2018-03-13T10:56:09Z</time>
      </trkpt>
      <trkpt lat="45.97732" lon="4.79817">
        <ele>223</ele>
        <time>2018-03-13T10:56:10Z</time>
      </trkpt>
      <trkpt lat="45.97727" lon="4.79818">
        <ele>223</ele>
        <time>2018-03-13T10:56:11Z</time>
      </trkpt>
      <trkpt lat="45.97723" lon="4.7982">
        <ele>223</ele>
        <time>2018-03-13T10:56:12Z</time>
      </trkpt>
      <trkpt lat="45.97718" lon="4.79821">
        <ele>223</ele>
        <time>2018-03-13T10:56:13Z</time>
      </trkpt>
      <trkpt lat="45.97713" lon="4.79823">
        <ele>223</ele>
        <time>2018-03-13T10:56:14Z</time>
      </trkpt>
      <trkpt lat="45.97708" lon="4.79823">
        <ele>223</ele>
        <time>2018-03-13T10:56:15Z</time>
      </trkpt>
      <trkpt lat="45.97703" lon="4.79824">
        <ele>223</ele>
        <time>2018-03-13T10:56:16Z</time>
      </trkpt>
      <trkpt lat="45.97698" lon="4.79825">
        <ele>223</ele>
        <time>2018-03-13T10:56:17Z</time>
      </trkpt>
      <trkpt lat="45.97692" lon="4.79826">
        <ele>223</ele>
        <time>2018-03-13T10:56:18Z</time>
      </trkpt>
      <trkpt lat="45.97688" lon="4.79827">
        <ele>223</ele>
        <time>2018-03-13T10:56:19Z</time>
      </trkpt>
      <trkpt lat="45.97683" lon="4.79828">
        <ele>223</ele>
        <time>2018-03-13T10:56:20Z</time>
      </trkpt>
      <trkpt lat="45.97678" lon="4.7983">
        <ele>223</ele>
        <time>2018-03-13T10:56:21Z</time>
      </trkpt>
      <trkpt lat="45.97672" lon="4.79833">
        <ele>222</ele>
        <time>2018-03-13T10:56:22Z</time>
      </trkpt>
      <trkpt lat="45.97666" lon="4.79835">
        <ele>222</ele>
        <time>2018-03-13T10:56:23Z</time>
      </trkpt>
      <trkpt lat="45.9766" lon="4.79836">
        <ele>222</ele>
        <time>2018-03-13T10:56:24Z</time>
      </trkpt>
      <trkpt lat="45.97655" lon="4.79838">
        <ele>221</ele>
        <time>2018-03-13T10:56:25Z</time>
      </trkpt>
      <trkpt lat="45.97649" lon="4.7984">
        <ele>221</ele>
        <time>2018-03-13T10:56:26Z</time>
      </trkpt>
      <trkpt lat="45.97643" lon="4.79842">
        <ele>221</ele>
        <time>2018-03-13T10:56:27Z</time>
      </trkpt>
      <trkpt lat="45.97637" lon="4.79844">
        <ele>221</ele>
        <time>2018-03-13T10:56:28Z</time>
      </trkpt>
      <trkpt lat="45.9763" lon="4.79847">
        <ele>221</ele>
        <time>2018-03-13T10:56:29Z</time>
      </trkpt>
      <trkpt lat="45.97624" lon="4.79849">
        <ele>221</ele>
        <time>2018-03-13T10:56:30Z</time>
      </trkpt>
      <trkpt lat="45.97617" lon="4.79852">
        <ele>221</ele>
        <time>2018-03-13T10:56:31Z</time>
      </trkpt>
      <trkpt lat="45.97611" lon="4.79854">
        <ele>221</ele>
        <time>2018-03-13T10:56:32Z</time>
      </trkpt>
      <trkpt lat="45.97605" lon="4.79857">
        <ele>221</ele>
        <time>2018-03-13T10:56:33Z</time>
      </trkpt>
      <trkpt lat="45.97599" lon="4.79859">
        <ele>221</ele>
        <time>2018-03-13T10:56:34Z</time>
      </trkpt>
      <trkpt lat="45.97593" lon="4.79861">
        <ele>221</ele>
        <time>2018-03-13T10:56:35Z</time>
      </trkpt>
      <trkpt lat="45.97587" lon="4.79864">
        <ele>221</ele>
        <time>2018-03-13T10:56:36Z</time>
      </trkpt>
      <trkpt lat="45.97581" lon="4.79866">
        <ele>222</ele>
        <time>2018-03-13T10:56:37Z</time>
      </trkpt>
      <trkpt lat="45.97574" lon="4.79867">
        <ele>222</ele>
        <time>2018-03-13T10:56:38Z</time>
      </trkpt>
      <trkpt lat="45.97569" lon="4.79871">
        <ele>222</ele>
        <time>2018-03-13T10:56:39Z</time>
      </trkpt>
      <trkpt lat="45.97562" lon="4.79873">
        <ele>222</ele>
        <time>2018-03-13T10:56:40Z</time>
      </trkpt>
      <trkpt lat="45.97556" lon="4.79875">
        <ele>222</ele>
        <time>2018-03-13T10:56:41Z</time>
      </trkpt>
      <trkpt lat="45.97549" lon="4.79877">
        <ele>222</ele>
        <time>2018-03-13T10:56:42Z</time>
      </trkpt>
      <trkpt lat="45.97542" lon="4.79879">
        <ele>222</ele>
        <time>2018-03-13T10:56:43Z</time>
      </trkpt>
      <trkpt lat="45.97536" lon="4.7988">
        <ele>222</ele>
        <time>2018-03-13T10:56:44Z</time>
      </trkpt>
      <trkpt lat="45.97528" lon="4.79882">
        <ele>222</ele>
        <time>2018-03-13T10:56:45Z</time>
      </trkpt>
      <trkpt lat="45.97519" lon="4.79883">
        <ele>222</ele>
        <time>2018-03-13T10:56:46Z</time>
      </trkpt>
      <trkpt lat="45.97512" lon="4.79885">
        <ele>221</ele>
        <time>2018-03-13T10:56:47Z</time>
      </trkpt>
      <trkpt lat="45.97503" lon="4.79887">
        <ele>221</ele>
        <time>2018-03-13T10:56:48Z</time>
      </trkpt>
      <trkpt lat="45.97495" lon="4.79888">
        <ele>221</ele>
        <time>2018-03-13T10:56:49Z</time>
      </trkpt>
      <trkpt lat="45.97487" lon="4.79889">
        <ele>221</ele>
        <time>2018-03-13T10:56:50Z</time>
      </trkpt>
      <trkpt lat="45.97478" lon="4.79889">
        <ele>221</ele>
        <time>2018-03-13T10:56:51Z</time>
      </trkpt>
      <trkpt lat="45.97469" lon="4.79889">
        <ele>221</ele>
        <time>2018-03-13T10:56:52Z</time>
      </trkpt>
      <trkpt lat="45.9746" lon="4.79888">
        <ele>221</ele>
        <time>2018-03-13T10:56:53Z</time>
      </trkpt>
      <trkpt lat="45.9745" lon="4.79888">
        <ele>221</ele>
        <time>2018-03-13T10:56:54Z</time>
      </trkpt>
      <trkpt lat="45.97442" lon="4.79889">
        <ele>220</ele>
        <time>2018-03-13T10:56:55Z</time>
      </trkpt>
      <trkpt lat="45.97432" lon="4.7989">
        <ele>220</ele>
        <time>2018-03-13T10:56:56Z</time>
      </trkpt>
      <trkpt lat="45.97424" lon="4.79891">
        <ele>220</ele>
        <time>2018-03-13T10:56:57Z</time>
      </trkpt>
      <trkpt lat="45.97415" lon="4.79892">
        <ele>218</ele>
        <time>2018-03-13T10:56:58Z</time>
      </trkpt>
      <trkpt lat="45.97407" lon="4.79893">
        <ele>217</ele>
        <time>2018-03-13T10:56:59Z</time>
      </trkpt>
      <trkpt lat="45.97399" lon="4.79895">
        <ele>217</ele>
        <time>2018-03-13T10:57:00Z</time>
      </trkpt>
      <trkpt lat="45.9739" lon="4.79897">
        <ele>217</ele>
        <time>2018-03-13T10:57:01Z</time>
      </trkpt>
      <trkpt lat="45.97382" lon="4.799">
        <ele>217</ele>
        <time>2018-03-13T10:57:02Z</time>
      </trkpt>
      <trkpt lat="45.97372" lon="4.799">
        <ele>217</ele>
        <time>2018-03-13T10:57:03Z</time>
      </trkpt>
      <trkpt lat="45.97362" lon="4.79901">
        <ele>216</ele>
        <time>2018-03-13T10:57:04Z</time>
      </trkpt>
      <trkpt lat="45.97354" lon="4.79902">
        <ele>216</ele>
        <time>2018-03-13T10:57:05Z</time>
      </trkpt>
      <trkpt lat="45.97345" lon="4.79904">
        <ele>215</ele>
        <time>2018-03-13T10:57:06Z</time>
      </trkpt>
      <trkpt lat="45.97338" lon="4.79904">
        <ele>215</ele>
        <time>2018-03-13T10:57:07Z</time>
      </trkpt>
      <trkpt lat="45.97329" lon="4.79906">
        <ele>213</ele>
        <time>2018-03-13T10:57:08Z</time>
      </trkpt>
      <trkpt lat="45.97321" lon="4.79908">
        <ele>213</ele>
        <time>2018-03-13T10:57:09Z</time>
      </trkpt>
      <trkpt lat="45.97311" lon="4.79909">
        <ele>213</ele>
        <time>2018-03-13T10:57:10Z</time>
      </trkpt>
      <trkpt lat="45.97303" lon="4.7991">
        <ele>213</ele>
        <time>2018-03-13T10:57:11Z</time>
      </trkpt>
      <trkpt lat="45.97295" lon="4.79912">
        <ele>213</ele>
        <time>2018-03-13T10:57:12Z</time>
      </trkpt>
      <trkpt lat="45.97288" lon="4.79913">
        <ele>213</ele>
        <time>2018-03-13T10:57:13Z</time>
      </trkpt>
      <trkpt lat="45.97281" lon="4.79914">
        <ele>213</ele>
        <time>2018-03-13T10:57:14Z</time>
      </trkpt>
      <trkpt lat="45.97275" lon="4.79915">
        <ele>213</ele>
        <time>2018-03-13T10:57:15Z</time>
      </trkpt>
      <trkpt lat="45.97269" lon="4.79915">
        <ele>213</ele>
        <time>2018-03-13T10:57:16Z</time>
      </trkpt>
      <trkpt lat="45.97263" lon="4.79915">
        <ele>213</ele>
        <time>2018-03-13T10:57:17Z</time>
      </trkpt>
      <trkpt lat="45.97258" lon="4.79914">
        <ele>212</ele>
        <time>2018-03-13T10:57:18Z</time>
      </trkpt>
      <trkpt lat="45.97253" lon="4.79905">
        <ele>213</ele>
        <time>2018-03-13T10:57:20Z</time>
      </trkpt>
      <trkpt lat="45.9725" lon="4.79899">
        <ele>211</ele>
        <time>2018-03-13T10:57:21Z</time>
      </trkpt>
      <trkpt lat="45.97248" lon="4.79892">
        <ele>211</ele>
        <time>2018-03-13T10:57:22Z</time>
      </trkpt>
      <trkpt lat="45.97246" lon="4.79885">
        <ele>211</ele>
        <time>2018-03-13T10:57:23Z</time>
      </trkpt>
      <trkpt lat="45.97244" lon="4.79877">
        <ele>211</ele>
        <time>2018-03-13T10:57:24Z</time>
      </trkpt>
      <trkpt lat="45.97241" lon="4.79869">
        <ele>211</ele>
        <time>2018-03-13T10:57:25Z</time>
      </trkpt>
      <trkpt lat="45.97239" lon="4.79861">
        <ele>211</ele>
        <time>2018-03-13T10:57:26Z</time>
      </trkpt>
      <trkpt lat="45.97239" lon="4.79852">
        <ele>211</ele>
        <time>2018-03-13T10:57:27Z</time>
      </trkpt>
      <trkpt lat="45.97238" lon="4.79844">
        <ele>211</ele>
        <time>2018-03-13T10:57:28Z</time>
      </trkpt>
      <trkpt lat="45.97238" lon="4.79836">
        <ele>211</ele>
        <time>2018-03-13T10:57:29Z</time>
      </trkpt>
      <trkpt lat="45.97239" lon="4.79828">
        <ele>211</ele>
        <time>2018-03-13T10:57:30Z</time>
      </trkpt>
      <trkpt lat="45.97239" lon="4.7982">
        <ele>211</ele>
        <time>2018-03-13T10:57:31Z</time>
      </trkpt>
      <trkpt lat="45.97239" lon="4.79812">
        <ele>211</ele>
        <time>2018-03-13T10:57:32Z</time>
      </trkpt>
      <trkpt lat="45.97238" lon="4.79804">
        <ele>210</ele>
        <time>2018-03-13T10:57:33Z</time>
      </trkpt>
      <trkpt lat="45.97239" lon="4.79796">
        <ele>210</ele>
        <time>2018-03-13T10:57:34Z</time>
      </trkpt>
      <trkpt lat="45.97239" lon="4.79788">
        <ele>210</ele>
        <time>2018-03-13T10:57:35Z</time>
      </trkpt>
      <trkpt lat="45.9724" lon="4.79781">
        <ele>210</ele>
        <time>2018-03-13T10:57:36Z</time>
      </trkpt>
      <trkpt lat="45.9724" lon="4.79774">
        <ele>210</ele>
        <time>2018-03-13T10:57:37Z</time>
      </trkpt>
      <trkpt lat="45.97241" lon="4.79765">
        <ele>209</ele>
        <time>2018-03-13T10:57:38Z</time>
      </trkpt>
      <trkpt lat="45.97242" lon="4.79758">
        <ele>209</ele>
        <time>2018-03-13T10:57:39Z</time>
      </trkpt>
      <trkpt lat="45.97243" lon="4.79752">
        <ele>209</ele>
        <time>2018-03-13T10:57:40Z</time>
      </trkpt>
      <trkpt lat="45.97245" lon="4.79744">
        <ele>209</ele>
        <time>2018-03-13T10:57:41Z</time>
      </trkpt>
      <trkpt lat="45.97244" lon="4.79737">
        <ele>209</ele>
        <time>2018-03-13T10:57:42Z</time>
      </trkpt>
      <trkpt lat="45.97246" lon="4.7973">
        <ele>209</ele>
        <time>2018-03-13T10:57:43Z</time>
      </trkpt>
      <trkpt lat="45.97247" lon="4.79721">
        <ele>209</ele>
        <time>2018-03-13T10:57:44Z</time>
      </trkpt>
      <trkpt lat="45.97249" lon="4.79714">
        <ele>209</ele>
        <time>2018-03-13T10:57:45Z</time>
      </trkpt>
      <trkpt lat="45.9725" lon="4.79707">
        <ele>208</ele>
        <time>2018-03-13T10:57:46Z</time>
      </trkpt>
      <trkpt lat="45.9725" lon="4.79699">
        <ele>208</ele>
        <time>2018-03-13T10:57:47Z</time>
      </trkpt>
      <trkpt lat="45.97252" lon="4.79693">
        <ele>212</ele>
        <time>2018-03-13T10:57:48Z</time>
      </trkpt>
      <trkpt lat="45.97254" lon="4.79685">
        <ele>211</ele>
        <time>2018-03-13T10:57:49Z</time>
      </trkpt>
      <trkpt lat="45.97255" lon="4.79678">
        <ele>210</ele>
        <time>2018-03-13T10:57:50Z</time>
      </trkpt>
      <trkpt lat="45.97256" lon="4.79671">
        <ele>210</ele>
        <time>2018-03-13T10:57:51Z</time>
      </trkpt>
      <trkpt lat="45.97257" lon="4.79663">
        <ele>210</ele>
        <time>2018-03-13T10:57:52Z</time>
      </trkpt>
      <trkpt lat="45.97258" lon="4.79657">
        <ele>211</ele>
        <time>2018-03-13T10:57:53Z</time>
      </trkpt>
      <trkpt lat="45.97258" lon="4.7965">
        <ele>212</ele>
        <time>2018-03-13T10:57:54Z</time>
      </trkpt>
      <trkpt lat="45.97258" lon="4.79643">
        <ele>212</ele>
        <time>2018-03-13T10:57:55Z</time>
      </trkpt>
      <trkpt lat="45.97258" lon="4.79636">
        <ele>213</ele>
        <time>2018-03-13T10:57:56Z</time>
      </trkpt>
      <trkpt lat="45.97258" lon="4.7963">
        <ele>213</ele>
        <time>2018-03-13T10:57:57Z</time>
      </trkpt>
      <trkpt lat="45.97258" lon="4.79622">
        <ele>213</ele>
        <time>2018-03-13T10:57:58Z</time>
      </trkpt>
      <trkpt lat="45.97257" lon="4.79615">
        <ele>213</ele>
        <time>2018-03-13T10:57:59Z</time>
      </trkpt>
      <trkpt lat="45.97257" lon="4.79608">
        <ele>213</ele>
        <time>2018-03-13T10:58:00Z</time>
      </trkpt>
      <trkpt lat="45.97257" lon="4.79601">
        <ele>212</ele>
        <time>2018-03-13T10:58:01Z</time>
      </trkpt>
      <trkpt lat="45.97257" lon="4.79594">
        <ele>212</ele>
        <time>2018-03-13T10:58:02Z</time>
      </trkpt>
      <trkpt lat="45.97256" lon="4.79588">
        <ele>211</ele>
        <time>2018-03-13T10:58:03Z</time>
      </trkpt>
      <trkpt lat="45.97256" lon="4.79577">
        <ele>212</ele>
        <time>2018-03-13T10:58:05Z</time>
      </trkpt>
      <trkpt lat="45.97256" lon="4.79571">
        <ele>212</ele>
        <time>2018-03-13T10:58:06Z</time>
      </trkpt>
      <trkpt lat="45.97255" lon="4.79558">
        <ele>213</ele>
        <time>2018-03-13T10:58:08Z</time>
      </trkpt>
      <trkpt lat="45.97254" lon="4.79552">
        <ele>214</ele>
        <time>2018-03-13T10:58:09Z</time>
      </trkpt>
      <trkpt lat="45.97253" lon="4.79546">
        <ele>214</ele>
        <time>2018-03-13T10:58:10Z</time>
      </trkpt>
      <trkpt lat="45.97252" lon="4.79539">
        <ele>214</ele>
        <time>2018-03-13T10:58:11Z</time>
      </trkpt>
      <trkpt lat="45.97251" lon="4.79527">
        <ele>214</ele>
        <time>2018-03-13T10:58:13Z</time>
      </trkpt>
      <trkpt lat="45.9725" lon="4.7952">
        <ele>210</ele>
        <time>2018-03-13T10:58:14Z</time>
      </trkpt>
      <trkpt lat="45.97249" lon="4.79514">
        <ele>210</ele>
        <time>2018-03-13T10:58:15Z</time>
      </trkpt>
      <trkpt lat="45.97248" lon="4.79507">
        <ele>210</ele>
        <time>2018-03-13T10:58:16Z</time>
      </trkpt>
      <trkpt lat="45.97247" lon="4.79501">
        <ele>211</ele>
        <time>2018-03-13T10:58:17Z</time>
      </trkpt>
      <trkpt lat="45.97244" lon="4.79494">
        <ele>210</ele>
        <time>2018-03-13T10:58:18Z</time>
      </trkpt>
      <trkpt lat="45.97243" lon="4.79487">
        <ele>210</ele>
        <time>2018-03-13T10:58:19Z</time>
      </trkpt>
      <trkpt lat="45.97242" lon="4.79479">
        <ele>209</ele>
        <time>2018-03-13T10:58:20Z</time>
      </trkpt>
      <trkpt lat="45.97241" lon="4.79472">
        <ele>209</ele>
        <time>2018-03-13T10:58:21Z</time>
      </trkpt>
      <trkpt lat="45.97237" lon="4.79466">
        <ele>209</ele>
        <time>2018-03-13T10:58:22Z</time>
      </trkpt>
      <trkpt lat="45.97234" lon="4.79456">
        <ele>209</ele>
        <time>2018-03-13T10:58:26Z</time>
      </trkpt>
      <trkpt lat="45.9723" lon="4.79446">
        <ele>209</ele>
        <time>2018-03-13T10:58:27Z</time>
      </trkpt>
      <trkpt lat="45.97228" lon="4.79441">
        <ele>209</ele>
        <time>2018-03-13T10:58:28Z</time>
      </trkpt>
      <trkpt lat="45.97225" lon="4.79435">
        <ele>209</ele>
        <time>2018-03-13T10:58:29Z</time>
      </trkpt>
      <trkpt lat="45.97222" lon="4.79429">
        <ele>209</ele>
        <time>2018-03-13T10:58:30Z</time>
      </trkpt>
      <trkpt lat="45.9722" lon="4.79422">
        <ele>208</ele>
        <time>2018-03-13T10:58:31Z</time>
      </trkpt>
      <trkpt lat="45.97218" lon="4.79416">
        <ele>208</ele>
        <time>2018-03-13T10:58:32Z</time>
      </trkpt>
      <trkpt lat="45.97215" lon="4.7941">
        <ele>208</ele>
        <time>2018-03-13T10:58:33Z</time>
      </trkpt>
      <trkpt lat="45.97213" lon="4.79404">
        <ele>208</ele>
        <time>2018-03-13T10:58:34Z</time>
      </trkpt>
      <trkpt lat="45.97211" lon="4.79398">
        <ele>208</ele>
        <time>2018-03-13T10:58:35Z</time>
      </trkpt>
      <trkpt lat="45.97208" lon="4.79391">
        <ele>208</ele>
        <time>2018-03-13T10:58:36Z</time>
      </trkpt>
      <trkpt lat="45.97205" lon="4.79384">
        <ele>208</ele>
        <time>2018-03-13T10:58:37Z</time>
      </trkpt>
      <trkpt lat="45.97202" lon="4.79378">
        <ele>208</ele>
        <time>2018-03-13T10:58:38Z</time>
      </trkpt>
      <trkpt lat="45.97199" lon="4.79372">
        <ele>207</ele>
        <time>2018-03-13T10:58:39Z</time>
      </trkpt>
      <trkpt lat="45.97196" lon="4.79365">
        <ele>207</ele>
        <time>2018-03-13T10:58:40Z</time>
      </trkpt>
      <trkpt lat="45.97194" lon="4.79358">
        <ele>207</ele>
        <time>2018-03-13T10:58:41Z</time>
      </trkpt>
      <trkpt lat="45.9719" lon="4.79352">
        <ele>207</ele>
        <time>2018-03-13T10:58:42Z</time>
      </trkpt>
      <trkpt lat="45.97187" lon="4.79346">
        <ele>207</ele>
        <time>2018-03-13T10:58:43Z</time>
      </trkpt>
      <trkpt lat="45.97184" lon="4.79338">
        <ele>206</ele>
        <time>2018-03-13T10:58:44Z</time>
      </trkpt>
      <trkpt lat="45.97181" lon="4.79332">
        <ele>207</ele>
        <time>2018-03-13T10:58:45Z</time>
      </trkpt>
      <trkpt lat="45.97178" lon="4.79325">
        <ele>206</ele>
        <time>2018-03-13T10:58:46Z</time>
      </trkpt>
      <trkpt lat="45.97175" lon="4.79318">
        <ele>207</ele>
        <time>2018-03-13T10:58:47Z</time>
      </trkpt>
      <trkpt lat="45.97172" lon="4.79313">
        <ele>207</ele>
        <time>2018-03-13T10:58:48Z</time>
      </trkpt>
      <trkpt lat="45.97169" lon="4.79306">
        <ele>207</ele>
        <time>2018-03-13T10:58:49Z</time>
      </trkpt>
      <trkpt lat="45.97166" lon="4.79298">
        <ele>204</ele>
        <time>2018-03-13T10:58:50Z</time>
      </trkpt>
      <trkpt lat="45.97163" lon="4.79291">
        <ele>204</ele>
        <time>2018-03-13T10:58:51Z</time>
      </trkpt>
      <trkpt lat="45.9716" lon="4.79283">
        <ele>204</ele>
        <time>2018-03-13T10:58:52Z</time>
      </trkpt>
      <trkpt lat="45.97158" lon="4.79276">
        <ele>204</ele>
        <time>2018-03-13T10:58:53Z</time>
      </trkpt>
      <trkpt lat="45.97154" lon="4.79268">
        <ele>204</ele>
        <time>2018-03-13T10:58:54Z</time>
      </trkpt>
      <trkpt lat="45.97151" lon="4.79261">
        <ele>204</ele>
        <time>2018-03-13T10:58:55Z</time>
      </trkpt>
      <trkpt lat="45.97148" lon="4.79254">
        <ele>204</ele>
        <time>2018-03-13T10:58:56Z</time>
      </trkpt>
      <trkpt lat="45.97146" lon="4.79248">
        <ele>205</ele>
        <time>2018-03-13T10:58:57Z</time>
      </trkpt>
      <trkpt lat="45.97144" lon="4.79241">
        <ele>205</ele>
        <time>2018-03-13T10:58:58Z</time>
      </trkpt>
      <trkpt lat="45.9714" lon="4.79233">
        <ele>205</ele>
        <time>2018-03-13T10:58:59Z</time>
      </trkpt>
      <trkpt lat="45.97137" lon="4.79226">
        <ele>205</ele>
        <time>2018-03-13T10:59:00Z</time>
      </trkpt>
      <trkpt lat="45.97134" lon="4.79218">
        <ele>206</ele>
        <time>2018-03-13T10:59:01Z</time>
      </trkpt>
      <trkpt lat="45.9713" lon="4.7921">
        <ele>206</ele>
        <time>2018-03-13T10:59:02Z</time>
      </trkpt>
      <trkpt lat="45.97127" lon="4.79203">
        <ele>206</ele>
        <time>2018-03-13T10:59:03Z</time>
      </trkpt>
      <trkpt lat="45.97125" lon="4.79197">
        <ele>206</ele>
        <time>2018-03-13T10:59:04Z</time>
      </trkpt>
      <trkpt lat="45.97122" lon="4.79189">
        <ele>206</ele>
        <time>2018-03-13T10:59:05Z</time>
      </trkpt>
      <trkpt lat="45.9712" lon="4.79182">
        <ele>206</ele>
        <time>2018-03-13T10:59:06Z</time>
      </trkpt>
      <trkpt lat="45.97118" lon="4.79175">
        <ele>206</ele>
        <time>2018-03-13T10:59:07Z</time>
      </trkpt>
      <trkpt lat="45.97115" lon="4.7917">
        <ele>206</ele>
        <time>2018-03-13T10:59:08Z</time>
      </trkpt>
      <trkpt lat="45.97112" lon="4.79164">
        <ele>206</ele>
        <time>2018-03-13T10:59:09Z</time>
      </trkpt>
      <trkpt lat="45.97109" lon="4.79158">
        <ele>206</ele>
        <time>2018-03-13T10:59:10Z</time>
      </trkpt>
      <trkpt lat="45.97105" lon="4.79152">
        <ele>206</ele>
        <time>2018-03-13T10:59:11Z</time>
      </trkpt>
      <trkpt lat="45.97103" lon="4.79146">
        <ele>206</ele>
        <time>2018-03-13T10:59:12Z</time>
      </trkpt>
      <trkpt lat="45.97098" lon="4.7914">
        <ele>206</ele>
        <time>2018-03-13T10:59:13Z</time>
      </trkpt>
      <trkpt lat="45.97095" lon="4.79135">
        <ele>206</ele>
        <time>2018-03-13T10:59:14Z</time>
      </trkpt>
      <trkpt lat="45.97091" lon="4.79129">
        <ele>206</ele>
        <time>2018-03-13T10:59:15Z</time>
      </trkpt>
      <trkpt lat="45.97088" lon="4.79122">
        <ele>206</ele>
        <time>2018-03-13T10:59:16Z</time>
      </trkpt>
      <trkpt lat="45.97085" lon="4.79115">
        <ele>206</ele>
        <time>2018-03-13T10:59:17Z</time>
      </trkpt>
      <trkpt lat="45.97083" lon="4.79108">
        <ele>204</ele>
        <time>2018-03-13T10:59:18Z</time>
      </trkpt>
      <trkpt lat="45.97081" lon="4.79101">
        <ele>204</ele>
        <time>2018-03-13T10:59:19Z</time>
      </trkpt>
      <trkpt lat="45.97082" lon="4.79093">
        <ele>204</ele>
        <time>2018-03-13T10:59:20Z</time>
      </trkpt>
      <trkpt lat="45.97081" lon="4.79085">
        <ele>204</ele>
        <time>2018-03-13T10:59:21Z</time>
      </trkpt>
      <trkpt lat="45.97077" lon="4.79077">
        <ele>204</ele>
        <time>2018-03-13T10:59:22Z</time>
      </trkpt>
      <trkpt lat="45.97075" lon="4.79071">
        <ele>204</ele>
        <time>2018-03-13T10:59:23Z</time>
      </trkpt>
      <trkpt lat="45.97073" lon="4.79065">
        <ele>204</ele>
        <time>2018-03-13T10:59:24Z</time>
      </trkpt>
      <trkpt lat="45.9707" lon="4.79059">
        <ele>203</ele>
        <time>2018-03-13T10:59:25Z</time>
      </trkpt>
      <trkpt lat="45.97067" lon="4.79047">
        <ele>203</ele>
        <time>2018-03-13T10:59:27Z</time>
      </trkpt>
      <trkpt lat="45.97066" lon="4.7904">
        <ele>203</ele>
        <time>2018-03-13T10:59:28Z</time>
      </trkpt>
      <trkpt lat="45.97064" lon="4.79034">
        <ele>203</ele>
        <time>2018-03-13T10:59:29Z</time>
      </trkpt>
      <trkpt lat="45.97062" lon="4.79028">
        <ele>203</ele>
        <time>2018-03-13T10:59:30Z</time>
      </trkpt>
      <trkpt lat="45.9706" lon="4.79021">
        <ele>203</ele>
        <time>2018-03-13T10:59:31Z</time>
      </trkpt>
      <trkpt lat="45.97059" lon="4.79014">
        <ele>204</ele>
        <time>2018-03-13T10:59:32Z</time>
      </trkpt>
      <trkpt lat="45.97057" lon="4.79007">
        <ele>204</ele>
        <time>2018-03-13T10:59:33Z</time>
      </trkpt>
      <trkpt lat="45.97055" lon="4.79001">
        <ele>203</ele>
        <time>2018-03-13T10:59:34Z</time>
      </trkpt>
      <trkpt lat="45.97052" lon="4.7899">
        <ele>205</ele>
        <time>2018-03-13T10:59:36Z</time>
      </trkpt>
      <trkpt lat="45.9705" lon="4.78985">
        <ele>205</ele>
        <time>2018-03-13T10:59:37Z</time>
      </trkpt>
      <trkpt lat="45.97047" lon="4.78979">
        <ele>205</ele>
        <time>2018-03-13T10:59:38Z</time>
      </trkpt>
      <trkpt lat="45.97045" lon="4.78973">
        <ele>205</ele>
        <time>2018-03-13T10:59:39Z</time>
      </trkpt>
      <trkpt lat="45.97042" lon="4.78967">
        <ele>205</ele>
        <time>2018-03-13T10:59:40Z</time>
      </trkpt>
      <trkpt lat="45.97039" lon="4.78961">
        <ele>205</ele>
        <time>2018-03-13T10:59:41Z</time>
      </trkpt>
      <trkpt lat="45.97036" lon="4.78955">
        <ele>205</ele>
        <time>2018-03-13T10:59:42Z</time>
      </trkpt>
      <trkpt lat="45.97033" lon="4.78949">
        <ele>205</ele>
        <time>2018-03-13T10:59:43Z</time>
      </trkpt>
      <trkpt lat="45.97028" lon="4.78943">
        <ele>205</ele>
        <time>2018-03-13T10:59:44Z</time>
      </trkpt>
      <trkpt lat="45.97025" lon="4.78938">
        <ele>205</ele>
        <time>2018-03-13T10:59:45Z</time>
      </trkpt>
      <trkpt lat="45.97022" lon="4.78932">
        <ele>205</ele>
        <time>2018-03-13T10:59:46Z</time>
      </trkpt>
      <trkpt lat="45.97018" lon="4.78927">
        <ele>205</ele>
        <time>2018-03-13T10:59:47Z</time>
      </trkpt>
      <trkpt lat="45.97014" lon="4.78921">
        <ele>205</ele>
        <time>2018-03-13T10:59:48Z</time>
      </trkpt>
      <trkpt lat="45.9701" lon="4.78916">
        <ele>205</ele>
        <time>2018-03-13T10:59:49Z</time>
      </trkpt>
      <trkpt lat="45.97006" lon="4.7891">
        <ele>205</ele>
        <time>2018-03-13T10:59:50Z</time>
      </trkpt>
      <trkpt lat="45.97001" lon="4.78905">
        <ele>206</ele>
        <time>2018-03-13T10:59:51Z</time>
      </trkpt>
      <trkpt lat="45.96997" lon="4.78899">
        <ele>204</ele>
        <time>2018-03-13T10:59:52Z</time>
      </trkpt>
      <trkpt lat="45.96992" lon="4.78893">
        <ele>203</ele>
        <time>2018-03-13T10:59:53Z</time>
      </trkpt>
      <trkpt lat="45.96986" lon="4.78887">
        <ele>203</ele>
        <time>2018-03-13T10:59:54Z</time>
      </trkpt>
      <trkpt lat="45.96981" lon="4.78881">
        <ele>203</ele>
        <time>2018-03-13T10:59:55Z</time>
      </trkpt>
      <trkpt lat="45.96976" lon="4.78875">
        <ele>203</ele>
        <time>2018-03-13T10:59:56Z</time>
      </trkpt>
      <trkpt lat="45.96971" lon="4.78869">
        <ele>203</ele>
        <time>2018-03-13T10:59:57Z</time>
      </trkpt>
      <trkpt lat="45.96966" lon="4.78864">
        <ele>203</ele>
        <time>2018-03-13T10:59:58Z</time>
      </trkpt>
      <trkpt lat="45.96962" lon="4.78858">
        <ele>203</ele>
        <time>2018-03-13T10:59:59Z</time>
      </trkpt>
      <trkpt lat="45.96957" lon="4.78853">
        <ele>203</ele>
        <time>2018-03-13T11:00:00Z</time>
      </trkpt>
      <trkpt lat="45.96952" lon="4.78847">
        <ele>203</ele>
        <time>2018-03-13T11:00:01Z</time>
      </trkpt>
      <trkpt lat="45.96948" lon="4.78842">
        <ele>202</ele>
        <time>2018-03-13T11:00:02Z</time>
      </trkpt>
      <trkpt lat="45.96943" lon="4.78838">
        <ele>202</ele>
        <time>2018-03-13T11:00:03Z</time>
      </trkpt>
      <trkpt lat="45.96939" lon="4.78833">
        <ele>202</ele>
        <time>2018-03-13T11:00:04Z</time>
      </trkpt>
      <trkpt lat="45.96935" lon="4.78828">
        <ele>202</ele>
        <time>2018-03-13T11:00:05Z</time>
      </trkpt>
      <trkpt lat="45.96931" lon="4.78823">
        <ele>202</ele>
        <time>2018-03-13T11:00:06Z</time>
      </trkpt>
      <trkpt lat="45.96927" lon="4.78817">
        <ele>202</ele>
        <time>2018-03-13T11:00:07Z</time>
      </trkpt>
      <trkpt lat="45.96922" lon="4.78812">
        <ele>202</ele>
        <time>2018-03-13T11:00:08Z</time>
      </trkpt>
      <trkpt lat="45.96919" lon="4.78805">
        <ele>203</ele>
        <time>2018-03-13T11:00:09Z</time>
      </trkpt>
      <trkpt lat="45.96915" lon="4.78799">
        <ele>201</ele>
        <time>2018-03-13T11:00:10Z</time>
      </trkpt>
      <trkpt lat="45.96912" lon="4.78793">
        <ele>201</ele>
        <time>2018-03-13T11:00:11Z</time>
      </trkpt>
      <trkpt lat="45.96909" lon="4.78786">
        <ele>201</ele>
        <time>2018-03-13T11:00:12Z</time>
      </trkpt>
      <trkpt lat="45.96906" lon="4.7878">
        <ele>201</ele>
        <time>2018-03-13T11:00:13Z</time>
      </trkpt>
      <trkpt lat="45.96903" lon="4.78774">
        <ele>201</ele>
        <time>2018-03-13T11:00:14Z</time>
      </trkpt>
      <trkpt lat="45.969" lon="4.78767">
        <ele>201</ele>
        <time>2018-03-13T11:00:15Z</time>
      </trkpt>
      <trkpt lat="45.96897" lon="4.78761">
        <ele>201</ele>
        <time>2018-03-13T11:00:16Z</time>
      </trkpt>
      <trkpt lat="45.96895" lon="4.78755">
        <ele>201</ele>
        <time>2018-03-13T11:00:17Z</time>
      </trkpt>
      <trkpt lat="45.96891" lon="4.78749">
        <ele>202</ele>
        <time>2018-03-13T11:00:18Z</time>
      </trkpt>
      <trkpt lat="45.96888" lon="4.78742">
        <ele>202</ele>
        <time>2018-03-13T11:00:19Z</time>
      </trkpt>
      <trkpt lat="45.96885" lon="4.78736">
        <ele>202</ele>
        <time>2018-03-13T11:00:20Z</time>
      </trkpt>
      <trkpt lat="45.96882" lon="4.78729">
        <ele>202</ele>
        <time>2018-03-13T11:00:21Z</time>
      </trkpt>
      <trkpt lat="45.96879" lon="4.78723">
        <ele>202</ele>
        <time>2018-03-13T11:00:22Z</time>
      </trkpt>
      <trkpt lat="45.96876" lon="4.78715">
        <ele>202</ele>
        <time>2018-03-13T11:00:23Z</time>
      </trkpt>
      <trkpt lat="45.96873" lon="4.7871">
        <ele>202</ele>
        <time>2018-03-13T11:00:24Z</time>
      </trkpt>
      <trkpt lat="45.9687" lon="4.78704">
        <ele>202</ele>
        <time>2018-03-13T11:00:25Z</time>
      </trkpt>
      <trkpt lat="45.96867" lon="4.78698">
        <ele>202</ele>
        <time>2018-03-13T11:00:26Z</time>
      </trkpt>
      <trkpt lat="45.96864" lon="4.78692">
        <ele>202</ele>
        <time>2018-03-13T11:00:27Z</time>
      </trkpt>
      <trkpt lat="45.96862" lon="4.78686">
        <ele>202</ele>
        <time>2018-03-13T11:00:28Z</time>
      </trkpt>
      <trkpt lat="45.96859" lon="4.78679">
        <ele>202</ele>
        <time>2018-03-13T11:00:29Z</time>
      </trkpt>
      <trkpt lat="45.96856" lon="4.78672">
        <ele>202</ele>
        <time>2018-03-13T11:00:30Z</time>
      </trkpt>
      <trkpt lat="45.96853" lon="4.78666">
        <ele>203</ele>
        <time>2018-03-13T11:00:31Z</time>
      </trkpt>
      <trkpt lat="45.9685" lon="4.7866">
        <ele>202</ele>
        <time>2018-03-13T11:00:32Z</time>
      </trkpt>
      <trkpt lat="45.96847" lon="4.78654">
        <ele>203</ele>
        <time>2018-03-13T11:00:33Z</time>
      </trkpt>
      <trkpt lat="45.96844" lon="4.78647">
        <ele>203</ele>
        <time>2018-03-13T11:00:34Z</time>
      </trkpt>
      <trkpt lat="45.96841" lon="4.7864">
        <ele>203</ele>
        <time>2018-03-13T11:00:35Z</time>
      </trkpt>
      <trkpt lat="45.96838" lon="4.78634">
        <ele>203</ele>
        <time>2018-03-13T11:00:36Z</time>
      </trkpt>
      <trkpt lat="45.96834" lon="4.78627">
        <ele>203</ele>
        <time>2018-03-13T11:00:37Z</time>
      </trkpt>
      <trkpt lat="45.9683" lon="4.7862">
        <ele>201</ele>
        <time>2018-03-13T11:00:38Z</time>
      </trkpt>
      <trkpt lat="45.96828" lon="4.78614">
        <ele>202</ele>
        <time>2018-03-13T11:00:39Z</time>
      </trkpt>
      <trkpt lat="45.96828" lon="4.78606">
        <ele>202</ele>
        <time>2018-03-13T11:00:40Z</time>
      </trkpt>
      <trkpt lat="45.96825" lon="4.786">
        <ele>202</ele>
        <time>2018-03-13T11:00:41Z</time>
      </trkpt>
      <trkpt lat="45.96821" lon="4.78595">
        <ele>202</ele>
        <time>2018-03-13T11:00:42Z</time>
      </trkpt>
      <trkpt lat="45.96819" lon="4.78588">
        <ele>202</ele>
        <time>2018-03-13T11:00:43Z</time>
      </trkpt>
      <trkpt lat="45.96816" lon="4.78581">
        <ele>203</ele>
        <time>2018-03-13T11:00:44Z</time>
      </trkpt>
      <trkpt lat="45.96813" lon="4.78576">
        <ele>203</ele>
        <time>2018-03-13T11:00:45Z</time>
      </trkpt>
      <trkpt lat="45.96809" lon="4.78571">
        <ele>203</ele>
        <time>2018-03-13T11:00:46Z</time>
      </trkpt>
      <trkpt lat="45.96806" lon="4.78564">
        <ele>203</ele>
        <time>2018-03-13T11:00:47Z</time>
      </trkpt>
      <trkpt lat="45.96802" lon="4.78558">
        <ele>203</ele>
        <time>2018-03-13T11:00:48Z</time>
      </trkpt>
      <trkpt lat="45.96799" lon="4.78551">
        <ele>203</ele>
        <time>2018-03-13T11:00:49Z</time>
      </trkpt>
      <trkpt lat="45.96795" lon="4.78544">
        <ele>203</ele>
        <time>2018-03-13T11:00:50Z</time>
      </trkpt>
      <trkpt lat="45.96792" lon="4.78538">
        <ele>203</ele>
        <time>2018-03-13T11:00:51Z</time>
      </trkpt>
      <trkpt lat="45.96788" lon="4.78531">
        <ele>203</ele>
        <time>2018-03-13T11:00:52Z</time>
      </trkpt>
      <trkpt lat="45.96785" lon="4.78525">
        <ele>203</ele>
        <time>2018-03-13T11:00:53Z</time>
      </trkpt>
      <trkpt lat="45.96781" lon="4.78519">
        <ele>203</ele>
        <time>2018-03-13T11:00:54Z</time>
      </trkpt>
      <trkpt lat="45.96777" lon="4.78512">
        <ele>203</ele>
        <time>2018-03-13T11:00:55Z</time>
      </trkpt>
      <trkpt lat="45.96774" lon="4.78506">
        <ele>203</ele>
        <time>2018-03-13T11:00:56Z</time>
      </trkpt>
      <trkpt lat="45.96771" lon="4.78501">
        <ele>203</ele>
        <time>2018-03-13T11:00:57Z</time>
      </trkpt>
      <trkpt lat="45.96767" lon="4.78496">
        <ele>205</ele>
        <time>2018-03-13T11:00:58Z</time>
      </trkpt>
      <trkpt lat="45.96763" lon="4.78491">
        <ele>205</ele>
        <time>2018-03-13T11:00:59Z</time>
      </trkpt>
      <trkpt lat="45.96759" lon="4.78486">
        <ele>205</ele>
        <time>2018-03-13T11:01:00Z</time>
      </trkpt>
      <trkpt lat="45.96754" lon="4.78482">
        <ele>205</ele>
        <time>2018-03-13T11:01:01Z</time>
      </trkpt>
      <trkpt lat="45.9675" lon="4.78478">
        <ele>205</ele>
        <time>2018-03-13T11:01:02Z</time>
      </trkpt>
      <trkpt lat="45.96746" lon="4.78473">
        <ele>203</ele>
        <time>2018-03-13T11:01:03Z</time>
      </trkpt>
      <trkpt lat="45.96741" lon="4.78469">
        <ele>203</ele>
        <time>2018-03-13T11:01:04Z</time>
      </trkpt>
      <trkpt lat="45.96737" lon="4.78466">
        <ele>203</ele>
        <time>2018-03-13T11:01:05Z</time>
      </trkpt>
      <trkpt lat="45.96733" lon="4.78463">
        <ele>203</ele>
        <time>2018-03-13T11:01:06Z</time>
      </trkpt>
      <trkpt lat="45.96727" lon="4.78461">
        <ele>203</ele>
        <time>2018-03-13T11:01:07Z</time>
      </trkpt>
      <trkpt lat="45.96723" lon="4.78457">
        <ele>203</ele>
        <time>2018-03-13T11:01:08Z</time>
      </trkpt>
      <trkpt lat="45.96717" lon="4.78454">
        <ele>203</ele>
        <time>2018-03-13T11:01:09Z</time>
      </trkpt>
      <trkpt lat="45.96713" lon="4.78452">
        <ele>203</ele>
        <time>2018-03-13T11:01:10Z</time>
      </trkpt>
      <trkpt lat="45.96709" lon="4.78447">
        <ele>203</ele>
        <time>2018-03-13T11:01:11Z</time>
      </trkpt>
      <trkpt lat="45.96702" lon="4.78443">
        <ele>203</ele>
        <time>2018-03-13T11:01:13Z</time>
      </trkpt>
      <trkpt lat="45.96697" lon="4.78437">
        <ele>203</ele>
        <time>2018-03-13T11:01:14Z</time>
      </trkpt>
      <trkpt lat="45.96691" lon="4.78429">
        <ele>202</ele>
        <time>2018-03-13T11:01:16Z</time>
      </trkpt>
      <trkpt lat="45.96687" lon="4.78425">
        <ele>202</ele>
        <time>2018-03-13T11:01:17Z</time>
      </trkpt>
      <trkpt lat="45.96684" lon="4.7842">
        <ele>202</ele>
        <time>2018-03-13T11:01:18Z</time>
      </trkpt>
      <trkpt lat="45.9668" lon="4.78416">
        <ele>203</ele>
        <time>2018-03-13T11:01:19Z</time>
      </trkpt>
      <trkpt lat="45.96677" lon="4.78411">
        <ele>203</ele>
        <time>2018-03-13T11:01:20Z</time>
      </trkpt>
      <trkpt lat="45.96673" lon="4.78406">
        <ele>203</ele>
        <time>2018-03-13T11:01:21Z</time>
      </trkpt>
      <trkpt lat="45.96669" lon="4.78402">
        <ele>203</ele>
        <time>2018-03-13T11:01:22Z</time>
      </trkpt>
      <trkpt lat="45.96665" lon="4.78397">
        <ele>201</ele>
        <time>2018-03-13T11:01:23Z</time>
      </trkpt>
      <trkpt lat="45.9666" lon="4.78394">
        <ele>201</ele>
        <time>2018-03-13T11:01:24Z</time>
      </trkpt>
      <trkpt lat="45.96656" lon="4.78388">
        <ele>201</ele>
        <time>2018-03-13T11:01:25Z</time>
      </trkpt>
      <trkpt lat="45.96651" lon="4.78383">
        <ele>201</ele>
        <time>2018-03-13T11:01:26Z</time>
      </trkpt>
      <trkpt lat="45.96646" lon="4.78379">
        <ele>201</ele>
        <time>2018-03-13T11:01:27Z</time>
      </trkpt>
      <trkpt lat="45.96641" lon="4.78375">
        <ele>201</ele>
        <time>2018-03-13T11:01:28Z</time>
      </trkpt>
      <trkpt lat="45.96637" lon="4.78371">
        <ele>201</ele>
        <time>2018-03-13T11:01:29Z</time>
      </trkpt>
      <trkpt lat="45.96633" lon="4.78366">
        <ele>201</ele>
        <time>2018-03-13T11:01:30Z</time>
      </trkpt>
      <trkpt lat="45.96625" lon="4.7836">
        <ele>201</ele>
        <time>2018-03-13T11:01:31Z</time>
      </trkpt>
      <trkpt lat="45.96621" lon="4.78355">
        <ele>201</ele>
        <time>2018-03-13T11:01:32Z</time>
      </trkpt>
      <trkpt lat="45.96617" lon="4.7835">
        <ele>201</ele>
        <time>2018-03-13T11:01:33Z</time>
      </trkpt>
      <trkpt lat="45.96613" lon="4.78346">
        <ele>200</ele>
        <time>2018-03-13T11:01:34Z</time>
      </trkpt>
      <trkpt lat="45.96608" lon="4.78342">
        <ele>200</ele>
        <time>2018-03-13T11:01:35Z</time>
      </trkpt>
      <trkpt lat="45.96603" lon="4.78338">
        <ele>200</ele>
        <time>2018-03-13T11:01:36Z</time>
      </trkpt>
      <trkpt lat="45.96598" lon="4.78334">
        <ele>199</ele>
        <time>2018-03-13T11:01:37Z</time>
      </trkpt>
      <trkpt lat="45.96594" lon="4.78329">
        <ele>201</ele>
        <time>2018-03-13T11:01:38Z</time>
      </trkpt>
      <trkpt lat="45.96589" lon="4.78324">
        <ele>201</ele>
        <time>2018-03-13T11:01:39Z</time>
      </trkpt>
      <trkpt lat="45.96584" lon="4.7832">
        <ele>202</ele>
        <time>2018-03-13T11:01:40Z</time>
      </trkpt>
      <trkpt lat="45.96579" lon="4.78314">
        <ele>199</ele>
        <time>2018-03-13T11:01:41Z</time>
      </trkpt>
      <trkpt lat="45.96574" lon="4.78309">
        <ele>200</ele>
        <time>2018-03-13T11:01:42Z</time>
      </trkpt>
      <trkpt lat="45.96569" lon="4.78303">
        <ele>200</ele>
        <time>2018-03-13T11:01:43Z</time>
      </trkpt>
      <trkpt lat="45.96564" lon="4.78297">
        <ele>200</ele>
        <time>2018-03-13T11:01:44Z</time>
      </trkpt>
      <trkpt lat="45.96559" lon="4.78293">
        <ele>200</ele>
        <time>2018-03-13T11:01:45Z</time>
      </trkpt>
      <trkpt lat="45.96554" lon="4.78289">
        <ele>200</ele>
        <time>2018-03-13T11:01:46Z</time>
      </trkpt>
      <trkpt lat="45.96548" lon="4.78284">
        <ele>200</ele>
        <time>2018-03-13T11:01:47Z</time>
      </trkpt>
      <trkpt lat="45.96544" lon="4.78279">
        <ele>200</ele>
        <time>2018-03-13T11:01:48Z</time>
      </trkpt>
      <trkpt lat="45.9654" lon="4.78272">
        <ele>200</ele>
        <time>2018-03-13T11:01:49Z</time>
      </trkpt>
      <trkpt lat="45.96536" lon="4.78267">
        <ele>200</ele>
        <time>2018-03-13T11:01:50Z</time>
      </trkpt>
      <trkpt lat="45.96533" lon="4.78261">
        <ele>200</ele>
        <time>2018-03-13T11:01:51Z</time>
      </trkpt>
      <trkpt lat="45.9653" lon="4.78256">
        <ele>200</ele>
        <time>2018-03-13T11:01:52Z</time>
      </trkpt>
      <trkpt lat="45.96526" lon="4.7825">
        <ele>203</ele>
        <time>2018-03-13T11:01:53Z</time>
      </trkpt>
      <trkpt lat="45.96523" lon="4.78243">
        <ele>203</ele>
        <time>2018-03-13T11:01:54Z</time>
      </trkpt>
      <trkpt lat="45.96519" lon="4.78236">
        <ele>203</ele>
        <time>2018-03-13T11:01:55Z</time>
      </trkpt>
      <trkpt lat="45.96516" lon="4.7823">
        <ele>204</ele>
        <time>2018-03-13T11:01:56Z</time>
      </trkpt>
      <trkpt lat="45.96511" lon="4.78225">
        <ele>204</ele>
        <time>2018-03-13T11:01:57Z</time>
      </trkpt>
      <trkpt lat="45.96506" lon="4.78219">
        <ele>204</ele>
        <time>2018-03-13T11:01:58Z</time>
      </trkpt>
      <trkpt lat="45.96506" lon="4.78212">
        <ele>205</ele>
        <time>2018-03-13T11:01:59Z</time>
      </trkpt>
      <trkpt lat="45.96501" lon="4.78207">
        <ele>205</ele>
        <time>2018-03-13T11:02:00Z</time>
      </trkpt>
      <trkpt lat="45.96498" lon="4.78202">
        <ele>200</ele>
        <time>2018-03-13T11:02:01Z</time>
      </trkpt>
      <trkpt lat="45.96493" lon="4.78198">
        <ele>201</ele>
        <time>2018-03-13T11:02:02Z</time>
      </trkpt>
      <trkpt lat="45.96489" lon="4.78195">
        <ele>201</ele>
        <time>2018-03-13T11:02:03Z</time>
      </trkpt>
      <trkpt lat="45.96483" lon="4.78193">
        <ele>201</ele>
        <time>2018-03-13T11:02:04Z</time>
      </trkpt>
      <trkpt lat="45.96478" lon="4.78191">
        <ele>200</ele>
        <time>2018-03-13T11:02:05Z</time>
      </trkpt>
      <trkpt lat="45.96473" lon="4.78188">
        <ele>200</ele>
        <time>2018-03-13T11:02:06Z</time>
      </trkpt>
      <trkpt lat="45.96467" lon="4.78186">
        <ele>200</ele>
        <time>2018-03-13T11:02:07Z</time>
      </trkpt>
      <trkpt lat="45.96463" lon="4.78183">
        <ele>200</ele>
        <time>2018-03-13T11:02:08Z</time>
      </trkpt>
      <trkpt lat="45.96457" lon="4.7818">
        <ele>200</ele>
        <time>2018-03-13T11:02:09Z</time>
      </trkpt>
      <trkpt lat="45.96452" lon="4.78175">
        <ele>200</ele>
        <time>2018-03-13T11:02:10Z</time>
      </trkpt>
      <trkpt lat="45.96448" lon="4.78171">
        <ele>199</ele>
        <time>2018-03-13T11:02:11Z</time>
      </trkpt>
      <trkpt lat="45.96444" lon="4.78166">
        <ele>203</ele>
        <time>2018-03-13T11:02:12Z</time>
      </trkpt>
      <trkpt lat="45.9644" lon="4.78162">
        <ele>203</ele>
        <time>2018-03-13T11:02:13Z</time>
      </trkpt>
      <trkpt lat="45.96438" lon="4.78156">
        <ele>203</ele>
        <time>2018-03-13T11:02:14Z</time>
      </trkpt>
      <trkpt lat="45.96433" lon="4.78152">
        <ele>202</ele>
        <time>2018-03-13T11:02:15Z</time>
      </trkpt>
      <trkpt lat="45.96429" lon="4.78148">
        <ele>202</ele>
        <time>2018-03-13T11:02:16Z</time>
      </trkpt>
      <trkpt lat="45.96425" lon="4.78143">
        <ele>203</ele>
        <time>2018-03-13T11:02:17Z</time>
      </trkpt>
      <trkpt lat="45.96421" lon="4.78139">
        <ele>203</ele>
        <time>2018-03-13T11:02:18Z</time>
      </trkpt>
      <trkpt lat="45.96417" lon="4.78134">
        <ele>199</ele>
        <time>2018-03-13T11:02:19Z</time>
      </trkpt>
      <trkpt lat="45.96412" lon="4.7813">
        <ele>199</ele>
        <time>2018-03-13T11:02:20Z</time>
      </trkpt>
      <trkpt lat="45.96408" lon="4.78126">
        <ele>200</ele>
        <time>2018-03-13T11:02:21Z</time>
      </trkpt>
      <trkpt lat="45.96404" lon="4.78122">
        <ele>200</ele>
        <time>2018-03-13T11:02:22Z</time>
      </trkpt>
      <trkpt lat="45.964" lon="4.78117">
        <ele>200</ele>
        <time>2018-03-13T11:02:23Z</time>
      </trkpt>
      <trkpt lat="45.96395" lon="4.78113">
        <ele>200</ele>
        <time>2018-03-13T11:02:24Z</time>
      </trkpt>
      <trkpt lat="45.96388" lon="4.78108">
        <ele>200</ele>
        <time>2018-03-13T11:02:25Z</time>
      </trkpt>
      <trkpt lat="45.96384" lon="4.78103">
        <ele>200</ele>
        <time>2018-03-13T11:02:26Z</time>
      </trkpt>
      <trkpt lat="45.9638" lon="4.78099">
        <ele>200</ele>
        <time>2018-03-13T11:02:27Z</time>
      </trkpt>
      <trkpt lat="45.96377" lon="4.78094">
        <ele>200</ele>
        <time>2018-03-13T11:02:28Z</time>
      </trkpt>
      <trkpt lat="45.96374" lon="4.78089">
        <ele>200</ele>
        <time>2018-03-13T11:02:29Z</time>
      </trkpt>
      <trkpt lat="45.96371" lon="4.78084">
        <ele>200</ele>
        <time>2018-03-13T11:02:30Z</time>
      </trkpt>
      <trkpt lat="45.96365" lon="4.7808">
        <ele>202</ele>
        <time>2018-03-13T11:02:31Z</time>
      </trkpt>
      <trkpt lat="45.96359" lon="4.78074">
        <ele>202</ele>
        <time>2018-03-13T11:02:32Z</time>
      </trkpt>
      <trkpt lat="45.96355" lon="4.7807">
        <ele>202</ele>
        <time>2018-03-13T11:02:33Z</time>
      </trkpt>
      <trkpt lat="45.9635" lon="4.78065">
        <ele>202</ele>
        <time>2018-03-13T11:02:34Z</time>
      </trkpt>
      <trkpt lat="45.96346" lon="4.78061">
        <ele>202</ele>
        <time>2018-03-13T11:02:35Z</time>
      </trkpt>
      <trkpt lat="45.96341" lon="4.78056">
        <ele>202</ele>
        <time>2018-03-13T11:02:36Z</time>
      </trkpt>
      <trkpt lat="45.96336" lon="4.78051">
        <ele>202</ele>
        <time>2018-03-13T11:02:37Z</time>
      </trkpt>
      <trkpt lat="45.96332" lon="4.78047">
        <ele>199</ele>
        <time>2018-03-13T11:02:38Z</time>
      </trkpt>
      <trkpt lat="45.96328" lon="4.78041">
        <ele>199</ele>
        <time>2018-03-13T11:02:39Z</time>
      </trkpt>
      <trkpt lat="45.96324" lon="4.78037">
        <ele>200</ele>
        <time>2018-03-13T11:02:40Z</time>
      </trkpt>
      <trkpt lat="45.96319" lon="4.78032">
        <ele>200</ele>
        <time>2018-03-13T11:02:41Z</time>
      </trkpt>
      <trkpt lat="45.96314" lon="4.78027">
        <ele>200</ele>
        <time>2018-03-13T11:02:42Z</time>
      </trkpt>
      <trkpt lat="45.9631" lon="4.78022">
        <ele>200</ele>
        <time>2018-03-13T11:02:43Z</time>
      </trkpt>
      <trkpt lat="45.96306" lon="4.78017">
        <ele>200</ele>
        <time>2018-03-13T11:02:44Z</time>
      </trkpt>
      <trkpt lat="45.96302" lon="4.78013">
        <ele>200</ele>
        <time>2018-03-13T11:02:45Z</time>
      </trkpt>
      <trkpt lat="45.96297" lon="4.78009">
        <ele>199</ele>
        <time>2018-03-13T11:02:46Z</time>
      </trkpt>
      <trkpt lat="45.96293" lon="4.78005">
        <ele>199</ele>
        <time>2018-03-13T11:02:47Z</time>
      </trkpt>
      <trkpt lat="45.96288" lon="4.78">
        <ele>199</ele>
        <time>2018-03-13T11:02:48Z</time>
      </trkpt>
      <trkpt lat="45.96284" lon="4.77997">
        <ele>203</ele>
        <time>2018-03-13T11:02:49Z</time>
      </trkpt>
      <trkpt lat="45.96279" lon="4.77993">
        <ele>203</ele>
        <time>2018-03-13T11:02:50Z</time>
      </trkpt>
      <trkpt lat="45.96277" lon="4.77989">
        <ele>203</ele>
        <time>2018-03-13T11:02:51Z</time>
      </trkpt>
      <trkpt lat="45.96272" lon="4.77985">
        <ele>203</ele>
        <time>2018-03-13T11:02:52Z</time>
      </trkpt>
      <trkpt lat="45.96268" lon="4.77982">
        <ele>203</ele>
        <time>2018-03-13T11:02:53Z</time>
      </trkpt>
      <trkpt lat="45.96264" lon="4.77978">
        <ele>203</ele>
        <time>2018-03-13T11:02:54Z</time>
      </trkpt>
      <trkpt lat="45.96258" lon="4.77974">
        <ele>203</ele>
        <time>2018-03-13T11:02:55Z</time>
      </trkpt>
      <trkpt lat="45.96254" lon="4.7797">
        <ele>203</ele>
        <time>2018-03-13T11:02:56Z</time>
      </trkpt>
      <trkpt lat="45.9625" lon="4.77965">
        <ele>204</ele>
        <time>2018-03-13T11:02:57Z</time>
      </trkpt>
      <trkpt lat="45.96244" lon="4.77957">
        <ele>199</ele>
        <time>2018-03-13T11:02:59Z</time>
      </trkpt>
      <trkpt lat="45.96239" lon="4.77954">
        <ele>200</ele>
        <time>2018-03-13T11:03:00Z</time>
      </trkpt>
      <trkpt lat="45.96236" lon="4.7795">
        <ele>200</ele>
        <time>2018-03-13T11:03:01Z</time>
      </trkpt>
      <trkpt lat="45.96232" lon="4.77944">
        <ele>200</ele>
        <time>2018-03-13T11:03:02Z</time>
      </trkpt>
      <trkpt lat="45.96226" lon="4.77936">
        <ele>200</ele>
        <time>2018-03-13T11:03:04Z</time>
      </trkpt>
      <trkpt lat="45.96223" lon="4.77932">
        <ele>200</ele>
        <time>2018-03-13T11:03:05Z</time>
      </trkpt>
      <trkpt lat="45.96219" lon="4.77928">
        <ele>200</ele>
        <time>2018-03-13T11:03:06Z</time>
      </trkpt>
      <trkpt lat="45.96215" lon="4.77924">
        <ele>200</ele>
        <time>2018-03-13T11:03:07Z</time>
      </trkpt>
      <trkpt lat="45.96212" lon="4.7792">
        <ele>199</ele>
        <time>2018-03-13T11:03:08Z</time>
      </trkpt>
      <trkpt lat="45.96208" lon="4.77915">
        <ele>202</ele>
        <time>2018-03-13T11:03:09Z</time>
      </trkpt>
      <trkpt lat="45.96205" lon="4.77909">
        <ele>202</ele>
        <time>2018-03-13T11:03:10Z</time>
      </trkpt>
      <trkpt lat="45.96201" lon="4.77904">
        <ele>202</ele>
        <time>2018-03-13T11:03:11Z</time>
      </trkpt>
      <trkpt lat="45.96198" lon="4.779">
        <ele>201</ele>
        <time>2018-03-13T11:03:12Z</time>
      </trkpt>
      <trkpt lat="45.96195" lon="4.77894">
        <ele>201</ele>
        <time>2018-03-13T11:03:13Z</time>
      </trkpt>
      <trkpt lat="45.96192" lon="4.77889">
        <ele>201</ele>
        <time>2018-03-13T11:03:14Z</time>
      </trkpt>
      <trkpt lat="45.96188" lon="4.77884">
        <ele>201</ele>
        <time>2018-03-13T11:03:15Z</time>
      </trkpt>
      <trkpt lat="45.96183" lon="4.77873">
        <ele>201</ele>
        <time>2018-03-13T11:03:17Z</time>
      </trkpt>
      <trkpt lat="45.9618" lon="4.77868">
        <ele>201</ele>
        <time>2018-03-13T11:03:18Z</time>
      </trkpt>
      <trkpt lat="45.96176" lon="4.77862">
        <ele>201</ele>
        <time>2018-03-13T11:03:19Z</time>
      </trkpt>
      <trkpt lat="45.96173" lon="4.77856">
        <ele>201</ele>
        <time>2018-03-13T11:03:20Z</time>
      </trkpt>
      <trkpt lat="45.9617" lon="4.77851">
        <ele>201</ele>
        <time>2018-03-13T11:03:21Z</time>
      </trkpt>
      <trkpt lat="45.96167" lon="4.77846">
        <ele>197</ele>
        <time>2018-03-13T11:03:22Z</time>
      </trkpt>
      <trkpt lat="45.96163" lon="4.77841">
        <ele>198</ele>
        <time>2018-03-13T11:03:23Z</time>
      </trkpt>
      <trkpt lat="45.9616" lon="4.77836">
        <ele>198</ele>
        <time>2018-03-13T11:03:24Z</time>
      </trkpt>
      <trkpt lat="45.96156" lon="4.77831">
        <ele>198</ele>
        <time>2018-03-13T11:03:25Z</time>
      </trkpt>
      <trkpt lat="45.96152" lon="4.77825">
        <ele>198</ele>
        <time>2018-03-13T11:03:26Z</time>
      </trkpt>
      <trkpt lat="45.96149" lon="4.77819">
        <ele>198</ele>
        <time>2018-03-13T11:03:27Z</time>
      </trkpt>
      <trkpt lat="45.96146" lon="4.77814">
        <ele>198</ele>
        <time>2018-03-13T11:03:28Z</time>
      </trkpt>
      <trkpt lat="45.96142" lon="4.77808">
        <ele>198</ele>
        <time>2018-03-13T11:03:29Z</time>
      </trkpt>
      <trkpt lat="45.96139" lon="4.77803">
        <ele>198</ele>
        <time>2018-03-13T11:03:30Z</time>
      </trkpt>
      <trkpt lat="45.96135" lon="4.77798">
        <ele>198</ele>
        <time>2018-03-13T11:03:31Z</time>
      </trkpt>
      <trkpt lat="45.96133" lon="4.77793">
        <ele>198</ele>
        <time>2018-03-13T11:03:32Z</time>
      </trkpt>
      <trkpt lat="45.9613" lon="4.77787">
        <ele>197</ele>
        <time>2018-03-13T11:03:33Z</time>
      </trkpt>
      <trkpt lat="45.96127" lon="4.77783">
        <ele>197</ele>
        <time>2018-03-13T11:03:34Z</time>
      </trkpt>
      <trkpt lat="45.96124" lon="4.77777">
        <ele>197</ele>
        <time>2018-03-13T11:03:35Z</time>
      </trkpt>
      <trkpt lat="45.9612" lon="4.77771">
        <ele>197</ele>
        <time>2018-03-13T11:03:36Z</time>
      </trkpt>
      <trkpt lat="45.96118" lon="4.77766">
        <ele>197</ele>
        <time>2018-03-13T11:03:37Z</time>
      </trkpt>
      <trkpt lat="45.96114" lon="4.7776">
        <ele>197</ele>
        <time>2018-03-13T11:03:38Z</time>
      </trkpt>
      <trkpt lat="45.96112" lon="4.77754">
        <ele>197</ele>
        <time>2018-03-13T11:03:39Z</time>
      </trkpt>
      <trkpt lat="45.96109" lon="4.77749">
        <ele>199</ele>
        <time>2018-03-13T11:03:40Z</time>
      </trkpt>
      <trkpt lat="45.96106" lon="4.77743">
        <ele>199</ele>
        <time>2018-03-13T11:03:41Z</time>
      </trkpt>
      <trkpt lat="45.96102" lon="4.77739">
        <ele>198</ele>
        <time>2018-03-13T11:03:42Z</time>
      </trkpt>
      <trkpt lat="45.96099" lon="4.77734">
        <ele>199</ele>
        <time>2018-03-13T11:03:43Z</time>
      </trkpt>
      <trkpt lat="45.96095" lon="4.77729">
        <ele>199</ele>
        <time>2018-03-13T11:03:44Z</time>
      </trkpt>
      <trkpt lat="45.96092" lon="4.77724">
        <ele>199</ele>
        <time>2018-03-13T11:03:45Z</time>
      </trkpt>
      <trkpt lat="45.96088" lon="4.77719">
        <ele>199</ele>
        <time>2018-03-13T11:03:46Z</time>
      </trkpt>
      <trkpt lat="45.96085" lon="4.77713">
        <ele>199</ele>
        <time>2018-03-13T11:03:47Z</time>
      </trkpt>
      <trkpt lat="45.96082" lon="4.77707">
        <ele>197</ele>
        <time>2018-03-13T11:03:48Z</time>
      </trkpt>
      <trkpt lat="45.96078" lon="4.777">
        <ele>197</ele>
        <time>2018-03-13T11:03:49Z</time>
      </trkpt>
      <trkpt lat="45.96075" lon="4.77695">
        <ele>197</ele>
        <time>2018-03-13T11:03:50Z</time>
      </trkpt>
      <trkpt lat="45.96072" lon="4.7769">
        <ele>198</ele>
        <time>2018-03-13T11:03:51Z</time>
      </trkpt>
      <trkpt lat="45.96068" lon="4.77685">
        <ele>198</ele>
        <time>2018-03-13T11:03:52Z</time>
      </trkpt>
      <trkpt lat="45.96064" lon="4.7768">
        <ele>198</ele>
        <time>2018-03-13T11:03:53Z</time>
      </trkpt>
      <trkpt lat="45.9606" lon="4.77675">
        <ele>198</ele>
        <time>2018-03-13T11:03:54Z</time>
      </trkpt>
      <trkpt lat="45.96054" lon="4.77666">
        <ele>200</ele>
        <time>2018-03-13T11:03:56Z</time>
      </trkpt>
      <trkpt lat="45.96052" lon="4.77661">
        <ele>200</ele>
        <time>2018-03-13T11:03:57Z</time>
      </trkpt>
      <trkpt lat="45.96048" lon="4.77656">
        <ele>200</ele>
        <time>2018-03-13T11:03:58Z</time>
      </trkpt>
      <trkpt lat="45.96045" lon="4.77652">
        <ele>199</ele>
        <time>2018-03-13T11:03:59Z</time>
      </trkpt>
      <trkpt lat="45.96041" lon="4.77647">
        <ele>199</ele>
        <time>2018-03-13T11:04:00Z</time>
      </trkpt>
      <trkpt lat="45.96037" lon="4.77642">
        <ele>199</ele>
        <time>2018-03-13T11:04:01Z</time>
      </trkpt>
      <trkpt lat="45.96033" lon="4.77637">
        <ele>199</ele>
        <time>2018-03-13T11:04:02Z</time>
      </trkpt>
      <trkpt lat="45.9603" lon="4.77633">
        <ele>199</ele>
        <time>2018-03-13T11:04:03Z</time>
      </trkpt>
      <trkpt lat="45.96026" lon="4.77628">
        <ele>199</ele>
        <time>2018-03-13T11:04:04Z</time>
      </trkpt>
      <trkpt lat="45.96023" lon="4.77623">
        <ele>199</ele>
        <time>2018-03-13T11:04:05Z</time>
      </trkpt>
      <trkpt lat="45.96016" lon="4.77614">
        <ele>199</ele>
        <time>2018-03-13T11:04:07Z</time>
      </trkpt>
      <trkpt lat="45.96012" lon="4.77609">
        <ele>199</ele>
        <time>2018-03-13T11:04:08Z</time>
      </trkpt>
      <trkpt lat="45.96009" lon="4.77605">
        <ele>199</ele>
        <time>2018-03-13T11:04:09Z</time>
      </trkpt>
      <trkpt lat="45.96006" lon="4.77599">
        <ele>198</ele>
        <time>2018-03-13T11:04:10Z</time>
      </trkpt>
      <trkpt lat="45.96002" lon="4.77593">
        <ele>198</ele>
        <time>2018-03-13T11:04:11Z</time>
      </trkpt>
      <trkpt lat="45.95999" lon="4.77587">
        <ele>197</ele>
        <time>2018-03-13T11:04:12Z</time>
      </trkpt>
      <trkpt lat="45.95997" lon="4.77581">
        <ele>197</ele>
        <time>2018-03-13T11:04:13Z</time>
      </trkpt>
      <trkpt lat="45.95994" lon="4.77575">
        <ele>196</ele>
        <time>2018-03-13T11:04:14Z</time>
      </trkpt>
      <trkpt lat="45.95991" lon="4.77569">
        <ele>196</ele>
        <time>2018-03-13T11:04:15Z</time>
      </trkpt>
      <trkpt lat="45.95988" lon="4.77564">
        <ele>196</ele>
        <time>2018-03-13T11:04:16Z</time>
      </trkpt>
      <trkpt lat="45.95983" lon="4.77555">
        <ele>196</ele>
        <time>2018-03-13T11:04:18Z</time>
      </trkpt>
      <trkpt lat="45.95981" lon="4.77552">
        <ele>196</ele>
        <time>2018-03-13T11:04:19Z</time>
      </trkpt>
      <trkpt lat="45.95979" lon="4.77548">
        <ele>196</ele>
        <time>2018-03-13T11:04:20Z</time>
      </trkpt>
      <trkpt lat="45.95976" lon="4.77539">
        <ele>196</ele>
        <time>2018-03-13T11:04:21Z</time>
      </trkpt>
      <trkpt lat="45.95972" lon="4.77529">
        <ele>196</ele>
        <time>2018-03-13T11:04:23Z</time>
      </trkpt>
      <trkpt lat="45.9597" lon="4.77524">
        <ele>196</ele>
        <time>2018-03-13T11:04:24Z</time>
      </trkpt>
      <trkpt lat="45.95967" lon="4.77518">
        <ele>196</ele>
        <time>2018-03-13T11:04:25Z</time>
      </trkpt>
      <trkpt lat="45.95962" lon="4.77512">
        <ele>195</ele>
        <time>2018-03-13T11:04:26Z</time>
      </trkpt>
      <trkpt lat="45.9596" lon="4.77505">
        <ele>195</ele>
        <time>2018-03-13T11:04:27Z</time>
      </trkpt>
      <trkpt lat="45.95957" lon="4.77497">
        <ele>196</ele>
        <time>2018-03-13T11:04:28Z</time>
      </trkpt>
      <trkpt lat="45.95955" lon="4.77489">
        <ele>196</ele>
        <time>2018-03-13T11:04:29Z</time>
      </trkpt>
      <trkpt lat="45.95953" lon="4.77482">
        <ele>196</ele>
        <time>2018-03-13T11:04:30Z</time>
      </trkpt>
      <trkpt lat="45.9595" lon="4.77474">
        <ele>196</ele>
        <time>2018-03-13T11:04:31Z</time>
      </trkpt>
      <trkpt lat="45.95946" lon="4.77467">
        <ele>196</ele>
        <time>2018-03-13T11:04:32Z</time>
      </trkpt>
      <trkpt lat="45.95944" lon="4.7746">
        <ele>196</ele>
        <time>2018-03-13T11:04:33Z</time>
      </trkpt>
      <trkpt lat="45.95941" lon="4.77452">
        <ele>196</ele>
        <time>2018-03-13T11:04:34Z</time>
      </trkpt>
      <trkpt lat="45.95939" lon="4.77445">
        <ele>196</ele>
        <time>2018-03-13T11:04:35Z</time>
      </trkpt>
      <trkpt lat="45.95935" lon="4.77437">
        <ele>195</ele>
        <time>2018-03-13T11:04:36Z</time>
      </trkpt>
      <trkpt lat="45.95932" lon="4.77429">
        <ele>195</ele>
        <time>2018-03-13T11:04:37Z</time>
      </trkpt>
      <trkpt lat="45.95928" lon="4.77422">
        <ele>195</ele>
        <time>2018-03-13T11:04:38Z</time>
      </trkpt>
      <trkpt lat="45.95925" lon="4.77414">
        <ele>195</ele>
        <time>2018-03-13T11:04:39Z</time>
      </trkpt>
      <trkpt lat="45.95921" lon="4.77406">
        <ele>195</ele>
        <time>2018-03-13T11:04:40Z</time>
      </trkpt>
      <trkpt lat="45.95918" lon="4.77398">
        <ele>196</ele>
        <time>2018-03-13T11:04:41Z</time>
      </trkpt>
      <trkpt lat="45.95915" lon="4.7739">
        <ele>193</ele>
        <time>2018-03-13T11:04:42Z</time>
      </trkpt>
      <trkpt lat="45.95912" lon="4.77381">
        <ele>193</ele>
        <time>2018-03-13T11:04:43Z</time>
      </trkpt>
      <trkpt lat="45.9591" lon="4.77372">
        <ele>193</ele>
        <time>2018-03-13T11:04:44Z</time>
      </trkpt>
      <trkpt lat="45.95907" lon="4.77364">
        <ele>193</ele>
        <time>2018-03-13T11:04:45Z</time>
      </trkpt>
      <trkpt lat="45.95905" lon="4.77357">
        <ele>193</ele>
        <time>2018-03-13T11:04:46Z</time>
      </trkpt>
      <trkpt lat="45.95903" lon="4.77349">
        <ele>193</ele>
        <time>2018-03-13T11:04:47Z</time>
      </trkpt>
      <trkpt lat="45.959" lon="4.77341">
        <ele>193</ele>
        <time>2018-03-13T11:04:48Z</time>
      </trkpt>
      <trkpt lat="45.95898" lon="4.77333">
        <ele>194</ele>
        <time>2018-03-13T11:04:49Z</time>
      </trkpt>
      <trkpt lat="45.95896" lon="4.77325">
        <ele>193</ele>
        <time>2018-03-13T11:04:50Z</time>
      </trkpt>
      <trkpt lat="45.95893" lon="4.77316">
        <ele>193</ele>
        <time>2018-03-13T11:04:51Z</time>
      </trkpt>
      <trkpt lat="45.95889" lon="4.77308">
        <ele>193</ele>
        <time>2018-03-13T11:04:52Z</time>
      </trkpt>
      <trkpt lat="45.95887" lon="4.77299">
        <ele>193</ele>
        <time>2018-03-13T11:04:53Z</time>
      </trkpt>
      <trkpt lat="45.95884" lon="4.7729">
        <ele>193</ele>
        <time>2018-03-13T11:04:54Z</time>
      </trkpt>
      <trkpt lat="45.95882" lon="4.77281">
        <ele>193</ele>
        <time>2018-03-13T11:04:55Z</time>
      </trkpt>
      <trkpt lat="45.95881" lon="4.77273">
        <ele>193</ele>
        <time>2018-03-13T11:04:56Z</time>
      </trkpt>
      <trkpt lat="45.95879" lon="4.77264">
        <ele>193</ele>
        <time>2018-03-13T11:04:57Z</time>
      </trkpt>
      <trkpt lat="45.95878" lon="4.77255">
        <ele>193</ele>
        <time>2018-03-13T11:04:58Z</time>
      </trkpt>
      <trkpt lat="45.95877" lon="4.77247">
        <ele>193</ele>
        <time>2018-03-13T11:04:59Z</time>
      </trkpt>
      <trkpt lat="45.95875" lon="4.77238">
        <ele>193</ele>
        <time>2018-03-13T11:05:00Z</time>
      </trkpt>
      <trkpt lat="45.95873" lon="4.7723">
        <ele>193</ele>
        <time>2018-03-13T11:05:01Z</time>
      </trkpt>
      <trkpt lat="45.95871" lon="4.77222">
        <ele>193</ele>
        <time>2018-03-13T11:05:02Z</time>
      </trkpt>
      <trkpt lat="45.95868" lon="4.77214">
        <ele>193</ele>
        <time>2018-03-13T11:05:03Z</time>
      </trkpt>
      <trkpt lat="45.95866" lon="4.77206">
        <ele>193</ele>
        <time>2018-03-13T11:05:04Z</time>
      </trkpt>
      <trkpt lat="45.95864" lon="4.77198">
        <ele>193</ele>
        <time>2018-03-13T11:05:05Z</time>
      </trkpt>
      <trkpt lat="45.95862" lon="4.77189">
        <ele>192</ele>
        <time>2018-03-13T11:05:06Z</time>
      </trkpt>
      <trkpt lat="45.9586" lon="4.7718">
        <ele>192</ele>
        <time>2018-03-13T11:05:07Z</time>
      </trkpt>
      <trkpt lat="45.95857" lon="4.77173">
        <ele>192</ele>
        <time>2018-03-13T11:05:08Z</time>
      </trkpt>
      <trkpt lat="45.95855" lon="4.77164">
        <ele>192</ele>
        <time>2018-03-13T11:05:09Z</time>
      </trkpt>
      <trkpt lat="45.95853" lon="4.77156">
        <ele>192</ele>
        <time>2018-03-13T11:05:10Z</time>
      </trkpt>
      <trkpt lat="45.95851" lon="4.77147">
        <ele>192</ele>
        <time>2018-03-13T11:05:11Z</time>
      </trkpt>
      <trkpt lat="45.95849" lon="4.77139">
        <ele>193</ele>
        <time>2018-03-13T11:05:12Z</time>
      </trkpt>
      <trkpt lat="45.95847" lon="4.77131">
        <ele>193</ele>
        <time>2018-03-13T11:05:13Z</time>
      </trkpt>
      <trkpt lat="45.95845" lon="4.77122">
        <ele>193</ele>
        <time>2018-03-13T11:05:14Z</time>
      </trkpt>
      <trkpt lat="45.95842" lon="4.77112">
        <ele>193</ele>
        <time>2018-03-13T11:05:15Z</time>
      </trkpt>
      <trkpt lat="45.95839" lon="4.77104">
        <ele>193</ele>
        <time>2018-03-13T11:05:16Z</time>
      </trkpt>
      <trkpt lat="45.95836" lon="4.77096">
        <ele>193</ele>
        <time>2018-03-13T11:05:17Z</time>
      </trkpt>
      <trkpt lat="45.95833" lon="4.77088">
        <ele>191</ele>
        <time>2018-03-13T11:05:18Z</time>
      </trkpt>
      <trkpt lat="45.95831" lon="4.77081">
        <ele>192</ele>
        <time>2018-03-13T11:05:19Z</time>
      </trkpt>
      <trkpt lat="45.95828" lon="4.77073">
        <ele>191</ele>
        <time>2018-03-13T11:05:20Z</time>
      </trkpt>
      <trkpt lat="45.95825" lon="4.77066">
        <ele>191</ele>
        <time>2018-03-13T11:05:21Z</time>
      </trkpt>
      <trkpt lat="45.95822" lon="4.77058">
        <ele>190</ele>
        <time>2018-03-13T11:05:22Z</time>
      </trkpt>
      <trkpt lat="45.95818" lon="4.77051">
        <ele>190</ele>
        <time>2018-03-13T11:05:23Z</time>
      </trkpt>
      <trkpt lat="45.95814" lon="4.77043">
        <ele>190</ele>
        <time>2018-03-13T11:05:24Z</time>
      </trkpt>
      <trkpt lat="45.9581" lon="4.77035">
        <ele>190</ele>
        <time>2018-03-13T11:05:25Z</time>
      </trkpt>
      <trkpt lat="45.95806" lon="4.77027">
        <ele>190</ele>
        <time>2018-03-13T11:05:26Z</time>
      </trkpt>
      <trkpt lat="45.95803" lon="4.77018">
        <ele>190</ele>
        <time>2018-03-13T11:05:27Z</time>
      </trkpt>
      <trkpt lat="45.95802" lon="4.77009">
        <ele>190</ele>
        <time>2018-03-13T11:05:28Z</time>
      </trkpt>
      <trkpt lat="45.958" lon="4.77001">
        <ele>190</ele>
        <time>2018-03-13T11:05:29Z</time>
      </trkpt>
      <trkpt lat="45.95799" lon="4.76992">
        <ele>189</ele>
        <time>2018-03-13T11:05:30Z</time>
      </trkpt>
      <trkpt lat="45.95801" lon="4.76983">
        <ele>189</ele>
        <time>2018-03-13T11:05:31Z</time>
      </trkpt>
      <trkpt lat="45.95801" lon="4.76974">
        <ele>189</ele>
        <time>2018-03-13T11:05:32Z</time>
      </trkpt>
      <trkpt lat="45.95803" lon="4.76966">
        <ele>189</ele>
        <time>2018-03-13T11:05:33Z</time>
      </trkpt>
      <trkpt lat="45.95804" lon="4.76958">
        <ele>189</ele>
        <time>2018-03-13T11:05:34Z</time>
      </trkpt>
      <trkpt lat="45.95806" lon="4.7695">
        <ele>189</ele>
        <time>2018-03-13T11:05:35Z</time>
      </trkpt>
      <trkpt lat="45.95808" lon="4.76942">
        <ele>189</ele>
        <time>2018-03-13T11:05:36Z</time>
      </trkpt>
      <trkpt lat="45.95808" lon="4.76933">
        <ele>189</ele>
        <time>2018-03-13T11:05:37Z</time>
      </trkpt>
      <trkpt lat="45.9581" lon="4.76925">
        <ele>189</ele>
        <time>2018-03-13T11:05:38Z</time>
      </trkpt>
      <trkpt lat="45.95811" lon="4.76917">
        <ele>189</ele>
        <time>2018-03-13T11:05:39Z</time>
      </trkpt>
      <trkpt lat="45.95813" lon="4.7691">
        <ele>189</ele>
        <time>2018-03-13T11:05:40Z</time>
      </trkpt>
      <trkpt lat="45.95814" lon="4.76902">
        <ele>189</ele>
        <time>2018-03-13T11:05:41Z</time>
      </trkpt>
      <trkpt lat="45.95816" lon="4.76895">
        <ele>189</ele>
        <time>2018-03-13T11:05:42Z</time>
      </trkpt>
      <trkpt lat="45.95817" lon="4.76889">
        <ele>189</ele>
        <time>2018-03-13T11:05:43Z</time>
      </trkpt>
      <trkpt lat="45.95818" lon="4.76882">
        <ele>189</ele>
        <time>2018-03-13T11:05:44Z</time>
      </trkpt>
      <trkpt lat="45.95819" lon="4.76875">
        <ele>189</ele>
        <time>2018-03-13T11:05:45Z</time>
      </trkpt>
      <trkpt lat="45.9582" lon="4.76867">
        <ele>189</ele>
        <time>2018-03-13T11:05:46Z</time>
      </trkpt>
      <trkpt lat="45.95822" lon="4.7686">
        <ele>189</ele>
        <time>2018-03-13T11:05:47Z</time>
      </trkpt>
      <trkpt lat="45.95823" lon="4.76853">
        <ele>189</ele>
        <time>2018-03-13T11:05:48Z</time>
      </trkpt>
      <trkpt lat="45.95825" lon="4.76845">
        <ele>190</ele>
        <time>2018-03-13T11:05:49Z</time>
      </trkpt>
      <trkpt lat="45.95826" lon="4.76839">
        <ele>190</ele>
        <time>2018-03-13T11:05:50Z</time>
      </trkpt>
      <trkpt lat="45.95828" lon="4.76833">
        <ele>190</ele>
        <time>2018-03-13T11:05:51Z</time>
      </trkpt>
      <trkpt lat="45.95829" lon="4.76826">
        <ele>190</ele>
        <time>2018-03-13T11:05:52Z</time>
      </trkpt>
      <trkpt lat="45.9583" lon="4.76819">
        <ele>190</ele>
        <time>2018-03-13T11:05:53Z</time>
      </trkpt>
      <trkpt lat="45.95832" lon="4.76813">
        <ele>190</ele>
        <time>2018-03-13T11:05:54Z</time>
      </trkpt>
      <trkpt lat="45.95833" lon="4.76806">
        <ele>190</ele>
        <time>2018-03-13T11:05:55Z</time>
      </trkpt>
      <trkpt lat="45.95833" lon="4.768">
        <ele>190</ele>
        <time>2018-03-13T11:05:56Z</time>
      </trkpt>
      <trkpt lat="45.95834" lon="4.76793">
        <ele>191</ele>
        <time>2018-03-13T11:05:57Z</time>
      </trkpt>
      <trkpt lat="45.95833" lon="4.76786">
        <ele>190</ele>
        <time>2018-03-13T11:05:58Z</time>
      </trkpt>
      <trkpt lat="45.95832" lon="4.7678">
        <ele>190</ele>
        <time>2018-03-13T11:05:59Z</time>
      </trkpt>
      <trkpt lat="45.9583" lon="4.76773">
        <ele>190</ele>
        <time>2018-03-13T11:06:00Z</time>
      </trkpt>
      <trkpt lat="45.95828" lon="4.76766">
        <ele>190</ele>
        <time>2018-03-13T11:06:01Z</time>
      </trkpt>
      <trkpt lat="45.95827" lon="4.76759">
        <ele>191</ele>
        <time>2018-03-13T11:06:02Z</time>
      </trkpt>
      <trkpt lat="45.95825" lon="4.76751">
        <ele>191</ele>
        <time>2018-03-13T11:06:03Z</time>
      </trkpt>
      <trkpt lat="45.95824" lon="4.76744">
        <ele>190</ele>
        <time>2018-03-13T11:06:04Z</time>
      </trkpt>
      <trkpt lat="45.95824" lon="4.76736">
        <ele>190</ele>
        <time>2018-03-13T11:06:05Z</time>
      </trkpt>
      <trkpt lat="45.95822" lon="4.76728">
        <ele>190</ele>
        <time>2018-03-13T11:06:06Z</time>
      </trkpt>
      <trkpt lat="45.95821" lon="4.76721">
        <ele>189</ele>
        <time>2018-03-13T11:06:07Z</time>
      </trkpt>
      <trkpt lat="45.9582" lon="4.76713">
        <ele>189</ele>
        <time>2018-03-13T11:06:08Z</time>
      </trkpt>
      <trkpt lat="45.9582" lon="4.76706">
        <ele>189</ele>
        <time>2018-03-13T11:06:09Z</time>
      </trkpt>
      <trkpt lat="45.95819" lon="4.76698">
        <ele>189</ele>
        <time>2018-03-13T11:06:10Z</time>
      </trkpt>
      <trkpt lat="45.95817" lon="4.76691">
        <ele>189</ele>
        <time>2018-03-13T11:06:11Z</time>
      </trkpt>
      <trkpt lat="45.95817" lon="4.76683">
        <ele>189</ele>
        <time>2018-03-13T11:06:12Z</time>
      </trkpt>
      <trkpt lat="45.95815" lon="4.76676">
        <ele>189</ele>
        <time>2018-03-13T11:06:13Z</time>
      </trkpt>
      <trkpt lat="45.95814" lon="4.76668">
        <ele>189</ele>
        <time>2018-03-13T11:06:14Z</time>
      </trkpt>
      <trkpt lat="45.95813" lon="4.7666">
        <ele>188</ele>
        <time>2018-03-13T11:06:15Z</time>
      </trkpt>
      <trkpt lat="45.95811" lon="4.76652">
        <ele>188</ele>
        <time>2018-03-13T11:06:16Z</time>
      </trkpt>
      <trkpt lat="45.9581" lon="4.76645">
        <ele>188</ele>
        <time>2018-03-13T11:06:17Z</time>
      </trkpt>
      <trkpt lat="45.95809" lon="4.76637">
        <ele>188</ele>
        <time>2018-03-13T11:06:18Z</time>
      </trkpt>
      <trkpt lat="45.95807" lon="4.7663">
        <ele>188</ele>
        <time>2018-03-13T11:06:19Z</time>
      </trkpt>
      <trkpt lat="45.95806" lon="4.76621">
        <ele>188</ele>
        <time>2018-03-13T11:06:20Z</time>
      </trkpt>
      <trkpt lat="45.95804" lon="4.76614">
        <ele>188</ele>
        <time>2018-03-13T11:06:21Z</time>
      </trkpt>
      <trkpt lat="45.95804" lon="4.76606">
        <ele>188</ele>
        <time>2018-03-13T11:06:22Z</time>
      </trkpt>
      <trkpt lat="45.95803" lon="4.76599">
        <ele>187</ele>
        <time>2018-03-13T11:06:23Z</time>
      </trkpt>
      <trkpt lat="45.95802" lon="4.76591">
        <ele>187</ele>
        <time>2018-03-13T11:06:24Z</time>
      </trkpt>
      <trkpt lat="45.958" lon="4.76583">
        <ele>187</ele>
        <time>2018-03-13T11:06:25Z</time>
      </trkpt>
      <trkpt lat="45.95799" lon="4.76576">
        <ele>187</ele>
        <time>2018-03-13T11:06:26Z</time>
      </trkpt>
      <trkpt lat="45.95798" lon="4.7657">
        <ele>187</ele>
        <time>2018-03-13T11:06:27Z</time>
      </trkpt>
      <trkpt lat="45.95797" lon="4.76562">
        <ele>187</ele>
        <time>2018-03-13T11:06:28Z</time>
      </trkpt>
      <trkpt lat="45.95796" lon="4.76555">
        <ele>187</ele>
        <time>2018-03-13T11:06:29Z</time>
      </trkpt>
      <trkpt lat="45.95795" lon="4.76547">
        <ele>187</ele>
        <time>2018-03-13T11:06:30Z</time>
      </trkpt>
      <trkpt lat="45.95795" lon="4.76539">
        <ele>187</ele>
        <time>2018-03-13T11:06:31Z</time>
      </trkpt>
      <trkpt lat="45.95794" lon="4.76532">
        <ele>187</ele>
        <time>2018-03-13T11:06:32Z</time>
      </trkpt>
      <trkpt lat="45.95792" lon="4.76525">
        <ele>187</ele>
        <time>2018-03-13T11:06:33Z</time>
      </trkpt>
      <trkpt lat="45.95791" lon="4.76518">
        <ele>187</ele>
        <time>2018-03-13T11:06:34Z</time>
      </trkpt>
      <trkpt lat="45.9579" lon="4.76511">
        <ele>187</ele>
        <time>2018-03-13T11:06:35Z</time>
      </trkpt>
      <trkpt lat="45.95789" lon="4.76504">
        <ele>187</ele>
        <time>2018-03-13T11:06:36Z</time>
      </trkpt>
      <trkpt lat="45.95788" lon="4.76497">
        <ele>186</ele>
        <time>2018-03-13T11:06:37Z</time>
      </trkpt>
      <trkpt lat="45.95787" lon="4.7649">
        <ele>186</ele>
        <time>2018-03-13T11:06:38Z</time>
      </trkpt>
      <trkpt lat="45.95786" lon="4.76484">
        <ele>186</ele>
        <time>2018-03-13T11:06:39Z</time>
      </trkpt>
      <trkpt lat="45.95785" lon="4.76477">
        <ele>186</ele>
        <time>2018-03-13T11:06:40Z</time>
      </trkpt>
      <trkpt lat="45.95784" lon="4.76469">
        <ele>186</ele>
        <time>2018-03-13T11:06:41Z</time>
      </trkpt>
      <trkpt lat="45.95784" lon="4.76463">
        <ele>186</ele>
        <time>2018-03-13T11:06:42Z</time>
      </trkpt>
      <trkpt lat="45.95783" lon="4.76456">
        <ele>186</ele>
        <time>2018-03-13T11:06:43Z</time>
      </trkpt>
      <trkpt lat="45.95782" lon="4.76449">
        <ele>186</ele>
        <time>2018-03-13T11:06:44Z</time>
      </trkpt>
      <trkpt lat="45.95781" lon="4.76441">
        <ele>186</ele>
        <time>2018-03-13T11:06:45Z</time>
      </trkpt>
      <trkpt lat="45.95779" lon="4.76433">
        <ele>186</ele>
        <time>2018-03-13T11:06:46Z</time>
      </trkpt>
      <trkpt lat="45.95778" lon="4.76426">
        <ele>186</ele>
        <time>2018-03-13T11:06:47Z</time>
      </trkpt>
      <trkpt lat="45.95778" lon="4.76419">
        <ele>186</ele>
        <time>2018-03-13T11:06:48Z</time>
      </trkpt>
      <trkpt lat="45.95777" lon="4.76412">
        <ele>186</ele>
        <time>2018-03-13T11:06:49Z</time>
      </trkpt>
      <trkpt lat="45.95776" lon="4.76405">
        <ele>186</ele>
        <time>2018-03-13T11:06:50Z</time>
      </trkpt>
      <trkpt lat="45.95775" lon="4.76397">
        <ele>186</ele>
        <time>2018-03-13T11:06:51Z</time>
      </trkpt>
      <trkpt lat="45.95774" lon="4.7639">
        <ele>186</ele>
        <time>2018-03-13T11:06:52Z</time>
      </trkpt>
      <trkpt lat="45.95773" lon="4.76382">
        <ele>186</ele>
        <time>2018-03-13T11:06:53Z</time>
      </trkpt>
      <trkpt lat="45.95773" lon="4.76374">
        <ele>186</ele>
        <time>2018-03-13T11:06:54Z</time>
      </trkpt>
      <trkpt lat="45.95772" lon="4.76367">
        <ele>186</ele>
        <time>2018-03-13T11:06:55Z</time>
      </trkpt>
      <trkpt lat="45.95773" lon="4.76359">
        <ele>186</ele>
        <time>2018-03-13T11:06:56Z</time>
      </trkpt>
      <trkpt lat="45.95772" lon="4.76352">
        <ele>186</ele>
        <time>2018-03-13T11:06:57Z</time>
      </trkpt>
      <trkpt lat="45.95772" lon="4.76343">
        <ele>186</ele>
        <time>2018-03-13T11:06:58Z</time>
      </trkpt>
      <trkpt lat="45.95771" lon="4.76335">
        <ele>186</ele>
        <time>2018-03-13T11:06:59Z</time>
      </trkpt>
      <trkpt lat="45.95771" lon="4.76328">
        <ele>185</ele>
        <time>2018-03-13T11:07:00Z</time>
      </trkpt>
      <trkpt lat="45.95771" lon="4.7632">
        <ele>185</ele>
        <time>2018-03-13T11:07:01Z</time>
      </trkpt>
      <trkpt lat="45.9577" lon="4.76312">
        <ele>185</ele>
        <time>2018-03-13T11:07:02Z</time>
      </trkpt>
      <trkpt lat="45.95769" lon="4.76305">
        <ele>186</ele>
        <time>2018-03-13T11:07:03Z</time>
      </trkpt>
      <trkpt lat="45.95769" lon="4.76297">
        <ele>186</ele>
        <time>2018-03-13T11:07:04Z</time>
      </trkpt>
      <trkpt lat="45.95769" lon="4.76289">
        <ele>186</ele>
        <time>2018-03-13T11:07:05Z</time>
      </trkpt>
      <trkpt lat="45.95768" lon="4.76281">
        <ele>186</ele>
        <time>2018-03-13T11:07:06Z</time>
      </trkpt>
      <trkpt lat="45.95767" lon="4.76273">
        <ele>186</ele>
        <time>2018-03-13T11:07:07Z</time>
      </trkpt>
      <trkpt lat="45.95766" lon="4.76266">
        <ele>185</ele>
        <time>2018-03-13T11:07:08Z</time>
      </trkpt>
      <trkpt lat="45.95766" lon="4.76258">
        <ele>185</ele>
        <time>2018-03-13T11:07:09Z</time>
      </trkpt>
      <trkpt lat="45.95766" lon="4.76251">
        <ele>185</ele>
        <time>2018-03-13T11:07:10Z</time>
      </trkpt>
      <trkpt lat="45.95766" lon="4.76243">
        <ele>186</ele>
        <time>2018-03-13T11:07:11Z</time>
      </trkpt>
      <trkpt lat="45.95765" lon="4.76236">
        <ele>186</ele>
        <time>2018-03-13T11:07:12Z</time>
      </trkpt>
      <trkpt lat="45.95765" lon="4.76228">
        <ele>186</ele>
        <time>2018-03-13T11:07:13Z</time>
      </trkpt>
      <trkpt lat="45.95765" lon="4.76221">
        <ele>186</ele>
        <time>2018-03-13T11:07:14Z</time>
      </trkpt>
      <trkpt lat="45.95764" lon="4.76214">
        <ele>186</ele>
        <time>2018-03-13T11:07:15Z</time>
      </trkpt>
      <trkpt lat="45.95763" lon="4.76206">
        <ele>186</ele>
        <time>2018-03-13T11:07:16Z</time>
      </trkpt>
      <trkpt lat="45.95763" lon="4.76199">
        <ele>186</ele>
        <time>2018-03-13T11:07:17Z</time>
      </trkpt>
      <trkpt lat="45.95762" lon="4.76191">
        <ele>186</ele>
        <time>2018-03-13T11:07:18Z</time>
      </trkpt>
      <trkpt lat="45.95762" lon="4.76183">
        <ele>186</ele>
        <time>2018-03-13T11:07:19Z</time>
      </trkpt>
      <trkpt lat="45.95762" lon="4.76176">
        <ele>185</ele>
        <time>2018-03-13T11:07:20Z</time>
      </trkpt>
      <trkpt lat="45.95762" lon="4.76168">
        <ele>185</ele>
        <time>2018-03-13T11:07:21Z</time>
      </trkpt>
      <trkpt lat="45.95762" lon="4.76161">
        <ele>186</ele>
        <time>2018-03-13T11:07:22Z</time>
      </trkpt>
      <trkpt lat="45.95761" lon="4.76153">
        <ele>186</ele>
        <time>2018-03-13T11:07:23Z</time>
      </trkpt>
      <trkpt lat="45.95761" lon="4.76145">
        <ele>186</ele>
        <time>2018-03-13T11:07:24Z</time>
      </trkpt>
      <trkpt lat="45.9576" lon="4.76138">
        <ele>186</ele>
        <time>2018-03-13T11:07:25Z</time>
      </trkpt>
      <trkpt lat="45.95759" lon="4.76131">
        <ele>186</ele>
        <time>2018-03-13T11:07:26Z</time>
      </trkpt>
      <trkpt lat="45.95759" lon="4.76124">
        <ele>186</ele>
        <time>2018-03-13T11:07:27Z</time>
      </trkpt>
      <trkpt lat="45.95758" lon="4.76117">
        <ele>186</ele>
        <time>2018-03-13T11:07:28Z</time>
      </trkpt>
      <trkpt lat="45.95757" lon="4.7611">
        <ele>186</ele>
        <time>2018-03-13T11:07:29Z</time>
      </trkpt>
      <trkpt lat="45.95755" lon="4.76103">
        <ele>186</ele>
        <time>2018-03-13T11:07:30Z</time>
      </trkpt>
      <trkpt lat="45.95753" lon="4.76096">
        <ele>186</ele>
        <time>2018-03-13T11:07:31Z</time>
      </trkpt>
      <trkpt lat="45.95751" lon="4.76089">
        <ele>185</ele>
        <time>2018-03-13T11:07:32Z</time>
      </trkpt>
      <trkpt lat="45.95749" lon="4.76082">
        <ele>185</ele>
        <time>2018-03-13T11:07:33Z</time>
      </trkpt>
      <trkpt lat="45.95746" lon="4.76076">
        <ele>185</ele>
        <time>2018-03-13T11:07:34Z</time>
      </trkpt>
      <trkpt lat="45.95743" lon="4.76069">
        <ele>185</ele>
        <time>2018-03-13T11:07:35Z</time>
      </trkpt>
      <trkpt lat="45.9574" lon="4.76062">
        <ele>184</ele>
        <time>2018-03-13T11:07:36Z</time>
      </trkpt>
      <trkpt lat="45.95738" lon="4.76055">
        <ele>184</ele>
        <time>2018-03-13T11:07:37Z</time>
      </trkpt>
      <trkpt lat="45.95734" lon="4.76048">
        <ele>184</ele>
        <time>2018-03-13T11:07:38Z</time>
      </trkpt>
      <trkpt lat="45.95731" lon="4.76041">
        <ele>184</ele>
        <time>2018-03-13T11:07:39Z</time>
      </trkpt>
      <trkpt lat="45.95728" lon="4.76034">
        <ele>184</ele>
        <time>2018-03-13T11:07:40Z</time>
      </trkpt>
      <trkpt lat="45.95725" lon="4.76028">
        <ele>184</ele>
        <time>2018-03-13T11:07:41Z</time>
      </trkpt>
      <trkpt lat="45.95721" lon="4.76022">
        <ele>184</ele>
        <time>2018-03-13T11:07:42Z</time>
      </trkpt>
      <trkpt lat="45.95719" lon="4.76015">
        <ele>184</ele>
        <time>2018-03-13T11:07:43Z</time>
      </trkpt>
      <trkpt lat="45.95716" lon="4.76008">
        <ele>184</ele>
        <time>2018-03-13T11:07:44Z</time>
      </trkpt>
      <trkpt lat="45.95713" lon="4.76002">
        <ele>184</ele>
        <time>2018-03-13T11:07:45Z</time>
      </trkpt>
      <trkpt lat="45.9571" lon="4.75996">
        <ele>185</ele>
        <time>2018-03-13T11:07:46Z</time>
      </trkpt>
      <trkpt lat="45.95707" lon="4.75989">
        <ele>185</ele>
        <time>2018-03-13T11:07:47Z</time>
      </trkpt>
      <trkpt lat="45.95703" lon="4.75982">
        <ele>185</ele>
        <time>2018-03-13T11:07:48Z</time>
      </trkpt>
      <trkpt lat="45.95701" lon="4.75976">
        <ele>185</ele>
        <time>2018-03-13T11:07:49Z</time>
      </trkpt>
      <trkpt lat="45.95698" lon="4.7597">
        <ele>185</ele>
        <time>2018-03-13T11:07:50Z</time>
      </trkpt>
      <trkpt lat="45.95695" lon="4.75964">
        <ele>185</ele>
        <time>2018-03-13T11:07:51Z</time>
      </trkpt>
      <trkpt lat="45.95692" lon="4.75958">
        <ele>185</ele>
        <time>2018-03-13T11:07:52Z</time>
      </trkpt>
      <trkpt lat="45.95689" lon="4.75952">
        <ele>185</ele>
        <time>2018-03-13T11:07:53Z</time>
      </trkpt>
      <trkpt lat="45.95687" lon="4.75945">
        <ele>185</ele>
        <time>2018-03-13T11:07:54Z</time>
      </trkpt>
      <trkpt lat="45.95684" lon="4.75938">
        <ele>185</ele>
        <time>2018-03-13T11:07:55Z</time>
      </trkpt>
      <trkpt lat="45.95681" lon="4.75931">
        <ele>185</ele>
        <time>2018-03-13T11:07:56Z</time>
      </trkpt>
      <trkpt lat="45.95679" lon="4.75925">
        <ele>185</ele>
        <time>2018-03-13T11:07:57Z</time>
      </trkpt>
      <trkpt lat="45.95676" lon="4.75918">
        <ele>184</ele>
        <time>2018-03-13T11:07:58Z</time>
      </trkpt>
      <trkpt lat="45.95674" lon="4.75911">
        <ele>185</ele>
        <time>2018-03-13T11:07:59Z</time>
      </trkpt>
      <trkpt lat="45.95671" lon="4.75904">
        <ele>185</ele>
        <time>2018-03-13T11:08:00Z</time>
      </trkpt>
      <trkpt lat="45.95669" lon="4.75898">
        <ele>185</ele>
        <time>2018-03-13T11:08:01Z</time>
      </trkpt>
      <trkpt lat="45.95667" lon="4.7589">
        <ele>186</ele>
        <time>2018-03-13T11:08:02Z</time>
      </trkpt>
      <trkpt lat="45.95664" lon="4.75884">
        <ele>184</ele>
        <time>2018-03-13T11:08:03Z</time>
      </trkpt>
      <trkpt lat="45.95662" lon="4.75877">
        <ele>184</ele>
        <time>2018-03-13T11:08:04Z</time>
      </trkpt>
      <trkpt lat="45.9566" lon="4.7587">
        <ele>184</ele>
        <time>2018-03-13T11:08:05Z</time>
      </trkpt>
      <trkpt lat="45.95658" lon="4.75863">
        <ele>184</ele>
        <time>2018-03-13T11:08:06Z</time>
      </trkpt>
      <trkpt lat="45.95656" lon="4.75856">
        <ele>184</ele>
        <time>2018-03-13T11:08:07Z</time>
      </trkpt>
      <trkpt lat="45.95655" lon="4.75849">
        <ele>185</ele>
        <time>2018-03-13T11:08:08Z</time>
      </trkpt>
      <trkpt lat="45.95653" lon="4.75842">
        <ele>185</ele>
        <time>2018-03-13T11:08:09Z</time>
      </trkpt>
      <trkpt lat="45.9565" lon="4.75835">
        <ele>185</ele>
        <time>2018-03-13T11:08:10Z</time>
      </trkpt>
      <trkpt lat="45.95649" lon="4.75828">
        <ele>185</ele>
        <time>2018-03-13T11:08:11Z</time>
      </trkpt>
      <trkpt lat="45.95647" lon="4.75821">
        <ele>185</ele>
        <time>2018-03-13T11:08:12Z</time>
      </trkpt>
      <trkpt lat="45.95645" lon="4.75814">
        <ele>185</ele>
        <time>2018-03-13T11:08:13Z</time>
      </trkpt>
      <trkpt lat="45.95644" lon="4.75808">
        <ele>185</ele>
        <time>2018-03-13T11:08:14Z</time>
      </trkpt>
      <trkpt lat="45.95642" lon="4.758">
        <ele>185</ele>
        <time>2018-03-13T11:08:15Z</time>
      </trkpt>
      <trkpt lat="45.95641" lon="4.75793">
        <ele>185</ele>
        <time>2018-03-13T11:08:16Z</time>
      </trkpt>
      <trkpt lat="45.95641" lon="4.75786">
        <ele>185</ele>
        <time>2018-03-13T11:08:17Z</time>
      </trkpt>
      <trkpt lat="45.9564" lon="4.75779">
        <ele>186</ele>
        <time>2018-03-13T11:08:18Z</time>
      </trkpt>
      <trkpt lat="45.95639" lon="4.75773">
        <ele>186</ele>
        <time>2018-03-13T11:08:19Z</time>
      </trkpt>
      <trkpt lat="45.95638" lon="4.75766">
        <ele>186</ele>
        <time>2018-03-13T11:08:20Z</time>
      </trkpt>
      <trkpt lat="45.95637" lon="4.75759">
        <ele>186</ele>
        <time>2018-03-13T11:08:21Z</time>
      </trkpt>
      <trkpt lat="45.95636" lon="4.75753">
        <ele>186</ele>
        <time>2018-03-13T11:08:22Z</time>
      </trkpt>
      <trkpt lat="45.95635" lon="4.75746">
        <ele>187</ele>
        <time>2018-03-13T11:08:23Z</time>
      </trkpt>
      <trkpt lat="45.95634" lon="4.7574">
        <ele>187</ele>
        <time>2018-03-13T11:08:24Z</time>
      </trkpt>
      <trkpt lat="45.95633" lon="4.75733">
        <ele>187</ele>
        <time>2018-03-13T11:08:25Z</time>
      </trkpt>
      <trkpt lat="45.95632" lon="4.75727">
        <ele>187</ele>
        <time>2018-03-13T11:08:26Z</time>
      </trkpt>
      <trkpt lat="45.95631" lon="4.7572">
        <ele>187</ele>
        <time>2018-03-13T11:08:27Z</time>
      </trkpt>
      <trkpt lat="45.9563" lon="4.75713">
        <ele>187</ele>
        <time>2018-03-13T11:08:28Z</time>
      </trkpt>
      <trkpt lat="45.9563" lon="4.75706">
        <ele>187</ele>
        <time>2018-03-13T11:08:29Z</time>
      </trkpt>
      <trkpt lat="45.95629" lon="4.75699">
        <ele>187</ele>
        <time>2018-03-13T11:08:30Z</time>
      </trkpt>
      <trkpt lat="45.95628" lon="4.75693">
        <ele>187</ele>
        <time>2018-03-13T11:08:31Z</time>
      </trkpt>
      <trkpt lat="45.95627" lon="4.75686">
        <ele>187</ele>
        <time>2018-03-13T11:08:32Z</time>
      </trkpt>
      <trkpt lat="45.95625" lon="4.75678">
        <ele>187</ele>
        <time>2018-03-13T11:08:33Z</time>
      </trkpt>
      <trkpt lat="45.95624" lon="4.75671">
        <ele>187</ele>
        <time>2018-03-13T11:08:34Z</time>
      </trkpt>
      <trkpt lat="45.95622" lon="4.75665">
        <ele>188</ele>
        <time>2018-03-13T11:08:35Z</time>
      </trkpt>
      <trkpt lat="45.9562" lon="4.75659">
        <ele>188</ele>
        <time>2018-03-13T11:08:36Z</time>
      </trkpt>
      <trkpt lat="45.95619" lon="4.75653">
        <ele>188</ele>
        <time>2018-03-13T11:08:37Z</time>
      </trkpt>
      <trkpt lat="45.95618" lon="4.75646">
        <ele>188</ele>
        <time>2018-03-13T11:08:38Z</time>
      </trkpt>
      <trkpt lat="45.95616" lon="4.7564">
        <ele>188</ele>
        <time>2018-03-13T11:08:39Z</time>
      </trkpt>
      <trkpt lat="45.95614" lon="4.75634">
        <ele>188</ele>
        <time>2018-03-13T11:08:40Z</time>
      </trkpt>
      <trkpt lat="45.95613" lon="4.75627">
        <ele>188</ele>
        <time>2018-03-13T11:08:41Z</time>
      </trkpt>
      <trkpt lat="45.95611" lon="4.75621">
        <ele>188</ele>
        <time>2018-03-13T11:08:42Z</time>
      </trkpt>
      <trkpt lat="45.95609" lon="4.75614">
        <ele>188</ele>
        <time>2018-03-13T11:08:43Z</time>
      </trkpt>
      <trkpt lat="45.95606" lon="4.75607">
        <ele>187</ele>
        <time>2018-03-13T11:08:44Z</time>
      </trkpt>
      <trkpt lat="45.95604" lon="4.75601">
        <ele>187</ele>
        <time>2018-03-13T11:08:45Z</time>
      </trkpt>
      <trkpt lat="45.95602" lon="4.75595">
        <ele>187</ele>
        <time>2018-03-13T11:08:46Z</time>
      </trkpt>
      <trkpt lat="45.95599" lon="4.75589">
        <ele>187</ele>
        <time>2018-03-13T11:08:47Z</time>
      </trkpt>
      <trkpt lat="45.95596" lon="4.75583">
        <ele>187</ele>
        <time>2018-03-13T11:08:48Z</time>
      </trkpt>
      <trkpt lat="45.95593" lon="4.75577">
        <ele>187</ele>
        <time>2018-03-13T11:08:49Z</time>
      </trkpt>
      <trkpt lat="45.9559" lon="4.75571">
        <ele>188</ele>
        <time>2018-03-13T11:08:50Z</time>
      </trkpt>
      <trkpt lat="45.95586" lon="4.75565">
        <ele>188</ele>
        <time>2018-03-13T11:08:51Z</time>
      </trkpt>
      <trkpt lat="45.95583" lon="4.75559">
        <ele>186</ele>
        <time>2018-03-13T11:08:52Z</time>
      </trkpt>
      <trkpt lat="45.9558" lon="4.75555">
        <ele>186</ele>
        <time>2018-03-13T11:08:53Z</time>
      </trkpt>
      <trkpt lat="45.95576" lon="4.7555">
        <ele>186</ele>
        <time>2018-03-13T11:08:54Z</time>
      </trkpt>
      <trkpt lat="45.95572" lon="4.75545">
        <ele>186</ele>
        <time>2018-03-13T11:08:55Z</time>
      </trkpt>
      <trkpt lat="45.95567" lon="4.75541">
        <ele>186</ele>
        <time>2018-03-13T11:08:56Z</time>
      </trkpt>
      <trkpt lat="45.95561" lon="4.75537">
        <ele>186</ele>
        <time>2018-03-13T11:08:57Z</time>
      </trkpt>
      <trkpt lat="45.95558" lon="4.75532">
        <ele>186</ele>
        <time>2018-03-13T11:08:58Z</time>
      </trkpt>
      <trkpt lat="45.95553" lon="4.75527">
        <ele>186</ele>
        <time>2018-03-13T11:08:59Z</time>
      </trkpt>
      <trkpt lat="45.95549" lon="4.75522">
        <ele>186</ele>
        <time>2018-03-13T11:09:00Z</time>
      </trkpt>
      <trkpt lat="45.95545" lon="4.75516">
        <ele>186</ele>
        <time>2018-03-13T11:09:01Z</time>
      </trkpt>
      <trkpt lat="45.95542" lon="4.7551">
        <ele>186</ele>
        <time>2018-03-13T11:09:02Z</time>
      </trkpt>
      <trkpt lat="45.95539" lon="4.75505">
        <ele>186</ele>
        <time>2018-03-13T11:09:03Z</time>
      </trkpt>
      <trkpt lat="45.95538" lon="4.75498">
        <ele>187</ele>
        <time>2018-03-13T11:09:04Z</time>
      </trkpt>
      <trkpt lat="45.95537" lon="4.75486">
        <ele>187</ele>
        <time>2018-03-13T11:09:06Z</time>
      </trkpt>
      <trkpt lat="45.95537" lon="4.75479">
        <ele>187</ele>
        <time>2018-03-13T11:09:07Z</time>
      </trkpt>
      <trkpt lat="45.95537" lon="4.75473">
        <ele>187</ele>
        <time>2018-03-13T11:09:08Z</time>
      </trkpt>
      <trkpt lat="45.95535" lon="4.75465">
        <ele>187</ele>
        <time>2018-03-13T11:09:09Z</time>
      </trkpt>
      <trkpt lat="45.95533" lon="4.7546">
        <ele>187</ele>
        <time>2018-03-13T11:09:10Z</time>
      </trkpt>
      <trkpt lat="45.95529" lon="4.75454">
        <ele>187</ele>
        <time>2018-03-13T11:09:11Z</time>
      </trkpt>
      <trkpt lat="45.95525" lon="4.7545">
        <ele>187</ele>
        <time>2018-03-13T11:09:12Z</time>
      </trkpt>
      <trkpt lat="45.95521" lon="4.75445">
        <ele>187</ele>
        <time>2018-03-13T11:09:13Z</time>
      </trkpt>
      <trkpt lat="45.95516" lon="4.7544">
        <ele>187</ele>
        <time>2018-03-13T11:09:14Z</time>
      </trkpt>
      <trkpt lat="45.95513" lon="4.75434">
        <ele>186</ele>
        <time>2018-03-13T11:09:15Z</time>
      </trkpt>
      <trkpt lat="45.95511" lon="4.75426">
        <ele>186</ele>
        <time>2018-03-13T11:09:16Z</time>
      </trkpt>
      <trkpt lat="45.9551" lon="4.7542">
        <ele>186</ele>
        <time>2018-03-13T11:09:17Z</time>
      </trkpt>
      <trkpt lat="45.95508" lon="4.75412">
        <ele>186</ele>
        <time>2018-03-13T11:09:18Z</time>
      </trkpt>
      <trkpt lat="45.95506" lon="4.75407">
        <ele>187</ele>
        <time>2018-03-13T11:09:19Z</time>
      </trkpt>
      <trkpt lat="45.95502" lon="4.75396">
        <ele>188</ele>
        <time>2018-03-13T11:09:21Z</time>
      </trkpt>
      <trkpt lat="45.95499" lon="4.7539">
        <ele>185</ele>
        <time>2018-03-13T11:09:22Z</time>
      </trkpt>
      <trkpt lat="45.95497" lon="4.75384">
        <ele>185</ele>
        <time>2018-03-13T11:09:23Z</time>
      </trkpt>
      <trkpt lat="45.95493" lon="4.75378">
        <ele>185</ele>
        <time>2018-03-13T11:09:24Z</time>
      </trkpt>
      <trkpt lat="45.9549" lon="4.75373">
        <ele>185</ele>
        <time>2018-03-13T11:09:25Z</time>
      </trkpt>
      <trkpt lat="45.95488" lon="4.75367">
        <ele>186</ele>
        <time>2018-03-13T11:09:26Z</time>
      </trkpt>
      <trkpt lat="45.95485" lon="4.75361">
        <ele>186</ele>
        <time>2018-03-13T11:09:27Z</time>
      </trkpt>
      <trkpt lat="45.95482" lon="4.75355">
        <ele>186</ele>
        <time>2018-03-13T11:09:28Z</time>
      </trkpt>
      <trkpt lat="45.95478" lon="4.75349">
        <ele>186</ele>
        <time>2018-03-13T11:09:29Z</time>
      </trkpt>
      <trkpt lat="45.95475" lon="4.75344">
        <ele>186</ele>
        <time>2018-03-13T11:09:30Z</time>
      </trkpt>
      <trkpt lat="45.95473" lon="4.75339">
        <ele>186</ele>
        <time>2018-03-13T11:09:31Z</time>
      </trkpt>
      <trkpt lat="45.9547" lon="4.75333">
        <ele>188</ele>
        <time>2018-03-13T11:09:32Z</time>
      </trkpt>
      <trkpt lat="45.95465" lon="4.75323">
        <ele>188</ele>
        <time>2018-03-13T11:09:34Z</time>
      </trkpt>
      <trkpt lat="45.95462" lon="4.75318">
        <ele>188</ele>
        <time>2018-03-13T11:09:35Z</time>
      </trkpt>
      <trkpt lat="45.95457" lon="4.75308">
        <ele>188</ele>
        <time>2018-03-13T11:09:37Z</time>
      </trkpt>
      <trkpt lat="45.95454" lon="4.75303">
        <ele>188</ele>
        <time>2018-03-13T11:09:38Z</time>
      </trkpt>
      <trkpt lat="45.95449" lon="4.75293">
        <ele>188</ele>
        <time>2018-03-13T11:09:40Z</time>
      </trkpt>
      <trkpt lat="45.95446" lon="4.75288">
        <ele>188</ele>
        <time>2018-03-13T11:09:41Z</time>
      </trkpt>
      <trkpt lat="45.95442" lon="4.75279">
        <ele>188</ele>
        <time>2018-03-13T11:09:43Z</time>
      </trkpt>
      <trkpt lat="45.95439" lon="4.75273">
        <ele>189</ele>
        <time>2018-03-13T11:09:44Z</time>
      </trkpt>
      <trkpt lat="45.95435" lon="4.75263">
        <ele>189</ele>
        <time>2018-03-13T11:09:46Z</time>
      </trkpt>
      <trkpt lat="45.95432" lon="4.75258">
        <ele>189</ele>
        <time>2018-03-13T11:09:47Z</time>
      </trkpt>
      <trkpt lat="45.95427" lon="4.75248">
        <ele>190</ele>
        <time>2018-03-13T11:09:49Z</time>
      </trkpt>
      <trkpt lat="45.95424" lon="4.75242">
        <ele>190</ele>
        <time>2018-03-13T11:09:50Z</time>
      </trkpt>
      <trkpt lat="45.95421" lon="4.75237">
        <ele>190</ele>
        <time>2018-03-13T11:09:51Z</time>
      </trkpt>
      <trkpt lat="45.95419" lon="4.75231">
        <ele>190</ele>
        <time>2018-03-13T11:09:52Z</time>
      </trkpt>
      <trkpt lat="45.95416" lon="4.75226">
        <ele>189</ele>
        <time>2018-03-13T11:09:53Z</time>
      </trkpt>
      <trkpt lat="45.95413" lon="4.7522">
        <ele>189</ele>
        <time>2018-03-13T11:09:54Z</time>
      </trkpt>
      <trkpt lat="45.9541" lon="4.75214">
        <ele>189</ele>
        <time>2018-03-13T11:09:55Z</time>
      </trkpt>
      <trkpt lat="45.95406" lon="4.75207">
        <ele>189</ele>
        <time>2018-03-13T11:09:56Z</time>
      </trkpt>
      <trkpt lat="45.95401" lon="4.75202">
        <ele>189</ele>
        <time>2018-03-13T11:09:57Z</time>
      </trkpt>
      <trkpt lat="45.95398" lon="4.75197">
        <ele>189</ele>
        <time>2018-03-13T11:09:58Z</time>
      </trkpt>
      <trkpt lat="45.95395" lon="4.75191">
        <ele>189</ele>
        <time>2018-03-13T11:09:59Z</time>
      </trkpt>
      <trkpt lat="45.95391" lon="4.75186">
        <ele>189</ele>
        <time>2018-03-13T11:10:00Z</time>
      </trkpt>
      <trkpt lat="45.95388" lon="4.75179">
        <ele>189</ele>
        <time>2018-03-13T11:10:01Z</time>
      </trkpt>
      <trkpt lat="45.95386" lon="4.75174">
        <ele>189</ele>
        <time>2018-03-13T11:10:02Z</time>
      </trkpt>
      <trkpt lat="45.95382" lon="4.75169">
        <ele>189</ele>
        <time>2018-03-13T11:10:03Z</time>
      </trkpt>
      <trkpt lat="45.95379" lon="4.75164">
        <ele>191</ele>
        <time>2018-03-13T11:10:04Z</time>
      </trkpt>
      <trkpt lat="45.95376" lon="4.75159">
        <ele>191</ele>
        <time>2018-03-13T11:10:05Z</time>
      </trkpt>
      <trkpt lat="45.95373" lon="4.75153">
        <ele>191</ele>
        <time>2018-03-13T11:10:06Z</time>
      </trkpt>
      <trkpt lat="45.95367" lon="4.75145">
        <ele>191</ele>
        <time>2018-03-13T11:10:08Z</time>
      </trkpt>
      <trkpt lat="45.95364" lon="4.7514">
        <ele>191</ele>
        <time>2018-03-13T11:10:09Z</time>
      </trkpt>
      <trkpt lat="45.95361" lon="4.75136">
        <ele>191</ele>
        <time>2018-03-13T11:10:10Z</time>
      </trkpt>
      <trkpt lat="45.95358" lon="4.75131">
        <ele>191</ele>
        <time>2018-03-13T11:10:11Z</time>
      </trkpt>
      <trkpt lat="45.95352" lon="4.75122">
        <ele>191</ele>
        <time>2018-03-13T11:10:13Z</time>
      </trkpt>
      <trkpt lat="45.9535" lon="4.75117">
        <ele>192</ele>
        <time>2018-03-13T11:10:14Z</time>
      </trkpt>
      <trkpt lat="45.95343" lon="4.75108">
        <ele>192</ele>
        <time>2018-03-13T11:10:16Z</time>
      </trkpt>
      <trkpt lat="45.9534" lon="4.75103">
        <ele>192</ele>
        <time>2018-03-13T11:10:17Z</time>
      </trkpt>
      <trkpt lat="45.95337" lon="4.75098">
        <ele>192</ele>
        <time>2018-03-13T11:10:18Z</time>
      </trkpt>
      <trkpt lat="45.95334" lon="4.75093">
        <ele>192</ele>
        <time>2018-03-13T11:10:19Z</time>
      </trkpt>
      <trkpt lat="45.95331" lon="4.75089">
        <ele>192</ele>
        <time>2018-03-13T11:10:20Z</time>
      </trkpt>
      <trkpt lat="45.95328" lon="4.75084">
        <ele>192</ele>
        <time>2018-03-13T11:10:21Z</time>
      </trkpt>
      <trkpt lat="45.95324" lon="4.75078">
        <ele>192</ele>
        <time>2018-03-13T11:10:22Z</time>
      </trkpt>
      <trkpt lat="45.95321" lon="4.75073">
        <ele>192</ele>
        <time>2018-03-13T11:10:23Z</time>
      </trkpt>
      <trkpt lat="45.95318" lon="4.75068">
        <ele>192</ele>
        <time>2018-03-13T11:10:24Z</time>
      </trkpt>
      <trkpt lat="45.95315" lon="4.75063">
        <ele>192</ele>
        <time>2018-03-13T11:10:25Z</time>
      </trkpt>
      <trkpt lat="45.95311" lon="4.75058">
        <ele>192</ele>
        <time>2018-03-13T11:10:26Z</time>
      </trkpt>
      <trkpt lat="45.95308" lon="4.75054">
        <ele>192</ele>
        <time>2018-03-13T11:10:27Z</time>
      </trkpt>
      <trkpt lat="45.95305" lon="4.75048">
        <ele>191</ele>
        <time>2018-03-13T11:10:28Z</time>
      </trkpt>
      <trkpt lat="45.95302" lon="4.75043">
        <ele>191</ele>
        <time>2018-03-13T11:10:29Z</time>
      </trkpt>
      <trkpt lat="45.95298" lon="4.75038">
        <ele>191</ele>
        <time>2018-03-13T11:10:30Z</time>
      </trkpt>
      <trkpt lat="45.95294" lon="4.75033">
        <ele>191</ele>
        <time>2018-03-13T11:10:31Z</time>
      </trkpt>
      <trkpt lat="45.95289" lon="4.75024">
        <ele>191</ele>
        <time>2018-03-13T11:10:33Z</time>
      </trkpt>
      <trkpt lat="45.95286" lon="4.75019">
        <ele>191</ele>
        <time>2018-03-13T11:10:34Z</time>
      </trkpt>
      <trkpt lat="45.95281" lon="4.75009">
        <ele>191</ele>
        <time>2018-03-13T11:10:36Z</time>
      </trkpt>
      <trkpt lat="45.95278" lon="4.75004">
        <ele>191</ele>
        <time>2018-03-13T11:10:37Z</time>
      </trkpt>
      <trkpt lat="45.95272" lon="4.74994">
        <ele>192</ele>
        <time>2018-03-13T11:10:39Z</time>
      </trkpt>
      <trkpt lat="45.95269" lon="4.7499">
        <ele>192</ele>
        <time>2018-03-13T11:10:40Z</time>
      </trkpt>
      <trkpt lat="45.95263" lon="4.74981">
        <ele>192</ele>
        <time>2018-03-13T11:10:42Z</time>
      </trkpt>
      <trkpt lat="45.9526" lon="4.74976">
        <ele>192</ele>
        <time>2018-03-13T11:10:43Z</time>
      </trkpt>
      <trkpt lat="45.95257" lon="4.7497">
        <ele>192</ele>
        <time>2018-03-13T11:10:44Z</time>
      </trkpt>
      <trkpt lat="45.95254" lon="4.74964">
        <ele>192</ele>
        <time>2018-03-13T11:10:45Z</time>
      </trkpt>
      <trkpt lat="45.95251" lon="4.74959">
        <ele>192</ele>
        <time>2018-03-13T11:10:46Z</time>
      </trkpt>
      <trkpt lat="45.95248" lon="4.74954">
        <ele>192</ele>
        <time>2018-03-13T11:10:47Z</time>
      </trkpt>
      <trkpt lat="45.95242" lon="4.74945">
        <ele>192</ele>
        <time>2018-03-13T11:10:49Z</time>
      </trkpt>
      <trkpt lat="45.95239" lon="4.74941">
        <ele>192</ele>
        <time>2018-03-13T11:10:50Z</time>
      </trkpt>
      <trkpt lat="45.95233" lon="4.74932">
        <ele>192</ele>
        <time>2018-03-13T11:10:52Z</time>
      </trkpt>
      <trkpt lat="45.9523" lon="4.74927">
        <ele>192</ele>
        <time>2018-03-13T11:10:53Z</time>
      </trkpt>
      <trkpt lat="45.95227" lon="4.74923">
        <ele>192</ele>
        <time>2018-03-13T11:10:54Z</time>
      </trkpt>
      <trkpt lat="45.95224" lon="4.74918">
        <ele>192</ele>
        <time>2018-03-13T11:10:55Z</time>
      </trkpt>
      <trkpt lat="45.95219" lon="4.74909">
        <ele>193</ele>
        <time>2018-03-13T11:10:57Z</time>
      </trkpt>
      <trkpt lat="45.95216" lon="4.74903">
        <ele>193</ele>
        <time>2018-03-13T11:10:58Z</time>
      </trkpt>
      <trkpt lat="45.95212" lon="4.74898">
        <ele>193</ele>
        <time>2018-03-13T11:10:59Z</time>
      </trkpt>
      <trkpt lat="45.95209" lon="4.74893">
        <ele>193</ele>
        <time>2018-03-13T11:11:00Z</time>
      </trkpt>
      <trkpt lat="45.95206" lon="4.74888">
        <ele>194</ele>
        <time>2018-03-13T11:11:01Z</time>
      </trkpt>
      <trkpt lat="45.95202" lon="4.74882">
        <ele>194</ele>
        <time>2018-03-13T11:11:02Z</time>
      </trkpt>
      <trkpt lat="45.95197" lon="4.74871">
        <ele>194</ele>
        <time>2018-03-13T11:11:04Z</time>
      </trkpt>
      <trkpt lat="45.95194" lon="4.74866">
        <ele>194</ele>
        <time>2018-03-13T11:11:05Z</time>
      </trkpt>
      <trkpt lat="45.95188" lon="4.74856">
        <ele>194</ele>
        <time>2018-03-13T11:11:07Z</time>
      </trkpt>
      <trkpt lat="45.95185" lon="4.74851">
        <ele>194</ele>
        <time>2018-03-13T11:11:08Z</time>
      </trkpt>
      <trkpt lat="45.95181" lon="4.74845">
        <ele>194</ele>
        <time>2018-03-13T11:11:09Z</time>
      </trkpt>
      <trkpt lat="45.95177" lon="4.7484">
        <ele>194</ele>
        <time>2018-03-13T11:11:10Z</time>
      </trkpt>
      <trkpt lat="45.95174" lon="4.74835">
        <ele>194</ele>
        <time>2018-03-13T11:11:11Z</time>
      </trkpt>
      <trkpt lat="45.9517" lon="4.7483">
        <ele>194</ele>
        <time>2018-03-13T11:11:12Z</time>
      </trkpt>
      <trkpt lat="45.95166" lon="4.74825">
        <ele>194</ele>
        <time>2018-03-13T11:11:13Z</time>
      </trkpt>
      <trkpt lat="45.95163" lon="4.74819">
        <ele>194</ele>
        <time>2018-03-13T11:11:14Z</time>
      </trkpt>
      <trkpt lat="45.9516" lon="4.74814">
        <ele>194</ele>
        <time>2018-03-13T11:11:15Z</time>
      </trkpt>
      <trkpt lat="45.95156" lon="4.74808">
        <ele>194</ele>
        <time>2018-03-13T11:11:16Z</time>
      </trkpt>
      <trkpt lat="45.95153" lon="4.74803">
        <ele>194</ele>
        <time>2018-03-13T11:11:17Z</time>
      </trkpt>
      <trkpt lat="45.95149" lon="4.74798">
        <ele>194</ele>
        <time>2018-03-13T11:11:18Z</time>
      </trkpt>
      <trkpt lat="45.95145" lon="4.74793">
        <ele>194</ele>
        <time>2018-03-13T11:11:19Z</time>
      </trkpt>
      <trkpt lat="45.95142" lon="4.74787">
        <ele>194</ele>
        <time>2018-03-13T11:11:20Z</time>
      </trkpt>
      <trkpt lat="45.95139" lon="4.74782">
        <ele>194</ele>
        <time>2018-03-13T11:11:21Z</time>
      </trkpt>
      <trkpt lat="45.95135" lon="4.74777">
        <ele>194</ele>
        <time>2018-03-13T11:11:22Z</time>
      </trkpt>
      <trkpt lat="45.95132" lon="4.74771">
        <ele>194</ele>
        <time>2018-03-13T11:11:23Z</time>
      </trkpt>
      <trkpt lat="45.95129" lon="4.74767">
        <ele>194</ele>
        <time>2018-03-13T11:11:24Z</time>
      </trkpt>
      <trkpt lat="45.95124" lon="4.74757">
        <ele>194</ele>
        <time>2018-03-13T11:11:26Z</time>
      </trkpt>
      <trkpt lat="45.95121" lon="4.74751">
        <ele>194</ele>
        <time>2018-03-13T11:11:27Z</time>
      </trkpt>
      <trkpt lat="45.95117" lon="4.74746">
        <ele>194</ele>
        <time>2018-03-13T11:11:28Z</time>
      </trkpt>
      <trkpt lat="45.95114" lon="4.7474">
        <ele>194</ele>
        <time>2018-03-13T11:11:29Z</time>
      </trkpt>
      <trkpt lat="45.9511" lon="4.74734">
        <ele>194</ele>
        <time>2018-03-13T11:11:30Z</time>
      </trkpt>
      <trkpt lat="45.95108" lon="4.74728">
        <ele>194</ele>
        <time>2018-03-13T11:11:31Z</time>
      </trkpt>
      <trkpt lat="45.95104" lon="4.74722">
        <ele>194</ele>
        <time>2018-03-13T11:11:32Z</time>
      </trkpt>
      <trkpt lat="45.95101" lon="4.74716">
        <ele>194</ele>
        <time>2018-03-13T11:11:33Z</time>
      </trkpt>
      <trkpt lat="45.95096" lon="4.74706">
        <ele>194</ele>
        <time>2018-03-13T11:11:35Z</time>
      </trkpt>
      <trkpt lat="45.95092" lon="4.74701">
        <ele>194</ele>
        <time>2018-03-13T11:11:36Z</time>
      </trkpt>
      <trkpt lat="45.95089" lon="4.74695">
        <ele>194</ele>
        <time>2018-03-13T11:11:37Z</time>
      </trkpt>
      <trkpt lat="45.95085" lon="4.7469">
        <ele>195</ele>
        <time>2018-03-13T11:11:38Z</time>
      </trkpt>
      <trkpt lat="45.95083" lon="4.74685">
        <ele>194</ele>
        <time>2018-03-13T11:11:39Z</time>
      </trkpt>
      <trkpt lat="45.95079" lon="4.74679">
        <ele>194</ele>
        <time>2018-03-13T11:11:40Z</time>
      </trkpt>
      <trkpt lat="45.95077" lon="4.74673">
        <ele>195</ele>
        <time>2018-03-13T11:11:41Z</time>
      </trkpt>
      <trkpt lat="45.95073" lon="4.74667">
        <ele>195</ele>
        <time>2018-03-13T11:11:42Z</time>
      </trkpt>
      <trkpt lat="45.95069" lon="4.74661">
        <ele>195</ele>
        <time>2018-03-13T11:11:43Z</time>
      </trkpt>
      <trkpt lat="45.95066" lon="4.74656">
        <ele>195</ele>
        <time>2018-03-13T11:11:44Z</time>
      </trkpt>
      <trkpt lat="45.95063" lon="4.7465">
        <ele>195</ele>
        <time>2018-03-13T11:11:45Z</time>
      </trkpt>
      <trkpt lat="45.95059" lon="4.74644">
        <ele>194</ele>
        <time>2018-03-13T11:11:46Z</time>
      </trkpt>
      <trkpt lat="45.95056" lon="4.74639">
        <ele>194</ele>
        <time>2018-03-13T11:11:47Z</time>
      </trkpt>
      <trkpt lat="45.95052" lon="4.74632">
        <ele>194</ele>
        <time>2018-03-13T11:11:48Z</time>
      </trkpt>
      <trkpt lat="45.95048" lon="4.74626">
        <ele>194</ele>
        <time>2018-03-13T11:11:49Z</time>
      </trkpt>
      <trkpt lat="45.95045" lon="4.7462">
        <ele>194</ele>
        <time>2018-03-13T11:11:50Z</time>
      </trkpt>
      <trkpt lat="45.95041" lon="4.74614">
        <ele>194</ele>
        <time>2018-03-13T11:11:51Z</time>
      </trkpt>
      <trkpt lat="45.95037" lon="4.74608">
        <ele>194</ele>
        <time>2018-03-13T11:11:52Z</time>
      </trkpt>
      <trkpt lat="45.95034" lon="4.74601">
        <ele>194</ele>
        <time>2018-03-13T11:11:53Z</time>
      </trkpt>
      <trkpt lat="45.9503" lon="4.74593">
        <ele>194</ele>
        <time>2018-03-13T11:11:54Z</time>
      </trkpt>
      <trkpt lat="45.95027" lon="4.74587">
        <ele>194</ele>
        <time>2018-03-13T11:11:55Z</time>
      </trkpt>
      <trkpt lat="45.95024" lon="4.7458">
        <ele>194</ele>
        <time>2018-03-13T11:11:56Z</time>
      </trkpt>
      <trkpt lat="45.9502" lon="4.74574">
        <ele>194</ele>
        <time>2018-03-13T11:11:57Z</time>
      </trkpt>
      <trkpt lat="45.95017" lon="4.74567">
        <ele>194</ele>
        <time>2018-03-13T11:11:58Z</time>
      </trkpt>
      <trkpt lat="45.95013" lon="4.74559">
        <ele>194</ele>
        <time>2018-03-13T11:11:59Z</time>
      </trkpt>
      <trkpt lat="45.95009" lon="4.74553">
        <ele>194</ele>
        <time>2018-03-13T11:12:00Z</time>
      </trkpt>
      <trkpt lat="45.95004" lon="4.74546">
        <ele>194</ele>
        <time>2018-03-13T11:12:01Z</time>
      </trkpt>
      <trkpt lat="45.95" lon="4.74539">
        <ele>194</ele>
        <time>2018-03-13T11:12:02Z</time>
      </trkpt>
      <trkpt lat="45.94997" lon="4.74531">
        <ele>193</ele>
        <time>2018-03-13T11:12:03Z</time>
      </trkpt>
      <trkpt lat="45.94993" lon="4.74524">
        <ele>193</ele>
        <time>2018-03-13T11:12:04Z</time>
      </trkpt>
      <trkpt lat="45.9499" lon="4.74517">
        <ele>193</ele>
        <time>2018-03-13T11:12:05Z</time>
      </trkpt>
      <trkpt lat="45.94986" lon="4.74509">
        <ele>193</ele>
        <time>2018-03-13T11:12:06Z</time>
      </trkpt>
      <trkpt lat="45.94983" lon="4.74502">
        <ele>193</ele>
        <time>2018-03-13T11:12:07Z</time>
      </trkpt>
      <trkpt lat="45.94979" lon="4.74494">
        <ele>193</ele>
        <time>2018-03-13T11:12:08Z</time>
      </trkpt>
      <trkpt lat="45.94975" lon="4.74488">
        <ele>193</ele>
        <time>2018-03-13T11:12:09Z</time>
      </trkpt>
      <trkpt lat="45.94971" lon="4.74481">
        <ele>193</ele>
        <time>2018-03-13T11:12:10Z</time>
      </trkpt>
      <trkpt lat="45.94968" lon="4.74474">
        <ele>193</ele>
        <time>2018-03-13T11:12:11Z</time>
      </trkpt>
      <trkpt lat="45.94964" lon="4.74467">
        <ele>193</ele>
        <time>2018-03-13T11:12:12Z</time>
      </trkpt>
      <trkpt lat="45.94961" lon="4.7446">
        <ele>193</ele>
        <time>2018-03-13T11:12:13Z</time>
      </trkpt>
      <trkpt lat="45.94958" lon="4.74453">
        <ele>192</ele>
        <time>2018-03-13T11:12:14Z</time>
      </trkpt>
      <trkpt lat="45.94954" lon="4.74446">
        <ele>192</ele>
        <time>2018-03-13T11:12:15Z</time>
      </trkpt>
      <trkpt lat="45.94951" lon="4.74438">
        <ele>192</ele>
        <time>2018-03-13T11:12:16Z</time>
      </trkpt>
      <trkpt lat="45.94947" lon="4.7443">
        <ele>192</ele>
        <time>2018-03-13T11:12:17Z</time>
      </trkpt>
      <trkpt lat="45.94944" lon="4.74422">
        <ele>192</ele>
        <time>2018-03-13T11:12:18Z</time>
      </trkpt>
      <trkpt lat="45.9494" lon="4.74415">
        <ele>192</ele>
        <time>2018-03-13T11:12:19Z</time>
      </trkpt>
      <trkpt lat="45.94936" lon="4.74407">
        <ele>192</ele>
        <time>2018-03-13T11:12:20Z</time>
      </trkpt>
      <trkpt lat="45.94932" lon="4.744">
        <ele>192</ele>
        <time>2018-03-13T11:12:21Z</time>
      </trkpt>
      <trkpt lat="45.94928" lon="4.74394">
        <ele>192</ele>
        <time>2018-03-13T11:12:22Z</time>
      </trkpt>
      <trkpt lat="45.94924" lon="4.74385">
        <ele>192</ele>
        <time>2018-03-13T11:12:23Z</time>
      </trkpt>
      <trkpt lat="45.9492" lon="4.74378">
        <ele>192</ele>
        <time>2018-03-13T11:12:24Z</time>
      </trkpt>
      <trkpt lat="45.94916" lon="4.7437">
        <ele>191</ele>
        <time>2018-03-13T11:12:25Z</time>
      </trkpt>
      <trkpt lat="45.94913" lon="4.74363">
        <ele>191</ele>
        <time>2018-03-13T11:12:26Z</time>
      </trkpt>
      <trkpt lat="45.94909" lon="4.74356">
        <ele>191</ele>
        <time>2018-03-13T11:12:27Z</time>
      </trkpt>
      <trkpt lat="45.94905" lon="4.74349">
        <ele>191</ele>
        <time>2018-03-13T11:12:28Z</time>
      </trkpt>
      <trkpt lat="45.94902" lon="4.74341">
        <ele>191</ele>
        <time>2018-03-13T11:12:29Z</time>
      </trkpt>
      <trkpt lat="45.94898" lon="4.74334">
        <ele>191</ele>
        <time>2018-03-13T11:12:30Z</time>
      </trkpt>
      <trkpt lat="45.94893" lon="4.74327">
        <ele>191</ele>
        <time>2018-03-13T11:12:31Z</time>
      </trkpt>
      <trkpt lat="45.94889" lon="4.7432">
        <ele>191</ele>
        <time>2018-03-13T11:12:32Z</time>
      </trkpt>
      <trkpt lat="45.94886" lon="4.74312">
        <ele>191</ele>
        <time>2018-03-13T11:12:33Z</time>
      </trkpt>
      <trkpt lat="45.94883" lon="4.74305">
        <ele>191</ele>
        <time>2018-03-13T11:12:34Z</time>
      </trkpt>
      <trkpt lat="45.94879" lon="4.74298">
        <ele>191</ele>
        <time>2018-03-13T11:12:35Z</time>
      </trkpt>
      <trkpt lat="45.94875" lon="4.74291">
        <ele>191</ele>
        <time>2018-03-13T11:12:36Z</time>
      </trkpt>
      <trkpt lat="45.94871" lon="4.74284">
        <ele>191</ele>
        <time>2018-03-13T11:12:37Z</time>
      </trkpt>
      <trkpt lat="45.94867" lon="4.74278">
        <ele>191</ele>
        <time>2018-03-13T11:12:38Z</time>
      </trkpt>
      <trkpt lat="45.94864" lon="4.74271">
        <ele>190</ele>
        <time>2018-03-13T11:12:39Z</time>
      </trkpt>
      <trkpt lat="45.94861" lon="4.74264">
        <ele>190</ele>
        <time>2018-03-13T11:12:40Z</time>
      </trkpt>
      <trkpt lat="45.94857" lon="4.74258">
        <ele>190</ele>
        <time>2018-03-13T11:12:41Z</time>
      </trkpt>
      <trkpt lat="45.94853" lon="4.74251">
        <ele>190</ele>
        <time>2018-03-13T11:12:42Z</time>
      </trkpt>
      <trkpt lat="45.9485" lon="4.74244">
        <ele>190</ele>
        <time>2018-03-13T11:12:43Z</time>
      </trkpt>
      <trkpt lat="45.94847" lon="4.74237">
        <ele>190</ele>
        <time>2018-03-13T11:12:44Z</time>
      </trkpt>
      <trkpt lat="45.94844" lon="4.74231">
        <ele>190</ele>
        <time>2018-03-13T11:12:45Z</time>
      </trkpt>
      <trkpt lat="45.94842" lon="4.74224">
        <ele>190</ele>
        <time>2018-03-13T11:12:46Z</time>
      </trkpt>
      <trkpt lat="45.94838" lon="4.74218">
        <ele>190</ele>
        <time>2018-03-13T11:12:47Z</time>
      </trkpt>
      <trkpt lat="45.94835" lon="4.74213">
        <ele>190</ele>
        <time>2018-03-13T11:12:48Z</time>
      </trkpt>
      <trkpt lat="45.94832" lon="4.74207">
        <ele>189</ele>
        <time>2018-03-13T11:12:49Z</time>
      </trkpt>
      <trkpt lat="45.94829" lon="4.74202">
        <ele>189</ele>
        <time>2018-03-13T11:12:50Z</time>
      </trkpt>
      <trkpt lat="45.94825" lon="4.74195">
        <ele>189</ele>
        <time>2018-03-13T11:12:51Z</time>
      </trkpt>
      <trkpt lat="45.94822" lon="4.74189">
        <ele>189</ele>
        <time>2018-03-13T11:12:52Z</time>
      </trkpt>
      <trkpt lat="45.94819" lon="4.74184">
        <ele>189</ele>
        <time>2018-03-13T11:12:53Z</time>
      </trkpt>
      <trkpt lat="45.94816" lon="4.74179">
        <ele>189</ele>
        <time>2018-03-13T11:12:54Z</time>
      </trkpt>
      <trkpt lat="45.94813" lon="4.74174">
        <ele>189</ele>
        <time>2018-03-13T11:12:55Z</time>
      </trkpt>
      <trkpt lat="45.94809" lon="4.74169">
        <ele>189</ele>
        <time>2018-03-13T11:12:56Z</time>
      </trkpt>
      <trkpt lat="45.94805" lon="4.74165">
        <ele>189</ele>
        <time>2018-03-13T11:12:57Z</time>
      </trkpt>
      <trkpt lat="45.94802" lon="4.74159">
        <ele>189</ele>
        <time>2018-03-13T11:12:58Z</time>
      </trkpt>
      <trkpt lat="45.94798" lon="4.74153">
        <ele>189</ele>
        <time>2018-03-13T11:12:59Z</time>
      </trkpt>
      <trkpt lat="45.94795" lon="4.74147">
        <ele>189</ele>
        <time>2018-03-13T11:13:00Z</time>
      </trkpt>
      <trkpt lat="45.94791" lon="4.74141">
        <ele>189</ele>
        <time>2018-03-13T11:13:01Z</time>
      </trkpt>
      <trkpt lat="45.94787" lon="4.74135">
        <ele>189</ele>
        <time>2018-03-13T11:13:02Z</time>
      </trkpt>
      <trkpt lat="45.94784" lon="4.74128">
        <ele>189</ele>
        <time>2018-03-13T11:13:03Z</time>
      </trkpt>
      <trkpt lat="45.94779" lon="4.74122">
        <ele>189</ele>
        <time>2018-03-13T11:13:04Z</time>
      </trkpt>
      <trkpt lat="45.94776" lon="4.74115">
        <ele>189</ele>
        <time>2018-03-13T11:13:05Z</time>
      </trkpt>
      <trkpt lat="45.94771" lon="4.74108">
        <ele>189</ele>
        <time>2018-03-13T11:13:06Z</time>
      </trkpt>
      <trkpt lat="45.94766" lon="4.74102">
        <ele>189</ele>
        <time>2018-03-13T11:13:07Z</time>
      </trkpt>
      <trkpt lat="45.94761" lon="4.74095">
        <ele>189</ele>
        <time>2018-03-13T11:13:08Z</time>
      </trkpt>
      <trkpt lat="45.94757" lon="4.74088">
        <ele>189</ele>
        <time>2018-03-13T11:13:09Z</time>
      </trkpt>
      <trkpt lat="45.94751" lon="4.74082">
        <ele>189</ele>
        <time>2018-03-13T11:13:10Z</time>
      </trkpt>
      <trkpt lat="45.94747" lon="4.74076">
        <ele>188</ele>
        <time>2018-03-13T11:13:11Z</time>
      </trkpt>
      <trkpt lat="45.94742" lon="4.7407">
        <ele>188</ele>
        <time>2018-03-13T11:13:12Z</time>
      </trkpt>
      <trkpt lat="45.94738" lon="4.74064">
        <ele>188</ele>
        <time>2018-03-13T11:13:13Z</time>
      </trkpt>
      <trkpt lat="45.94733" lon="4.74059">
        <ele>188</ele>
        <time>2018-03-13T11:13:14Z</time>
      </trkpt>
      <trkpt lat="45.94728" lon="4.74053">
        <ele>188</ele>
        <time>2018-03-13T11:13:15Z</time>
      </trkpt>
      <trkpt lat="45.94724" lon="4.74048">
        <ele>187</ele>
        <time>2018-03-13T11:13:16Z</time>
      </trkpt>
      <trkpt lat="45.9472" lon="4.74042">
        <ele>187</ele>
        <time>2018-03-13T11:13:17Z</time>
      </trkpt>
      <trkpt lat="45.94716" lon="4.74037">
        <ele>187</ele>
        <time>2018-03-13T11:13:18Z</time>
      </trkpt>
      <trkpt lat="45.94713" lon="4.74032">
        <ele>187</ele>
        <time>2018-03-13T11:13:19Z</time>
      </trkpt>
      <trkpt lat="45.94708" lon="4.74029">
        <ele>187</ele>
        <time>2018-03-13T11:13:20Z</time>
      </trkpt>
      <trkpt lat="45.94705" lon="4.74024">
        <ele>187</ele>
        <time>2018-03-13T11:13:21Z</time>
      </trkpt>
      <trkpt lat="45.94702" lon="4.74019">
        <ele>187</ele>
        <time>2018-03-13T11:13:22Z</time>
      </trkpt>
      <trkpt lat="45.94699" lon="4.74013">
        <ele>187</ele>
        <time>2018-03-13T11:13:23Z</time>
      </trkpt>
      <trkpt lat="45.94696" lon="4.74008">
        <ele>187</ele>
        <time>2018-03-13T11:13:24Z</time>
      </trkpt>
      <trkpt lat="45.94692" lon="4.74003">
        <ele>187</ele>
        <time>2018-03-13T11:13:25Z</time>
      </trkpt>
      <trkpt lat="45.94689" lon="4.73999">
        <ele>187</ele>
        <time>2018-03-13T11:13:26Z</time>
      </trkpt>
      <trkpt lat="45.94686" lon="4.73993">
        <ele>187</ele>
        <time>2018-03-13T11:13:27Z</time>
      </trkpt>
      <trkpt lat="45.94683" lon="4.73989">
        <ele>187</ele>
        <time>2018-03-13T11:13:28Z</time>
      </trkpt>
      <trkpt lat="45.94679" lon="4.73983">
        <ele>187</ele>
        <time>2018-03-13T11:13:29Z</time>
      </trkpt>
      <trkpt lat="45.94675" lon="4.73978">
        <ele>187</ele>
        <time>2018-03-13T11:13:30Z</time>
      </trkpt>
      <trkpt lat="45.94671" lon="4.73972">
        <ele>187</ele>
        <time>2018-03-13T11:13:31Z</time>
      </trkpt>
      <trkpt lat="45.94668" lon="4.73967">
        <ele>187</ele>
        <time>2018-03-13T11:13:32Z</time>
      </trkpt>
      <trkpt lat="45.94664" lon="4.73962">
        <ele>187</ele>
        <time>2018-03-13T11:13:33Z</time>
      </trkpt>
      <trkpt lat="45.9466" lon="4.73956">
        <ele>187</ele>
        <time>2018-03-13T11:13:34Z</time>
      </trkpt>
      <trkpt lat="45.94655" lon="4.73951">
        <ele>187</ele>
        <time>2018-03-13T11:13:35Z</time>
      </trkpt>
      <trkpt lat="45.94651" lon="4.73945">
        <ele>187</ele>
        <time>2018-03-13T11:13:36Z</time>
      </trkpt>
      <trkpt lat="45.94646" lon="4.7394">
        <ele>187</ele>
        <time>2018-03-13T11:13:37Z</time>
      </trkpt>
      <trkpt lat="45.94642" lon="4.73935">
        <ele>187</ele>
        <time>2018-03-13T11:13:38Z</time>
      </trkpt>
      <trkpt lat="45.94638" lon="4.73929">
        <ele>187</ele>
        <time>2018-03-13T11:13:39Z</time>
      </trkpt>
      <trkpt lat="45.94633" lon="4.73924">
        <ele>187</ele>
        <time>2018-03-13T11:13:40Z</time>
      </trkpt>
      <trkpt lat="45.94628" lon="4.73918">
        <ele>187</ele>
        <time>2018-03-13T11:13:41Z</time>
      </trkpt>
      <trkpt lat="45.94624" lon="4.73912">
        <ele>187</ele>
        <time>2018-03-13T11:13:42Z</time>
      </trkpt>
      <trkpt lat="45.94621" lon="4.73907">
        <ele>187</ele>
        <time>2018-03-13T11:13:43Z</time>
      </trkpt>
      <trkpt lat="45.94616" lon="4.73901">
        <ele>187</ele>
        <time>2018-03-13T11:13:44Z</time>
      </trkpt>
      <trkpt lat="45.94612" lon="4.73896">
        <ele>187</ele>
        <time>2018-03-13T11:13:45Z</time>
      </trkpt>
      <trkpt lat="45.94608" lon="4.73891">
        <ele>187</ele>
        <time>2018-03-13T11:13:46Z</time>
      </trkpt>
      <trkpt lat="45.94603" lon="4.73887">
        <ele>187</ele>
        <time>2018-03-13T11:13:47Z</time>
      </trkpt>
      <trkpt lat="45.94599" lon="4.73882">
        <ele>187</ele>
        <time>2018-03-13T11:13:48Z</time>
      </trkpt>
      <trkpt lat="45.94595" lon="4.73876">
        <ele>187</ele>
        <time>2018-03-13T11:13:49Z</time>
      </trkpt>
      <trkpt lat="45.94591" lon="4.7387">
        <ele>187</ele>
        <time>2018-03-13T11:13:50Z</time>
      </trkpt>
      <trkpt lat="45.94588" lon="4.73865">
        <ele>187</ele>
        <time>2018-03-13T11:13:51Z</time>
      </trkpt>
      <trkpt lat="45.94583" lon="4.73859">
        <ele>186</ele>
        <time>2018-03-13T11:13:52Z</time>
      </trkpt>
      <trkpt lat="45.94577" lon="4.73854">
        <ele>186</ele>
        <time>2018-03-13T11:13:53Z</time>
      </trkpt>
      <trkpt lat="45.94572" lon="4.73849">
        <ele>186</ele>
        <time>2018-03-13T11:13:54Z</time>
      </trkpt>
      <trkpt lat="45.94568" lon="4.73844">
        <ele>186</ele>
        <time>2018-03-13T11:13:55Z</time>
      </trkpt>
      <trkpt lat="45.94563" lon="4.73839">
        <ele>186</ele>
        <time>2018-03-13T11:13:56Z</time>
      </trkpt>
      <trkpt lat="45.94559" lon="4.73835">
        <ele>186</ele>
        <time>2018-03-13T11:13:57Z</time>
      </trkpt>
      <trkpt lat="45.94555" lon="4.7383">
        <ele>186</ele>
        <time>2018-03-13T11:13:58Z</time>
      </trkpt>
      <trkpt lat="45.9455" lon="4.73826">
        <ele>186</ele>
        <time>2018-03-13T11:13:59Z</time>
      </trkpt>
      <trkpt lat="45.94545" lon="4.73821">
        <ele>186</ele>
        <time>2018-03-13T11:14:00Z</time>
      </trkpt>
      <trkpt lat="45.9454" lon="4.73817">
        <ele>186</ele>
        <time>2018-03-13T11:14:01Z</time>
      </trkpt>
      <trkpt lat="45.94536" lon="4.73813">
        <ele>186</ele>
        <time>2018-03-13T11:14:02Z</time>
      </trkpt>
      <trkpt lat="45.9453" lon="4.73809">
        <ele>186</ele>
        <time>2018-03-13T11:14:03Z</time>
      </trkpt>
      <trkpt lat="45.94526" lon="4.73804">
        <ele>186</ele>
        <time>2018-03-13T11:14:04Z</time>
      </trkpt>
      <trkpt lat="45.94521" lon="4.73799">
        <ele>186</ele>
        <time>2018-03-13T11:14:05Z</time>
      </trkpt>
      <trkpt lat="45.94516" lon="4.73795">
        <ele>186</ele>
        <time>2018-03-13T11:14:06Z</time>
      </trkpt>
      <trkpt lat="45.94511" lon="4.7379">
        <ele>186</ele>
        <time>2018-03-13T11:14:07Z</time>
      </trkpt>
      <trkpt lat="45.94507" lon="4.73785">
        <ele>186</ele>
        <time>2018-03-13T11:14:08Z</time>
      </trkpt>
      <trkpt lat="45.94503" lon="4.7378">
        <ele>186</ele>
        <time>2018-03-13T11:14:09Z</time>
      </trkpt>
      <trkpt lat="45.94499" lon="4.73775">
        <ele>186</ele>
        <time>2018-03-13T11:14:10Z</time>
      </trkpt>
      <trkpt lat="45.94495" lon="4.73768">
        <ele>186</ele>
        <time>2018-03-13T11:14:11Z</time>
      </trkpt>
      <trkpt lat="45.94492" lon="4.73762">
        <ele>186</ele>
        <time>2018-03-13T11:14:12Z</time>
      </trkpt>
      <trkpt lat="45.94489" lon="4.73755">
        <ele>186</ele>
        <time>2018-03-13T11:14:13Z</time>
      </trkpt>
      <trkpt lat="45.94486" lon="4.73748">
        <ele>186</ele>
        <time>2018-03-13T11:14:14Z</time>
      </trkpt>
      <trkpt lat="45.94487" lon="4.7374">
        <ele>186</ele>
        <time>2018-03-13T11:14:15Z</time>
      </trkpt>
      <trkpt lat="45.94487" lon="4.73732">
        <ele>186</ele>
        <time>2018-03-13T11:14:16Z</time>
      </trkpt>
      <trkpt lat="45.94487" lon="4.73725">
        <ele>186</ele>
        <time>2018-03-13T11:14:17Z</time>
      </trkpt>
      <trkpt lat="45.94489" lon="4.73717">
        <ele>186</ele>
        <time>2018-03-13T11:14:18Z</time>
      </trkpt>
      <trkpt lat="45.94489" lon="4.73709">
        <ele>186</ele>
        <time>2018-03-13T11:14:19Z</time>
      </trkpt>
      <trkpt lat="45.9449" lon="4.737">
        <ele>186</ele>
        <time>2018-03-13T11:14:20Z</time>
      </trkpt>
      <trkpt lat="45.94491" lon="4.73692">
        <ele>186</ele>
        <time>2018-03-13T11:14:21Z</time>
      </trkpt>
      <trkpt lat="45.94492" lon="4.73683">
        <ele>186</ele>
        <time>2018-03-13T11:14:22Z</time>
      </trkpt>
      <trkpt lat="45.94493" lon="4.73676">
        <ele>185</ele>
        <time>2018-03-13T11:14:23Z</time>
      </trkpt>
      <trkpt lat="45.94493" lon="4.73668">
        <ele>185</ele>
        <time>2018-03-13T11:14:24Z</time>
      </trkpt>
      <trkpt lat="45.94494" lon="4.7366">
        <ele>185</ele>
        <time>2018-03-13T11:14:25Z</time>
      </trkpt>
      <trkpt lat="45.94495" lon="4.73653">
        <ele>185</ele>
        <time>2018-03-13T11:14:26Z</time>
      </trkpt>
      <trkpt lat="45.94497" lon="4.73647">
        <ele>186</ele>
        <time>2018-03-13T11:14:27Z</time>
      </trkpt>
      <trkpt lat="45.94499" lon="4.73641">
        <ele>186</ele>
        <time>2018-03-13T11:14:28Z</time>
      </trkpt>
      <trkpt lat="45.945" lon="4.73634">
        <ele>186</ele>
        <time>2018-03-13T11:14:29Z</time>
      </trkpt>
      <trkpt lat="45.94501" lon="4.73626">
        <ele>184</ele>
        <time>2018-03-13T11:14:30Z</time>
      </trkpt>
      <trkpt lat="45.94502" lon="4.73618">
        <ele>184</ele>
        <time>2018-03-13T11:14:31Z</time>
      </trkpt>
      <trkpt lat="45.94503" lon="4.7361">
        <ele>184</ele>
        <time>2018-03-13T11:14:32Z</time>
      </trkpt>
      <trkpt lat="45.94503" lon="4.73602">
        <ele>184</ele>
        <time>2018-03-13T11:14:33Z</time>
      </trkpt>
      <trkpt lat="45.94503" lon="4.73594">
        <ele>184</ele>
        <time>2018-03-13T11:14:34Z</time>
      </trkpt>
      <trkpt lat="45.94503" lon="4.73586">
        <ele>185</ele>
        <time>2018-03-13T11:14:35Z</time>
      </trkpt>
      <trkpt lat="45.94503" lon="4.73578">
        <ele>184</ele>
        <time>2018-03-13T11:14:36Z</time>
      </trkpt>
      <trkpt lat="45.94505" lon="4.7357">
        <ele>184</ele>
        <time>2018-03-13T11:14:37Z</time>
      </trkpt>
      <trkpt lat="45.94505" lon="4.73561">
        <ele>184</ele>
        <time>2018-03-13T11:14:38Z</time>
      </trkpt>
      <trkpt lat="45.94506" lon="4.73552">
        <ele>183</ele>
        <time>2018-03-13T11:14:39Z</time>
      </trkpt>
      <trkpt lat="45.94506" lon="4.73543">
        <ele>183</ele>
        <time>2018-03-13T11:14:40Z</time>
      </trkpt>
      <trkpt lat="45.94507" lon="4.73534">
        <ele>183</ele>
        <time>2018-03-13T11:14:41Z</time>
      </trkpt>
      <trkpt lat="45.94507" lon="4.73524">
        <ele>183</ele>
        <time>2018-03-13T11:14:42Z</time>
      </trkpt>
      <trkpt lat="45.94507" lon="4.73515">
        <ele>183</ele>
        <time>2018-03-13T11:14:43Z</time>
      </trkpt>
      <trkpt lat="45.94507" lon="4.73506">
        <ele>183</ele>
        <time>2018-03-13T11:14:44Z</time>
      </trkpt>
      <trkpt lat="45.94507" lon="4.73498">
        <ele>183</ele>
        <time>2018-03-13T11:14:45Z</time>
      </trkpt>
      <trkpt lat="45.94507" lon="4.73489">
        <ele>182</ele>
        <time>2018-03-13T11:14:46Z</time>
      </trkpt>
      <trkpt lat="45.94507" lon="4.73479">
        <ele>182</ele>
        <time>2018-03-13T11:14:47Z</time>
      </trkpt>
      <trkpt lat="45.94508" lon="4.7347">
        <ele>182</ele>
        <time>2018-03-13T11:14:48Z</time>
      </trkpt>
      <trkpt lat="45.94508" lon="4.73461">
        <ele>181</ele>
        <time>2018-03-13T11:14:49Z</time>
      </trkpt>
      <trkpt lat="45.94508" lon="4.73451">
        <ele>181</ele>
        <time>2018-03-13T11:14:50Z</time>
      </trkpt>
      <trkpt lat="45.94508" lon="4.73441">
        <ele>181</ele>
        <time>2018-03-13T11:14:51Z</time>
      </trkpt>
      <trkpt lat="45.94508" lon="4.73432">
        <ele>181</ele>
        <time>2018-03-13T11:14:52Z</time>
      </trkpt>
      <trkpt lat="45.94507" lon="4.73422">
        <ele>180</ele>
        <time>2018-03-13T11:14:53Z</time>
      </trkpt>
      <trkpt lat="45.94506" lon="4.73413">
        <ele>180</ele>
        <time>2018-03-13T11:14:54Z</time>
      </trkpt>
      <trkpt lat="45.94505" lon="4.73403">
        <ele>179</ele>
        <time>2018-03-13T11:14:55Z</time>
      </trkpt>
      <trkpt lat="45.94502" lon="4.73394">
        <ele>179</ele>
        <time>2018-03-13T11:14:56Z</time>
      </trkpt>
      <trkpt lat="45.94501" lon="4.73384">
        <ele>179</ele>
        <time>2018-03-13T11:14:57Z</time>
      </trkpt>
      <trkpt lat="45.945" lon="4.73374">
        <ele>179</ele>
        <time>2018-03-13T11:14:58Z</time>
      </trkpt>
      <trkpt lat="45.94499" lon="4.73364">
        <ele>179</ele>
        <time>2018-03-13T11:14:59Z</time>
      </trkpt>
      <trkpt lat="45.94497" lon="4.73355">
        <ele>178</ele>
        <time>2018-03-13T11:15:00Z</time>
      </trkpt>
      <trkpt lat="45.94496" lon="4.73345">
        <ele>178</ele>
        <time>2018-03-13T11:15:01Z</time>
      </trkpt>
      <trkpt lat="45.94495" lon="4.73334">
        <ele>177</ele>
        <time>2018-03-13T11:15:02Z</time>
      </trkpt>
      <trkpt lat="45.94494" lon="4.73325">
        <ele>177</ele>
        <time>2018-03-13T11:15:03Z</time>
      </trkpt>
      <trkpt lat="45.94493" lon="4.73316">
        <ele>177</ele>
        <time>2018-03-13T11:15:04Z</time>
      </trkpt>
      <trkpt lat="45.94491" lon="4.73306">
        <ele>177</ele>
        <time>2018-03-13T11:15:05Z</time>
      </trkpt>
      <trkpt lat="45.9449" lon="4.73297">
        <ele>177</ele>
        <time>2018-03-13T11:15:06Z</time>
      </trkpt>
      <trkpt lat="45.94488" lon="4.73289">
        <ele>177</ele>
        <time>2018-03-13T11:15:07Z</time>
      </trkpt>
      <trkpt lat="45.94486" lon="4.7328">
        <ele>177</ele>
        <time>2018-03-13T11:15:08Z</time>
      </trkpt>
      <trkpt lat="45.94486" lon="4.7327">
        <ele>177</ele>
        <time>2018-03-13T11:15:09Z</time>
      </trkpt>
      <trkpt lat="45.94485" lon="4.73262">
        <ele>176</ele>
        <time>2018-03-13T11:15:10Z</time>
      </trkpt>
      <trkpt lat="45.94483" lon="4.73254">
        <ele>176</ele>
        <time>2018-03-13T11:15:11Z</time>
      </trkpt>
      <trkpt lat="45.94482" lon="4.73245">
        <ele>175</ele>
        <time>2018-03-13T11:15:12Z</time>
      </trkpt>
      <trkpt lat="45.94482" lon="4.73237">
        <ele>175</ele>
        <time>2018-03-13T11:15:13Z</time>
      </trkpt>
      <trkpt lat="45.9448" lon="4.73229">
        <ele>175</ele>
        <time>2018-03-13T11:15:14Z</time>
      </trkpt>
      <trkpt lat="45.9448" lon="4.73221">
        <ele>175</ele>
        <time>2018-03-13T11:15:15Z</time>
      </trkpt>
      <trkpt lat="45.94479" lon="4.73211">
        <ele>175</ele>
        <time>2018-03-13T11:15:16Z</time>
      </trkpt>
      <trkpt lat="45.94477" lon="4.73201">
        <ele>174</ele>
        <time>2018-03-13T11:15:17Z</time>
      </trkpt>
      <trkpt lat="45.94476" lon="4.73193">
        <ele>174</ele>
        <time>2018-03-13T11:15:18Z</time>
      </trkpt>
      <trkpt lat="45.94475" lon="4.73183">
        <ele>174</ele>
        <time>2018-03-13T11:15:19Z</time>
      </trkpt>
      <trkpt lat="45.94474" lon="4.73174">
        <ele>174</ele>
        <time>2018-03-13T11:15:20Z</time>
      </trkpt>
      <trkpt lat="45.94473" lon="4.73166">
        <ele>173</ele>
        <time>2018-03-13T11:15:21Z</time>
      </trkpt>
      <trkpt lat="45.94472" lon="4.73159">
        <ele>172</ele>
        <time>2018-03-13T11:15:22Z</time>
      </trkpt>
      <trkpt lat="45.94471" lon="4.7315">
        <ele>172</ele>
        <time>2018-03-13T11:15:23Z</time>
      </trkpt>
      <trkpt lat="45.9447" lon="4.73141">
        <ele>172</ele>
        <time>2018-03-13T11:15:24Z</time>
      </trkpt>
      <trkpt lat="45.9447" lon="4.73133">
        <ele>172</ele>
        <time>2018-03-13T11:15:25Z</time>
      </trkpt>
      <trkpt lat="45.94468" lon="4.73124">
        <ele>172</ele>
        <time>2018-03-13T11:15:26Z</time>
      </trkpt>
      <trkpt lat="45.94468" lon="4.73115">
        <ele>172</ele>
        <time>2018-03-13T11:15:27Z</time>
      </trkpt>
      <trkpt lat="45.94466" lon="4.73106">
        <ele>172</ele>
        <time>2018-03-13T11:15:28Z</time>
      </trkpt>
      <trkpt lat="45.94465" lon="4.73096">
        <ele>172</ele>
        <time>2018-03-13T11:15:29Z</time>
      </trkpt>
      <trkpt lat="45.94464" lon="4.73085">
        <ele>171</ele>
        <time>2018-03-13T11:15:30Z</time>
      </trkpt>
      <trkpt lat="45.94462" lon="4.73075">
        <ele>170</ele>
        <time>2018-03-13T11:15:31Z</time>
      </trkpt>
      <trkpt lat="45.94461" lon="4.73066">
        <ele>170</ele>
        <time>2018-03-13T11:15:32Z</time>
      </trkpt>
      <trkpt lat="45.9446" lon="4.73057">
        <ele>170</ele>
        <time>2018-03-13T11:15:33Z</time>
      </trkpt>
      <trkpt lat="45.94459" lon="4.73049">
        <ele>170</ele>
        <time>2018-03-13T11:15:34Z</time>
      </trkpt>
      <trkpt lat="45.94457" lon="4.73039">
        <ele>169</ele>
        <time>2018-03-13T11:15:35Z</time>
      </trkpt>
      <trkpt lat="45.94456" lon="4.7303">
        <ele>169</ele>
        <time>2018-03-13T11:15:36Z</time>
      </trkpt>
      <trkpt lat="45.94451" lon="4.73019">
        <ele>169</ele>
        <time>2018-03-13T11:15:37Z</time>
      </trkpt>
      <trkpt lat="45.94449" lon="4.73011">
        <ele>169</ele>
        <time>2018-03-13T11:15:38Z</time>
      </trkpt>
      <trkpt lat="45.94448" lon="4.73003">
        <ele>169</ele>
        <time>2018-03-13T11:15:39Z</time>
      </trkpt>
      <trkpt lat="45.94447" lon="4.72994">
        <ele>167</ele>
        <time>2018-03-13T11:15:40Z</time>
      </trkpt>
      <trkpt lat="45.94446" lon="4.72986">
        <ele>167</ele>
        <time>2018-03-13T11:15:41Z</time>
      </trkpt>
      <trkpt lat="45.94445" lon="4.72978">
        <ele>167</ele>
        <time>2018-03-13T11:15:42Z</time>
      </trkpt>
      <trkpt lat="45.94443" lon="4.7297">
        <ele>167</ele>
        <time>2018-03-13T11:15:43Z</time>
      </trkpt>
      <trkpt lat="45.94442" lon="4.72962">
        <ele>167</ele>
        <time>2018-03-13T11:15:44Z</time>
      </trkpt>
      <trkpt lat="45.94441" lon="4.72953">
        <ele>167</ele>
        <time>2018-03-13T11:15:45Z</time>
      </trkpt>
      <trkpt lat="45.9444" lon="4.72946">
        <ele>167</ele>
        <time>2018-03-13T11:15:46Z</time>
      </trkpt>
      <trkpt lat="45.94439" lon="4.72938">
        <ele>167</ele>
        <time>2018-03-13T11:15:47Z</time>
      </trkpt>
      <trkpt lat="45.94438" lon="4.72931">
        <ele>167</ele>
        <time>2018-03-13T11:15:48Z</time>
      </trkpt>
      <trkpt lat="45.94437" lon="4.72924">
        <ele>167</ele>
        <time>2018-03-13T11:15:49Z</time>
      </trkpt>
      <trkpt lat="45.94436" lon="4.72915">
        <ele>166</ele>
        <time>2018-03-13T11:15:50Z</time>
      </trkpt>
      <trkpt lat="45.94436" lon="4.72907">
        <ele>166</ele>
        <time>2018-03-13T11:15:51Z</time>
      </trkpt>
      <trkpt lat="45.94434" lon="4.72899">
        <ele>166</ele>
        <time>2018-03-13T11:15:52Z</time>
      </trkpt>
      <trkpt lat="45.94433" lon="4.72891">
        <ele>166</ele>
        <time>2018-03-13T11:15:53Z</time>
      </trkpt>
      <trkpt lat="45.94432" lon="4.72882">
        <ele>166</ele>
        <time>2018-03-13T11:15:54Z</time>
      </trkpt>
      <trkpt lat="45.94431" lon="4.72873">
        <ele>166</ele>
        <time>2018-03-13T11:15:55Z</time>
      </trkpt>
      <trkpt lat="45.9443" lon="4.72864">
        <ele>166</ele>
        <time>2018-03-13T11:15:56Z</time>
      </trkpt>
      <trkpt lat="45.94428" lon="4.72855">
        <ele>166</ele>
        <time>2018-03-13T11:15:57Z</time>
      </trkpt>
      <trkpt lat="45.94427" lon="4.72845">
        <ele>166</ele>
        <time>2018-03-13T11:15:58Z</time>
      </trkpt>
      <trkpt lat="45.94426" lon="4.72834">
        <ele>166</ele>
        <time>2018-03-13T11:15:59Z</time>
      </trkpt>
      <trkpt lat="45.94425" lon="4.72825">
        <ele>167</ele>
        <time>2018-03-13T11:16:00Z</time>
      </trkpt>
      <trkpt lat="45.94423" lon="4.72814">
        <ele>167</ele>
        <time>2018-03-13T11:16:01Z</time>
      </trkpt>
      <trkpt lat="45.94421" lon="4.72804">
        <ele>167</ele>
        <time>2018-03-13T11:16:02Z</time>
      </trkpt>
      <trkpt lat="45.9442" lon="4.72793">
        <ele>168</ele>
        <time>2018-03-13T11:16:03Z</time>
      </trkpt>
      <trkpt lat="45.94419" lon="4.72782">
        <ele>168</ele>
        <time>2018-03-13T11:16:04Z</time>
      </trkpt>
      <trkpt lat="45.94418" lon="4.72771">
        <ele>169</ele>
        <time>2018-03-13T11:16:05Z</time>
      </trkpt>
      <trkpt lat="45.94418" lon="4.7276">
        <ele>170</ele>
        <time>2018-03-13T11:16:06Z</time>
      </trkpt>
      <trkpt lat="45.94417" lon="4.72749">
        <ele>171</ele>
        <time>2018-03-13T11:16:07Z</time>
      </trkpt>
      <trkpt lat="45.94416" lon="4.72738">
        <ele>171</ele>
        <time>2018-03-13T11:16:08Z</time>
      </trkpt>
      <trkpt lat="45.94415" lon="4.72728">
        <ele>172</ele>
        <time>2018-03-13T11:16:09Z</time>
      </trkpt>
      <trkpt lat="45.94413" lon="4.72717">
        <ele>172</ele>
        <time>2018-03-13T11:16:10Z</time>
      </trkpt>
      <trkpt lat="45.94412" lon="4.72706">
        <ele>172</ele>
        <time>2018-03-13T11:16:11Z</time>
      </trkpt>
      <trkpt lat="45.9441" lon="4.72696">
        <ele>173</ele>
        <time>2018-03-13T11:16:12Z</time>
      </trkpt>
      <trkpt lat="45.94409" lon="4.72685">
        <ele>173</ele>
        <time>2018-03-13T11:16:13Z</time>
      </trkpt>
      <trkpt lat="45.94408" lon="4.72675">
        <ele>173</ele>
        <time>2018-03-13T11:16:14Z</time>
      </trkpt>
      <trkpt lat="45.94407" lon="4.72665">
        <ele>174</ele>
        <time>2018-03-13T11:16:15Z</time>
      </trkpt>
      <trkpt lat="45.94406" lon="4.72655">
        <ele>174</ele>
        <time>2018-03-13T11:16:16Z</time>
      </trkpt>
      <trkpt lat="45.94404" lon="4.72647">
        <ele>174</ele>
        <time>2018-03-13T11:16:17Z</time>
      </trkpt>
      <trkpt lat="45.94403" lon="4.72637">
        <ele>174</ele>
        <time>2018-03-13T11:16:18Z</time>
      </trkpt>
      <trkpt lat="45.94402" lon="4.72628">
        <ele>174</ele>
        <time>2018-03-13T11:16:19Z</time>
      </trkpt>
      <trkpt lat="45.94401" lon="4.72619">
        <ele>173</ele>
        <time>2018-03-13T11:16:20Z</time>
      </trkpt>
      <trkpt lat="45.94401" lon="4.72611">
        <ele>173</ele>
        <time>2018-03-13T11:16:21Z</time>
      </trkpt>
      <trkpt lat="45.94399" lon="4.72601">
        <ele>173</ele>
        <time>2018-03-13T11:16:22Z</time>
      </trkpt>
      <trkpt lat="45.94398" lon="4.72592">
        <ele>173</ele>
        <time>2018-03-13T11:16:23Z</time>
      </trkpt>
      <trkpt lat="45.94397" lon="4.72584">
        <ele>173</ele>
        <time>2018-03-13T11:16:24Z</time>
      </trkpt>
      <trkpt lat="45.94395" lon="4.72575">
        <ele>173</ele>
        <time>2018-03-13T11:16:25Z</time>
      </trkpt>
      <trkpt lat="45.94394" lon="4.72567">
        <ele>173</ele>
        <time>2018-03-13T11:16:26Z</time>
      </trkpt>
      <trkpt lat="45.94393" lon="4.72559">
        <ele>173</ele>
        <time>2018-03-13T11:16:27Z</time>
      </trkpt>
      <trkpt lat="45.94392" lon="4.72551">
        <ele>173</ele>
        <time>2018-03-13T11:16:28Z</time>
      </trkpt>
      <trkpt lat="45.9439" lon="4.72543">
        <ele>173</ele>
        <time>2018-03-13T11:16:29Z</time>
      </trkpt>
      <trkpt lat="45.94388" lon="4.72535">
        <ele>174</ele>
        <time>2018-03-13T11:16:30Z</time>
      </trkpt>
      <trkpt lat="45.94386" lon="4.72526">
        <ele>174</ele>
        <time>2018-03-13T11:16:31Z</time>
      </trkpt>
      <trkpt lat="45.94383" lon="4.72518">
        <ele>174</ele>
        <time>2018-03-13T11:16:32Z</time>
      </trkpt>
      <trkpt lat="45.94382" lon="4.7251">
        <ele>174</ele>
        <time>2018-03-13T11:16:33Z</time>
      </trkpt>
      <trkpt lat="45.9438" lon="4.72502">
        <ele>174</ele>
        <time>2018-03-13T11:16:34Z</time>
      </trkpt>
      <trkpt lat="45.94377" lon="4.72496">
        <ele>173</ele>
        <time>2018-03-13T11:16:35Z</time>
      </trkpt>
      <trkpt lat="45.94374" lon="4.72489">
        <ele>173</ele>
        <time>2018-03-13T11:16:36Z</time>
      </trkpt>
      <trkpt lat="45.94372" lon="4.72483">
        <ele>173</ele>
        <time>2018-03-13T11:16:37Z</time>
      </trkpt>
      <trkpt lat="45.9437" lon="4.72478">
        <ele>173</ele>
        <time>2018-03-13T11:16:38Z</time>
      </trkpt>
      <trkpt lat="45.94368" lon="4.72471">
        <ele>173</ele>
        <time>2018-03-13T11:16:39Z</time>
      </trkpt>
      <trkpt lat="45.94366" lon="4.72465">
        <ele>173</ele>
        <time>2018-03-13T11:16:40Z</time>
      </trkpt>
      <trkpt lat="45.94362" lon="4.72459">
        <ele>173</ele>
        <time>2018-03-13T11:16:41Z</time>
      </trkpt>
      <trkpt lat="45.9436" lon="4.72453">
        <ele>173</ele>
        <time>2018-03-13T11:16:42Z</time>
      </trkpt>
      <trkpt lat="45.94357" lon="4.72447">
        <ele>173</ele>
        <time>2018-03-13T11:16:43Z</time>
      </trkpt>
      <trkpt lat="45.94354" lon="4.7244">
        <ele>173</ele>
        <time>2018-03-13T11:16:44Z</time>
      </trkpt>
      <trkpt lat="45.94351" lon="4.72432">
        <ele>173</ele>
        <time>2018-03-13T11:16:45Z</time>
      </trkpt>
      <trkpt lat="45.94352" lon="4.72425">
        <ele>173</ele>
        <time>2018-03-13T11:16:46Z</time>
      </trkpt>
      <trkpt lat="45.94349" lon="4.72417">
        <ele>173</ele>
        <time>2018-03-13T11:16:47Z</time>
      </trkpt>
      <trkpt lat="45.94346" lon="4.72411">
        <ele>173</ele>
        <time>2018-03-13T11:16:48Z</time>
      </trkpt>
      <trkpt lat="45.94345" lon="4.72406">
        <ele>173</ele>
        <time>2018-03-13T11:16:49Z</time>
      </trkpt>
      <trkpt lat="45.9434" lon="4.72401">
        <ele>173</ele>
        <time>2018-03-13T11:16:50Z</time>
      </trkpt>
      <trkpt lat="45.94337" lon="4.72395">
        <ele>172</ele>
        <time>2018-03-13T11:16:51Z</time>
      </trkpt>
      <trkpt lat="45.94334" lon="4.72389">
        <ele>172</ele>
        <time>2018-03-13T11:16:52Z</time>
      </trkpt>
      <trkpt lat="45.94331" lon="4.72384">
        <ele>172</ele>
        <time>2018-03-13T11:16:53Z</time>
      </trkpt>
      <trkpt lat="45.94329" lon="4.72378">
        <ele>172</ele>
        <time>2018-03-13T11:16:54Z</time>
      </trkpt>
      <trkpt lat="45.94326" lon="4.72371">
        <ele>172</ele>
        <time>2018-03-13T11:16:55Z</time>
      </trkpt>
      <trkpt lat="45.94323" lon="4.72364">
        <ele>172</ele>
        <time>2018-03-13T11:16:56Z</time>
      </trkpt>
      <trkpt lat="45.9432" lon="4.72357">
        <ele>172</ele>
        <time>2018-03-13T11:16:57Z</time>
      </trkpt>
      <trkpt lat="45.94316" lon="4.72351">
        <ele>172</ele>
        <time>2018-03-13T11:16:58Z</time>
      </trkpt>
      <trkpt lat="45.94313" lon="4.72345">
        <ele>172</ele>
        <time>2018-03-13T11:16:59Z</time>
      </trkpt>
      <trkpt lat="45.9431" lon="4.72337">
        <ele>172</ele>
        <time>2018-03-13T11:17:00Z</time>
      </trkpt>
      <trkpt lat="45.94307" lon="4.7233">
        <ele>171</ele>
        <time>2018-03-13T11:17:01Z</time>
      </trkpt>
      <trkpt lat="45.94303" lon="4.72323">
        <ele>171</ele>
        <time>2018-03-13T11:17:02Z</time>
      </trkpt>
      <trkpt lat="45.943" lon="4.72316">
        <ele>171</ele>
        <time>2018-03-13T11:17:03Z</time>
      </trkpt>
      <trkpt lat="45.94297" lon="4.72309">
        <ele>171</ele>
        <time>2018-03-13T11:17:04Z</time>
      </trkpt>
      <trkpt lat="45.94294" lon="4.72301">
        <ele>171</ele>
        <time>2018-03-13T11:17:05Z</time>
      </trkpt>
      <trkpt lat="45.9429" lon="4.72295">
        <ele>171</ele>
        <time>2018-03-13T11:17:06Z</time>
      </trkpt>
      <trkpt lat="45.94287" lon="4.72288">
        <ele>171</ele>
        <time>2018-03-13T11:17:07Z</time>
      </trkpt>
      <trkpt lat="45.94283" lon="4.72283">
        <ele>171</ele>
        <time>2018-03-13T11:17:08Z</time>
      </trkpt>
      <trkpt lat="45.9428" lon="4.72278">
        <ele>171</ele>
        <time>2018-03-13T11:17:09Z</time>
      </trkpt>
      <trkpt lat="45.94275" lon="4.72274">
        <ele>171</ele>
        <time>2018-03-13T11:17:10Z</time>
      </trkpt>
      <trkpt lat="45.94271" lon="4.72274">
        <ele>171</ele>
        <time>2018-03-13T11:17:11Z</time>
      </trkpt>
      <trkpt lat="45.94265" lon="4.72275">
        <ele>171</ele>
        <time>2018-03-13T11:17:12Z</time>
      </trkpt>
      <trkpt lat="45.9426" lon="4.72277">
        <ele>171</ele>
        <time>2018-03-13T11:17:13Z</time>
      </trkpt>
      <trkpt lat="45.94253" lon="4.72279">
        <ele>171</ele>
        <time>2018-03-13T11:17:14Z</time>
      </trkpt>
      <trkpt lat="45.94248" lon="4.72282">
        <ele>171</ele>
        <time>2018-03-13T11:17:15Z</time>
      </trkpt>
      <trkpt lat="45.94243" lon="4.72284">
        <ele>171</ele>
        <time>2018-03-13T11:17:16Z</time>
      </trkpt>
      <trkpt lat="45.94237" lon="4.72285">
        <ele>171</ele>
        <time>2018-03-13T11:17:17Z</time>
      </trkpt>
      <trkpt lat="45.94232" lon="4.72287">
        <ele>171</ele>
        <time>2018-03-13T11:17:18Z</time>
      </trkpt>
      <trkpt lat="45.94227" lon="4.72288">
        <ele>171</ele>
        <time>2018-03-13T11:17:19Z</time>
      </trkpt>
      <trkpt lat="45.94221" lon="4.72288">
        <ele>171</ele>
        <time>2018-03-13T11:17:20Z</time>
      </trkpt>
      <trkpt lat="45.94215" lon="4.72288">
        <ele>171</ele>
        <time>2018-03-13T11:17:21Z</time>
      </trkpt>
      <trkpt lat="45.94209" lon="4.72289">
        <ele>171</ele>
        <time>2018-03-13T11:17:22Z</time>
      </trkpt>
      <trkpt lat="45.94203" lon="4.72289">
        <ele>171</ele>
        <time>2018-03-13T11:17:23Z</time>
      </trkpt>
      <trkpt lat="45.94198" lon="4.72289">
        <ele>171</ele>
        <time>2018-03-13T11:17:24Z</time>
      </trkpt>
      <trkpt lat="45.94193" lon="4.72289">
        <ele>171</ele>
        <time>2018-03-13T11:17:25Z</time>
      </trkpt>
      <trkpt lat="45.94187" lon="4.72288">
        <ele>171</ele>
        <time>2018-03-13T11:17:26Z</time>
      </trkpt>
      <trkpt lat="45.94182" lon="4.72289">
        <ele>171</ele>
        <time>2018-03-13T11:17:27Z</time>
      </trkpt>
      <trkpt lat="45.94177" lon="4.72288">
        <ele>171</ele>
        <time>2018-03-13T11:17:28Z</time>
      </trkpt>
      <trkpt lat="45.94172" lon="4.72288">
        <ele>171</ele>
        <time>2018-03-13T11:17:29Z</time>
      </trkpt>
      <trkpt lat="45.94167" lon="4.72288">
        <ele>171</ele>
        <time>2018-03-13T11:17:30Z</time>
      </trkpt>
      <trkpt lat="45.94162" lon="4.72287">
        <ele>171</ele>
        <time>2018-03-13T11:17:31Z</time>
      </trkpt>
      <trkpt lat="45.94157" lon="4.72286">
        <ele>171</ele>
        <time>2018-03-13T11:17:32Z</time>
      </trkpt>
      <trkpt lat="45.94152" lon="4.72285">
        <ele>171</ele>
        <time>2018-03-13T11:17:33Z</time>
      </trkpt>
      <trkpt lat="45.94147" lon="4.72283">
        <ele>171</ele>
        <time>2018-03-13T11:17:34Z</time>
      </trkpt>
      <trkpt lat="45.94141" lon="4.72281">
        <ele>171</ele>
        <time>2018-03-13T11:17:35Z</time>
      </trkpt>
      <trkpt lat="45.94136" lon="4.72278">
        <ele>171</ele>
        <time>2018-03-13T11:17:36Z</time>
      </trkpt>
      <trkpt lat="45.94131" lon="4.72276">
        <ele>171</ele>
        <time>2018-03-13T11:17:37Z</time>
      </trkpt>
      <trkpt lat="45.94126" lon="4.72273">
        <ele>171</ele>
        <time>2018-03-13T11:17:38Z</time>
      </trkpt>
      <trkpt lat="45.94121" lon="4.72271">
        <ele>171</ele>
        <time>2018-03-13T11:17:39Z</time>
      </trkpt>
      <trkpt lat="45.94115" lon="4.72269">
        <ele>171</ele>
        <time>2018-03-13T11:17:40Z</time>
      </trkpt>
      <trkpt lat="45.9411" lon="4.72267">
        <ele>171</ele>
        <time>2018-03-13T11:17:41Z</time>
      </trkpt>
      <trkpt lat="45.94102" lon="4.72268">
        <ele>171</ele>
        <time>2018-03-13T11:17:43Z</time>
      </trkpt>
      <trkpt lat="45.94096" lon="4.72267">
        <ele>171</ele>
        <time>2018-03-13T11:17:44Z</time>
      </trkpt>
      <trkpt lat="45.94091" lon="4.72269">
        <ele>171</ele>
        <time>2018-03-13T11:17:45Z</time>
      </trkpt>
      <trkpt lat="45.94086" lon="4.72269">
        <ele>171</ele>
        <time>2018-03-13T11:17:46Z</time>
      </trkpt>
      <trkpt lat="45.94081" lon="4.72272">
        <ele>171</ele>
        <time>2018-03-13T11:17:47Z</time>
      </trkpt>
      <trkpt lat="45.94076" lon="4.72275">
        <ele>171</ele>
        <time>2018-03-13T11:17:48Z</time>
      </trkpt>
      <trkpt lat="45.94071" lon="4.72279">
        <ele>171</ele>
        <time>2018-03-13T11:17:49Z</time>
      </trkpt>
      <trkpt lat="45.94068" lon="4.72284">
        <ele>171</ele>
        <time>2018-03-13T11:17:50Z</time>
      </trkpt>
      <trkpt lat="45.94062" lon="4.7229">
        <ele>171</ele>
        <time>2018-03-13T11:17:51Z</time>
      </trkpt>
      <trkpt lat="45.94058" lon="4.72295">
        <ele>171</ele>
        <time>2018-03-13T11:17:52Z</time>
      </trkpt>
      <trkpt lat="45.94053" lon="4.723">
        <ele>171</ele>
        <time>2018-03-13T11:17:53Z</time>
      </trkpt>
      <trkpt lat="45.94049" lon="4.72306">
        <ele>171</ele>
        <time>2018-03-13T11:17:54Z</time>
      </trkpt>
      <trkpt lat="45.94045" lon="4.72311">
        <ele>171</ele>
        <time>2018-03-13T11:17:55Z</time>
      </trkpt>
      <trkpt lat="45.94041" lon="4.72317">
        <ele>171</ele>
        <time>2018-03-13T11:17:56Z</time>
      </trkpt>
      <trkpt lat="45.94036" lon="4.72322">
        <ele>171</ele>
        <time>2018-03-13T11:17:57Z</time>
      </trkpt>
      <trkpt lat="45.94032" lon="4.72327">
        <ele>171</ele>
        <time>2018-03-13T11:17:58Z</time>
      </trkpt>
      <trkpt lat="45.94028" lon="4.72333">
        <ele>171</ele>
        <time>2018-03-13T11:17:59Z</time>
      </trkpt>
      <trkpt lat="45.94023" lon="4.72338">
        <ele>171</ele>
        <time>2018-03-13T11:18:00Z</time>
      </trkpt>
      <trkpt lat="45.94018" lon="4.72343">
        <ele>171</ele>
        <time>2018-03-13T11:18:01Z</time>
      </trkpt>
      <trkpt lat="45.94014" lon="4.72349">
        <ele>171</ele>
        <time>2018-03-13T11:18:02Z</time>
      </trkpt>
      <trkpt lat="45.94009" lon="4.72354">
        <ele>171</ele>
        <time>2018-03-13T11:18:03Z</time>
      </trkpt>
      <trkpt lat="45.94004" lon="4.72361">
        <ele>171</ele>
        <time>2018-03-13T11:18:04Z</time>
      </trkpt>
      <trkpt lat="45.93999" lon="4.72367">
        <ele>171</ele>
        <time>2018-03-13T11:18:05Z</time>
      </trkpt>
      <trkpt lat="45.93994" lon="4.72373">
        <ele>171</ele>
        <time>2018-03-13T11:18:06Z</time>
      </trkpt>
      <trkpt lat="45.93991" lon="4.72379">
        <ele>171</ele>
        <time>2018-03-13T11:18:07Z</time>
      </trkpt>
      <trkpt lat="45.93986" lon="4.72384">
        <ele>171</ele>
        <time>2018-03-13T11:18:08Z</time>
      </trkpt>
      <trkpt lat="45.93982" lon="4.72391">
        <ele>171</ele>
        <time>2018-03-13T11:18:09Z</time>
      </trkpt>
      <trkpt lat="45.93977" lon="4.72396">
        <ele>171</ele>
        <time>2018-03-13T11:18:10Z</time>
      </trkpt>
      <trkpt lat="45.93973" lon="4.72402">
        <ele>171</ele>
        <time>2018-03-13T11:18:11Z</time>
      </trkpt>
      <trkpt lat="45.93969" lon="4.72408">
        <ele>171</ele>
        <time>2018-03-13T11:18:12Z</time>
      </trkpt>
      <trkpt lat="45.93964" lon="4.72413">
        <ele>171</ele>
        <time>2018-03-13T11:18:13Z</time>
      </trkpt>
      <trkpt lat="45.93959" lon="4.72418">
        <ele>171</ele>
        <time>2018-03-13T11:18:14Z</time>
      </trkpt>
      <trkpt lat="45.93955" lon="4.72423">
        <ele>171</ele>
        <time>2018-03-13T11:18:15Z</time>
      </trkpt>
      <trkpt lat="45.93951" lon="4.72429">
        <ele>171</ele>
        <time>2018-03-13T11:18:16Z</time>
      </trkpt>
      <trkpt lat="45.93946" lon="4.72434">
        <ele>171</ele>
        <time>2018-03-13T11:18:17Z</time>
      </trkpt>
      <trkpt lat="45.93942" lon="4.72439">
        <ele>171</ele>
        <time>2018-03-13T11:18:18Z</time>
      </trkpt>
      <trkpt lat="45.93936" lon="4.72446">
        <ele>171</ele>
        <time>2018-03-13T11:18:19Z</time>
      </trkpt>
      <trkpt lat="45.93932" lon="4.72451">
        <ele>171</ele>
        <time>2018-03-13T11:18:20Z</time>
      </trkpt>
      <trkpt lat="45.93927" lon="4.72456">
        <ele>171</ele>
        <time>2018-03-13T11:18:21Z</time>
      </trkpt>
      <trkpt lat="45.93922" lon="4.72461">
        <ele>171</ele>
        <time>2018-03-13T11:18:22Z</time>
      </trkpt>
      <trkpt lat="45.93918" lon="4.72466">
        <ele>171</ele>
        <time>2018-03-13T11:18:23Z</time>
      </trkpt>
      <trkpt lat="45.93914" lon="4.72472">
        <ele>172</ele>
        <time>2018-03-13T11:18:24Z</time>
      </trkpt>
      <trkpt lat="45.9391" lon="4.72478">
        <ele>172</ele>
        <time>2018-03-13T11:18:25Z</time>
      </trkpt>
      <trkpt lat="45.93906" lon="4.72483">
        <ele>172</ele>
        <time>2018-03-13T11:18:26Z</time>
      </trkpt>
      <trkpt lat="45.93901" lon="4.72488">
        <ele>172</ele>
        <time>2018-03-13T11:18:27Z</time>
      </trkpt>
      <trkpt lat="45.93897" lon="4.72494">
        <ele>172</ele>
        <time>2018-03-13T11:18:28Z</time>
      </trkpt>
      <trkpt lat="45.93893" lon="4.72498">
        <ele>172</ele>
        <time>2018-03-13T11:18:29Z</time>
      </trkpt>
      <trkpt lat="45.93888" lon="4.72503">
        <ele>173</ele>
        <time>2018-03-13T11:18:30Z</time>
      </trkpt>
      <trkpt lat="45.93885" lon="4.7251">
        <ele>173</ele>
        <time>2018-03-13T11:18:31Z</time>
      </trkpt>
      <trkpt lat="45.93882" lon="4.72514">
        <ele>173</ele>
        <time>2018-03-13T11:18:32Z</time>
      </trkpt>
      <trkpt lat="45.93877" lon="4.72516">
        <ele>173</ele>
        <time>2018-03-13T11:18:33Z</time>
      </trkpt>
      <trkpt lat="45.93872" lon="4.72518">
        <ele>173</ele>
        <time>2018-03-13T11:18:34Z</time>
      </trkpt>
      <trkpt lat="45.93867" lon="4.72518">
        <ele>173</ele>
        <time>2018-03-13T11:18:35Z</time>
      </trkpt>
      <trkpt lat="45.93862" lon="4.72516">
        <ele>173</ele>
        <time>2018-03-13T11:18:36Z</time>
      </trkpt>
      <trkpt lat="45.93857" lon="4.72514">
        <ele>173</ele>
        <time>2018-03-13T11:18:37Z</time>
      </trkpt>
      <trkpt lat="45.93853" lon="4.7251">
        <ele>173</ele>
        <time>2018-03-13T11:18:38Z</time>
      </trkpt>
      <trkpt lat="45.93846" lon="4.72505">
        <ele>174</ele>
        <time>2018-03-13T11:18:40Z</time>
      </trkpt>
      <trkpt lat="45.93845" lon="4.72504">
        <ele>174</ele>
        <time>2018-03-13T11:18:41Z</time>
      </trkpt>
      <trkpt lat="45.93843" lon="4.72503">
        <ele>174</ele>
        <time>2018-03-13T11:18:43Z</time>
      </trkpt>
      <trkpt lat="45.93831" lon="4.72487">
        <ele>173</ele>
        <time>2018-03-13T11:18:44Z</time>
      </trkpt>
      <trkpt lat="45.93828" lon="4.72478">
        <ele>173</ele>
        <time>2018-03-13T11:18:45Z</time>
      </trkpt>
      <trkpt lat="45.93821" lon="4.72476">
        <ele>172</ele>
        <time>2018-03-13T11:18:46Z</time>
      </trkpt>
      <trkpt lat="45.93817" lon="4.72466">
        <ele>172</ele>
        <time>2018-03-13T11:18:48Z</time>
      </trkpt>
      <trkpt lat="45.93814" lon="4.72464">
        <ele>172</ele>
        <time>2018-03-13T11:18:49Z</time>
      </trkpt>
      <trkpt lat="45.93809" lon="4.72459">
        <ele>172</ele>
        <time>2018-03-13T11:18:50Z</time>
      </trkpt>
      <trkpt lat="45.93806" lon="4.72455">
        <ele>172</ele>
        <time>2018-03-13T11:18:51Z</time>
      </trkpt>
      <trkpt lat="45.93802" lon="4.72453">
        <ele>172</ele>
        <time>2018-03-13T11:18:52Z</time>
      </trkpt>
      <trkpt lat="45.93797" lon="4.72449">
        <ele>172</ele>
        <time>2018-03-13T11:18:53Z</time>
      </trkpt>
      <trkpt lat="45.93793" lon="4.72445">
        <ele>172</ele>
        <time>2018-03-13T11:18:54Z</time>
      </trkpt>
      <trkpt lat="45.9379" lon="4.7244">
        <ele>172</ele>
        <time>2018-03-13T11:18:55Z</time>
      </trkpt>
      <trkpt lat="45.93787" lon="4.72434">
        <ele>172</ele>
        <time>2018-03-13T11:18:56Z</time>
      </trkpt>
      <trkpt lat="45.93783" lon="4.72432">
        <ele>172</ele>
        <time>2018-03-13T11:18:57Z</time>
      </trkpt>
      <trkpt lat="45.93778" lon="4.72427">
        <ele>172</ele>
        <time>2018-03-13T11:18:58Z</time>
      </trkpt>
      <trkpt lat="45.93776" lon="4.72423">
        <ele>171</ele>
        <time>2018-03-13T11:18:59Z</time>
      </trkpt>
      <trkpt lat="45.93771" lon="4.72418">
        <ele>171</ele>
        <time>2018-03-13T11:19:00Z</time>
      </trkpt>
      <trkpt lat="45.93767" lon="4.72414">
        <ele>171</ele>
        <time>2018-03-13T11:19:01Z</time>
      </trkpt>
      <trkpt lat="45.93762" lon="4.7241">
        <ele>171</ele>
        <time>2018-03-13T11:19:02Z</time>
      </trkpt>
      <trkpt lat="45.93758" lon="4.72406">
        <ele>171</ele>
        <time>2018-03-13T11:19:03Z</time>
      </trkpt>
      <trkpt lat="45.93754" lon="4.72402">
        <ele>171</ele>
        <time>2018-03-13T11:19:04Z</time>
      </trkpt>
      <trkpt lat="45.9375" lon="4.72398">
        <ele>171</ele>
        <time>2018-03-13T11:19:05Z</time>
      </trkpt>
      <trkpt lat="45.93745" lon="4.72394">
        <ele>171</ele>
        <time>2018-03-13T11:19:06Z</time>
      </trkpt>
      <trkpt lat="45.93742" lon="4.7239">
        <ele>171</ele>
        <time>2018-03-13T11:19:07Z</time>
      </trkpt>
      <trkpt lat="45.93738" lon="4.72386">
        <ele>171</ele>
        <time>2018-03-13T11:19:08Z</time>
      </trkpt>
      <trkpt lat="45.93735" lon="4.72381">
        <ele>171</ele>
        <time>2018-03-13T11:19:09Z</time>
      </trkpt>
      <trkpt lat="45.93731" lon="4.72377">
        <ele>171</ele>
        <time>2018-03-13T11:19:10Z</time>
      </trkpt>
      <trkpt lat="45.93726" lon="4.72373">
        <ele>172</ele>
        <time>2018-03-13T11:19:11Z</time>
      </trkpt>
      <trkpt lat="45.93721" lon="4.7237">
        <ele>172</ele>
        <time>2018-03-13T11:19:12Z</time>
      </trkpt>
      <trkpt lat="45.93717" lon="4.72366">
        <ele>172</ele>
        <time>2018-03-13T11:19:13Z</time>
      </trkpt>
      <trkpt lat="45.93712" lon="4.72361">
        <ele>172</ele>
        <time>2018-03-13T11:19:14Z</time>
      </trkpt>
      <trkpt lat="45.93706" lon="4.72357">
        <ele>171</ele>
        <time>2018-03-13T11:19:15Z</time>
      </trkpt>
      <trkpt lat="45.937" lon="4.72354">
        <ele>171</ele>
        <time>2018-03-13T11:19:16Z</time>
      </trkpt>
      <trkpt lat="45.93696" lon="4.72351">
        <ele>171</ele>
        <time>2018-03-13T11:19:17Z</time>
      </trkpt>
      <trkpt lat="45.93685" lon="4.72341">
        <ele>171</ele>
        <time>2018-03-13T11:19:20Z</time>
      </trkpt>
      <trkpt lat="45.93681" lon="4.72336">
        <ele>171</ele>
        <time>2018-03-13T11:19:21Z</time>
      </trkpt>
      <trkpt lat="45.93675" lon="4.7233">
        <ele>171</ele>
        <time>2018-03-13T11:19:22Z</time>
      </trkpt>
      <trkpt lat="45.93668" lon="4.72325">
        <ele>171</ele>
        <time>2018-03-13T11:19:24Z</time>
      </trkpt>
      <trkpt lat="45.93664" lon="4.7232">
        <ele>172</ele>
        <time>2018-03-13T11:19:25Z</time>
      </trkpt>
      <trkpt lat="45.93659" lon="4.72315">
        <ele>172</ele>
        <time>2018-03-13T11:19:27Z</time>
      </trkpt>
      <trkpt lat="45.93655" lon="4.72311">
        <ele>172</ele>
        <time>2018-03-13T11:19:28Z</time>
      </trkpt>
      <trkpt lat="45.93651" lon="4.72305">
        <ele>172</ele>
        <time>2018-03-13T11:19:29Z</time>
      </trkpt>
      <trkpt lat="45.93647" lon="4.72302">
        <ele>172</ele>
        <time>2018-03-13T11:19:30Z</time>
      </trkpt>
      <trkpt lat="45.93643" lon="4.72298">
        <ele>172</ele>
        <time>2018-03-13T11:19:31Z</time>
      </trkpt>
      <trkpt lat="45.93639" lon="4.72294">
        <ele>172</ele>
        <time>2018-03-13T11:19:32Z</time>
      </trkpt>
      <trkpt lat="45.93635" lon="4.7229">
        <ele>172</ele>
        <time>2018-03-13T11:19:33Z</time>
      </trkpt>
      <trkpt lat="45.93632" lon="4.72287">
        <ele>172</ele>
        <time>2018-03-13T11:19:34Z</time>
      </trkpt>
      <trkpt lat="45.93628" lon="4.72282">
        <ele>172</ele>
        <time>2018-03-13T11:19:35Z</time>
      </trkpt>
      <trkpt lat="45.93624" lon="4.7228">
        <ele>172</ele>
        <time>2018-03-13T11:19:36Z</time>
      </trkpt>
      <trkpt lat="45.9362" lon="4.72276">
        <ele>172</ele>
        <time>2018-03-13T11:19:37Z</time>
      </trkpt>
      <trkpt lat="45.93615" lon="4.72272">
        <ele>172</ele>
        <time>2018-03-13T11:19:38Z</time>
      </trkpt>
      <trkpt lat="45.93611" lon="4.72269">
        <ele>172</ele>
        <time>2018-03-13T11:19:39Z</time>
      </trkpt>
      <trkpt lat="45.93607" lon="4.72264">
        <ele>173</ele>
        <time>2018-03-13T11:19:40Z</time>
      </trkpt>
      <trkpt lat="45.93602" lon="4.72257">
        <ele>173</ele>
        <time>2018-03-13T11:19:42Z</time>
      </trkpt>
      <trkpt lat="45.93598" lon="4.72253">
        <ele>173</ele>
        <time>2018-03-13T11:19:43Z</time>
      </trkpt>
      <trkpt lat="45.93594" lon="4.7225">
        <ele>173</ele>
        <time>2018-03-13T11:19:44Z</time>
      </trkpt>
      <trkpt lat="45.9359" lon="4.72245">
        <ele>173</ele>
        <time>2018-03-13T11:19:45Z</time>
      </trkpt>
      <trkpt lat="45.93583" lon="4.72238">
        <ele>173</ele>
        <time>2018-03-13T11:19:48Z</time>
      </trkpt>
      <trkpt lat="45.93579" lon="4.72234">
        <ele>173</ele>
        <time>2018-03-13T11:19:49Z</time>
      </trkpt>
      <trkpt lat="45.93572" lon="4.7223">
        <ele>173</ele>
        <time>2018-03-13T11:19:51Z</time>
      </trkpt>
      <trkpt lat="45.9357" lon="4.72228">
        <ele>173</ele>
        <time>2018-03-13T11:19:52Z</time>
      </trkpt>
      <trkpt lat="45.93563" lon="4.72221">
        <ele>173</ele>
        <time>2018-03-13T11:20:02Z</time>
      </trkpt>
      <trkpt lat="45.93562" lon="4.7222">
        <ele>173</ele>
        <time>2018-03-13T11:20:03Z</time>
      </trkpt>
      <trkpt lat="45.93555" lon="4.7222">
        <ele>173</ele>
        <time>2018-03-13T11:20:07Z</time>
      </trkpt>
      <trkpt lat="45.93552" lon="4.72222">
        <ele>173</ele>
        <time>2018-03-13T11:20:08Z</time>
      </trkpt>
      <trkpt lat="45.93546" lon="4.72231">
        <ele>172</ele>
        <time>2018-03-13T11:20:11Z</time>
      </trkpt>
      <trkpt lat="45.93545" lon="4.72235">
        <ele>172</ele>
        <time>2018-03-13T11:20:12Z</time>
      </trkpt>
      <trkpt lat="45.9354" lon="4.72245">
        <ele>172</ele>
        <time>2018-03-13T11:20:15Z</time>
      </trkpt>
      <trkpt lat="45.93538" lon="4.72249">
        <ele>172</ele>
        <time>2018-03-13T11:20:16Z</time>
      </trkpt>
      <trkpt lat="45.93536" lon="4.72253">
        <ele>172</ele>
        <time>2018-03-13T11:20:17Z</time>
      </trkpt>
      <trkpt lat="45.93531" lon="4.72265">
        <ele>172</ele>
        <time>2018-03-13T11:20:18Z</time>
      </trkpt>
      <trkpt lat="45.93526" lon="4.72276">
        <ele>172</ele>
        <time>2018-03-13T11:20:20Z</time>
      </trkpt>
      <trkpt lat="45.93524" lon="4.72282">
        <ele>172</ele>
        <time>2018-03-13T11:20:21Z</time>
      </trkpt>
      <trkpt lat="45.93521" lon="4.72287">
        <ele>172</ele>
        <time>2018-03-13T11:20:22Z</time>
      </trkpt>
      <trkpt lat="45.93518" lon="4.72293">
        <ele>172</ele>
        <time>2018-03-13T11:20:23Z</time>
      </trkpt>
      <trkpt lat="45.93516" lon="4.72299">
        <ele>172</ele>
        <time>2018-03-13T11:20:24Z</time>
      </trkpt>
      <trkpt lat="45.93513" lon="4.72304">
        <ele>173</ele>
        <time>2018-03-13T11:20:25Z</time>
      </trkpt>
      <trkpt lat="45.9351" lon="4.72308">
        <ele>173</ele>
        <time>2018-03-13T11:20:26Z</time>
      </trkpt>
      <trkpt lat="45.93505" lon="4.72313">
        <ele>173</ele>
        <time>2018-03-13T11:20:27Z</time>
      </trkpt>
      <trkpt lat="45.93501" lon="4.72319">
        <ele>173</ele>
        <time>2018-03-13T11:20:28Z</time>
      </trkpt>
      <trkpt lat="45.93497" lon="4.72323">
        <ele>173</ele>
        <time>2018-03-13T11:20:29Z</time>
      </trkpt>
      <trkpt lat="45.93493" lon="4.72329">
        <ele>173</ele>
        <time>2018-03-13T11:20:30Z</time>
      </trkpt>
      <trkpt lat="45.93489" lon="4.72335">
        <ele>173</ele>
        <time>2018-03-13T11:20:31Z</time>
      </trkpt>
      <trkpt lat="45.93485" lon="4.7234">
        <ele>173</ele>
        <time>2018-03-13T11:20:32Z</time>
      </trkpt>
      <trkpt lat="45.9348" lon="4.72346">
        <ele>173</ele>
        <time>2018-03-13T11:20:33Z</time>
      </trkpt>
      <trkpt lat="45.93476" lon="4.72352">
        <ele>173</ele>
        <time>2018-03-13T11:20:34Z</time>
      </trkpt>
      <trkpt lat="45.93472" lon="4.72357">
        <ele>173</ele>
        <time>2018-03-13T11:20:35Z</time>
      </trkpt>
      <trkpt lat="45.93468" lon="4.72361">
        <ele>173</ele>
        <time>2018-03-13T11:20:36Z</time>
      </trkpt>
      <trkpt lat="45.93464" lon="4.72367">
        <ele>173</ele>
        <time>2018-03-13T11:20:37Z</time>
      </trkpt>
      <trkpt lat="45.9346" lon="4.72372">
        <ele>173</ele>
        <time>2018-03-13T11:20:38Z</time>
      </trkpt>
      <trkpt lat="45.93457" lon="4.72377">
        <ele>173</ele>
        <time>2018-03-13T11:20:39Z</time>
      </trkpt>
      <trkpt lat="45.93452" lon="4.72384">
        <ele>173</ele>
        <time>2018-03-13T11:20:40Z</time>
      </trkpt>
      <trkpt lat="45.93448" lon="4.72388">
        <ele>173</ele>
        <time>2018-03-13T11:20:41Z</time>
      </trkpt>
      <trkpt lat="45.93443" lon="4.72391">
        <ele>173</ele>
        <time>2018-03-13T11:20:42Z</time>
      </trkpt>
      <trkpt lat="45.93438" lon="4.72395">
        <ele>173</ele>
        <time>2018-03-13T11:20:43Z</time>
      </trkpt>
      <trkpt lat="45.93432" lon="4.72397">
        <ele>174</ele>
        <time>2018-03-13T11:20:44Z</time>
      </trkpt>
      <trkpt lat="45.93426" lon="4.724">
        <ele>174</ele>
        <time>2018-03-13T11:20:45Z</time>
      </trkpt>
      <trkpt lat="45.93422" lon="4.72401">
        <ele>174</ele>
        <time>2018-03-13T11:20:47Z</time>
      </trkpt>
      <trkpt lat="45.93415" lon="4.72404">
        <ele>174</ele>
        <time>2018-03-13T11:20:48Z</time>
      </trkpt>
      <trkpt lat="45.93409" lon="4.72405">
        <ele>174</ele>
        <time>2018-03-13T11:20:49Z</time>
      </trkpt>
      <trkpt lat="45.93404" lon="4.72406">
        <ele>174</ele>
        <time>2018-03-13T11:20:50Z</time>
      </trkpt>
      <trkpt lat="45.93399" lon="4.72406">
        <ele>174</ele>
        <time>2018-03-13T11:20:51Z</time>
      </trkpt>
      <trkpt lat="45.93395" lon="4.72406">
        <ele>174</ele>
        <time>2018-03-13T11:20:52Z</time>
      </trkpt>
      <trkpt lat="45.93389" lon="4.72408">
        <ele>174</ele>
        <time>2018-03-13T11:20:53Z</time>
      </trkpt>
      <trkpt lat="45.93386" lon="4.72413">
        <ele>174</ele>
        <time>2018-03-13T11:20:54Z</time>
      </trkpt>
      <trkpt lat="45.93383" lon="4.72425">
        <ele>173</ele>
        <time>2018-03-13T11:20:56Z</time>
      </trkpt>
      <trkpt lat="45.93385" lon="4.72431">
        <ele>173</ele>
        <time>2018-03-13T11:20:57Z</time>
      </trkpt>
      <trkpt lat="45.93386" lon="4.72437">
        <ele>173</ele>
        <time>2018-03-13T11:20:58Z</time>
      </trkpt>
      <trkpt lat="45.93387" lon="4.72443">
        <ele>173</ele>
        <time>2018-03-13T11:20:59Z</time>
      </trkpt>
      <trkpt lat="45.93388" lon="4.7245">
        <ele>173</ele>
        <time>2018-03-13T11:21:00Z</time>
      </trkpt>
      <trkpt lat="45.93387" lon="4.72456">
        <ele>173</ele>
        <time>2018-03-13T11:21:01Z</time>
      </trkpt>
      <trkpt lat="45.93386" lon="4.72463">
        <ele>173</ele>
        <time>2018-03-13T11:21:02Z</time>
      </trkpt>
      <trkpt lat="45.93383" lon="4.72469">
        <ele>173</ele>
        <time>2018-03-13T11:21:03Z</time>
      </trkpt>
      <trkpt lat="45.93379" lon="4.72474">
        <ele>173</ele>
        <time>2018-03-13T11:21:04Z</time>
      </trkpt>
      <trkpt lat="45.93377" lon="4.7248">
        <ele>173</ele>
        <time>2018-03-13T11:21:05Z</time>
      </trkpt>
      <trkpt lat="45.93372" lon="4.72484">
        <ele>173</ele>
        <time>2018-03-13T11:21:06Z</time>
      </trkpt>
      <trkpt lat="45.93367" lon="4.72489">
        <ele>173</ele>
        <time>2018-03-13T11:21:07Z</time>
      </trkpt>
      <trkpt lat="45.93363" lon="4.72493">
        <ele>173</ele>
        <time>2018-03-13T11:21:08Z</time>
      </trkpt>
      <trkpt lat="45.9336" lon="4.72499">
        <ele>173</ele>
        <time>2018-03-13T11:21:09Z</time>
      </trkpt>
      <trkpt lat="45.93356" lon="4.72503">
        <ele>172</ele>
        <time>2018-03-13T11:21:10Z</time>
      </trkpt>
      <trkpt lat="45.93353" lon="4.72508">
        <ele>172</ele>
        <time>2018-03-13T11:21:11Z</time>
      </trkpt>
      <trkpt lat="45.93349" lon="4.72513">
        <ele>172</ele>
        <time>2018-03-13T11:21:12Z</time>
      </trkpt>
      <trkpt lat="45.93345" lon="4.72517">
        <ele>172</ele>
        <time>2018-03-13T11:21:13Z</time>
      </trkpt>
      <trkpt lat="45.93341" lon="4.72521">
        <ele>172</ele>
        <time>2018-03-13T11:21:14Z</time>
      </trkpt>
      <trkpt lat="45.93337" lon="4.72525">
        <ele>172</ele>
        <time>2018-03-13T11:21:15Z</time>
      </trkpt>
      <trkpt lat="45.93333" lon="4.7253">
        <ele>172</ele>
        <time>2018-03-13T11:21:16Z</time>
      </trkpt>
      <trkpt lat="45.9333" lon="4.72534">
        <ele>172</ele>
        <time>2018-03-13T11:21:17Z</time>
      </trkpt>
      <trkpt lat="45.93325" lon="4.72539">
        <ele>172</ele>
        <time>2018-03-13T11:21:18Z</time>
      </trkpt>
      <trkpt lat="45.9332" lon="4.72544">
        <ele>172</ele>
        <time>2018-03-13T11:21:19Z</time>
      </trkpt>
      <trkpt lat="45.93317" lon="4.72548">
        <ele>172</ele>
        <time>2018-03-13T11:21:20Z</time>
      </trkpt>
      <trkpt lat="45.93314" lon="4.72553">
        <ele>172</ele>
        <time>2018-03-13T11:21:21Z</time>
      </trkpt>
      <trkpt lat="45.9331" lon="4.72558">
        <ele>172</ele>
        <time>2018-03-13T11:21:22Z</time>
      </trkpt>
      <trkpt lat="45.93305" lon="4.72563">
        <ele>172</ele>
        <time>2018-03-13T11:21:23Z</time>
      </trkpt>
      <trkpt lat="45.93301" lon="4.72568">
        <ele>171</ele>
        <time>2018-03-13T11:21:24Z</time>
      </trkpt>
      <trkpt lat="45.93297" lon="4.72574">
        <ele>171</ele>
        <time>2018-03-13T11:21:25Z</time>
      </trkpt>
      <trkpt lat="45.93293" lon="4.72578">
        <ele>171</ele>
        <time>2018-03-13T11:21:26Z</time>
      </trkpt>
      <trkpt lat="45.93289" lon="4.72582">
        <ele>171</ele>
        <time>2018-03-13T11:21:27Z</time>
      </trkpt>
      <trkpt lat="45.93285" lon="4.72587">
        <ele>170</ele>
        <time>2018-03-13T11:21:28Z</time>
      </trkpt>
      <trkpt lat="45.93281" lon="4.72592">
        <ele>170</ele>
        <time>2018-03-13T11:21:29Z</time>
      </trkpt>
      <trkpt lat="45.93277" lon="4.72597">
        <ele>170</ele>
        <time>2018-03-13T11:21:30Z</time>
      </trkpt>
      <trkpt lat="45.93273" lon="4.72601">
        <ele>170</ele>
        <time>2018-03-13T11:21:31Z</time>
      </trkpt>
      <trkpt lat="45.93268" lon="4.72604">
        <ele>170</ele>
        <time>2018-03-13T11:21:32Z</time>
      </trkpt>
      <trkpt lat="45.93264" lon="4.7261">
        <ele>170</ele>
        <time>2018-03-13T11:21:33Z</time>
      </trkpt>
      <trkpt lat="45.93261" lon="4.72616">
        <ele>170</ele>
        <time>2018-03-13T11:21:34Z</time>
      </trkpt>
      <trkpt lat="45.93258" lon="4.72623">
        <ele>170</ele>
        <time>2018-03-13T11:21:35Z</time>
      </trkpt>
      <trkpt lat="45.93254" lon="4.72628">
        <ele>170</ele>
        <time>2018-03-13T11:21:36Z</time>
      </trkpt>
      <trkpt lat="45.93249" lon="4.72632">
        <ele>170</ele>
        <time>2018-03-13T11:21:37Z</time>
      </trkpt>
      <trkpt lat="45.93245" lon="4.72637">
        <ele>170</ele>
        <time>2018-03-13T11:21:38Z</time>
      </trkpt>
      <trkpt lat="45.93241" lon="4.72641">
        <ele>170</ele>
        <time>2018-03-13T11:21:39Z</time>
      </trkpt>
      <trkpt lat="45.93235" lon="4.72649">
        <ele>170</ele>
        <time>2018-03-13T11:21:41Z</time>
      </trkpt>
      <trkpt lat="45.93231" lon="4.72655">
        <ele>170</ele>
        <time>2018-03-13T11:21:42Z</time>
      </trkpt>
      <trkpt lat="45.93227" lon="4.72659">
        <ele>170</ele>
        <time>2018-03-13T11:21:43Z</time>
      </trkpt>
      <trkpt lat="45.93223" lon="4.72663">
        <ele>170</ele>
        <time>2018-03-13T11:21:44Z</time>
      </trkpt>
      <trkpt lat="45.93219" lon="4.72667">
        <ele>169</ele>
        <time>2018-03-13T11:21:45Z</time>
      </trkpt>
      <trkpt lat="45.93215" lon="4.72672">
        <ele>169</ele>
        <time>2018-03-13T11:21:46Z</time>
      </trkpt>
      <trkpt lat="45.93212" lon="4.72677">
        <ele>169</ele>
        <time>2018-03-13T11:21:47Z</time>
      </trkpt>
      <trkpt lat="45.93207" lon="4.72683">
        <ele>169</ele>
        <time>2018-03-13T11:21:48Z</time>
      </trkpt>
      <trkpt lat="45.93203" lon="4.72687">
        <ele>169</ele>
        <time>2018-03-13T11:21:49Z</time>
      </trkpt>
      <trkpt lat="45.93198" lon="4.72693">
        <ele>169</ele>
        <time>2018-03-13T11:21:50Z</time>
      </trkpt>
      <trkpt lat="45.93194" lon="4.72697">
        <ele>169</ele>
        <time>2018-03-13T11:21:51Z</time>
      </trkpt>
      <trkpt lat="45.93189" lon="4.72702">
        <ele>169</ele>
        <time>2018-03-13T11:21:52Z</time>
      </trkpt>
      <trkpt lat="45.93185" lon="4.72707">
        <ele>169</ele>
        <time>2018-03-13T11:21:53Z</time>
      </trkpt>
      <trkpt lat="45.9318" lon="4.72712">
        <ele>169</ele>
        <time>2018-03-13T11:21:54Z</time>
      </trkpt>
      <trkpt lat="45.93176" lon="4.72718">
        <ele>170</ele>
        <time>2018-03-13T11:21:55Z</time>
      </trkpt>
      <trkpt lat="45.9317" lon="4.72724">
        <ele>170</ele>
        <time>2018-03-13T11:21:56Z</time>
      </trkpt>
      <trkpt lat="45.93164" lon="4.72728">
        <ele>170</ele>
        <time>2018-03-13T11:21:57Z</time>
      </trkpt>
      <trkpt lat="45.93159" lon="4.72733">
        <ele>170</ele>
        <time>2018-03-13T11:21:58Z</time>
      </trkpt>
      <trkpt lat="45.93155" lon="4.72737">
        <ele>170</ele>
        <time>2018-03-13T11:21:59Z</time>
      </trkpt>
      <trkpt lat="45.93151" lon="4.72742">
        <ele>170</ele>
        <time>2018-03-13T11:22:00Z</time>
      </trkpt>
      <trkpt lat="45.93147" lon="4.72747">
        <ele>170</ele>
        <time>2018-03-13T11:22:01Z</time>
      </trkpt>
      <trkpt lat="45.93143" lon="4.72752">
        <ele>171</ele>
        <time>2018-03-13T11:22:02Z</time>
      </trkpt>
      <trkpt lat="45.93139" lon="4.72758">
        <ele>171</ele>
        <time>2018-03-13T11:22:03Z</time>
      </trkpt>
      <trkpt lat="45.93135" lon="4.72762">
        <ele>171</ele>
        <time>2018-03-13T11:22:04Z</time>
      </trkpt>
      <trkpt lat="45.9313" lon="4.72768">
        <ele>171</ele>
        <time>2018-03-13T11:22:05Z</time>
      </trkpt>
      <trkpt lat="45.93125" lon="4.72775">
        <ele>171</ele>
        <time>2018-03-13T11:22:06Z</time>
      </trkpt>
      <trkpt lat="45.9312" lon="4.7278">
        <ele>171</ele>
        <time>2018-03-13T11:22:07Z</time>
      </trkpt>
      <trkpt lat="45.93116" lon="4.72786">
        <ele>171</ele>
        <time>2018-03-13T11:22:08Z</time>
      </trkpt>
      <trkpt lat="45.93112" lon="4.7279">
        <ele>171</ele>
        <time>2018-03-13T11:22:09Z</time>
      </trkpt>
      <trkpt lat="45.93108" lon="4.72796">
        <ele>171</ele>
        <time>2018-03-13T11:22:10Z</time>
      </trkpt>
      <trkpt lat="45.93104" lon="4.728">
        <ele>171</ele>
        <time>2018-03-13T11:22:11Z</time>
      </trkpt>
      <trkpt lat="45.931" lon="4.72805">
        <ele>171</ele>
        <time>2018-03-13T11:22:12Z</time>
      </trkpt>
      <trkpt lat="45.93096" lon="4.72809">
        <ele>172</ele>
        <time>2018-03-13T11:22:13Z</time>
      </trkpt>
      <trkpt lat="45.93091" lon="4.72813">
        <ele>172</ele>
        <time>2018-03-13T11:22:14Z</time>
      </trkpt>
      <trkpt lat="45.93088" lon="4.72818">
        <ele>172</ele>
        <time>2018-03-13T11:22:15Z</time>
      </trkpt>
      <trkpt lat="45.93084" lon="4.72822">
        <ele>172</ele>
        <time>2018-03-13T11:22:16Z</time>
      </trkpt>
      <trkpt lat="45.93079" lon="4.72828">
        <ele>173</ele>
        <time>2018-03-13T11:22:18Z</time>
      </trkpt>
      <trkpt lat="45.93076" lon="4.72831">
        <ele>173</ele>
        <time>2018-03-13T11:22:19Z</time>
      </trkpt>
      <trkpt lat="45.93061" lon="4.72843">
        <ele>172</ele>
        <time>2018-03-13T11:22:23Z</time>
      </trkpt>
      <trkpt lat="45.93054" lon="4.72855">
        <ele>172</ele>
        <time>2018-03-13T11:22:24Z</time>
      </trkpt>
      <trkpt lat="45.93048" lon="4.72861">
        <ele>172</ele>
        <time>2018-03-13T11:22:25Z</time>
      </trkpt>
      <trkpt lat="45.93042" lon="4.72868">
        <ele>172</ele>
        <time>2018-03-13T11:22:26Z</time>
      </trkpt>
      <trkpt lat="45.93037" lon="4.72873">
        <ele>172</ele>
        <time>2018-03-13T11:22:27Z</time>
      </trkpt>
      <trkpt lat="45.93033" lon="4.72877">
        <ele>172</ele>
        <time>2018-03-13T11:22:28Z</time>
      </trkpt>
      <trkpt lat="45.93028" lon="4.72883">
        <ele>172</ele>
        <time>2018-03-13T11:22:29Z</time>
      </trkpt>
      <trkpt lat="45.93024" lon="4.72889">
        <ele>172</ele>
        <time>2018-03-13T11:22:30Z</time>
      </trkpt>
      <trkpt lat="45.93019" lon="4.72894">
        <ele>172</ele>
        <time>2018-03-13T11:22:31Z</time>
      </trkpt>
      <trkpt lat="45.93015" lon="4.729">
        <ele>172</ele>
        <time>2018-03-13T11:22:32Z</time>
      </trkpt>
      <trkpt lat="45.9301" lon="4.72905">
        <ele>171</ele>
        <time>2018-03-13T11:22:33Z</time>
      </trkpt>
      <trkpt lat="45.93006" lon="4.7291">
        <ele>171</ele>
        <time>2018-03-13T11:22:34Z</time>
      </trkpt>
      <trkpt lat="45.93002" lon="4.72916">
        <ele>171</ele>
        <time>2018-03-13T11:22:35Z</time>
      </trkpt>
      <trkpt lat="45.92998" lon="4.7292">
        <ele>171</ele>
        <time>2018-03-13T11:22:36Z</time>
      </trkpt>
      <trkpt lat="45.92994" lon="4.72925">
        <ele>171</ele>
        <time>2018-03-13T11:22:37Z</time>
      </trkpt>
      <trkpt lat="45.9299" lon="4.72929">
        <ele>171</ele>
        <time>2018-03-13T11:22:38Z</time>
      </trkpt>
      <trkpt lat="45.92987" lon="4.72935">
        <ele>171</ele>
        <time>2018-03-13T11:22:39Z</time>
      </trkpt>
      <trkpt lat="45.92983" lon="4.72938">
        <ele>171</ele>
        <time>2018-03-13T11:22:40Z</time>
      </trkpt>
      <trkpt lat="45.9298" lon="4.72943">
        <ele>171</ele>
        <time>2018-03-13T11:22:41Z</time>
      </trkpt>
      <trkpt lat="45.92977" lon="4.7295">
        <ele>171</ele>
        <time>2018-03-13T11:22:42Z</time>
      </trkpt>
      <trkpt lat="45.92973" lon="4.72955">
        <ele>171</ele>
        <time>2018-03-13T11:22:43Z</time>
      </trkpt>
      <trkpt lat="45.92968" lon="4.72959">
        <ele>171</ele>
        <time>2018-03-13T11:22:44Z</time>
      </trkpt>
      <trkpt lat="45.92964" lon="4.72963">
        <ele>171</ele>
        <time>2018-03-13T11:22:45Z</time>
      </trkpt>
      <trkpt lat="45.92961" lon="4.72969">
        <ele>171</ele>
        <time>2018-03-13T11:22:46Z</time>
      </trkpt>
      <trkpt lat="45.92956" lon="4.72974">
        <ele>171</ele>
        <time>2018-03-13T11:22:47Z</time>
      </trkpt>
      <trkpt lat="45.92952" lon="4.72979">
        <ele>171</ele>
        <time>2018-03-13T11:22:48Z</time>
      </trkpt>
      <trkpt lat="45.92948" lon="4.72982">
        <ele>171</ele>
        <time>2018-03-13T11:22:49Z</time>
      </trkpt>
      <trkpt lat="45.92944" lon="4.72987">
        <ele>171</ele>
        <time>2018-03-13T11:22:50Z</time>
      </trkpt>
      <trkpt lat="45.9294" lon="4.72991">
        <ele>171</ele>
        <time>2018-03-13T11:22:51Z</time>
      </trkpt>
      <trkpt lat="45.92936" lon="4.72996">
        <ele>171</ele>
        <time>2018-03-13T11:22:52Z</time>
      </trkpt>
      <trkpt lat="45.92932" lon="4.73001">
        <ele>172</ele>
        <time>2018-03-13T11:22:53Z</time>
      </trkpt>
      <trkpt lat="45.92928" lon="4.73005">
        <ele>172</ele>
        <time>2018-03-13T11:22:54Z</time>
      </trkpt>
      <trkpt lat="45.92925" lon="4.73009">
        <ele>172</ele>
        <time>2018-03-13T11:22:55Z</time>
      </trkpt>
      <trkpt lat="45.92921" lon="4.73014">
        <ele>172</ele>
        <time>2018-03-13T11:22:56Z</time>
      </trkpt>
      <trkpt lat="45.92915" lon="4.73021">
        <ele>172</ele>
        <time>2018-03-13T11:22:58Z</time>
      </trkpt>
      <trkpt lat="45.92912" lon="4.73025">
        <ele>172</ele>
        <time>2018-03-13T11:22:59Z</time>
      </trkpt>
      <trkpt lat="45.92906" lon="4.73034">
        <ele>172</ele>
        <time>2018-03-13T11:23:01Z</time>
      </trkpt>
      <trkpt lat="45.92904" lon="4.73039">
        <ele>172</ele>
        <time>2018-03-13T11:23:02Z</time>
      </trkpt>
      <trkpt lat="45.92899" lon="4.73044">
        <ele>172</ele>
        <time>2018-03-13T11:23:03Z</time>
      </trkpt>
      <trkpt lat="45.92896" lon="4.73049">
        <ele>172</ele>
        <time>2018-03-13T11:23:04Z</time>
      </trkpt>
      <trkpt lat="45.92891" lon="4.73059">
        <ele>172</ele>
        <time>2018-03-13T11:23:06Z</time>
      </trkpt>
      <trkpt lat="45.92887" lon="4.73064">
        <ele>172</ele>
        <time>2018-03-13T11:23:07Z</time>
      </trkpt>
      <trkpt lat="45.92884" lon="4.73069">
        <ele>172</ele>
        <time>2018-03-13T11:23:08Z</time>
      </trkpt>
      <trkpt lat="45.92881" lon="4.73074">
        <ele>172</ele>
        <time>2018-03-13T11:23:09Z</time>
      </trkpt>
      <trkpt lat="45.92874" lon="4.73081">
        <ele>172</ele>
        <time>2018-03-13T11:23:11Z</time>
      </trkpt>
      <trkpt lat="45.92871" lon="4.73086">
        <ele>172</ele>
        <time>2018-03-13T11:23:12Z</time>
      </trkpt>
      <trkpt lat="45.92868" lon="4.7309">
        <ele>172</ele>
        <time>2018-03-13T11:23:13Z</time>
      </trkpt>
      <trkpt lat="45.92865" lon="4.73096">
        <ele>171</ele>
        <time>2018-03-13T11:23:14Z</time>
      </trkpt>
      <trkpt lat="45.92857" lon="4.73103">
        <ele>171</ele>
        <time>2018-03-13T11:23:16Z</time>
      </trkpt>
      <trkpt lat="45.92854" lon="4.73104">
        <ele>171</ele>
        <time>2018-03-13T11:23:17Z</time>
      </trkpt>
      <trkpt lat="45.92849" lon="4.73097">
        <ele>171</ele>
        <time>2018-03-13T11:23:19Z</time>
      </trkpt>
      <trkpt lat="45.92847" lon="4.73091">
        <ele>171</ele>
        <time>2018-03-13T11:23:20Z</time>
      </trkpt>
      <trkpt lat="45.92846" lon="4.73084">
        <ele>171</ele>
        <time>2018-03-13T11:23:21Z</time>
      </trkpt>
      <trkpt lat="45.92845" lon="4.73077">
        <ele>171</ele>
        <time>2018-03-13T11:23:22Z</time>
      </trkpt>
      <trkpt lat="45.92844" lon="4.7307">
        <ele>171</ele>
        <time>2018-03-13T11:23:23Z</time>
      </trkpt>
      <trkpt lat="45.92843" lon="4.73062">
        <ele>171</ele>
        <time>2018-03-13T11:23:24Z</time>
      </trkpt>
      <trkpt lat="45.9284" lon="4.73055">
        <ele>171</ele>
        <time>2018-03-13T11:23:25Z</time>
      </trkpt>
      <trkpt lat="45.92838" lon="4.73047">
        <ele>171</ele>
        <time>2018-03-13T11:23:26Z</time>
      </trkpt>
      <trkpt lat="45.92837" lon="4.7304">
        <ele>171</ele>
        <time>2018-03-13T11:23:27Z</time>
      </trkpt>
      <trkpt lat="45.92836" lon="4.73032">
        <ele>171</ele>
        <time>2018-03-13T11:23:28Z</time>
      </trkpt>
      <trkpt lat="45.92835" lon="4.73025">
        <ele>171</ele>
        <time>2018-03-13T11:23:29Z</time>
      </trkpt>
      <trkpt lat="45.92834" lon="4.73018">
        <ele>171</ele>
        <time>2018-03-13T11:23:30Z</time>
      </trkpt>
      <trkpt lat="45.92833" lon="4.73005">
        <ele>170</ele>
        <time>2018-03-13T11:23:32Z</time>
      </trkpt>
      <trkpt lat="45.92832" lon="4.72998">
        <ele>170</ele>
        <time>2018-03-13T11:23:33Z</time>
      </trkpt>
      <trkpt lat="45.9283" lon="4.72986">
        <ele>170</ele>
        <time>2018-03-13T11:23:35Z</time>
      </trkpt>
      <trkpt lat="45.92829" lon="4.7298">
        <ele>170</ele>
        <time>2018-03-13T11:23:36Z</time>
      </trkpt>
      <trkpt lat="45.92828" lon="4.72974">
        <ele>170</ele>
        <time>2018-03-13T11:23:37Z</time>
      </trkpt>
      <trkpt lat="45.92828" lon="4.72967">
        <ele>170</ele>
        <time>2018-03-13T11:23:38Z</time>
      </trkpt>
      <trkpt lat="45.92827" lon="4.72955">
        <ele>170</ele>
        <time>2018-03-13T11:23:40Z</time>
      </trkpt>
      <trkpt lat="45.92827" lon="4.72946">
        <ele>170</ele>
        <time>2018-03-13T11:23:41Z</time>
      </trkpt>
      <trkpt lat="45.92827" lon="4.72938">
        <ele>170</ele>
        <time>2018-03-13T11:23:42Z</time>
      </trkpt>
      <trkpt lat="45.92826" lon="4.72931">
        <ele>170</ele>
        <time>2018-03-13T11:23:43Z</time>
      </trkpt>
      <trkpt lat="45.92825" lon="4.72924">
        <ele>170</ele>
        <time>2018-03-13T11:23:44Z</time>
      </trkpt>
      <trkpt lat="45.92824" lon="4.72918">
        <ele>170</ele>
        <time>2018-03-13T11:23:45Z</time>
      </trkpt>
      <trkpt lat="45.92823" lon="4.72906">
        <ele>170</ele>
        <time>2018-03-13T11:23:47Z</time>
      </trkpt>
      <trkpt lat="45.92822" lon="4.729">
        <ele>170</ele>
        <time>2018-03-13T11:23:48Z</time>
      </trkpt>
      <trkpt lat="45.92822" lon="4.72893">
        <ele>170</ele>
        <time>2018-03-13T11:23:49Z</time>
      </trkpt>
      <trkpt lat="45.92821" lon="4.72886">
        <ele>170</ele>
        <time>2018-03-13T11:23:50Z</time>
      </trkpt>
      <trkpt lat="45.9282" lon="4.72879">
        <ele>170</ele>
        <time>2018-03-13T11:23:51Z</time>
      </trkpt>
      <trkpt lat="45.92817" lon="4.72874">
        <ele>170</ele>
        <time>2018-03-13T11:23:52Z</time>
      </trkpt>
      <trkpt lat="45.92816" lon="4.72867">
        <ele>170</ele>
        <time>2018-03-13T11:23:53Z</time>
      </trkpt>
      <trkpt lat="45.92815" lon="4.72861">
        <ele>170</ele>
        <time>2018-03-13T11:23:54Z</time>
      </trkpt>
      <trkpt lat="45.92814" lon="4.72854">
        <ele>170</ele>
        <time>2018-03-13T11:23:55Z</time>
      </trkpt>
      <trkpt lat="45.92812" lon="4.72847">
        <ele>170</ele>
        <time>2018-03-13T11:23:56Z</time>
      </trkpt>
      <trkpt lat="45.9281" lon="4.7284">
        <ele>170</ele>
        <time>2018-03-13T11:23:57Z</time>
      </trkpt>
      <trkpt lat="45.92809" lon="4.72834">
        <ele>170</ele>
        <time>2018-03-13T11:23:58Z</time>
      </trkpt>
      <trkpt lat="45.92808" lon="4.72827">
        <ele>171</ele>
        <time>2018-03-13T11:23:59Z</time>
      </trkpt>
      <trkpt lat="45.92807" lon="4.72821">
        <ele>171</ele>
        <time>2018-03-13T11:24:00Z</time>
      </trkpt>
      <trkpt lat="45.92806" lon="4.72814">
        <ele>171</ele>
        <time>2018-03-13T11:24:01Z</time>
      </trkpt>
      <trkpt lat="45.92805" lon="4.72808">
        <ele>171</ele>
        <time>2018-03-13T11:24:02Z</time>
      </trkpt>
      <trkpt lat="45.92803" lon="4.72796">
        <ele>171</ele>
        <time>2018-03-13T11:24:04Z</time>
      </trkpt>
      <trkpt lat="45.92801" lon="4.72792">
        <ele>171</ele>
        <time>2018-03-13T11:24:05Z</time>
      </trkpt>
      <trkpt lat="45.92794" lon="4.72789">
        <ele>171</ele>
        <time>2018-03-13T11:24:07Z</time>
      </trkpt>
      <trkpt lat="45.92791" lon="4.7279">
        <ele>171</ele>
        <time>2018-03-13T11:24:08Z</time>
      </trkpt>
      <trkpt lat="45.92784" lon="4.72796">
        <ele>170</ele>
        <time>2018-03-13T11:24:10Z</time>
      </trkpt>
      <trkpt lat="45.9278" lon="4.728">
        <ele>170</ele>
        <time>2018-03-13T11:24:11Z</time>
      </trkpt>
      <trkpt lat="45.92775" lon="4.72802">
        <ele>170</ele>
        <time>2018-03-13T11:24:12Z</time>
      </trkpt>
      <trkpt lat="45.92771" lon="4.72804">
        <ele>170</ele>
        <time>2018-03-13T11:24:13Z</time>
      </trkpt>
      <trkpt lat="45.92768" lon="4.72808">
        <ele>170</ele>
        <time>2018-03-13T11:24:14Z</time>
      </trkpt>
      <trkpt lat="45.92763" lon="4.72811">
        <ele>170</ele>
        <time>2018-03-13T11:24:15Z</time>
      </trkpt>
      <trkpt lat="45.92758" lon="4.72815">
        <ele>170</ele>
        <time>2018-03-13T11:24:16Z</time>
      </trkpt>
      <trkpt lat="45.92755" lon="4.72818">
        <ele>170</ele>
        <time>2018-03-13T11:24:17Z</time>
      </trkpt>
      <trkpt lat="45.92747" lon="4.72824">
        <ele>169</ele>
        <time>2018-03-13T11:24:19Z</time>
      </trkpt>
      <trkpt lat="45.92743" lon="4.72828">
        <ele>169</ele>
        <time>2018-03-13T11:24:20Z</time>
      </trkpt>
      <trkpt lat="45.92735" lon="4.72832">
        <ele>169</ele>
        <time>2018-03-13T11:24:22Z</time>
      </trkpt>
      <trkpt lat="45.92731" lon="4.72834">
        <ele>169</ele>
        <time>2018-03-13T11:24:23Z</time>
      </trkpt>
      <trkpt lat="45.92724" lon="4.72841">
        <ele>169</ele>
        <time>2018-03-13T11:24:25Z</time>
      </trkpt>
      <trkpt lat="45.92719" lon="4.72844">
        <ele>169</ele>
        <time>2018-03-13T11:24:26Z</time>
      </trkpt>
      <trkpt lat="45.92715" lon="4.72848">
        <ele>169</ele>
        <time>2018-03-13T11:24:27Z</time>
      </trkpt>
      <trkpt lat="45.92711" lon="4.72851">
        <ele>169</ele>
        <time>2018-03-13T11:24:28Z</time>
      </trkpt>
      <trkpt lat="45.92703" lon="4.72857">
        <ele>169</ele>
        <time>2018-03-13T11:24:30Z</time>
      </trkpt>
      <trkpt lat="45.92699" lon="4.7286">
        <ele>169</ele>
        <time>2018-03-13T11:24:31Z</time>
      </trkpt>
      <trkpt lat="45.92695" lon="4.72864">
        <ele>169</ele>
        <time>2018-03-13T11:24:32Z</time>
      </trkpt>
      <trkpt lat="45.9269" lon="4.72868">
        <ele>169</ele>
        <time>2018-03-13T11:24:33Z</time>
      </trkpt>
      <trkpt lat="45.92685" lon="4.72871">
        <ele>169</ele>
        <time>2018-03-13T11:24:34Z</time>
      </trkpt>
      <trkpt lat="45.92681" lon="4.72875">
        <ele>169</ele>
        <time>2018-03-13T11:24:35Z</time>
      </trkpt>
      <trkpt lat="45.92678" lon="4.72878">
        <ele>170</ele>
        <time>2018-03-13T11:24:36Z</time>
      </trkpt>
      <trkpt lat="45.92673" lon="4.72881">
        <ele>170</ele>
        <time>2018-03-13T11:24:37Z</time>
      </trkpt>
      <trkpt lat="45.92669" lon="4.72885">
        <ele>170</ele>
        <time>2018-03-13T11:24:38Z</time>
      </trkpt>
      <trkpt lat="45.92665" lon="4.72888">
        <ele>169</ele>
        <time>2018-03-13T11:24:39Z</time>
      </trkpt>
      <trkpt lat="45.92661" lon="4.72892">
        <ele>170</ele>
        <time>2018-03-13T11:24:40Z</time>
      </trkpt>
      <trkpt lat="45.92657" lon="4.72896">
        <ele>170</ele>
        <time>2018-03-13T11:24:41Z</time>
      </trkpt>
      <trkpt lat="45.92649" lon="4.72902">
        <ele>170</ele>
        <time>2018-03-13T11:24:43Z</time>
      </trkpt>
      <trkpt lat="45.92644" lon="4.72905">
        <ele>169</ele>
        <time>2018-03-13T11:24:44Z</time>
      </trkpt>
      <trkpt lat="45.92639" lon="4.72909">
        <ele>169</ele>
        <time>2018-03-13T11:24:45Z</time>
      </trkpt>
      <trkpt lat="45.92634" lon="4.72912">
        <ele>169</ele>
        <time>2018-03-13T11:24:46Z</time>
      </trkpt>
      <trkpt lat="45.9263" lon="4.72916">
        <ele>169</ele>
        <time>2018-03-13T11:24:47Z</time>
      </trkpt>
      <trkpt lat="45.92625" lon="4.72919">
        <ele>170</ele>
        <time>2018-03-13T11:24:48Z</time>
      </trkpt>
      <trkpt lat="45.92621" lon="4.72923">
        <ele>169</ele>
        <time>2018-03-13T11:24:49Z</time>
      </trkpt>
      <trkpt lat="45.92617" lon="4.72929">
        <ele>169</ele>
        <time>2018-03-13T11:24:50Z</time>
      </trkpt>
      <trkpt lat="45.92613" lon="4.72932">
        <ele>169</ele>
        <time>2018-03-13T11:24:51Z</time>
      </trkpt>
      <trkpt lat="45.92609" lon="4.72937">
        <ele>169</ele>
        <time>2018-03-13T11:24:52Z</time>
      </trkpt>
      <trkpt lat="45.92604" lon="4.72941">
        <ele>169</ele>
        <time>2018-03-13T11:24:53Z</time>
      </trkpt>
      <trkpt lat="45.926" lon="4.72946">
        <ele>169</ele>
        <time>2018-03-13T11:24:54Z</time>
      </trkpt>
      <trkpt lat="45.92596" lon="4.7295">
        <ele>169</ele>
        <time>2018-03-13T11:24:55Z</time>
      </trkpt>
      <trkpt lat="45.92593" lon="4.72954">
        <ele>169</ele>
        <time>2018-03-13T11:24:56Z</time>
      </trkpt>
      <trkpt lat="45.92588" lon="4.72959">
        <ele>169</ele>
        <time>2018-03-13T11:24:57Z</time>
      </trkpt>
      <trkpt lat="45.92584" lon="4.72962">
        <ele>169</ele>
        <time>2018-03-13T11:24:58Z</time>
      </trkpt>
      <trkpt lat="45.9258" lon="4.72967">
        <ele>169</ele>
        <time>2018-03-13T11:24:59Z</time>
      </trkpt>
      <trkpt lat="45.92576" lon="4.72971">
        <ele>169</ele>
        <time>2018-03-13T11:25:00Z</time>
      </trkpt>
      <trkpt lat="45.92569" lon="4.72979">
        <ele>169</ele>
        <time>2018-03-13T11:25:02Z</time>
      </trkpt>
      <trkpt lat="45.92564" lon="4.72984">
        <ele>169</ele>
        <time>2018-03-13T11:25:03Z</time>
      </trkpt>
      <trkpt lat="45.9256" lon="4.72988">
        <ele>169</ele>
        <time>2018-03-13T11:25:04Z</time>
      </trkpt>
      <trkpt lat="45.92554" lon="4.72994">
        <ele>169</ele>
        <time>2018-03-13T11:25:05Z</time>
      </trkpt>
      <trkpt lat="45.92549" lon="4.72999">
        <ele>169</ele>
        <time>2018-03-13T11:25:06Z</time>
      </trkpt>
      <trkpt lat="45.92544" lon="4.73004">
        <ele>169</ele>
        <time>2018-03-13T11:25:07Z</time>
      </trkpt>
      <trkpt lat="45.92539" lon="4.73008">
        <ele>169</ele>
        <time>2018-03-13T11:25:08Z</time>
      </trkpt>
      <trkpt lat="45.92534" lon="4.73012">
        <ele>169</ele>
        <time>2018-03-13T11:25:09Z</time>
      </trkpt>
      <trkpt lat="45.92529" lon="4.73016">
        <ele>169</ele>
        <time>2018-03-13T11:25:10Z</time>
      </trkpt>
      <trkpt lat="45.92524" lon="4.73019">
        <ele>169</ele>
        <time>2018-03-13T11:25:11Z</time>
      </trkpt>
      <trkpt lat="45.9252" lon="4.73024">
        <ele>169</ele>
        <time>2018-03-13T11:25:12Z</time>
      </trkpt>
      <trkpt lat="45.92515" lon="4.73028">
        <ele>169</ele>
        <time>2018-03-13T11:25:13Z</time>
      </trkpt>
      <trkpt lat="45.92511" lon="4.73032">
        <ele>169</ele>
        <time>2018-03-13T11:25:14Z</time>
      </trkpt>
      <trkpt lat="45.92507" lon="4.73037">
        <ele>169</ele>
        <time>2018-03-13T11:25:15Z</time>
      </trkpt>
      <trkpt lat="45.92503" lon="4.73041">
        <ele>169</ele>
        <time>2018-03-13T11:25:16Z</time>
      </trkpt>
      <trkpt lat="45.92498" lon="4.73046">
        <ele>170</ele>
        <time>2018-03-13T11:25:17Z</time>
      </trkpt>
      <trkpt lat="45.92494" lon="4.73049">
        <ele>170</ele>
        <time>2018-03-13T11:25:18Z</time>
      </trkpt>
      <trkpt lat="45.92488" lon="4.73054">
        <ele>170</ele>
        <time>2018-03-13T11:25:19Z</time>
      </trkpt>
      <trkpt lat="45.92483" lon="4.73058">
        <ele>170</ele>
        <time>2018-03-13T11:25:20Z</time>
      </trkpt>
      <trkpt lat="45.92479" lon="4.73063">
        <ele>170</ele>
        <time>2018-03-13T11:25:21Z</time>
      </trkpt>
      <trkpt lat="45.92473" lon="4.73067">
        <ele>170</ele>
        <time>2018-03-13T11:25:22Z</time>
      </trkpt>
      <trkpt lat="45.92468" lon="4.73072">
        <ele>170</ele>
        <time>2018-03-13T11:25:23Z</time>
      </trkpt>
      <trkpt lat="45.92462" lon="4.73076">
        <ele>170</ele>
        <time>2018-03-13T11:25:24Z</time>
      </trkpt>
      <trkpt lat="45.92457" lon="4.7308">
        <ele>170</ele>
        <time>2018-03-13T11:25:25Z</time>
      </trkpt>
      <trkpt lat="45.92452" lon="4.73085">
        <ele>170</ele>
        <time>2018-03-13T11:25:26Z</time>
      </trkpt>
      <trkpt lat="45.92448" lon="4.73089">
        <ele>170</ele>
        <time>2018-03-13T11:25:27Z</time>
      </trkpt>
      <trkpt lat="45.92444" lon="4.73092">
        <ele>170</ele>
        <time>2018-03-13T11:25:28Z</time>
      </trkpt>
      <trkpt lat="45.92439" lon="4.73096">
        <ele>170</ele>
        <time>2018-03-13T11:25:29Z</time>
      </trkpt>
      <trkpt lat="45.92435" lon="4.73099">
        <ele>171</ele>
        <time>2018-03-13T11:25:30Z</time>
      </trkpt>
      <trkpt lat="45.92431" lon="4.73104">
        <ele>171</ele>
        <time>2018-03-13T11:25:31Z</time>
      </trkpt>
      <trkpt lat="45.92422" lon="4.73109">
        <ele>170</ele>
        <time>2018-03-13T11:25:33Z</time>
      </trkpt>
      <trkpt lat="45.92419" lon="4.73111">
        <ele>170</ele>
        <time>2018-03-13T11:25:34Z</time>
      </trkpt>
      <trkpt lat="45.92416" lon="4.73117">
        <ele>171</ele>
        <time>2018-03-13T11:25:35Z</time>
      </trkpt>
      <trkpt lat="45.92412" lon="4.73123">
        <ele>171</ele>
        <time>2018-03-13T11:25:36Z</time>
      </trkpt>
      <trkpt lat="45.92409" lon="4.7313">
        <ele>171</ele>
        <time>2018-03-13T11:25:37Z</time>
      </trkpt>
      <trkpt lat="45.92408" lon="4.73137">
        <ele>171</ele>
        <time>2018-03-13T11:25:38Z</time>
      </trkpt>
      <trkpt lat="45.92408" lon="4.73143">
        <ele>171</ele>
        <time>2018-03-13T11:25:39Z</time>
      </trkpt>
      <trkpt lat="45.92408" lon="4.7315">
        <ele>171</ele>
        <time>2018-03-13T11:25:40Z</time>
      </trkpt>
      <trkpt lat="45.92407" lon="4.73157">
        <ele>170</ele>
        <time>2018-03-13T11:25:41Z</time>
      </trkpt>
      <trkpt lat="45.92407" lon="4.73164">
        <ele>170</ele>
        <time>2018-03-13T11:25:42Z</time>
      </trkpt>
      <trkpt lat="45.92408" lon="4.73172">
        <ele>170</ele>
        <time>2018-03-13T11:25:43Z</time>
      </trkpt>
      <trkpt lat="45.92408" lon="4.73179">
        <ele>171</ele>
        <time>2018-03-13T11:25:44Z</time>
      </trkpt>
      <trkpt lat="45.92408" lon="4.73186">
        <ele>171</ele>
        <time>2018-03-13T11:25:45Z</time>
      </trkpt>
      <trkpt lat="45.92408" lon="4.73193">
        <ele>171</ele>
        <time>2018-03-13T11:25:46Z</time>
      </trkpt>
      <trkpt lat="45.92408" lon="4.73201">
        <ele>171</ele>
        <time>2018-03-13T11:25:47Z</time>
      </trkpt>
      <trkpt lat="45.92408" lon="4.73208">
        <ele>171</ele>
        <time>2018-03-13T11:25:48Z</time>
      </trkpt>
      <trkpt lat="45.92407" lon="4.73215">
        <ele>171</ele>
        <time>2018-03-13T11:25:49Z</time>
      </trkpt>
      <trkpt lat="45.92407" lon="4.73222">
        <ele>171</ele>
        <time>2018-03-13T11:25:50Z</time>
      </trkpt>
      <trkpt lat="45.92407" lon="4.73229">
        <ele>171</ele>
        <time>2018-03-13T11:25:51Z</time>
      </trkpt>
      <trkpt lat="45.92407" lon="4.73236">
        <ele>171</ele>
        <time>2018-03-13T11:25:52Z</time>
      </trkpt>
      <trkpt lat="45.92407" lon="4.73248">
        <ele>171</ele>
        <time>2018-03-13T11:25:54Z</time>
      </trkpt>
      <trkpt lat="45.92407" lon="4.73253">
        <ele>171</ele>
        <time>2018-03-13T11:25:55Z</time>
      </trkpt>
      <trkpt lat="45.92409" lon="4.73265">
        <ele>171</ele>
        <time>2018-03-13T11:25:57Z</time>
      </trkpt>
      <trkpt lat="45.92409" lon="4.73271">
        <ele>171</ele>
        <time>2018-03-13T11:25:58Z</time>
      </trkpt>
      <trkpt lat="45.92409" lon="4.73284">
        <ele>171</ele>
        <time>2018-03-13T11:26:00Z</time>
      </trkpt>
      <trkpt lat="45.9241" lon="4.73291">
        <ele>171</ele>
        <time>2018-03-13T11:26:01Z</time>
      </trkpt>
      <trkpt lat="45.9241" lon="4.73297">
        <ele>171</ele>
        <time>2018-03-13T11:26:02Z</time>
      </trkpt>
      <trkpt lat="45.92411" lon="4.73305">
        <ele>171</ele>
        <time>2018-03-13T11:26:03Z</time>
      </trkpt>
      <trkpt lat="45.92412" lon="4.73312">
        <ele>171</ele>
        <time>2018-03-13T11:26:04Z</time>
      </trkpt>
      <trkpt lat="45.92413" lon="4.73318">
        <ele>171</ele>
        <time>2018-03-13T11:26:05Z</time>
      </trkpt>
      <trkpt lat="45.92413" lon="4.73325">
        <ele>171</ele>
        <time>2018-03-13T11:26:06Z</time>
      </trkpt>
      <trkpt lat="45.92414" lon="4.73331">
        <ele>171</ele>
        <time>2018-03-13T11:26:07Z</time>
      </trkpt>
      <trkpt lat="45.92414" lon="4.73339">
        <ele>171</ele>
        <time>2018-03-13T11:26:08Z</time>
      </trkpt>
      <trkpt lat="45.92415" lon="4.73345">
        <ele>171</ele>
        <time>2018-03-13T11:26:09Z</time>
      </trkpt>
      <trkpt lat="45.92417" lon="4.73357">
        <ele>171</ele>
        <time>2018-03-13T11:26:11Z</time>
      </trkpt>
      <trkpt lat="45.92418" lon="4.73363">
        <ele>172</ele>
        <time>2018-03-13T11:26:12Z</time>
      </trkpt>
      <trkpt lat="45.9242" lon="4.7337">
        <ele>172</ele>
        <time>2018-03-13T11:26:13Z</time>
      </trkpt>
      <trkpt lat="45.9242" lon="4.73377">
        <ele>172</ele>
        <time>2018-03-13T11:26:14Z</time>
      </trkpt>
      <trkpt lat="45.92421" lon="4.73384">
        <ele>172</ele>
        <time>2018-03-13T11:26:15Z</time>
      </trkpt>
      <trkpt lat="45.92424" lon="4.7339">
        <ele>172</ele>
        <time>2018-03-13T11:26:16Z</time>
      </trkpt>
      <trkpt lat="45.92426" lon="4.73397">
        <ele>172</ele>
        <time>2018-03-13T11:26:17Z</time>
      </trkpt>
      <trkpt lat="45.92427" lon="4.73404">
        <ele>172</ele>
        <time>2018-03-13T11:26:18Z</time>
      </trkpt>
      <trkpt lat="45.9243" lon="4.73409">
        <ele>172</ele>
        <time>2018-03-13T11:26:19Z</time>
      </trkpt>
      <trkpt lat="45.92434" lon="4.73414">
        <ele>172</ele>
        <time>2018-03-13T11:26:20Z</time>
      </trkpt>
      <trkpt lat="45.92442" lon="4.7342">
        <ele>173</ele>
        <time>2018-03-13T11:26:22Z</time>
      </trkpt>
      <trkpt lat="45.92446" lon="4.73423">
        <ele>173</ele>
        <time>2018-03-13T11:26:23Z</time>
      </trkpt>
      <trkpt lat="45.9245" lon="4.73426">
        <ele>173</ele>
        <time>2018-03-13T11:26:24Z</time>
      </trkpt>
      <trkpt lat="45.92455" lon="4.73429">
        <ele>173</ele>
        <time>2018-03-13T11:26:25Z</time>
      </trkpt>
      <trkpt lat="45.92459" lon="4.73433">
        <ele>173</ele>
        <time>2018-03-13T11:26:26Z</time>
      </trkpt>
      <trkpt lat="45.92462" lon="4.73439">
        <ele>173</ele>
        <time>2018-03-13T11:26:27Z</time>
      </trkpt>
      <trkpt lat="45.92465" lon="4.73445">
        <ele>173</ele>
        <time>2018-03-13T11:26:28Z</time>
      </trkpt>
      <trkpt lat="45.92466" lon="4.73452">
        <ele>173</ele>
        <time>2018-03-13T11:26:29Z</time>
      </trkpt>
      <trkpt lat="45.92467" lon="4.73459">
        <ele>173</ele>
        <time>2018-03-13T11:26:30Z</time>
      </trkpt>
      <trkpt lat="45.92467" lon="4.73466">
        <ele>173</ele>
        <time>2018-03-13T11:26:31Z</time>
      </trkpt>
      <trkpt lat="45.92467" lon="4.73474">
        <ele>173</ele>
        <time>2018-03-13T11:26:32Z</time>
      </trkpt>
      <trkpt lat="45.92467" lon="4.73481">
        <ele>173</ele>
        <time>2018-03-13T11:26:33Z</time>
      </trkpt>
      <trkpt lat="45.92467" lon="4.73493">
        <ele>173</ele>
        <time>2018-03-13T11:26:35Z</time>
      </trkpt>
      <trkpt lat="45.92467" lon="4.73499">
        <ele>173</ele>
        <time>2018-03-13T11:26:36Z</time>
      </trkpt>
      <trkpt lat="45.92467" lon="4.73512">
        <ele>174</ele>
        <time>2018-03-13T11:26:38Z</time>
      </trkpt>
      <trkpt lat="45.92467" lon="4.73518">
        <ele>174</ele>
        <time>2018-03-13T11:26:39Z</time>
      </trkpt>
      <trkpt lat="45.92465" lon="4.73528">
        <ele>174</ele>
        <time>2018-03-13T11:26:41Z</time>
      </trkpt>
      <trkpt lat="45.92465" lon="4.73532">
        <ele>174</ele>
        <time>2018-03-13T11:26:42Z</time>
      </trkpt>
      <trkpt lat="45.92465" lon="4.73539">
        <ele>174</ele>
        <time>2018-03-13T11:26:44Z</time>
      </trkpt>
      <trkpt lat="45.92465" lon="4.7355">
        <ele>173</ele>
        <time>2018-03-13T11:26:45Z</time>
      </trkpt>
      <trkpt lat="45.92464" lon="4.73562">
        <ele>173</ele>
        <time>2018-03-13T11:26:47Z</time>
      </trkpt>
      <trkpt lat="45.92464" lon="4.73569">
        <ele>173</ele>
        <time>2018-03-13T11:26:48Z</time>
      </trkpt>
      <trkpt lat="45.92464" lon="4.73575">
        <ele>173</ele>
        <time>2018-03-13T11:26:49Z</time>
      </trkpt>
      <trkpt lat="45.92464" lon="4.73582">
        <ele>173</ele>
        <time>2018-03-13T11:26:50Z</time>
      </trkpt>
      <trkpt lat="45.92465" lon="4.7359">
        <ele>174</ele>
        <time>2018-03-13T11:26:51Z</time>
      </trkpt>
      <trkpt lat="45.92465" lon="4.73597">
        <ele>174</ele>
        <time>2018-03-13T11:26:52Z</time>
      </trkpt>
      <trkpt lat="45.92465" lon="4.73605">
        <ele>174</ele>
        <time>2018-03-13T11:26:53Z</time>
      </trkpt>
      <trkpt lat="45.92466" lon="4.73612">
        <ele>174</ele>
        <time>2018-03-13T11:26:54Z</time>
      </trkpt>
      <trkpt lat="45.92467" lon="4.7362">
        <ele>174</ele>
        <time>2018-03-13T11:26:55Z</time>
      </trkpt>
      <trkpt lat="45.92467" lon="4.73626">
        <ele>174</ele>
        <time>2018-03-13T11:26:56Z</time>
      </trkpt>
      <trkpt lat="45.92468" lon="4.73634">
        <ele>174</ele>
        <time>2018-03-13T11:26:57Z</time>
      </trkpt>
      <trkpt lat="45.92468" lon="4.7364">
        <ele>174</ele>
        <time>2018-03-13T11:26:58Z</time>
      </trkpt>
      <trkpt lat="45.92469" lon="4.73652">
        <ele>174</ele>
        <time>2018-03-13T11:27:00Z</time>
      </trkpt>
      <trkpt lat="45.92468" lon="4.73658">
        <ele>174</ele>
        <time>2018-03-13T11:27:01Z</time>
      </trkpt>
      <trkpt lat="45.92467" lon="4.7367">
        <ele>174</ele>
        <time>2018-03-13T11:27:03Z</time>
      </trkpt>
      <trkpt lat="45.92466" lon="4.73676">
        <ele>174</ele>
        <time>2018-03-13T11:27:04Z</time>
      </trkpt>
      <trkpt lat="45.92465" lon="4.73688">
        <ele>174</ele>
        <time>2018-03-13T11:27:06Z</time>
      </trkpt>
      <trkpt lat="45.92464" lon="4.73694">
        <ele>174</ele>
        <time>2018-03-13T11:27:07Z</time>
      </trkpt>
      <trkpt lat="45.92463" lon="4.73705">
        <ele>174</ele>
        <time>2018-03-13T11:27:11Z</time>
      </trkpt>
      <trkpt lat="45.92462" lon="4.73707">
        <ele>174</ele>
        <time>2018-03-13T11:27:12Z</time>
      </trkpt>
      <trkpt lat="45.92461" lon="4.73712">
        <ele>174</ele>
        <time>2018-03-13T11:27:53.782Z</time>
      </trkpt>
    </trkseg>
  </trk>
</gpx>